<?xml version="1.0" encoding="UTF-8" standalone="no" ?>
<gpx xmlns="http://www.topografix.com/GPX/1/1" xmlns:xsi="http://www.w3.org/2001/XMLSchema-instance" xsi:schemaLocation="http://www.topografix.com/GPX/1/1 http://www.topografix.com/GPX/1/1/gpx.xsd" version="1.1" creator="VisuGPX - https://www.visugpx.com">
  <metadata>
    <name>Malijai vincent,maurice, Thierry, Christian </name>
    <desc><![CDATA[Recorded with GPX Recorder for Android]]></desc>
  </metadata>
  <trk>
    <name><![CDATA[Malijai vincent,maurice, Thierry, Christian _1]]></name>
    <trkseg>
      <trkpt lat="44.04341" lon="6.0298">
        <ele>479</ele>
        <time>2024-02-01T09:36:36Z</time>
      </trkpt>
      <trkpt lat="44.04328" lon="6.02995">
        <ele>484</ele>
        <time>2024-02-01T09:36:42Z</time>
      </trkpt>
      <trkpt lat="44.04312" lon="6.02999">
        <ele>479</ele>
        <time>2024-02-01T09:36:48Z</time>
      </trkpt>
      <trkpt lat="44.04303" lon="6.02998">
        <ele>485</ele>
        <time>2024-02-01T09:36:52Z</time>
      </trkpt>
      <trkpt lat="44.04296" lon="6.02995">
        <ele>485</ele>
        <time>2024-02-01T09:36:56Z</time>
      </trkpt>
      <trkpt lat="44.04293" lon="6.02997">
        <ele>485</ele>
        <time>2024-02-01T09:36:59Z</time>
      </trkpt>
      <trkpt lat="44.04289" lon="6.03014">
        <ele>485</ele>
        <time>2024-02-01T09:37:04Z</time>
      </trkpt>
      <trkpt lat="44.04282" lon="6.03021">
        <ele>485</ele>
        <time>2024-02-01T09:37:10Z</time>
      </trkpt>
      <trkpt lat="44.04273" lon="6.03036">
        <ele>485</ele>
        <time>2024-02-01T09:37:13Z</time>
      </trkpt>
      <trkpt lat="44.04266" lon="6.03047">
        <ele>485</ele>
        <time>2024-02-01T09:37:17Z</time>
      </trkpt>
      <trkpt lat="44.04258" lon="6.03072">
        <ele>489</ele>
        <time>2024-02-01T09:37:20Z</time>
      </trkpt>
      <trkpt lat="44.04252" lon="6.03089">
        <ele>488</ele>
        <time>2024-02-01T09:37:23Z</time>
      </trkpt>
      <trkpt lat="44.04248" lon="6.03094">
        <ele>488</ele>
        <time>2024-02-01T09:37:26Z</time>
      </trkpt>
      <trkpt lat="44.04241" lon="6.03103">
        <ele>488</ele>
        <time>2024-02-01T09:37:30Z</time>
      </trkpt>
      <trkpt lat="44.04235" lon="6.03108">
        <ele>490</ele>
        <time>2024-02-01T09:37:33Z</time>
      </trkpt>
      <trkpt lat="44.04228" lon="6.03114">
        <ele>490</ele>
        <time>2024-02-01T09:37:36Z</time>
      </trkpt>
      <trkpt lat="44.04229" lon="6.03127">
        <ele>490</ele>
        <time>2024-02-01T09:37:39Z</time>
      </trkpt>
      <trkpt lat="44.04231" lon="6.03137">
        <ele>490</ele>
        <time>2024-02-01T09:37:41Z</time>
      </trkpt>
      <trkpt lat="44.04231" lon="6.03146">
        <ele>492</ele>
        <time>2024-02-01T09:37:44Z</time>
      </trkpt>
      <trkpt lat="44.04229" lon="6.03162">
        <ele>492</ele>
        <time>2024-02-01T09:37:48Z</time>
      </trkpt>
      <trkpt lat="44.04226" lon="6.03175">
        <ele>492</ele>
        <time>2024-02-01T09:37:52Z</time>
      </trkpt>
      <trkpt lat="44.04222" lon="6.03188">
        <ele>493</ele>
        <time>2024-02-01T09:37:54Z</time>
      </trkpt>
      <trkpt lat="44.04221" lon="6.03191">
        <ele>493</ele>
        <time>2024-02-01T09:37:57Z</time>
      </trkpt>
      <trkpt lat="44.04211" lon="6.03219">
        <ele>494</ele>
        <time>2024-02-01T09:38:03Z</time>
      </trkpt>
      <trkpt lat="44.04202" lon="6.03229">
        <ele>494</ele>
        <time>2024-02-01T09:38:06Z</time>
      </trkpt>
      <trkpt lat="44.04194" lon="6.03243">
        <ele>495</ele>
        <time>2024-02-01T09:38:11Z</time>
      </trkpt>
      <trkpt lat="44.04189" lon="6.03249">
        <ele>479</ele>
        <time>2024-02-01T09:38:13Z</time>
      </trkpt>
      <trkpt lat="44.04184" lon="6.03258">
        <ele>479</ele>
        <time>2024-02-01T09:38:16Z</time>
      </trkpt>
      <trkpt lat="44.04179" lon="6.03261">
        <ele>496</ele>
        <time>2024-02-01T09:38:22Z</time>
      </trkpt>
      <trkpt lat="44.04182" lon="6.0328">
        <ele>497</ele>
        <time>2024-02-01T09:38:26Z</time>
      </trkpt>
      <trkpt lat="44.04185" lon="6.03297">
        <ele>497</ele>
        <time>2024-02-01T09:38:29Z</time>
      </trkpt>
      <trkpt lat="44.04191" lon="6.0331">
        <ele>497</ele>
        <time>2024-02-01T09:38:32Z</time>
      </trkpt>
      <trkpt lat="44.04194" lon="6.03323">
        <ele>498</ele>
        <time>2024-02-01T09:38:35Z</time>
      </trkpt>
      <trkpt lat="44.04191" lon="6.03352">
        <ele>479</ele>
        <time>2024-02-01T09:38:41Z</time>
      </trkpt>
      <trkpt lat="44.0419" lon="6.03357">
        <ele>500</ele>
        <time>2024-02-01T09:38:46Z</time>
      </trkpt>
      <trkpt lat="44.04188" lon="6.0336">
        <ele>501</ele>
        <time>2024-02-01T09:38:50Z</time>
      </trkpt>
      <trkpt lat="44.04185" lon="6.03379">
        <ele>501</ele>
        <time>2024-02-01T09:38:53Z</time>
      </trkpt>
      <trkpt lat="44.04184" lon="6.03385">
        <ele>502</ele>
        <time>2024-02-01T09:38:56Z</time>
      </trkpt>
      <trkpt lat="44.04183" lon="6.03398">
        <ele>502</ele>
        <time>2024-02-01T09:38:59Z</time>
      </trkpt>
      <trkpt lat="44.04181" lon="6.03408">
        <ele>501</ele>
        <time>2024-02-01T09:39:02Z</time>
      </trkpt>
      <trkpt lat="44.04176" lon="6.03422">
        <ele>502</ele>
        <time>2024-02-01T09:39:06Z</time>
      </trkpt>
      <trkpt lat="44.04177" lon="6.03439">
        <ele>502</ele>
        <time>2024-02-01T09:39:11Z</time>
      </trkpt>
      <trkpt lat="44.04179" lon="6.03451">
        <ele>503</ele>
        <time>2024-02-01T09:39:16Z</time>
      </trkpt>
      <trkpt lat="44.04178" lon="6.0348">
        <ele>504</ele>
        <time>2024-02-01T09:39:23Z</time>
      </trkpt>
      <trkpt lat="44.04178" lon="6.03492">
        <ele>484</ele>
        <time>2024-02-01T09:39:29Z</time>
      </trkpt>
      <trkpt lat="44.04179" lon="6.03516">
        <ele>506</ele>
        <time>2024-02-01T09:39:35Z</time>
      </trkpt>
      <trkpt lat="44.04179" lon="6.03544">
        <ele>507</ele>
        <time>2024-02-01T09:39:41Z</time>
      </trkpt>
      <trkpt lat="44.04171" lon="6.03558">
        <ele>507</ele>
        <time>2024-02-01T09:39:43Z</time>
      </trkpt>
      <trkpt lat="44.04163" lon="6.03576">
        <ele>508</ele>
        <time>2024-02-01T09:39:47Z</time>
      </trkpt>
      <trkpt lat="44.04161" lon="6.03585">
        <ele>484</ele>
        <time>2024-02-01T09:39:49Z</time>
      </trkpt>
      <trkpt lat="44.04162" lon="6.03596">
        <ele>484</ele>
        <time>2024-02-01T09:39:52Z</time>
      </trkpt>
      <trkpt lat="44.04164" lon="6.03606">
        <ele>509</ele>
        <time>2024-02-01T09:39:55Z</time>
      </trkpt>
      <trkpt lat="44.04165" lon="6.03617">
        <ele>509</ele>
        <time>2024-02-01T09:39:58Z</time>
      </trkpt>
      <trkpt lat="44.04169" lon="6.03622">
        <ele>509</ele>
        <time>2024-02-01T09:40:01Z</time>
      </trkpt>
      <trkpt lat="44.04179" lon="6.03628">
        <ele>509</ele>
        <time>2024-02-01T09:40:05Z</time>
      </trkpt>
      <trkpt lat="44.04175" lon="6.03636">
        <ele>510</ele>
        <time>2024-02-01T09:40:11Z</time>
      </trkpt>
      <trkpt lat="44.0418" lon="6.03665">
        <ele>510</ele>
        <time>2024-02-01T09:40:17Z</time>
      </trkpt>
      <trkpt lat="44.04175" lon="6.0368">
        <ele>511</ele>
        <time>2024-02-01T09:40:23Z</time>
      </trkpt>
      <trkpt lat="44.04173" lon="6.0371">
        <ele>512</ele>
        <time>2024-02-01T09:40:29Z</time>
      </trkpt>
      <trkpt lat="44.04171" lon="6.03716">
        <ele>513</ele>
        <time>2024-02-01T09:40:34Z</time>
      </trkpt>
      <trkpt lat="44.0417" lon="6.03723">
        <ele>484</ele>
        <time>2024-02-01T09:40:37Z</time>
      </trkpt>
      <trkpt lat="44.0416" lon="6.03739">
        <ele>484</ele>
        <time>2024-02-01T09:40:41Z</time>
      </trkpt>
      <trkpt lat="44.04151" lon="6.03751">
        <ele>515</ele>
        <time>2024-02-01T09:40:46Z</time>
      </trkpt>
      <trkpt lat="44.0415" lon="6.03771">
        <ele>515</ele>
        <time>2024-02-01T09:40:53Z</time>
      </trkpt>
      <trkpt lat="44.04152" lon="6.03793">
        <ele>516</ele>
        <time>2024-02-01T09:40:59Z</time>
      </trkpt>
      <trkpt lat="44.04153" lon="6.03807">
        <ele>516</ele>
        <time>2024-02-01T09:41:01Z</time>
      </trkpt>
      <trkpt lat="44.04149" lon="6.03824">
        <ele>516</ele>
        <time>2024-02-01T09:41:05Z</time>
      </trkpt>
      <trkpt lat="44.04145" lon="6.03835">
        <ele>479</ele>
        <time>2024-02-01T09:41:08Z</time>
      </trkpt>
      <trkpt lat="44.04144" lon="6.03844">
        <ele>479</ele>
        <time>2024-02-01T09:41:10Z</time>
      </trkpt>
      <trkpt lat="44.0414" lon="6.03851">
        <ele>517</ele>
        <time>2024-02-01T09:41:13Z</time>
      </trkpt>
      <trkpt lat="44.04139" lon="6.03862">
        <ele>518</ele>
        <time>2024-02-01T09:41:16Z</time>
      </trkpt>
      <trkpt lat="44.04138" lon="6.03883">
        <ele>512</ele>
        <time>2024-02-01T09:41:22Z</time>
      </trkpt>
      <trkpt lat="44.04135" lon="6.03892">
        <ele>519</ele>
        <time>2024-02-01T09:41:28Z</time>
      </trkpt>
      <trkpt lat="44.04131" lon="6.03907">
        <ele>520</ele>
        <time>2024-02-01T09:41:31Z</time>
      </trkpt>
      <trkpt lat="44.04125" lon="6.03923">
        <ele>520</ele>
        <time>2024-02-01T09:41:35Z</time>
      </trkpt>
      <trkpt lat="44.04121" lon="6.03933">
        <ele>521</ele>
        <time>2024-02-01T09:41:41Z</time>
      </trkpt>
      <trkpt lat="44.04115" lon="6.03955">
        <ele>521</ele>
        <time>2024-02-01T09:41:44Z</time>
      </trkpt>
      <trkpt lat="44.04112" lon="6.03968">
        <ele>521</ele>
        <time>2024-02-01T09:41:47Z</time>
      </trkpt>
      <trkpt lat="44.04111" lon="6.03979">
        <ele>490</ele>
        <time>2024-02-01T09:41:49Z</time>
      </trkpt>
      <trkpt lat="44.04111" lon="6.03992">
        <ele>490</ele>
        <time>2024-02-01T09:41:53Z</time>
      </trkpt>
      <trkpt lat="44.04115" lon="6.04">
        <ele>523</ele>
        <time>2024-02-01T09:41:59Z</time>
      </trkpt>
      <trkpt lat="44.04117" lon="6.0403">
        <ele>522</ele>
        <time>2024-02-01T09:42:05Z</time>
      </trkpt>
      <trkpt lat="44.04113" lon="6.04039">
        <ele>526</ele>
        <time>2024-02-01T09:42:10Z</time>
      </trkpt>
      <trkpt lat="44.04109" lon="6.04058">
        <ele>525</ele>
        <time>2024-02-01T09:42:13Z</time>
      </trkpt>
      <trkpt lat="44.04105" lon="6.04072">
        <ele>527</ele>
        <time>2024-02-01T09:42:17Z</time>
      </trkpt>
      <trkpt lat="44.04098" lon="6.04081">
        <ele>521</ele>
        <time>2024-02-01T09:42:20Z</time>
      </trkpt>
      <trkpt lat="44.0409" lon="6.04085">
        <ele>527</ele>
        <time>2024-02-01T09:42:23Z</time>
      </trkpt>
      <trkpt lat="44.04088" lon="6.04088">
        <ele>528</ele>
        <time>2024-02-01T09:42:26Z</time>
      </trkpt>
      <trkpt lat="44.04086" lon="6.04085">
        <ele>528</ele>
        <time>2024-02-01T09:42:29Z</time>
      </trkpt>
      <trkpt lat="44.04071" lon="6.04095">
        <ele>529</ele>
        <time>2024-02-01T09:42:32Z</time>
      </trkpt>
      <trkpt lat="44.0406" lon="6.0409">
        <ele>529</ele>
        <time>2024-02-01T09:42:35Z</time>
      </trkpt>
      <trkpt lat="44.04054" lon="6.04089">
        <ele>530</ele>
        <time>2024-02-01T09:42:38Z</time>
      </trkpt>
      <trkpt lat="44.04041" lon="6.04085">
        <ele>530</ele>
        <time>2024-02-01T09:42:42Z</time>
      </trkpt>
      <trkpt lat="44.04037" lon="6.04083">
        <ele>531</ele>
        <time>2024-02-01T09:42:45Z</time>
      </trkpt>
      <trkpt lat="44.04023" lon="6.04079">
        <ele>531</ele>
        <time>2024-02-01T09:42:48Z</time>
      </trkpt>
      <trkpt lat="44.04016" lon="6.04078">
        <ele>532</ele>
        <time>2024-02-01T09:42:51Z</time>
      </trkpt>
      <trkpt lat="44.04008" lon="6.04077">
        <ele>532</ele>
        <time>2024-02-01T09:42:54Z</time>
      </trkpt>
      <trkpt lat="44.04002" lon="6.04077">
        <ele>533</ele>
        <time>2024-02-01T09:42:57Z</time>
      </trkpt>
      <trkpt lat="44.03994" lon="6.04075">
        <ele>533</ele>
        <time>2024-02-01T09:42:59Z</time>
      </trkpt>
      <trkpt lat="44.03989" lon="6.04079">
        <ele>533</ele>
        <time>2024-02-01T09:43:02Z</time>
      </trkpt>
      <trkpt lat="44.03979" lon="6.04079">
        <ele>533</ele>
        <time>2024-02-01T09:43:05Z</time>
      </trkpt>
      <trkpt lat="44.03987" lon="6.04063">
        <ele>533</ele>
        <time>2024-02-01T09:43:08Z</time>
      </trkpt>
      <trkpt lat="44.03994" lon="6.04055">
        <ele>533</ele>
        <time>2024-02-01T09:43:11Z</time>
      </trkpt>
      <trkpt lat="44.04004" lon="6.04063">
        <ele>533</ele>
        <time>2024-02-01T09:43:14Z</time>
      </trkpt>
      <trkpt lat="44.04012" lon="6.04067">
        <ele>533</ele>
        <time>2024-02-01T09:43:18Z</time>
      </trkpt>
      <trkpt lat="44.04013" lon="6.04069">
        <ele>535</ele>
        <time>2024-02-01T09:43:20Z</time>
      </trkpt>
      <trkpt lat="44.0402" lon="6.04072">
        <ele>533</ele>
        <time>2024-02-01T09:43:24Z</time>
      </trkpt>
      <trkpt lat="44.04026" lon="6.04069">
        <ele>539</ele>
        <time>2024-02-01T09:43:29Z</time>
      </trkpt>
      <trkpt lat="44.04032" lon="6.04068">
        <ele>491</ele>
        <time>2024-02-01T09:43:37Z</time>
      </trkpt>
      <trkpt lat="44.04041" lon="6.04068">
        <ele>491</ele>
        <time>2024-02-01T09:43:40Z</time>
      </trkpt>
      <trkpt lat="44.04048" lon="6.04066">
        <ele>540</ele>
        <time>2024-02-01T09:43:47Z</time>
      </trkpt>
      <trkpt lat="44.04055" lon="6.04062">
        <ele>538</ele>
        <time>2024-02-01T09:43:49Z</time>
      </trkpt>
      <trkpt lat="44.04062" lon="6.04057">
        <ele>539</ele>
        <time>2024-02-01T09:43:53Z</time>
      </trkpt>
      <trkpt lat="44.04068" lon="6.04052">
        <ele>542</ele>
        <time>2024-02-01T09:43:56Z</time>
      </trkpt>
      <trkpt lat="44.04071" lon="6.04043">
        <ele>542</ele>
        <time>2024-02-01T09:44:00Z</time>
      </trkpt>
      <trkpt lat="44.04076" lon="6.04039">
        <ele>545</ele>
        <time>2024-02-01T09:44:03Z</time>
      </trkpt>
      <trkpt lat="44.04076" lon="6.04033">
        <ele>545</ele>
        <time>2024-02-01T09:44:06Z</time>
      </trkpt>
      <trkpt lat="44.04079" lon="6.0402">
        <ele>491</ele>
        <time>2024-02-01T09:44:11Z</time>
      </trkpt>
      <trkpt lat="44.04081" lon="6.04013">
        <ele>542</ele>
        <time>2024-02-01T09:44:17Z</time>
      </trkpt>
      <trkpt lat="44.04079" lon="6.04001">
        <ele>540</ele>
        <time>2024-02-01T09:44:22Z</time>
      </trkpt>
      <trkpt lat="44.04077" lon="6.03969">
        <ele>545</ele>
        <time>2024-02-01T09:44:29Z</time>
      </trkpt>
      <trkpt lat="44.04079" lon="6.03962">
        <ele>541</ele>
        <time>2024-02-01T09:44:35Z</time>
      </trkpt>
      <trkpt lat="44.0408" lon="6.03946">
        <ele>551</ele>
        <time>2024-02-01T09:44:41Z</time>
      </trkpt>
      <trkpt lat="44.04078" lon="6.03929">
        <ele>553</ele>
        <time>2024-02-01T09:44:47Z</time>
      </trkpt>
      <trkpt lat="44.04077" lon="6.0391">
        <ele>555</ele>
        <time>2024-02-01T09:44:53Z</time>
      </trkpt>
      <trkpt lat="44.04073" lon="6.03897">
        <ele>546</ele>
        <time>2024-02-01T09:44:59Z</time>
      </trkpt>
      <trkpt lat="44.04072" lon="6.03889">
        <ele>479</ele>
        <time>2024-02-01T09:45:05Z</time>
      </trkpt>
      <trkpt lat="44.04065" lon="6.03885">
        <ele>551</ele>
        <time>2024-02-01T09:45:11Z</time>
      </trkpt>
      <trkpt lat="44.04057" lon="6.03878">
        <ele>557</ele>
        <time>2024-02-01T09:45:17Z</time>
      </trkpt>
      <trkpt lat="44.04047" lon="6.03875">
        <ele>559</ele>
        <time>2024-02-01T09:45:23Z</time>
      </trkpt>
      <trkpt lat="44.04036" lon="6.03876">
        <ele>558</ele>
        <time>2024-02-01T09:45:28Z</time>
      </trkpt>
      <trkpt lat="44.04025" lon="6.03877">
        <ele>563</ele>
        <time>2024-02-01T09:45:31Z</time>
      </trkpt>
      <trkpt lat="44.04019" lon="6.03878">
        <ele>563</ele>
        <time>2024-02-01T09:45:34Z</time>
      </trkpt>
      <trkpt lat="44.04013" lon="6.03879">
        <ele>568</ele>
        <time>2024-02-01T09:45:37Z</time>
      </trkpt>
      <trkpt lat="44.04007" lon="6.03879">
        <ele>568</ele>
        <time>2024-02-01T09:45:41Z</time>
      </trkpt>
      <trkpt lat="44.03998" lon="6.03885">
        <ele>566</ele>
        <time>2024-02-01T09:45:47Z</time>
      </trkpt>
      <trkpt lat="44.03987" lon="6.03899">
        <ele>560</ele>
        <time>2024-02-01T09:45:52Z</time>
      </trkpt>
      <trkpt lat="44.03985" lon="6.03905">
        <ele>565</ele>
        <time>2024-02-01T09:45:54Z</time>
      </trkpt>
      <trkpt lat="44.03986" lon="6.03924">
        <ele>565</ele>
        <time>2024-02-01T09:45:57Z</time>
      </trkpt>
      <trkpt lat="44.03987" lon="6.0394">
        <ele>569</ele>
        <time>2024-02-01T09:46:05Z</time>
      </trkpt>
      <trkpt lat="44.0399" lon="6.03949">
        <ele>563</ele>
        <time>2024-02-01T09:46:11Z</time>
      </trkpt>
      <trkpt lat="44.03988" lon="6.03963">
        <ele>574</ele>
        <time>2024-02-01T09:46:17Z</time>
      </trkpt>
      <trkpt lat="44.0398" lon="6.03968">
        <ele>568</ele>
        <time>2024-02-01T09:46:23Z</time>
      </trkpt>
      <trkpt lat="44.03967" lon="6.03964">
        <ele>569</ele>
        <time>2024-02-01T09:46:29Z</time>
      </trkpt>
      <trkpt lat="44.03953" lon="6.03966">
        <ele>572</ele>
        <time>2024-02-01T09:46:35Z</time>
      </trkpt>
      <trkpt lat="44.03941" lon="6.03969">
        <ele>573</ele>
        <time>2024-02-01T09:46:38Z</time>
      </trkpt>
      <trkpt lat="44.03931" lon="6.03975">
        <ele>574</ele>
        <time>2024-02-01T09:46:42Z</time>
      </trkpt>
      <trkpt lat="44.03923" lon="6.03976">
        <ele>572</ele>
        <time>2024-02-01T09:46:49Z</time>
      </trkpt>
      <trkpt lat="44.03915" lon="6.03974">
        <ele>572</ele>
        <time>2024-02-01T09:46:52Z</time>
      </trkpt>
      <trkpt lat="44.03909" lon="6.03973">
        <ele>573</ele>
        <time>2024-02-01T09:46:55Z</time>
      </trkpt>
      <trkpt lat="44.03901" lon="6.03971">
        <ele>573</ele>
        <time>2024-02-01T09:46:59Z</time>
      </trkpt>
      <trkpt lat="44.03893" lon="6.03971">
        <ele>571</ele>
        <time>2024-02-01T09:47:05Z</time>
      </trkpt>
      <trkpt lat="44.0388" lon="6.03975">
        <ele>572</ele>
        <time>2024-02-01T09:47:11Z</time>
      </trkpt>
      <trkpt lat="44.03866" lon="6.03981">
        <ele>573</ele>
        <time>2024-02-01T09:47:17Z</time>
      </trkpt>
      <trkpt lat="44.03852" lon="6.03982">
        <ele>577</ele>
        <time>2024-02-01T09:47:23Z</time>
      </trkpt>
      <trkpt lat="44.03831" lon="6.03978">
        <ele>577</ele>
        <time>2024-02-01T09:47:29Z</time>
      </trkpt>
      <trkpt lat="44.03822" lon="6.03978">
        <ele>577</ele>
        <time>2024-02-01T09:47:35Z</time>
      </trkpt>
      <trkpt lat="44.03811" lon="6.03978">
        <ele>576</ele>
        <time>2024-02-01T09:47:37Z</time>
      </trkpt>
      <trkpt lat="44.03801" lon="6.03977">
        <ele>576</ele>
        <time>2024-02-01T09:47:41Z</time>
      </trkpt>
      <trkpt lat="44.03795" lon="6.03975">
        <ele>580</ele>
        <time>2024-02-01T09:47:44Z</time>
      </trkpt>
      <trkpt lat="44.03789" lon="6.03975">
        <ele>580</ele>
        <time>2024-02-01T09:47:47Z</time>
      </trkpt>
      <trkpt lat="44.03783" lon="6.03973">
        <ele>581</ele>
        <time>2024-02-01T09:47:50Z</time>
      </trkpt>
      <trkpt lat="44.03775" lon="6.0397">
        <ele>581</ele>
        <time>2024-02-01T09:47:53Z</time>
      </trkpt>
      <trkpt lat="44.03753" lon="6.03942">
        <ele>587</ele>
        <time>2024-02-01T09:47:55Z</time>
      </trkpt>
      <trkpt lat="44.0375" lon="6.03938">
        <ele>587</ele>
        <time>2024-02-01T09:47:58Z</time>
      </trkpt>
      <trkpt lat="44.03742" lon="6.03929">
        <ele>588</ele>
        <time>2024-02-01T09:48:01Z</time>
      </trkpt>
      <trkpt lat="44.0373" lon="6.03925">
        <ele>580</ele>
        <time>2024-02-01T09:48:04Z</time>
      </trkpt>
      <trkpt lat="44.03723" lon="6.0392">
        <ele>579</ele>
        <time>2024-02-01T09:48:07Z</time>
      </trkpt>
      <trkpt lat="44.0372" lon="6.03908">
        <ele>588</ele>
        <time>2024-02-01T09:48:10Z</time>
      </trkpt>
      <trkpt lat="44.03716" lon="6.03897">
        <ele>588</ele>
        <time>2024-02-01T09:48:13Z</time>
      </trkpt>
      <trkpt lat="44.03709" lon="6.03895">
        <ele>579</ele>
        <time>2024-02-01T09:48:17Z</time>
      </trkpt>
      <trkpt lat="44.03702" lon="6.03887">
        <ele>585</ele>
        <time>2024-02-01T09:48:20Z</time>
      </trkpt>
      <trkpt lat="44.037" lon="6.03879">
        <ele>585</ele>
        <time>2024-02-01T09:48:23Z</time>
      </trkpt>
      <trkpt lat="44.0371" lon="6.03869">
        <ele>592</ele>
        <time>2024-02-01T09:48:27Z</time>
      </trkpt>
      <trkpt lat="44.03713" lon="6.03865">
        <ele>584</ele>
        <time>2024-02-01T09:48:33Z</time>
      </trkpt>
      <trkpt lat="44.03694" lon="6.03869">
        <ele>583</ele>
        <time>2024-02-01T09:48:36Z</time>
      </trkpt>
      <trkpt lat="44.03688" lon="6.03863">
        <ele>583</ele>
        <time>2024-02-01T09:48:39Z</time>
      </trkpt>
      <trkpt lat="44.03684" lon="6.03874">
        <ele>591</ele>
        <time>2024-02-01T09:48:45Z</time>
      </trkpt>
      <trkpt lat="44.0368" lon="6.03874">
        <ele>594</ele>
        <time>2024-02-01T09:48:51Z</time>
      </trkpt>
      <trkpt lat="44.03677" lon="6.03866">
        <ele>592</ele>
        <time>2024-02-01T09:48:57Z</time>
      </trkpt>
      <trkpt lat="44.03672" lon="6.03856">
        <ele>598</ele>
        <time>2024-02-01T09:49:03Z</time>
      </trkpt>
      <trkpt lat="44.03665" lon="6.0385">
        <ele>600</ele>
        <time>2024-02-01T09:49:09Z</time>
      </trkpt>
      <trkpt lat="44.03656" lon="6.03846">
        <ele>599</ele>
        <time>2024-02-01T09:49:15Z</time>
      </trkpt>
      <trkpt lat="44.03646" lon="6.03846">
        <ele>601</ele>
        <time>2024-02-01T09:49:21Z</time>
      </trkpt>
      <trkpt lat="44.03635" lon="6.03837">
        <ele>607</ele>
        <time>2024-02-01T09:49:27Z</time>
      </trkpt>
      <trkpt lat="44.0363" lon="6.0382">
        <ele>606</ele>
        <time>2024-02-01T09:49:33Z</time>
      </trkpt>
      <trkpt lat="44.03626" lon="6.03803">
        <ele>607</ele>
        <time>2024-02-01T09:49:39Z</time>
      </trkpt>
      <trkpt lat="44.0362" lon="6.03793">
        <ele>611</ele>
        <time>2024-02-01T09:49:45Z</time>
      </trkpt>
      <trkpt lat="44.0361" lon="6.03787">
        <ele>612</ele>
        <time>2024-02-01T09:49:51Z</time>
      </trkpt>
      <trkpt lat="44.03597" lon="6.03784">
        <ele>617</ele>
        <time>2024-02-01T09:49:57Z</time>
      </trkpt>
      <trkpt lat="44.03591" lon="6.03779">
        <ele>622</ele>
        <time>2024-02-01T09:50:00Z</time>
      </trkpt>
      <trkpt lat="44.03587" lon="6.03774">
        <ele>622</ele>
        <time>2024-02-01T09:50:03Z</time>
      </trkpt>
      <trkpt lat="44.03582" lon="6.03777">
        <ele>620</ele>
        <time>2024-02-01T09:50:10Z</time>
      </trkpt>
      <trkpt lat="44.03566" lon="6.03777">
        <ele>622</ele>
        <time>2024-02-01T09:50:15Z</time>
      </trkpt>
      <trkpt lat="44.0356" lon="6.03778">
        <ele>624</ele>
        <time>2024-02-01T09:50:21Z</time>
      </trkpt>
      <trkpt lat="44.03552" lon="6.03774">
        <ele>624</ele>
        <time>2024-02-01T09:50:24Z</time>
      </trkpt>
      <trkpt lat="44.03546" lon="6.03772">
        <ele>624</ele>
        <time>2024-02-01T09:50:27Z</time>
      </trkpt>
      <trkpt lat="44.03541" lon="6.03767">
        <ele>625</ele>
        <time>2024-02-01T09:50:30Z</time>
      </trkpt>
      <trkpt lat="44.03537" lon="6.03764">
        <ele>625</ele>
        <time>2024-02-01T09:50:32Z</time>
      </trkpt>
      <trkpt lat="44.03531" lon="6.03759">
        <ele>625</ele>
        <time>2024-02-01T09:50:36Z</time>
      </trkpt>
      <trkpt lat="44.0352" lon="6.03755">
        <ele>625</ele>
        <time>2024-02-01T09:50:39Z</time>
      </trkpt>
      <trkpt lat="44.0351" lon="6.03747">
        <ele>627</ele>
        <time>2024-02-01T09:50:43Z</time>
      </trkpt>
      <trkpt lat="44.03501" lon="6.03741">
        <ele>627</ele>
        <time>2024-02-01T09:50:46Z</time>
      </trkpt>
      <trkpt lat="44.03481" lon="6.03735">
        <ele>630</ele>
        <time>2024-02-01T09:50:51Z</time>
      </trkpt>
      <trkpt lat="44.03466" lon="6.03729">
        <ele>636</ele>
        <time>2024-02-01T09:50:54Z</time>
      </trkpt>
      <trkpt lat="44.03457" lon="6.03725">
        <ele>636</ele>
        <time>2024-02-01T09:50:57Z</time>
      </trkpt>
      <trkpt lat="44.03449" lon="6.03722">
        <ele>637</ele>
        <time>2024-02-01T09:51:00Z</time>
      </trkpt>
      <trkpt lat="44.03442" lon="6.03721">
        <ele>637</ele>
        <time>2024-02-01T09:51:03Z</time>
      </trkpt>
      <trkpt lat="44.03439" lon="6.03719">
        <ele>635</ele>
        <time>2024-02-01T09:51:06Z</time>
      </trkpt>
      <trkpt lat="44.03434" lon="6.03715">
        <ele>635</ele>
        <time>2024-02-01T09:51:09Z</time>
      </trkpt>
      <trkpt lat="44.03431" lon="6.03717">
        <ele>632</ele>
        <time>2024-02-01T09:51:12Z</time>
      </trkpt>
      <trkpt lat="44.03425" lon="6.03722">
        <ele>632</ele>
        <time>2024-02-01T09:51:15Z</time>
      </trkpt>
      <trkpt lat="44.03419" lon="6.03722">
        <ele>630</ele>
        <time>2024-02-01T09:51:18Z</time>
      </trkpt>
      <trkpt lat="44.03414" lon="6.0372">
        <ele>630</ele>
        <time>2024-02-01T09:51:21Z</time>
      </trkpt>
      <trkpt lat="44.03388" lon="6.03713">
        <ele>479</ele>
        <time>2024-02-01T09:51:27Z</time>
      </trkpt>
      <trkpt lat="44.03369" lon="6.03712">
        <ele>626</ele>
        <time>2024-02-01T09:51:34Z</time>
      </trkpt>
      <trkpt lat="44.03363" lon="6.03709">
        <ele>625</ele>
        <time>2024-02-01T09:51:36Z</time>
      </trkpt>
      <trkpt lat="44.03355" lon="6.037">
        <ele>625</ele>
        <time>2024-02-01T09:51:39Z</time>
      </trkpt>
      <trkpt lat="44.03336" lon="6.03703">
        <ele>624</ele>
        <time>2024-02-01T09:51:45Z</time>
      </trkpt>
      <trkpt lat="44.03329" lon="6.03701">
        <ele>630</ele>
        <time>2024-02-01T09:51:52Z</time>
      </trkpt>
      <trkpt lat="44.03315" lon="6.03692">
        <ele>631</ele>
        <time>2024-02-01T09:51:58Z</time>
      </trkpt>
      <trkpt lat="44.03311" lon="6.03688">
        <ele>631</ele>
        <time>2024-02-01T09:52:04Z</time>
      </trkpt>
      <trkpt lat="44.03308" lon="6.03686">
        <ele>633</ele>
        <time>2024-02-01T09:52:10Z</time>
      </trkpt>
      <trkpt lat="44.0331" lon="6.03687">
        <ele>629</ele>
        <time>2024-02-01T09:52:34Z</time>
      </trkpt>
      <trkpt lat="44.03312" lon="6.03685">
        <ele>628</ele>
        <time>2024-02-01T09:52:46Z</time>
      </trkpt>
      <trkpt lat="44.0331" lon="6.03686">
        <ele>630</ele>
        <time>2024-02-01T09:53:04Z</time>
      </trkpt>
      <trkpt lat="44.03312" lon="6.03686">
        <ele>628</ele>
        <time>2024-02-01T09:53:16Z</time>
      </trkpt>
      <trkpt lat="44.03318" lon="6.03682">
        <ele>631</ele>
        <time>2024-02-01T09:53:22Z</time>
      </trkpt>
      <trkpt lat="44.0332" lon="6.03682">
        <ele>615</ele>
        <time>2024-02-01T09:53:29Z</time>
      </trkpt>
      <trkpt lat="44.03324" lon="6.03678">
        <ele>621</ele>
        <time>2024-02-01T09:53:33Z</time>
      </trkpt>
      <trkpt lat="44.03329" lon="6.03668">
        <ele>620</ele>
        <time>2024-02-01T09:53:36Z</time>
      </trkpt>
      <trkpt lat="44.03333" lon="6.03661">
        <ele>619</ele>
        <time>2024-02-01T09:53:40Z</time>
      </trkpt>
      <trkpt lat="44.03332" lon="6.03663">
        <ele>621</ele>
        <time>2024-02-01T09:53:46Z</time>
      </trkpt>
      <trkpt lat="44.0333" lon="6.03662">
        <ele>620</ele>
        <time>2024-02-01T09:53:53Z</time>
      </trkpt>
      <trkpt lat="44.03332" lon="6.03664">
        <ele>628</ele>
        <time>2024-02-01T09:54:04Z</time>
      </trkpt>
      <trkpt lat="44.03329" lon="6.03663">
        <ele>628</ele>
        <time>2024-02-01T09:54:16Z</time>
      </trkpt>
      <trkpt lat="44.0333" lon="6.03659">
        <ele>625</ele>
        <time>2024-02-01T09:54:34Z</time>
      </trkpt>
      <trkpt lat="44.03332" lon="6.03653">
        <ele>624</ele>
        <time>2024-02-01T09:55:28Z</time>
      </trkpt>
      <trkpt lat="44.03332" lon="6.03657">
        <ele>615</ele>
        <time>2024-02-01T09:55:33Z</time>
      </trkpt>
      <trkpt lat="44.03334" lon="6.03652">
        <ele>611</ele>
        <time>2024-02-01T09:55:36Z</time>
      </trkpt>
      <trkpt lat="44.03337" lon="6.03655">
        <ele>611</ele>
        <time>2024-02-01T09:55:39Z</time>
      </trkpt>
      <trkpt lat="44.03339" lon="6.03647">
        <ele>609</ele>
        <time>2024-02-01T09:55:42Z</time>
      </trkpt>
      <trkpt lat="44.03341" lon="6.03644">
        <ele>609</ele>
        <time>2024-02-01T09:55:45Z</time>
      </trkpt>
      <trkpt lat="44.03344" lon="6.03643">
        <ele>606</ele>
        <time>2024-02-01T09:55:48Z</time>
      </trkpt>
      <trkpt lat="44.03349" lon="6.03642">
        <ele>606</ele>
        <time>2024-02-01T09:55:51Z</time>
      </trkpt>
      <trkpt lat="44.03356" lon="6.03638">
        <ele>605</ele>
        <time>2024-02-01T09:55:54Z</time>
      </trkpt>
      <trkpt lat="44.03372" lon="6.03627">
        <ele>605</ele>
        <time>2024-02-01T09:55:57Z</time>
      </trkpt>
      <trkpt lat="44.03383" lon="6.03617">
        <ele>605</ele>
        <time>2024-02-01T09:56:00Z</time>
      </trkpt>
      <trkpt lat="44.03399" lon="6.03604">
        <ele>604</ele>
        <time>2024-02-01T09:56:03Z</time>
      </trkpt>
      <trkpt lat="44.03406" lon="6.03599">
        <ele>603</ele>
        <time>2024-02-01T09:56:06Z</time>
      </trkpt>
      <trkpt lat="44.03413" lon="6.03596">
        <ele>604</ele>
        <time>2024-02-01T09:56:09Z</time>
      </trkpt>
      <trkpt lat="44.03417" lon="6.03595">
        <ele>613</ele>
        <time>2024-02-01T09:56:12Z</time>
      </trkpt>
      <trkpt lat="44.0342" lon="6.03597">
        <ele>613</ele>
        <time>2024-02-01T09:56:14Z</time>
      </trkpt>
      <trkpt lat="44.03424" lon="6.03599">
        <ele>601</ele>
        <time>2024-02-01T09:56:17Z</time>
      </trkpt>
      <trkpt lat="44.03429" lon="6.036">
        <ele>610</ele>
        <time>2024-02-01T09:56:20Z</time>
      </trkpt>
      <trkpt lat="44.03435" lon="6.03601">
        <ele>612</ele>
        <time>2024-02-01T09:56:24Z</time>
      </trkpt>
      <trkpt lat="44.03442" lon="6.036">
        <ele>612</ele>
        <time>2024-02-01T09:56:27Z</time>
      </trkpt>
      <trkpt lat="44.03461" lon="6.03571">
        <ele>611</ele>
        <time>2024-02-01T09:56:30Z</time>
      </trkpt>
      <trkpt lat="44.0347" lon="6.03562">
        <ele>611</ele>
        <time>2024-02-01T09:56:33Z</time>
      </trkpt>
      <trkpt lat="44.03478" lon="6.03558">
        <ele>612</ele>
        <time>2024-02-01T09:56:35Z</time>
      </trkpt>
      <trkpt lat="44.03489" lon="6.03567">
        <ele>612</ele>
        <time>2024-02-01T09:56:39Z</time>
      </trkpt>
      <trkpt lat="44.03513" lon="6.03573">
        <ele>615</ele>
        <time>2024-02-01T09:56:42Z</time>
      </trkpt>
      <trkpt lat="44.0353" lon="6.03576">
        <ele>614</ele>
        <time>2024-02-01T09:56:45Z</time>
      </trkpt>
      <trkpt lat="44.03538" lon="6.0358">
        <ele>597</ele>
        <time>2024-02-01T09:56:47Z</time>
      </trkpt>
      <trkpt lat="44.0354" lon="6.03587">
        <ele>612</ele>
        <time>2024-02-01T09:56:50Z</time>
      </trkpt>
      <trkpt lat="44.03544" lon="6.03588">
        <ele>605</ele>
        <time>2024-02-01T09:56:53Z</time>
      </trkpt>
      <trkpt lat="44.03549" lon="6.03591">
        <ele>605</ele>
        <time>2024-02-01T09:56:57Z</time>
      </trkpt>
      <trkpt lat="44.0355" lon="6.03589">
        <ele>599</ele>
        <time>2024-02-01T09:57:01Z</time>
      </trkpt>
      <trkpt lat="44.03552" lon="6.0359">
        <ele>594</ele>
        <time>2024-02-01T09:57:06Z</time>
      </trkpt>
      <trkpt lat="44.03555" lon="6.0359">
        <ele>594</ele>
        <time>2024-02-01T09:57:09Z</time>
      </trkpt>
      <trkpt lat="44.03557" lon="6.03591">
        <ele>586</ele>
        <time>2024-02-01T09:57:12Z</time>
      </trkpt>
      <trkpt lat="44.0356" lon="6.03591">
        <ele>586</ele>
        <time>2024-02-01T09:57:15Z</time>
      </trkpt>
      <trkpt lat="44.03594" lon="6.03601">
        <ele>581</ele>
        <time>2024-02-01T09:57:23Z</time>
      </trkpt>
      <trkpt lat="44.03613" lon="6.03613">
        <ele>576</ele>
        <time>2024-02-01T09:57:29Z</time>
      </trkpt>
      <trkpt lat="44.0363" lon="6.03631">
        <ele>573</ele>
        <time>2024-02-01T09:57:35Z</time>
      </trkpt>
      <trkpt lat="44.03643" lon="6.03619">
        <ele>570</ele>
        <time>2024-02-01T09:57:41Z</time>
      </trkpt>
      <trkpt lat="44.03659" lon="6.03604">
        <ele>568</ele>
        <time>2024-02-01T09:57:47Z</time>
      </trkpt>
      <trkpt lat="44.03684" lon="6.036">
        <ele>568</ele>
        <time>2024-02-01T09:57:53Z</time>
      </trkpt>
      <trkpt lat="44.037" lon="6.03596">
        <ele>555</ele>
        <time>2024-02-01T09:57:59Z</time>
      </trkpt>
      <trkpt lat="44.03714" lon="6.03588">
        <ele>566</ele>
        <time>2024-02-01T09:58:05Z</time>
      </trkpt>
      <trkpt lat="44.03718" lon="6.03582">
        <ele>561</ele>
        <time>2024-02-01T09:58:11Z</time>
      </trkpt>
      <trkpt lat="44.0378" lon="6.03553">
        <ele>561</ele>
        <time>2024-02-01T09:58:15Z</time>
      </trkpt>
      <trkpt lat="44.03796" lon="6.03534">
        <ele>560</ele>
        <time>2024-02-01T09:58:18Z</time>
      </trkpt>
      <trkpt lat="44.03808" lon="6.03522">
        <ele>560</ele>
        <time>2024-02-01T09:58:21Z</time>
      </trkpt>
      <trkpt lat="44.03823" lon="6.03513">
        <ele>561</ele>
        <time>2024-02-01T09:58:24Z</time>
      </trkpt>
      <trkpt lat="44.03864" lon="6.03504">
        <ele>561</ele>
        <time>2024-02-01T09:58:27Z</time>
      </trkpt>
      <trkpt lat="44.03893" lon="6.03492">
        <ele>561</ele>
        <time>2024-02-01T09:58:30Z</time>
      </trkpt>
      <trkpt lat="44.03901" lon="6.03489">
        <ele>561</ele>
        <time>2024-02-01T09:58:34Z</time>
      </trkpt>
      <trkpt lat="44.03904" lon="6.03484">
        <ele>563</ele>
        <time>2024-02-01T09:58:36Z</time>
      </trkpt>
      <trkpt lat="44.03903" lon="6.03476">
        <ele>563</ele>
        <time>2024-02-01T09:58:39Z</time>
      </trkpt>
      <trkpt lat="44.03899" lon="6.03475">
        <ele>562</ele>
        <time>2024-02-01T09:58:42Z</time>
      </trkpt>
      <trkpt lat="44.03891" lon="6.03484">
        <ele>562</ele>
        <time>2024-02-01T09:58:45Z</time>
      </trkpt>
      <trkpt lat="44.03885" lon="6.03487">
        <ele>561</ele>
        <time>2024-02-01T09:58:48Z</time>
      </trkpt>
      <trkpt lat="44.03878" lon="6.03491">
        <ele>561</ele>
        <time>2024-02-01T09:58:51Z</time>
      </trkpt>
      <trkpt lat="44.0387" lon="6.03496">
        <ele>566</ele>
        <time>2024-02-01T09:58:54Z</time>
      </trkpt>
      <trkpt lat="44.03852" lon="6.03501">
        <ele>564</ele>
        <time>2024-02-01T09:58:57Z</time>
      </trkpt>
      <trkpt lat="44.03844" lon="6.03504">
        <ele>571</ele>
        <time>2024-02-01T09:59:00Z</time>
      </trkpt>
      <trkpt lat="44.03837" lon="6.03508">
        <ele>571</ele>
        <time>2024-02-01T09:59:03Z</time>
      </trkpt>
      <trkpt lat="44.03802" lon="6.03513">
        <ele>569</ele>
        <time>2024-02-01T09:59:09Z</time>
      </trkpt>
      <trkpt lat="44.03796" lon="6.03501">
        <ele>560</ele>
        <time>2024-02-01T09:59:12Z</time>
      </trkpt>
      <trkpt lat="44.03782" lon="6.03496">
        <ele>559</ele>
        <time>2024-02-01T09:59:15Z</time>
      </trkpt>
      <trkpt lat="44.03776" lon="6.03496">
        <ele>562</ele>
        <time>2024-02-01T09:59:18Z</time>
      </trkpt>
      <trkpt lat="44.03773" lon="6.03497">
        <ele>551</ele>
        <time>2024-02-01T09:59:23Z</time>
      </trkpt>
      <trkpt lat="44.03764" lon="6.03491">
        <ele>550</ele>
        <time>2024-02-01T09:59:27Z</time>
      </trkpt>
      <trkpt lat="44.03746" lon="6.03464">
        <ele>547</ele>
        <time>2024-02-01T09:59:33Z</time>
      </trkpt>
      <trkpt lat="44.03745" lon="6.03445">
        <ele>549</ele>
        <time>2024-02-01T09:59:39Z</time>
      </trkpt>
      <trkpt lat="44.03747" lon="6.03429">
        <ele>553</ele>
        <time>2024-02-01T09:59:46Z</time>
      </trkpt>
      <trkpt lat="44.03745" lon="6.03424">
        <ele>556</ele>
        <time>2024-02-01T09:59:49Z</time>
      </trkpt>
      <trkpt lat="44.03746" lon="6.03417">
        <ele>556</ele>
        <time>2024-02-01T09:59:52Z</time>
      </trkpt>
      <trkpt lat="44.03748" lon="6.03407">
        <ele>557</ele>
        <time>2024-02-01T09:59:58Z</time>
      </trkpt>
      <trkpt lat="44.03748" lon="6.03411">
        <ele>555</ele>
        <time>2024-02-01T10:00:22Z</time>
      </trkpt>
      <trkpt lat="44.0375" lon="6.0341">
        <ele>560</ele>
        <time>2024-02-01T10:00:40Z</time>
      </trkpt>
      <trkpt lat="44.03745" lon="6.03411">
        <ele>553</ele>
        <time>2024-02-01T10:00:52Z</time>
      </trkpt>
      <trkpt lat="44.03743" lon="6.03414">
        <ele>561</ele>
        <time>2024-02-01T10:00:58Z</time>
      </trkpt>
      <trkpt lat="44.03741" lon="6.03416">
        <ele>561</ele>
        <time>2024-02-01T10:01:03Z</time>
      </trkpt>
      <trkpt lat="44.03739" lon="6.03418">
        <ele>563</ele>
        <time>2024-02-01T10:01:09Z</time>
      </trkpt>
      <trkpt lat="44.03734" lon="6.0342">
        <ele>567</ele>
        <time>2024-02-01T10:01:12Z</time>
      </trkpt>
      <trkpt lat="44.03731" lon="6.03421">
        <ele>567</ele>
        <time>2024-02-01T10:01:15Z</time>
      </trkpt>
      <trkpt lat="44.03724" lon="6.03414">
        <ele>568</ele>
        <time>2024-02-01T10:01:21Z</time>
      </trkpt>
      <trkpt lat="44.03721" lon="6.03408">
        <ele>565</ele>
        <time>2024-02-01T10:01:27Z</time>
      </trkpt>
      <trkpt lat="44.03715" lon="6.03405">
        <ele>569</ele>
        <time>2024-02-01T10:01:33Z</time>
      </trkpt>
      <trkpt lat="44.03707" lon="6.03403">
        <ele>570</ele>
        <time>2024-02-01T10:01:37Z</time>
      </trkpt>
      <trkpt lat="44.03703" lon="6.03403">
        <ele>574</ele>
        <time>2024-02-01T10:01:40Z</time>
      </trkpt>
      <trkpt lat="44.037" lon="6.03404">
        <ele>569</ele>
        <time>2024-02-01T10:01:47Z</time>
      </trkpt>
      <trkpt lat="44.03695" lon="6.03404">
        <ele>569</ele>
        <time>2024-02-01T10:01:50Z</time>
      </trkpt>
      <trkpt lat="44.03692" lon="6.03404">
        <ele>571</ele>
        <time>2024-02-01T10:01:53Z</time>
      </trkpt>
      <trkpt lat="44.03685" lon="6.03405">
        <ele>573</ele>
        <time>2024-02-01T10:01:55Z</time>
      </trkpt>
      <trkpt lat="44.03679" lon="6.03407">
        <ele>573</ele>
        <time>2024-02-01T10:01:58Z</time>
      </trkpt>
      <trkpt lat="44.03648" lon="6.03406">
        <ele>576</ele>
        <time>2024-02-01T10:02:01Z</time>
      </trkpt>
      <trkpt lat="44.03621" lon="6.03405">
        <ele>579</ele>
        <time>2024-02-01T10:02:05Z</time>
      </trkpt>
      <trkpt lat="44.03602" lon="6.03402">
        <ele>574</ele>
        <time>2024-02-01T10:02:07Z</time>
      </trkpt>
      <trkpt lat="44.03597" lon="6.03402">
        <ele>574</ele>
        <time>2024-02-01T10:02:10Z</time>
      </trkpt>
      <trkpt lat="44.03583" lon="6.03403">
        <ele>579</ele>
        <time>2024-02-01T10:02:15Z</time>
      </trkpt>
      <trkpt lat="44.03572" lon="6.03407">
        <ele>579</ele>
        <time>2024-02-01T10:02:21Z</time>
      </trkpt>
      <trkpt lat="44.0357" lon="6.03405">
        <ele>581</ele>
        <time>2024-02-01T10:02:25Z</time>
      </trkpt>
      <trkpt lat="44.03557" lon="6.03402">
        <ele>585</ele>
        <time>2024-02-01T10:02:28Z</time>
      </trkpt>
      <trkpt lat="44.03554" lon="6.03401">
        <ele>584</ele>
        <time>2024-02-01T10:02:33Z</time>
      </trkpt>
      <trkpt lat="44.0355" lon="6.034">
        <ele>585</ele>
        <time>2024-02-01T10:02:36Z</time>
      </trkpt>
      <trkpt lat="44.03545" lon="6.034">
        <ele>585</ele>
        <time>2024-02-01T10:02:39Z</time>
      </trkpt>
      <trkpt lat="44.03537" lon="6.03399">
        <ele>585</ele>
        <time>2024-02-01T10:02:43Z</time>
      </trkpt>
      <trkpt lat="44.03533" lon="6.03399">
        <ele>585</ele>
        <time>2024-02-01T10:02:46Z</time>
      </trkpt>
      <trkpt lat="44.03528" lon="6.03403">
        <ele>588</ele>
        <time>2024-02-01T10:02:49Z</time>
      </trkpt>
      <trkpt lat="44.03526" lon="6.03406">
        <ele>588</ele>
        <time>2024-02-01T10:02:51Z</time>
      </trkpt>
      <trkpt lat="44.03523" lon="6.03407">
        <ele>589</ele>
        <time>2024-02-01T10:02:54Z</time>
      </trkpt>
      <trkpt lat="44.0352" lon="6.03409">
        <ele>589</ele>
        <time>2024-02-01T10:02:57Z</time>
      </trkpt>
      <trkpt lat="44.03502" lon="6.03385">
        <ele>593</ele>
        <time>2024-02-01T10:03:03Z</time>
      </trkpt>
      <trkpt lat="44.03494" lon="6.03383">
        <ele>593</ele>
        <time>2024-02-01T10:03:06Z</time>
      </trkpt>
      <trkpt lat="44.03488" lon="6.03385">
        <ele>593</ele>
        <time>2024-02-01T10:03:09Z</time>
      </trkpt>
      <trkpt lat="44.03482" lon="6.03388">
        <ele>595</ele>
        <time>2024-02-01T10:03:12Z</time>
      </trkpt>
      <trkpt lat="44.03475" lon="6.0339">
        <ele>595</ele>
        <time>2024-02-01T10:03:15Z</time>
      </trkpt>
      <trkpt lat="44.0347" lon="6.03396">
        <ele>596</ele>
        <time>2024-02-01T10:03:21Z</time>
      </trkpt>
      <trkpt lat="44.03467" lon="6.03395">
        <ele>597</ele>
        <time>2024-02-01T10:03:24Z</time>
      </trkpt>
      <trkpt lat="44.03463" lon="6.03393">
        <ele>597</ele>
        <time>2024-02-01T10:03:27Z</time>
      </trkpt>
      <trkpt lat="44.03464" lon="6.03391">
        <ele>602</ele>
        <time>2024-02-01T10:03:30Z</time>
      </trkpt>
      <trkpt lat="44.03464" lon="6.03386">
        <ele>602</ele>
        <time>2024-02-01T10:03:34Z</time>
      </trkpt>
      <trkpt lat="44.03464" lon="6.03374">
        <ele>600</ele>
        <time>2024-02-01T10:03:36Z</time>
      </trkpt>
      <trkpt lat="44.03465" lon="6.03369">
        <ele>600</ele>
        <time>2024-02-01T10:03:39Z</time>
      </trkpt>
      <trkpt lat="44.03466" lon="6.03362">
        <ele>603</ele>
        <time>2024-02-01T10:03:42Z</time>
      </trkpt>
      <trkpt lat="44.03466" lon="6.03355">
        <ele>603</ele>
        <time>2024-02-01T10:03:45Z</time>
      </trkpt>
      <trkpt lat="44.03461" lon="6.03353">
        <ele>603</ele>
        <time>2024-02-01T10:03:48Z</time>
      </trkpt>
      <trkpt lat="44.03456" lon="6.03354">
        <ele>604</ele>
        <time>2024-02-01T10:03:51Z</time>
      </trkpt>
      <trkpt lat="44.03453" lon="6.0335">
        <ele>602</ele>
        <time>2024-02-01T10:03:54Z</time>
      </trkpt>
      <trkpt lat="44.0345" lon="6.03349">
        <ele>603</ele>
        <time>2024-02-01T10:03:57Z</time>
      </trkpt>
      <trkpt lat="44.03449" lon="6.03342">
        <ele>607</ele>
        <time>2024-02-01T10:04:00Z</time>
      </trkpt>
      <trkpt lat="44.03447" lon="6.03342">
        <ele>607</ele>
        <time>2024-02-01T10:04:03Z</time>
      </trkpt>
      <trkpt lat="44.03444" lon="6.03336">
        <ele>607</ele>
        <time>2024-02-01T10:04:07Z</time>
      </trkpt>
      <trkpt lat="44.03438" lon="6.03339">
        <ele>610</ele>
        <time>2024-02-01T10:04:10Z</time>
      </trkpt>
      <trkpt lat="44.03437" lon="6.03342">
        <ele>609</ele>
        <time>2024-02-01T10:04:14Z</time>
      </trkpt>
      <trkpt lat="44.03434" lon="6.03341">
        <ele>611</ele>
        <time>2024-02-01T10:04:16Z</time>
      </trkpt>
      <trkpt lat="44.03433" lon="6.03336">
        <ele>612</ele>
        <time>2024-02-01T10:04:19Z</time>
      </trkpt>
      <trkpt lat="44.03455" lon="6.03316">
        <ele>615</ele>
        <time>2024-02-01T10:04:25Z</time>
      </trkpt>
      <trkpt lat="44.03479" lon="6.03298">
        <ele>611</ele>
        <time>2024-02-01T10:04:31Z</time>
      </trkpt>
      <trkpt lat="44.03479" lon="6.03287">
        <ele>605</ele>
        <time>2024-02-01T10:04:35Z</time>
      </trkpt>
      <trkpt lat="44.03481" lon="6.03283">
        <ele>598</ele>
        <time>2024-02-01T10:04:37Z</time>
      </trkpt>
      <trkpt lat="44.03476" lon="6.03253">
        <ele>599</ele>
        <time>2024-02-01T10:04:40Z</time>
      </trkpt>
      <trkpt lat="44.03474" lon="6.0324">
        <ele>596</ele>
        <time>2024-02-01T10:04:43Z</time>
      </trkpt>
      <trkpt lat="44.03472" lon="6.03233">
        <ele>596</ele>
        <time>2024-02-01T10:04:46Z</time>
      </trkpt>
      <trkpt lat="44.03478" lon="6.03195">
        <ele>593</ele>
        <time>2024-02-01T10:04:49Z</time>
      </trkpt>
      <trkpt lat="44.0348" lon="6.03172">
        <ele>593</ele>
        <time>2024-02-01T10:04:52Z</time>
      </trkpt>
      <trkpt lat="44.03484" lon="6.03169">
        <ele>600</ele>
        <time>2024-02-01T10:04:56Z</time>
      </trkpt>
      <trkpt lat="44.035" lon="6.03161">
        <ele>600</ele>
        <time>2024-02-01T10:04:59Z</time>
      </trkpt>
      <trkpt lat="44.03511" lon="6.03156">
        <ele>600</ele>
        <time>2024-02-01T10:05:02Z</time>
      </trkpt>
      <trkpt lat="44.03525" lon="6.03155">
        <ele>600</ele>
        <time>2024-02-01T10:05:05Z</time>
      </trkpt>
      <trkpt lat="44.03536" lon="6.03154">
        <ele>593</ele>
        <time>2024-02-01T10:05:08Z</time>
      </trkpt>
      <trkpt lat="44.03543" lon="6.03151">
        <ele>595</ele>
        <time>2024-02-01T10:05:12Z</time>
      </trkpt>
      <trkpt lat="44.03559" lon="6.03154">
        <ele>601</ele>
        <time>2024-02-01T10:05:16Z</time>
      </trkpt>
      <trkpt lat="44.03574" lon="6.03144">
        <ele>612</ele>
        <time>2024-02-01T10:05:18Z</time>
      </trkpt>
      <trkpt lat="44.03629" lon="6.03123">
        <ele>611</ele>
        <time>2024-02-01T10:05:24Z</time>
      </trkpt>
      <trkpt lat="44.03677" lon="6.03092">
        <ele>577</ele>
        <time>2024-02-01T10:05:31Z</time>
      </trkpt>
      <trkpt lat="44.03741" lon="6.03084">
        <ele>600</ele>
        <time>2024-02-01T10:05:37Z</time>
      </trkpt>
      <trkpt lat="44.03791" lon="6.0308">
        <ele>597</ele>
        <time>2024-02-01T10:05:43Z</time>
      </trkpt>
      <trkpt lat="44.03832" lon="6.03064">
        <ele>561</ele>
        <time>2024-02-01T10:05:48Z</time>
      </trkpt>
      <trkpt lat="44.0386" lon="6.03043">
        <ele>590</ele>
        <time>2024-02-01T10:05:54Z</time>
      </trkpt>
      <trkpt lat="44.03874" lon="6.03043">
        <ele>587</ele>
        <time>2024-02-01T10:06:00Z</time>
      </trkpt>
      <trkpt lat="44.03886" lon="6.0305">
        <ele>566</ele>
        <time>2024-02-01T10:06:08Z</time>
      </trkpt>
      <trkpt lat="44.03898" lon="6.0305">
        <ele>566</ele>
        <time>2024-02-01T10:06:12Z</time>
      </trkpt>
      <trkpt lat="44.03909" lon="6.03051">
        <ele>567</ele>
        <time>2024-02-01T10:06:16Z</time>
      </trkpt>
      <trkpt lat="44.03928" lon="6.03053">
        <ele>565</ele>
        <time>2024-02-01T10:06:23Z</time>
      </trkpt>
      <trkpt lat="44.03938" lon="6.03055">
        <ele>561</ele>
        <time>2024-02-01T10:06:29Z</time>
      </trkpt>
      <trkpt lat="44.03945" lon="6.03049">
        <ele>316</ele>
        <time>2024-02-01T10:06:35Z</time>
      </trkpt>
      <trkpt lat="44.03947" lon="6.03042">
        <ele>569</ele>
        <time>2024-02-01T10:06:41Z</time>
      </trkpt>
      <trkpt lat="44.03944" lon="6.03036">
        <ele>570</ele>
        <time>2024-02-01T10:06:44Z</time>
      </trkpt>
      <trkpt lat="44.03942" lon="6.03028">
        <ele>570</ele>
        <time>2024-02-01T10:06:47Z</time>
      </trkpt>
      <trkpt lat="44.0394" lon="6.03012">
        <ele>576</ele>
        <time>2024-02-01T10:06:53Z</time>
      </trkpt>
      <trkpt lat="44.03938" lon="6.03004">
        <ele>573</ele>
        <time>2024-02-01T10:06:59Z</time>
      </trkpt>
      <trkpt lat="44.03932" lon="6.02986">
        <ele>572</ele>
        <time>2024-02-01T10:07:05Z</time>
      </trkpt>
      <trkpt lat="44.03918" lon="6.02969">
        <ele>570</ele>
        <time>2024-02-01T10:07:12Z</time>
      </trkpt>
      <trkpt lat="44.03897" lon="6.02953">
        <ele>572</ele>
        <time>2024-02-01T10:07:23Z</time>
      </trkpt>
      <trkpt lat="44.03888" lon="6.0295">
        <ele>576</ele>
        <time>2024-02-01T10:07:29Z</time>
      </trkpt>
      <trkpt lat="44.03876" lon="6.02948">
        <ele>576</ele>
        <time>2024-02-01T10:07:35Z</time>
      </trkpt>
      <trkpt lat="44.03868" lon="6.02939">
        <ele>576</ele>
        <time>2024-02-01T10:07:41Z</time>
      </trkpt>
      <trkpt lat="44.03856" lon="6.02929">
        <ele>576</ele>
        <time>2024-02-01T10:07:47Z</time>
      </trkpt>
      <trkpt lat="44.03846" lon="6.02919">
        <ele>580</ele>
        <time>2024-02-01T10:07:53Z</time>
      </trkpt>
      <trkpt lat="44.03833" lon="6.02924">
        <ele>581</ele>
        <time>2024-02-01T10:07:59Z</time>
      </trkpt>
      <trkpt lat="44.03773" lon="6.02922">
        <ele>588</ele>
        <time>2024-02-01T10:08:12Z</time>
      </trkpt>
      <trkpt lat="44.0377" lon="6.02924">
        <ele>588</ele>
        <time>2024-02-01T10:08:17Z</time>
      </trkpt>
      <trkpt lat="44.03762" lon="6.02935">
        <ele>588</ele>
        <time>2024-02-01T10:08:19Z</time>
      </trkpt>
      <trkpt lat="44.03758" lon="6.02941">
        <ele>588</ele>
        <time>2024-02-01T10:08:22Z</time>
      </trkpt>
      <trkpt lat="44.03756" lon="6.02948">
        <ele>593</ele>
        <time>2024-02-01T10:08:25Z</time>
      </trkpt>
      <trkpt lat="44.03753" lon="6.02956">
        <ele>593</ele>
        <time>2024-02-01T10:08:28Z</time>
      </trkpt>
      <trkpt lat="44.0375" lon="6.0296">
        <ele>593</ele>
        <time>2024-02-01T10:08:31Z</time>
      </trkpt>
      <trkpt lat="44.03744" lon="6.02966">
        <ele>593</ele>
        <time>2024-02-01T10:08:35Z</time>
      </trkpt>
      <trkpt lat="44.03744" lon="6.02973">
        <ele>598</ele>
        <time>2024-02-01T10:08:41Z</time>
      </trkpt>
      <trkpt lat="44.03747" lon="6.02979">
        <ele>599</ele>
        <time>2024-02-01T10:08:44Z</time>
      </trkpt>
      <trkpt lat="44.03751" lon="6.02981">
        <ele>599</ele>
        <time>2024-02-01T10:08:47Z</time>
      </trkpt>
      <trkpt lat="44.03755" lon="6.02985">
        <ele>600</ele>
        <time>2024-02-01T10:08:50Z</time>
      </trkpt>
      <trkpt lat="44.03759" lon="6.02987">
        <ele>600</ele>
        <time>2024-02-01T10:08:53Z</time>
      </trkpt>
      <trkpt lat="44.03764" lon="6.02991">
        <ele>601</ele>
        <time>2024-02-01T10:08:56Z</time>
      </trkpt>
      <trkpt lat="44.03766" lon="6.02997">
        <ele>601</ele>
        <time>2024-02-01T10:08:59Z</time>
      </trkpt>
      <trkpt lat="44.0377" lon="6.03014">
        <ele>602</ele>
        <time>2024-02-01T10:09:02Z</time>
      </trkpt>
      <trkpt lat="44.03772" lon="6.03035">
        <ele>602</ele>
        <time>2024-02-01T10:09:06Z</time>
      </trkpt>
      <trkpt lat="44.03762" lon="6.03054">
        <ele>593</ele>
        <time>2024-02-01T10:09:11Z</time>
      </trkpt>
      <trkpt lat="44.03754" lon="6.03042">
        <ele>605</ele>
        <time>2024-02-01T10:09:17Z</time>
      </trkpt>
      <trkpt lat="44.03739" lon="6.03037">
        <ele>607</ele>
        <time>2024-02-01T10:09:20Z</time>
      </trkpt>
      <trkpt lat="44.03733" lon="6.03037">
        <ele>607</ele>
        <time>2024-02-01T10:09:23Z</time>
      </trkpt>
      <trkpt lat="44.03704" lon="6.03023">
        <ele>607</ele>
        <time>2024-02-01T10:09:29Z</time>
      </trkpt>
      <trkpt lat="44.03696" lon="6.03013">
        <ele>610</ele>
        <time>2024-02-01T10:09:35Z</time>
      </trkpt>
      <trkpt lat="44.03687" lon="6.03012">
        <ele>614</ele>
        <time>2024-02-01T10:09:41Z</time>
      </trkpt>
      <trkpt lat="44.03678" lon="6.03015">
        <ele>613</ele>
        <time>2024-02-01T10:09:44Z</time>
      </trkpt>
      <trkpt lat="44.03673" lon="6.03017">
        <ele>613</ele>
        <time>2024-02-01T10:09:47Z</time>
      </trkpt>
      <trkpt lat="44.03666" lon="6.03012">
        <ele>615</ele>
        <time>2024-02-01T10:09:50Z</time>
      </trkpt>
      <trkpt lat="44.03661" lon="6.03012">
        <ele>615</ele>
        <time>2024-02-01T10:09:53Z</time>
      </trkpt>
      <trkpt lat="44.03651" lon="6.03016">
        <ele>615</ele>
        <time>2024-02-01T10:09:56Z</time>
      </trkpt>
      <trkpt lat="44.03645" lon="6.03018">
        <ele>615</ele>
        <time>2024-02-01T10:09:59Z</time>
      </trkpt>
      <trkpt lat="44.0364" lon="6.03024">
        <ele>617</ele>
        <time>2024-02-01T10:10:02Z</time>
      </trkpt>
      <trkpt lat="44.03636" lon="6.03026">
        <ele>617</ele>
        <time>2024-02-01T10:10:05Z</time>
      </trkpt>
      <trkpt lat="44.03638" lon="6.03024">
        <ele>623</ele>
        <time>2024-02-01T10:10:08Z</time>
      </trkpt>
      <trkpt lat="44.03636" lon="6.03024">
        <ele>622</ele>
        <time>2024-02-01T10:10:11Z</time>
      </trkpt>
      <trkpt lat="44.03635" lon="6.03027">
        <ele>623</ele>
        <time>2024-02-01T10:10:17Z</time>
      </trkpt>
      <trkpt lat="44.03633" lon="6.03027">
        <ele>621</ele>
        <time>2024-02-01T10:10:20Z</time>
      </trkpt>
      <trkpt lat="44.03618" lon="6.03018">
        <ele>622</ele>
        <time>2024-02-01T10:10:25Z</time>
      </trkpt>
      <trkpt lat="44.03606" lon="6.03011">
        <ele>622</ele>
        <time>2024-02-01T10:10:28Z</time>
      </trkpt>
      <trkpt lat="44.03605" lon="6.03013">
        <ele>627</ele>
        <time>2024-02-01T10:10:39Z</time>
      </trkpt>
      <trkpt lat="44.03604" lon="6.03017">
        <ele>627</ele>
        <time>2024-02-01T10:10:41Z</time>
      </trkpt>
      <trkpt lat="44.03602" lon="6.03014">
        <ele>625</ele>
        <time>2024-02-01T10:10:45Z</time>
      </trkpt>
      <trkpt lat="44.03603" lon="6.03012">
        <ele>626</ele>
        <time>2024-02-01T10:11:06Z</time>
      </trkpt>
      <trkpt lat="44.03605" lon="6.03012">
        <ele>630</ele>
        <time>2024-02-01T10:11:12Z</time>
      </trkpt>
      <trkpt lat="44.03611" lon="6.03014">
        <ele>630</ele>
        <time>2024-02-01T10:11:17Z</time>
      </trkpt>
      <trkpt lat="44.03617" lon="6.03019">
        <ele>633</ele>
        <time>2024-02-01T10:11:20Z</time>
      </trkpt>
      <trkpt lat="44.03621" lon="6.03022">
        <ele>633</ele>
        <time>2024-02-01T10:11:23Z</time>
      </trkpt>
      <trkpt lat="44.03614" lon="6.03014">
        <ele>634</ele>
        <time>2024-02-01T10:11:29Z</time>
      </trkpt>
      <trkpt lat="44.03607" lon="6.03019">
        <ele>637</ele>
        <time>2024-02-01T10:11:32Z</time>
      </trkpt>
      <trkpt lat="44.03604" lon="6.03022">
        <ele>637</ele>
        <time>2024-02-01T10:11:35Z</time>
      </trkpt>
      <trkpt lat="44.03594" lon="6.03028">
        <ele>636</ele>
        <time>2024-02-01T10:11:38Z</time>
      </trkpt>
      <trkpt lat="44.03589" lon="6.03032">
        <ele>636</ele>
        <time>2024-02-01T10:11:41Z</time>
      </trkpt>
      <trkpt lat="44.0358" lon="6.03033">
        <ele>640</ele>
        <time>2024-02-01T10:11:44Z</time>
      </trkpt>
      <trkpt lat="44.03576" lon="6.03036">
        <ele>640</ele>
        <time>2024-02-01T10:11:47Z</time>
      </trkpt>
      <trkpt lat="44.03573" lon="6.03039">
        <ele>641</ele>
        <time>2024-02-01T10:11:49Z</time>
      </trkpt>
      <trkpt lat="44.03568" lon="6.0304">
        <ele>641</ele>
        <time>2024-02-01T10:11:53Z</time>
      </trkpt>
      <trkpt lat="44.03567" lon="6.03043">
        <ele>643</ele>
        <time>2024-02-01T10:11:56Z</time>
      </trkpt>
      <trkpt lat="44.03565" lon="6.03046">
        <ele>643</ele>
        <time>2024-02-01T10:11:59Z</time>
      </trkpt>
      <trkpt lat="44.0356" lon="6.03049">
        <ele>646</ele>
        <time>2024-02-01T10:12:01Z</time>
      </trkpt>
      <trkpt lat="44.03554" lon="6.03048">
        <ele>646</ele>
        <time>2024-02-01T10:12:05Z</time>
      </trkpt>
      <trkpt lat="44.03548" lon="6.03052">
        <ele>646</ele>
        <time>2024-02-01T10:12:08Z</time>
      </trkpt>
      <trkpt lat="44.03544" lon="6.03056">
        <ele>646</ele>
        <time>2024-02-01T10:12:11Z</time>
      </trkpt>
      <trkpt lat="44.03539" lon="6.03058">
        <ele>649</ele>
        <time>2024-02-01T10:12:14Z</time>
      </trkpt>
      <trkpt lat="44.03533" lon="6.0306">
        <ele>649</ele>
        <time>2024-02-01T10:12:17Z</time>
      </trkpt>
      <trkpt lat="44.03526" lon="6.0306">
        <ele>649</ele>
        <time>2024-02-01T10:12:20Z</time>
      </trkpt>
      <trkpt lat="44.03519" lon="6.03061">
        <ele>649</ele>
        <time>2024-02-01T10:12:23Z</time>
      </trkpt>
      <trkpt lat="44.03514" lon="6.03057">
        <ele>649</ele>
        <time>2024-02-01T10:12:26Z</time>
      </trkpt>
      <trkpt lat="44.03509" lon="6.0305">
        <ele>649</ele>
        <time>2024-02-01T10:12:29Z</time>
      </trkpt>
      <trkpt lat="44.03504" lon="6.03046">
        <ele>653</ele>
        <time>2024-02-01T10:12:32Z</time>
      </trkpt>
      <trkpt lat="44.03497" lon="6.03044">
        <ele>653</ele>
        <time>2024-02-01T10:12:35Z</time>
      </trkpt>
      <trkpt lat="44.03479" lon="6.03018">
        <ele>652</ele>
        <time>2024-02-01T10:12:41Z</time>
      </trkpt>
      <trkpt lat="44.03474" lon="6.03008">
        <ele>653</ele>
        <time>2024-02-01T10:12:44Z</time>
      </trkpt>
      <trkpt lat="44.03475" lon="6.02998">
        <ele>593</ele>
        <time>2024-02-01T10:12:48Z</time>
      </trkpt>
      <trkpt lat="44.03479" lon="6.02995">
        <ele>652</ele>
        <time>2024-02-01T10:12:54Z</time>
      </trkpt>
      <trkpt lat="44.0347" lon="6.02998">
        <ele>651</ele>
        <time>2024-02-01T10:13:06Z</time>
      </trkpt>
      <trkpt lat="44.03466" lon="6.03002">
        <ele>653</ele>
        <time>2024-02-01T10:13:12Z</time>
      </trkpt>
      <trkpt lat="44.03469" lon="6.03">
        <ele>654</ele>
        <time>2024-02-01T10:13:17Z</time>
      </trkpt>
      <trkpt lat="44.03466" lon="6.03">
        <ele>653</ele>
        <time>2024-02-01T10:13:20Z</time>
      </trkpt>
      <trkpt lat="44.03463" lon="6.03001">
        <ele>653</ele>
        <time>2024-02-01T10:13:23Z</time>
      </trkpt>
      <trkpt lat="44.03445" lon="6.02988">
        <ele>655</ele>
        <time>2024-02-01T10:13:29Z</time>
      </trkpt>
      <trkpt lat="44.03434" lon="6.02975">
        <ele>657</ele>
        <time>2024-02-01T10:13:35Z</time>
      </trkpt>
      <trkpt lat="44.03427" lon="6.02961">
        <ele>657</ele>
        <time>2024-02-01T10:13:38Z</time>
      </trkpt>
      <trkpt lat="44.03425" lon="6.02952">
        <ele>657</ele>
        <time>2024-02-01T10:13:41Z</time>
      </trkpt>
      <trkpt lat="44.03423" lon="6.02941">
        <ele>662</ele>
        <time>2024-02-01T10:13:44Z</time>
      </trkpt>
      <trkpt lat="44.0342" lon="6.02935">
        <ele>662</ele>
        <time>2024-02-01T10:13:47Z</time>
      </trkpt>
      <trkpt lat="44.03418" lon="6.0293">
        <ele>664</ele>
        <time>2024-02-01T10:13:49Z</time>
      </trkpt>
      <trkpt lat="44.03413" lon="6.02921">
        <ele>664</ele>
        <time>2024-02-01T10:13:53Z</time>
      </trkpt>
      <trkpt lat="44.03408" lon="6.02918">
        <ele>667</ele>
        <time>2024-02-01T10:13:56Z</time>
      </trkpt>
      <trkpt lat="44.03406" lon="6.02914">
        <ele>667</ele>
        <time>2024-02-01T10:13:59Z</time>
      </trkpt>
      <trkpt lat="44.03397" lon="6.02916">
        <ele>672</ele>
        <time>2024-02-01T10:14:02Z</time>
      </trkpt>
      <trkpt lat="44.03391" lon="6.02916">
        <ele>672</ele>
        <time>2024-02-01T10:14:05Z</time>
      </trkpt>
      <trkpt lat="44.03379" lon="6.02907">
        <ele>673</ele>
        <time>2024-02-01T10:14:11Z</time>
      </trkpt>
      <trkpt lat="44.03374" lon="6.02902">
        <ele>675</ele>
        <time>2024-02-01T10:14:17Z</time>
      </trkpt>
      <trkpt lat="44.03369" lon="6.02898">
        <ele>676</ele>
        <time>2024-02-01T10:14:20Z</time>
      </trkpt>
      <trkpt lat="44.03363" lon="6.02893">
        <ele>676</ele>
        <time>2024-02-01T10:14:23Z</time>
      </trkpt>
      <trkpt lat="44.03359" lon="6.02889">
        <ele>677</ele>
        <time>2024-02-01T10:14:26Z</time>
      </trkpt>
      <trkpt lat="44.03355" lon="6.02886">
        <ele>677</ele>
        <time>2024-02-01T10:14:29Z</time>
      </trkpt>
      <trkpt lat="44.03351" lon="6.02885">
        <ele>680</ele>
        <time>2024-02-01T10:14:32Z</time>
      </trkpt>
      <trkpt lat="44.03348" lon="6.02883">
        <ele>680</ele>
        <time>2024-02-01T10:14:35Z</time>
      </trkpt>
      <trkpt lat="44.03346" lon="6.02882">
        <ele>681</ele>
        <time>2024-02-01T10:14:38Z</time>
      </trkpt>
      <trkpt lat="44.03343" lon="6.0288">
        <ele>681</ele>
        <time>2024-02-01T10:14:41Z</time>
      </trkpt>
      <trkpt lat="44.03339" lon="6.02878">
        <ele>683</ele>
        <time>2024-02-01T10:14:43Z</time>
      </trkpt>
      <trkpt lat="44.03335" lon="6.02876">
        <ele>683</ele>
        <time>2024-02-01T10:14:47Z</time>
      </trkpt>
      <trkpt lat="44.03331" lon="6.02868">
        <ele>683</ele>
        <time>2024-02-01T10:14:53Z</time>
      </trkpt>
      <trkpt lat="44.03321" lon="6.02856">
        <ele>685</ele>
        <time>2024-02-01T10:14:59Z</time>
      </trkpt>
      <trkpt lat="44.03311" lon="6.02845">
        <ele>688</ele>
        <time>2024-02-01T10:15:05Z</time>
      </trkpt>
      <trkpt lat="44.03303" lon="6.02836">
        <ele>686</ele>
        <time>2024-02-01T10:15:08Z</time>
      </trkpt>
      <trkpt lat="44.03297" lon="6.02829">
        <ele>686</ele>
        <time>2024-02-01T10:15:11Z</time>
      </trkpt>
      <trkpt lat="44.03282" lon="6.02818">
        <ele>690</ele>
        <time>2024-02-01T10:15:14Z</time>
      </trkpt>
      <trkpt lat="44.03275" lon="6.02814">
        <ele>690</ele>
        <time>2024-02-01T10:15:17Z</time>
      </trkpt>
      <trkpt lat="44.0327" lon="6.0281">
        <ele>689</ele>
        <time>2024-02-01T10:15:20Z</time>
      </trkpt>
      <trkpt lat="44.03264" lon="6.02803">
        <ele>689</ele>
        <time>2024-02-01T10:15:23Z</time>
      </trkpt>
      <trkpt lat="44.03261" lon="6.02799">
        <ele>690</ele>
        <time>2024-02-01T10:15:26Z</time>
      </trkpt>
      <trkpt lat="44.03258" lon="6.02793">
        <ele>690</ele>
        <time>2024-02-01T10:15:29Z</time>
      </trkpt>
      <trkpt lat="44.03255" lon="6.0279">
        <ele>692</ele>
        <time>2024-02-01T10:15:32Z</time>
      </trkpt>
      <trkpt lat="44.03251" lon="6.02784">
        <ele>692</ele>
        <time>2024-02-01T10:15:35Z</time>
      </trkpt>
      <trkpt lat="44.0325" lon="6.02781">
        <ele>696</ele>
        <time>2024-02-01T10:15:38Z</time>
      </trkpt>
      <trkpt lat="44.03246" lon="6.02776">
        <ele>696</ele>
        <time>2024-02-01T10:15:41Z</time>
      </trkpt>
      <trkpt lat="44.03244" lon="6.02778">
        <ele>699</ele>
        <time>2024-02-01T10:15:44Z</time>
      </trkpt>
      <trkpt lat="44.03238" lon="6.0278">
        <ele>699</ele>
        <time>2024-02-01T10:15:47Z</time>
      </trkpt>
      <trkpt lat="44.03235" lon="6.02778">
        <ele>699</ele>
        <time>2024-02-01T10:15:50Z</time>
      </trkpt>
      <trkpt lat="44.0323" lon="6.02776">
        <ele>699</ele>
        <time>2024-02-01T10:15:53Z</time>
      </trkpt>
      <trkpt lat="44.03227" lon="6.02776">
        <ele>698</ele>
        <time>2024-02-01T10:15:56Z</time>
      </trkpt>
      <trkpt lat="44.0322" lon="6.02776">
        <ele>702</ele>
        <time>2024-02-01T10:16:00Z</time>
      </trkpt>
      <trkpt lat="44.03218" lon="6.02777">
        <ele>700</ele>
        <time>2024-02-01T10:16:05Z</time>
      </trkpt>
      <trkpt lat="44.03206" lon="6.02773">
        <ele>700</ele>
        <time>2024-02-01T10:16:11Z</time>
      </trkpt>
      <trkpt lat="44.03197" lon="6.02771">
        <ele>702</ele>
        <time>2024-02-01T10:16:14Z</time>
      </trkpt>
      <trkpt lat="44.0319" lon="6.02768">
        <ele>702</ele>
        <time>2024-02-01T10:16:17Z</time>
      </trkpt>
      <trkpt lat="44.03187" lon="6.02767">
        <ele>706</ele>
        <time>2024-02-01T10:16:20Z</time>
      </trkpt>
      <trkpt lat="44.03182" lon="6.02767">
        <ele>706</ele>
        <time>2024-02-01T10:16:23Z</time>
      </trkpt>
      <trkpt lat="44.03174" lon="6.02768">
        <ele>703</ele>
        <time>2024-02-01T10:16:26Z</time>
      </trkpt>
      <trkpt lat="44.03169" lon="6.0277">
        <ele>703</ele>
        <time>2024-02-01T10:16:29Z</time>
      </trkpt>
      <trkpt lat="44.03147" lon="6.02775">
        <ele>593</ele>
        <time>2024-02-01T10:16:36Z</time>
      </trkpt>
      <trkpt lat="44.0313" lon="6.02779">
        <ele>705</ele>
        <time>2024-02-01T10:16:39Z</time>
      </trkpt>
      <trkpt lat="44.03127" lon="6.02778">
        <ele>705</ele>
        <time>2024-02-01T10:16:42Z</time>
      </trkpt>
      <trkpt lat="44.03116" lon="6.02786">
        <ele>707</ele>
        <time>2024-02-01T10:16:45Z</time>
      </trkpt>
      <trkpt lat="44.0311" lon="6.02787">
        <ele>707</ele>
        <time>2024-02-01T10:16:48Z</time>
      </trkpt>
      <trkpt lat="44.03101" lon="6.02793">
        <ele>708</ele>
        <time>2024-02-01T10:16:51Z</time>
      </trkpt>
      <trkpt lat="44.03094" lon="6.02796">
        <ele>712</ele>
        <time>2024-02-01T10:16:55Z</time>
      </trkpt>
      <trkpt lat="44.03084" lon="6.02801">
        <ele>705</ele>
        <time>2024-02-01T10:16:59Z</time>
      </trkpt>
      <trkpt lat="44.03076" lon="6.02807">
        <ele>705</ele>
        <time>2024-02-01T10:17:02Z</time>
      </trkpt>
      <trkpt lat="44.03068" lon="6.02811">
        <ele>708</ele>
        <time>2024-02-01T10:17:05Z</time>
      </trkpt>
      <trkpt lat="44.03064" lon="6.02816">
        <ele>709</ele>
        <time>2024-02-01T10:17:08Z</time>
      </trkpt>
      <trkpt lat="44.03057" lon="6.02819">
        <ele>710</ele>
        <time>2024-02-01T10:17:11Z</time>
      </trkpt>
      <trkpt lat="44.03043" lon="6.0282">
        <ele>697</ele>
        <time>2024-02-01T10:17:17Z</time>
      </trkpt>
      <trkpt lat="44.03033" lon="6.02818">
        <ele>714</ele>
        <time>2024-02-01T10:17:23Z</time>
      </trkpt>
      <trkpt lat="44.03021" lon="6.02822">
        <ele>713</ele>
        <time>2024-02-01T10:17:26Z</time>
      </trkpt>
      <trkpt lat="44.03011" lon="6.02823">
        <ele>713</ele>
        <time>2024-02-01T10:17:29Z</time>
      </trkpt>
      <trkpt lat="44.03004" lon="6.02825">
        <ele>714</ele>
        <time>2024-02-01T10:17:32Z</time>
      </trkpt>
      <trkpt lat="44.02994" lon="6.02828">
        <ele>714</ele>
        <time>2024-02-01T10:17:35Z</time>
      </trkpt>
      <trkpt lat="44.02994" lon="6.02825">
        <ele>716</ele>
        <time>2024-02-01T10:17:38Z</time>
      </trkpt>
      <trkpt lat="44.0299" lon="6.02822">
        <ele>718</ele>
        <time>2024-02-01T10:17:41Z</time>
      </trkpt>
      <trkpt lat="44.02974" lon="6.02824">
        <ele>710</ele>
        <time>2024-02-01T10:17:47Z</time>
      </trkpt>
      <trkpt lat="44.02967" lon="6.0283">
        <ele>722</ele>
        <time>2024-02-01T10:17:53Z</time>
      </trkpt>
      <trkpt lat="44.02943" lon="6.02836">
        <ele>714</ele>
        <time>2024-02-01T10:17:59Z</time>
      </trkpt>
      <trkpt lat="44.02935" lon="6.02849">
        <ele>721</ele>
        <time>2024-02-01T10:18:05Z</time>
      </trkpt>
      <trkpt lat="44.02926" lon="6.0286">
        <ele>720</ele>
        <time>2024-02-01T10:18:08Z</time>
      </trkpt>
      <trkpt lat="44.02923" lon="6.02865">
        <ele>720</ele>
        <time>2024-02-01T10:18:11Z</time>
      </trkpt>
      <trkpt lat="44.02909" lon="6.02877">
        <ele>718</ele>
        <time>2024-02-01T10:18:17Z</time>
      </trkpt>
      <trkpt lat="44.02895" lon="6.02896">
        <ele>719</ele>
        <time>2024-02-01T10:18:21Z</time>
      </trkpt>
      <trkpt lat="44.0289" lon="6.02898">
        <ele>714</ele>
        <time>2024-02-01T10:18:24Z</time>
      </trkpt>
      <trkpt lat="44.02874" lon="6.02918">
        <ele>720</ele>
        <time>2024-02-01T10:18:27Z</time>
      </trkpt>
      <trkpt lat="44.02868" lon="6.02922">
        <ele>720</ele>
        <time>2024-02-01T10:18:30Z</time>
      </trkpt>
      <trkpt lat="44.0287" lon="6.02927">
        <ele>722</ele>
        <time>2024-02-01T10:18:33Z</time>
      </trkpt>
      <trkpt lat="44.02868" lon="6.02934">
        <ele>722</ele>
        <time>2024-02-01T10:18:36Z</time>
      </trkpt>
      <trkpt lat="44.02868" lon="6.02946">
        <ele>722</ele>
        <time>2024-02-01T10:18:39Z</time>
      </trkpt>
      <trkpt lat="44.0287" lon="6.02955">
        <ele>722</ele>
        <time>2024-02-01T10:18:42Z</time>
      </trkpt>
      <trkpt lat="44.02889" lon="6.02957">
        <ele>723</ele>
        <time>2024-02-01T10:18:45Z</time>
      </trkpt>
      <trkpt lat="44.02898" lon="6.02961">
        <ele>723</ele>
        <time>2024-02-01T10:18:48Z</time>
      </trkpt>
      <trkpt lat="44.02904" lon="6.0296">
        <ele>719</ele>
        <time>2024-02-01T10:18:51Z</time>
      </trkpt>
      <trkpt lat="44.02912" lon="6.02961">
        <ele>719</ele>
        <time>2024-02-01T10:18:54Z</time>
      </trkpt>
      <trkpt lat="44.02913" lon="6.02978">
        <ele>715</ele>
        <time>2024-02-01T10:18:57Z</time>
      </trkpt>
      <trkpt lat="44.02913" lon="6.02987">
        <ele>715</ele>
        <time>2024-02-01T10:19:00Z</time>
      </trkpt>
      <trkpt lat="44.02929" lon="6.02996">
        <ele>716</ele>
        <time>2024-02-01T10:19:03Z</time>
      </trkpt>
      <trkpt lat="44.02934" lon="6.03003">
        <ele>716</ele>
        <time>2024-02-01T10:19:06Z</time>
      </trkpt>
      <trkpt lat="44.02949" lon="6.03018">
        <ele>721</ele>
        <time>2024-02-01T10:19:11Z</time>
      </trkpt>
      <trkpt lat="44.02956" lon="6.03024">
        <ele>706</ele>
        <time>2024-02-01T10:19:14Z</time>
      </trkpt>
      <trkpt lat="44.02959" lon="6.03033">
        <ele>706</ele>
        <time>2024-02-01T10:19:17Z</time>
      </trkpt>
      <trkpt lat="44.02976" lon="6.03048">
        <ele>729</ele>
        <time>2024-02-01T10:19:20Z</time>
      </trkpt>
      <trkpt lat="44.02983" lon="6.03054">
        <ele>729</ele>
        <time>2024-02-01T10:19:23Z</time>
      </trkpt>
      <trkpt lat="44.02995" lon="6.03063">
        <ele>716</ele>
        <time>2024-02-01T10:19:29Z</time>
      </trkpt>
      <trkpt lat="44.02998" lon="6.03076">
        <ele>728</ele>
        <time>2024-02-01T10:19:35Z</time>
      </trkpt>
      <trkpt lat="44.03009" lon="6.03088">
        <ele>729</ele>
        <time>2024-02-01T10:19:38Z</time>
      </trkpt>
      <trkpt lat="44.03016" lon="6.03094">
        <ele>729</ele>
        <time>2024-02-01T10:19:41Z</time>
      </trkpt>
      <trkpt lat="44.03026" lon="6.03101">
        <ele>730</ele>
        <time>2024-02-01T10:19:44Z</time>
      </trkpt>
      <trkpt lat="44.0303" lon="6.03111">
        <ele>730</ele>
        <time>2024-02-01T10:19:47Z</time>
      </trkpt>
      <trkpt lat="44.03056" lon="6.03131">
        <ele>720</ele>
        <time>2024-02-01T10:19:53Z</time>
      </trkpt>
      <trkpt lat="44.03062" lon="6.03134">
        <ele>730</ele>
        <time>2024-02-01T10:19:59Z</time>
      </trkpt>
      <trkpt lat="44.0305" lon="6.03158">
        <ele>734</ele>
        <time>2024-02-01T10:20:01Z</time>
      </trkpt>
      <trkpt lat="44.03036" lon="6.03169">
        <ele>734</ele>
        <time>2024-02-01T10:20:05Z</time>
      </trkpt>
      <trkpt lat="44.03023" lon="6.03165">
        <ele>716</ele>
        <time>2024-02-01T10:20:09Z</time>
      </trkpt>
      <trkpt lat="44.03018" lon="6.03165">
        <ele>717</ele>
        <time>2024-02-01T10:20:12Z</time>
      </trkpt>
      <trkpt lat="44.03023" lon="6.0317">
        <ele>736</ele>
        <time>2024-02-01T10:20:18Z</time>
      </trkpt>
      <trkpt lat="44.03022" lon="6.03179">
        <ele>735</ele>
        <time>2024-02-01T10:20:23Z</time>
      </trkpt>
      <trkpt lat="44.03018" lon="6.03189">
        <ele>728</ele>
        <time>2024-02-01T10:20:26Z</time>
      </trkpt>
      <trkpt lat="44.03013" lon="6.03192">
        <ele>728</ele>
        <time>2024-02-01T10:20:29Z</time>
      </trkpt>
      <trkpt lat="44.03003" lon="6.03203">
        <ele>712</ele>
        <time>2024-02-01T10:20:32Z</time>
      </trkpt>
      <trkpt lat="44.02993" lon="6.03202">
        <ele>712</ele>
        <time>2024-02-01T10:20:35Z</time>
      </trkpt>
      <trkpt lat="44.02975" lon="6.03206">
        <ele>728</ele>
        <time>2024-02-01T10:20:39Z</time>
      </trkpt>
      <trkpt lat="44.02964" lon="6.03208">
        <ele>728</ele>
        <time>2024-02-01T10:20:42Z</time>
      </trkpt>
      <trkpt lat="44.02947" lon="6.03203">
        <ele>704</ele>
        <time>2024-02-01T10:20:47Z</time>
      </trkpt>
      <trkpt lat="44.02939" lon="6.03197">
        <ele>732</ele>
        <time>2024-02-01T10:20:53Z</time>
      </trkpt>
      <trkpt lat="44.02927" lon="6.03192">
        <ele>733</ele>
        <time>2024-02-01T10:20:56Z</time>
      </trkpt>
      <trkpt lat="44.02922" lon="6.03189">
        <ele>733</ele>
        <time>2024-02-01T10:20:59Z</time>
      </trkpt>
      <trkpt lat="44.02923" lon="6.03184">
        <ele>707</ele>
        <time>2024-02-01T10:21:04Z</time>
      </trkpt>
      <trkpt lat="44.0292" lon="6.03181">
        <ele>730</ele>
        <time>2024-02-01T10:21:11Z</time>
      </trkpt>
      <trkpt lat="44.02919" lon="6.03163">
        <ele>732</ele>
        <time>2024-02-01T10:21:14Z</time>
      </trkpt>
      <trkpt lat="44.02916" lon="6.03156">
        <ele>732</ele>
        <time>2024-02-01T10:21:17Z</time>
      </trkpt>
      <trkpt lat="44.02901" lon="6.0315">
        <ele>726</ele>
        <time>2024-02-01T10:21:23Z</time>
      </trkpt>
      <trkpt lat="44.02878" lon="6.03154">
        <ele>722</ele>
        <time>2024-02-01T10:21:29Z</time>
      </trkpt>
      <trkpt lat="44.02841" lon="6.03176">
        <ele>713</ele>
        <time>2024-02-01T10:21:35Z</time>
      </trkpt>
      <trkpt lat="44.02824" lon="6.03193">
        <ele>707</ele>
        <time>2024-02-01T10:21:37Z</time>
      </trkpt>
      <trkpt lat="44.02819" lon="6.03197">
        <ele>707</ele>
        <time>2024-02-01T10:21:41Z</time>
      </trkpt>
      <trkpt lat="44.02797" lon="6.03218">
        <ele>685</ele>
        <time>2024-02-01T10:21:47Z</time>
      </trkpt>
      <trkpt lat="44.02776" lon="6.03233">
        <ele>689</ele>
        <time>2024-02-01T10:21:53Z</time>
      </trkpt>
      <trkpt lat="44.0276" lon="6.03245">
        <ele>682</ele>
        <time>2024-02-01T10:21:59Z</time>
      </trkpt>
      <trkpt lat="44.02734" lon="6.03254">
        <ele>674</ele>
        <time>2024-02-01T10:22:05Z</time>
      </trkpt>
      <trkpt lat="44.02716" lon="6.03272">
        <ele>668</ele>
        <time>2024-02-01T10:22:11Z</time>
      </trkpt>
      <trkpt lat="44.02709" lon="6.03283">
        <ele>668</ele>
        <time>2024-02-01T10:22:14Z</time>
      </trkpt>
      <trkpt lat="44.02708" lon="6.03287">
        <ele>668</ele>
        <time>2024-02-01T10:22:17Z</time>
      </trkpt>
      <trkpt lat="44.02698" lon="6.03289">
        <ele>665</ele>
        <time>2024-02-01T10:22:24Z</time>
      </trkpt>
      <trkpt lat="44.02699" lon="6.0328">
        <ele>663</ele>
        <time>2024-02-01T10:22:31Z</time>
      </trkpt>
      <trkpt lat="44.02696" lon="6.03282">
        <ele>668</ele>
        <time>2024-02-01T10:22:42Z</time>
      </trkpt>
      <trkpt lat="44.02693" lon="6.03286">
        <ele>664</ele>
        <time>2024-02-01T10:22:48Z</time>
      </trkpt>
      <trkpt lat="44.02692" lon="6.03294">
        <ele>665</ele>
        <time>2024-02-01T10:22:54Z</time>
      </trkpt>
      <trkpt lat="44.02692" lon="6.03298">
        <ele>664</ele>
        <time>2024-02-01T10:23:00Z</time>
      </trkpt>
      <trkpt lat="44.02692" lon="6.03306">
        <ele>662</ele>
        <time>2024-02-01T10:23:06Z</time>
      </trkpt>
      <trkpt lat="44.02695" lon="6.03315">
        <ele>662</ele>
        <time>2024-02-01T10:23:11Z</time>
      </trkpt>
      <trkpt lat="44.02694" lon="6.03337">
        <ele>661</ele>
        <time>2024-02-01T10:23:17Z</time>
      </trkpt>
      <trkpt lat="44.02703" lon="6.03349">
        <ele>652</ele>
        <time>2024-02-01T10:23:23Z</time>
      </trkpt>
      <trkpt lat="44.0272" lon="6.03378">
        <ele>649</ele>
        <time>2024-02-01T10:23:26Z</time>
      </trkpt>
      <trkpt lat="44.02728" lon="6.03388">
        <ele>649</ele>
        <time>2024-02-01T10:23:30Z</time>
      </trkpt>
      <trkpt lat="44.0273" lon="6.03397">
        <ele>645</ele>
        <time>2024-02-01T10:23:35Z</time>
      </trkpt>
      <trkpt lat="44.02738" lon="6.03411">
        <ele>651</ele>
        <time>2024-02-01T10:23:41Z</time>
      </trkpt>
      <trkpt lat="44.02769" lon="6.03443">
        <ele>643</ele>
        <time>2024-02-01T10:23:48Z</time>
      </trkpt>
      <trkpt lat="44.02772" lon="6.0344">
        <ele>639</ele>
        <time>2024-02-01T10:23:54Z</time>
      </trkpt>
      <trkpt lat="44.02767" lon="6.03432">
        <ele>643</ele>
        <time>2024-02-01T10:24:00Z</time>
      </trkpt>
      <trkpt lat="44.02768" lon="6.03428">
        <ele>645</ele>
        <time>2024-02-01T10:24:06Z</time>
      </trkpt>
      <trkpt lat="44.0277" lon="6.03425">
        <ele>647</ele>
        <time>2024-02-01T10:24:14Z</time>
      </trkpt>
      <trkpt lat="44.02773" lon="6.03418">
        <ele>647</ele>
        <time>2024-02-01T10:24:18Z</time>
      </trkpt>
      <trkpt lat="44.0278" lon="6.03405">
        <ele>645</ele>
        <time>2024-02-01T10:24:20Z</time>
      </trkpt>
      <trkpt lat="44.02784" lon="6.03396">
        <ele>645</ele>
        <time>2024-02-01T10:24:23Z</time>
      </trkpt>
      <trkpt lat="44.02789" lon="6.03395">
        <ele>641</ele>
        <time>2024-02-01T10:24:26Z</time>
      </trkpt>
      <trkpt lat="44.02792" lon="6.03397">
        <ele>641</ele>
        <time>2024-02-01T10:24:29Z</time>
      </trkpt>
      <trkpt lat="44.02798" lon="6.03397">
        <ele>642</ele>
        <time>2024-02-01T10:24:32Z</time>
      </trkpt>
      <trkpt lat="44.02805" lon="6.034">
        <ele>642</ele>
        <time>2024-02-01T10:24:35Z</time>
      </trkpt>
      <trkpt lat="44.02813" lon="6.03399">
        <ele>645</ele>
        <time>2024-02-01T10:24:38Z</time>
      </trkpt>
      <trkpt lat="44.02827" lon="6.03397">
        <ele>645</ele>
        <time>2024-02-01T10:24:40Z</time>
      </trkpt>
      <trkpt lat="44.02833" lon="6.03395">
        <ele>645</ele>
        <time>2024-02-01T10:24:43Z</time>
      </trkpt>
      <trkpt lat="44.02851" lon="6.03418">
        <ele>647</ele>
        <time>2024-02-01T10:24:46Z</time>
      </trkpt>
      <trkpt lat="44.02861" lon="6.03429">
        <ele>638</ele>
        <time>2024-02-01T10:24:49Z</time>
      </trkpt>
      <trkpt lat="44.02872" lon="6.03434">
        <ele>638</ele>
        <time>2024-02-01T10:24:52Z</time>
      </trkpt>
      <trkpt lat="44.02884" lon="6.03432">
        <ele>639</ele>
        <time>2024-02-01T10:24:55Z</time>
      </trkpt>
      <trkpt lat="44.02901" lon="6.03421">
        <ele>639</ele>
        <time>2024-02-01T10:24:59Z</time>
      </trkpt>
      <trkpt lat="44.02905" lon="6.03418">
        <ele>618</ele>
        <time>2024-02-01T10:25:02Z</time>
      </trkpt>
      <trkpt lat="44.02917" lon="6.03423">
        <ele>641</ele>
        <time>2024-02-01T10:25:07Z</time>
      </trkpt>
      <trkpt lat="44.02936" lon="6.03433">
        <ele>641</ele>
        <time>2024-02-01T10:25:10Z</time>
      </trkpt>
      <trkpt lat="44.0294" lon="6.03436">
        <ele>643</ele>
        <time>2024-02-01T10:25:13Z</time>
      </trkpt>
      <trkpt lat="44.02946" lon="6.03441">
        <ele>643</ele>
        <time>2024-02-01T10:25:17Z</time>
      </trkpt>
      <trkpt lat="44.02954" lon="6.03457">
        <ele>636</ele>
        <time>2024-02-01T10:25:23Z</time>
      </trkpt>
      <trkpt lat="44.02972" lon="6.03482">
        <ele>635</ele>
        <time>2024-02-01T10:25:26Z</time>
      </trkpt>
      <trkpt lat="44.02999" lon="6.03529">
        <ele>638</ele>
        <time>2024-02-01T10:25:36Z</time>
      </trkpt>
      <trkpt lat="44.03015" lon="6.03544">
        <ele>654</ele>
        <time>2024-02-01T10:25:41Z</time>
      </trkpt>
      <trkpt lat="44.03029" lon="6.03547">
        <ele>644</ele>
        <time>2024-02-01T10:25:46Z</time>
      </trkpt>
      <trkpt lat="44.03029" lon="6.03539">
        <ele>641</ele>
        <time>2024-02-01T10:25:48Z</time>
      </trkpt>
      <trkpt lat="44.03046" lon="6.03544">
        <ele>642</ele>
        <time>2024-02-01T10:25:53Z</time>
      </trkpt>
      <trkpt lat="44.03052" lon="6.0354">
        <ele>642</ele>
        <time>2024-02-01T10:25:59Z</time>
      </trkpt>
      <trkpt lat="44.03058" lon="6.03531">
        <ele>646</ele>
        <time>2024-02-01T10:26:02Z</time>
      </trkpt>
      <trkpt lat="44.0306" lon="6.03526">
        <ele>646</ele>
        <time>2024-02-01T10:26:05Z</time>
      </trkpt>
      <trkpt lat="44.03065" lon="6.03525">
        <ele>647</ele>
        <time>2024-02-01T10:26:08Z</time>
      </trkpt>
      <trkpt lat="44.03071" lon="6.03524">
        <ele>647</ele>
        <time>2024-02-01T10:26:11Z</time>
      </trkpt>
      <trkpt lat="44.03078" lon="6.03525">
        <ele>646</ele>
        <time>2024-02-01T10:26:14Z</time>
      </trkpt>
      <trkpt lat="44.03084" lon="6.03524">
        <ele>646</ele>
        <time>2024-02-01T10:26:17Z</time>
      </trkpt>
      <trkpt lat="44.0309" lon="6.03528">
        <ele>638</ele>
        <time>2024-02-01T10:26:23Z</time>
      </trkpt>
      <trkpt lat="44.03101" lon="6.03534">
        <ele>636</ele>
        <time>2024-02-01T10:26:29Z</time>
      </trkpt>
      <trkpt lat="44.03112" lon="6.03548">
        <ele>630</ele>
        <time>2024-02-01T10:26:35Z</time>
      </trkpt>
      <trkpt lat="44.03122" lon="6.03565">
        <ele>632</ele>
        <time>2024-02-01T10:26:42Z</time>
      </trkpt>
      <trkpt lat="44.03123" lon="6.03567">
        <ele>631</ele>
        <time>2024-02-01T10:26:46Z</time>
      </trkpt>
      <trkpt lat="44.03145" lon="6.03579">
        <ele>628</ele>
        <time>2024-02-01T10:26:49Z</time>
      </trkpt>
      <trkpt lat="44.03171" lon="6.03592">
        <ele>628</ele>
        <time>2024-02-01T10:26:53Z</time>
      </trkpt>
      <trkpt lat="44.03183" lon="6.03598">
        <ele>626</ele>
        <time>2024-02-01T10:26:57Z</time>
      </trkpt>
      <trkpt lat="44.03185" lon="6.03594">
        <ele>628</ele>
        <time>2024-02-01T10:27:01Z</time>
      </trkpt>
      <trkpt lat="44.03188" lon="6.03586">
        <ele>628</ele>
        <time>2024-02-01T10:27:05Z</time>
      </trkpt>
      <trkpt lat="44.03189" lon="6.03576">
        <ele>629</ele>
        <time>2024-02-01T10:27:11Z</time>
      </trkpt>
      <trkpt lat="44.03197" lon="6.03561">
        <ele>631</ele>
        <time>2024-02-01T10:27:14Z</time>
      </trkpt>
      <trkpt lat="44.03207" lon="6.0355">
        <ele>631</ele>
        <time>2024-02-01T10:27:17Z</time>
      </trkpt>
      <trkpt lat="44.03213" lon="6.03537">
        <ele>626</ele>
        <time>2024-02-01T10:27:20Z</time>
      </trkpt>
      <trkpt lat="44.03216" lon="6.03524">
        <ele>626</ele>
        <time>2024-02-01T10:27:24Z</time>
      </trkpt>
      <trkpt lat="44.0324" lon="6.03513">
        <ele>624</ele>
        <time>2024-02-01T10:27:29Z</time>
      </trkpt>
      <trkpt lat="44.03246" lon="6.03504">
        <ele>614</ele>
        <time>2024-02-01T10:27:35Z</time>
      </trkpt>
      <trkpt lat="44.03253" lon="6.03488">
        <ele>618</ele>
        <time>2024-02-01T10:27:41Z</time>
      </trkpt>
      <trkpt lat="44.03259" lon="6.03483">
        <ele>619</ele>
        <time>2024-02-01T10:27:47Z</time>
      </trkpt>
      <trkpt lat="44.03292" lon="6.03465">
        <ele>617</ele>
        <time>2024-02-01T10:27:53Z</time>
      </trkpt>
      <trkpt lat="44.03314" lon="6.03445">
        <ele>615</ele>
        <time>2024-02-01T10:27:59Z</time>
      </trkpt>
      <trkpt lat="44.03329" lon="6.03442">
        <ele>628</ele>
        <time>2024-02-01T10:28:05Z</time>
      </trkpt>
      <trkpt lat="44.03367" lon="6.03418">
        <ele>608</ele>
        <time>2024-02-01T10:28:11Z</time>
      </trkpt>
      <trkpt lat="44.03389" lon="6.03398">
        <ele>606</ele>
        <time>2024-02-01T10:28:17Z</time>
      </trkpt>
      <trkpt lat="44.034" lon="6.03378">
        <ele>600</ele>
        <time>2024-02-01T10:28:20Z</time>
      </trkpt>
      <trkpt lat="44.03405" lon="6.03373">
        <ele>600</ele>
        <time>2024-02-01T10:28:23Z</time>
      </trkpt>
      <trkpt lat="44.03416" lon="6.03364">
        <ele>593</ele>
        <time>2024-02-01T10:28:29Z</time>
      </trkpt>
      <trkpt lat="44.03469" lon="6.03364">
        <ele>593</ele>
        <time>2024-02-01T10:28:35Z</time>
      </trkpt>
      <trkpt lat="44.03562" lon="6.03376">
        <ele>579</ele>
        <time>2024-02-01T10:28:43Z</time>
      </trkpt>
      <trkpt lat="44.03597" lon="6.03379">
        <ele>583</ele>
        <time>2024-02-01T10:28:49Z</time>
      </trkpt>
      <trkpt lat="44.03632" lon="6.03389">
        <ele>574</ele>
        <time>2024-02-01T10:28:55Z</time>
      </trkpt>
      <trkpt lat="44.03677" lon="6.03408">
        <ele>575</ele>
        <time>2024-02-01T10:29:01Z</time>
      </trkpt>
      <trkpt lat="44.03687" lon="6.03406">
        <ele>569</ele>
        <time>2024-02-01T10:29:06Z</time>
      </trkpt>
      <trkpt lat="44.03705" lon="6.03404">
        <ele>563</ele>
        <time>2024-02-01T10:29:12Z</time>
      </trkpt>
      <trkpt lat="44.03725" lon="6.03413">
        <ele>569</ele>
        <time>2024-02-01T10:29:18Z</time>
      </trkpt>
      <trkpt lat="44.03736" lon="6.03423">
        <ele>573</ele>
        <time>2024-02-01T10:29:24Z</time>
      </trkpt>
      <trkpt lat="44.03723" lon="6.0341">
        <ele>575</ele>
        <time>2024-02-01T10:29:30Z</time>
      </trkpt>
      <trkpt lat="44.03744" lon="6.03423">
        <ele>577</ele>
        <time>2024-02-01T10:29:36Z</time>
      </trkpt>
      <trkpt lat="44.03753" lon="6.03417">
        <ele>578</ele>
        <time>2024-02-01T10:29:42Z</time>
      </trkpt>
      <trkpt lat="44.03755" lon="6.03414">
        <ele>579</ele>
        <time>2024-02-01T10:29:48Z</time>
      </trkpt>
      <trkpt lat="44.03756" lon="6.03411">
        <ele>571</ele>
        <time>2024-02-01T10:30:00Z</time>
      </trkpt>
      <trkpt lat="44.03762" lon="6.0341">
        <ele>566</ele>
        <time>2024-02-01T10:30:06Z</time>
      </trkpt>
      <trkpt lat="44.03766" lon="6.03404">
        <ele>564</ele>
        <time>2024-02-01T10:30:12Z</time>
      </trkpt>
      <trkpt lat="44.0377" lon="6.03391">
        <ele>559</ele>
        <time>2024-02-01T10:30:18Z</time>
      </trkpt>
      <trkpt lat="44.03771" lon="6.03389">
        <ele>558</ele>
        <time>2024-02-01T10:30:25Z</time>
      </trkpt>
      <trkpt lat="44.03776" lon="6.03387">
        <ele>559</ele>
        <time>2024-02-01T10:30:27Z</time>
      </trkpt>
      <trkpt lat="44.03778" lon="6.03384">
        <ele>559</ele>
        <time>2024-02-01T10:30:30Z</time>
      </trkpt>
      <trkpt lat="44.03792" lon="6.03371">
        <ele>559</ele>
        <time>2024-02-01T10:30:33Z</time>
      </trkpt>
      <trkpt lat="44.03796" lon="6.03366">
        <ele>559</ele>
        <time>2024-02-01T10:30:36Z</time>
      </trkpt>
      <trkpt lat="44.03805" lon="6.03355">
        <ele>557</ele>
        <time>2024-02-01T10:30:39Z</time>
      </trkpt>
      <trkpt lat="44.0381" lon="6.0335">
        <ele>557</ele>
        <time>2024-02-01T10:30:42Z</time>
      </trkpt>
      <trkpt lat="44.03817" lon="6.03343">
        <ele>551</ele>
        <time>2024-02-01T10:30:45Z</time>
      </trkpt>
      <trkpt lat="44.03823" lon="6.03337">
        <ele>551</ele>
        <time>2024-02-01T10:30:48Z</time>
      </trkpt>
      <trkpt lat="44.03837" lon="6.03325">
        <ele>553</ele>
        <time>2024-02-01T10:30:50Z</time>
      </trkpt>
      <trkpt lat="44.03851" lon="6.03305">
        <ele>553</ele>
        <time>2024-02-01T10:30:54Z</time>
      </trkpt>
      <trkpt lat="44.03862" lon="6.03288">
        <ele>485</ele>
        <time>2024-02-01T10:30:59Z</time>
      </trkpt>
      <trkpt lat="44.0387" lon="6.03278">
        <ele>551</ele>
        <time>2024-02-01T10:31:05Z</time>
      </trkpt>
      <trkpt lat="44.03883" lon="6.03268">
        <ele>546</ele>
        <time>2024-02-01T10:31:11Z</time>
      </trkpt>
      <trkpt lat="44.03894" lon="6.03249">
        <ele>539</ele>
        <time>2024-02-01T10:31:17Z</time>
      </trkpt>
      <trkpt lat="44.03898" lon="6.0324">
        <ele>536</ele>
        <time>2024-02-01T10:31:20Z</time>
      </trkpt>
      <trkpt lat="44.03901" lon="6.03237">
        <ele>536</ele>
        <time>2024-02-01T10:31:23Z</time>
      </trkpt>
      <trkpt lat="44.03907" lon="6.03235">
        <ele>535</ele>
        <time>2024-02-01T10:31:26Z</time>
      </trkpt>
      <trkpt lat="44.03913" lon="6.03235">
        <ele>535</ele>
        <time>2024-02-01T10:31:29Z</time>
      </trkpt>
      <trkpt lat="44.03917" lon="6.03225">
        <ele>536</ele>
        <time>2024-02-01T10:31:35Z</time>
      </trkpt>
      <trkpt lat="44.03941" lon="6.03217">
        <ele>532</ele>
        <time>2024-02-01T10:31:41Z</time>
      </trkpt>
      <trkpt lat="44.03958" lon="6.03216">
        <ele>531</ele>
        <time>2024-02-01T10:31:44Z</time>
      </trkpt>
      <trkpt lat="44.0398" lon="6.03222">
        <ele>532</ele>
        <time>2024-02-01T10:31:47Z</time>
      </trkpt>
      <trkpt lat="44.03991" lon="6.03226">
        <ele>532</ele>
        <time>2024-02-01T10:31:50Z</time>
      </trkpt>
      <trkpt lat="44.04004" lon="6.03246">
        <ele>533</ele>
        <time>2024-02-01T10:31:52Z</time>
      </trkpt>
      <trkpt lat="44.04008" lon="6.03252">
        <ele>533</ele>
        <time>2024-02-01T10:31:55Z</time>
      </trkpt>
      <trkpt lat="44.04019" lon="6.03266">
        <ele>541</ele>
        <time>2024-02-01T10:32:01Z</time>
      </trkpt>
      <trkpt lat="44.04017" lon="6.03268">
        <ele>531</ele>
        <time>2024-02-01T10:32:14Z</time>
      </trkpt>
      <trkpt lat="44.04017" lon="6.03272">
        <ele>530</ele>
        <time>2024-02-01T10:32:20Z</time>
      </trkpt>
      <trkpt lat="44.04019" lon="6.03273">
        <ele>484</ele>
        <time>2024-02-01T10:32:29Z</time>
      </trkpt>
      <trkpt lat="44.04022" lon="6.0327">
        <ele>523</ele>
        <time>2024-02-01T10:32:32Z</time>
      </trkpt>
      <trkpt lat="44.04032" lon="6.03271">
        <ele>520</ele>
        <time>2024-02-01T10:32:35Z</time>
      </trkpt>
      <trkpt lat="44.0404" lon="6.0327">
        <ele>520</ele>
        <time>2024-02-01T10:32:37Z</time>
      </trkpt>
      <trkpt lat="44.04054" lon="6.03269">
        <ele>514</ele>
        <time>2024-02-01T10:32:40Z</time>
      </trkpt>
      <trkpt lat="44.04064" lon="6.03267">
        <ele>514</ele>
        <time>2024-02-01T10:32:43Z</time>
      </trkpt>
      <trkpt lat="44.04084" lon="6.03267">
        <ele>515</ele>
        <time>2024-02-01T10:32:46Z</time>
      </trkpt>
      <trkpt lat="44.04103" lon="6.03269">
        <ele>515</ele>
        <time>2024-02-01T10:32:49Z</time>
      </trkpt>
      <trkpt lat="44.04118" lon="6.03264">
        <ele>514</ele>
        <time>2024-02-01T10:32:52Z</time>
      </trkpt>
      <trkpt lat="44.04128" lon="6.03259">
        <ele>514</ele>
        <time>2024-02-01T10:32:55Z</time>
      </trkpt>
      <trkpt lat="44.04134" lon="6.03254">
        <ele>481</ele>
        <time>2024-02-01T10:32:57Z</time>
      </trkpt>
      <trkpt lat="44.04138" lon="6.03251">
        <ele>502</ele>
        <time>2024-02-01T10:33:00Z</time>
      </trkpt>
      <trkpt lat="44.04141" lon="6.0325">
        <ele>504</ele>
        <time>2024-02-01T10:33:03Z</time>
      </trkpt>
      <trkpt lat="44.04147" lon="6.03253">
        <ele>501</ele>
        <time>2024-02-01T10:33:06Z</time>
      </trkpt>
      <trkpt lat="44.04152" lon="6.03253">
        <ele>495</ele>
        <time>2024-02-01T10:33:09Z</time>
      </trkpt>
      <trkpt lat="44.04159" lon="6.03257">
        <ele>497</ele>
        <time>2024-02-01T10:33:12Z</time>
      </trkpt>
      <trkpt lat="44.04164" lon="6.03259">
        <ele>497</ele>
        <time>2024-02-01T10:33:15Z</time>
      </trkpt>
      <trkpt lat="44.04169" lon="6.0326">
        <ele>497</ele>
        <time>2024-02-01T10:33:18Z</time>
      </trkpt>
      <trkpt lat="44.04169" lon="6.03263">
        <ele>493</ele>
        <time>2024-02-01T10:33:20Z</time>
      </trkpt>
      <trkpt lat="44.04169" lon="6.03271">
        <ele>489</ele>
        <time>2024-02-01T10:33:23Z</time>
      </trkpt>
      <trkpt lat="44.04171" lon="6.03276">
        <ele>493</ele>
        <time>2024-02-01T10:33:26Z</time>
      </trkpt>
      <trkpt lat="44.0417" lon="6.03284">
        <ele>485</ele>
        <time>2024-02-01T10:33:32Z</time>
      </trkpt>
      <trkpt lat="44.04175" lon="6.03282">
        <ele>493</ele>
        <time>2024-02-01T10:33:38Z</time>
      </trkpt>
      <trkpt lat="44.04178" lon="6.03281">
        <ele>493</ele>
        <time>2024-02-01T10:33:43Z</time>
      </trkpt>
      <trkpt lat="44.04185" lon="6.03282">
        <ele>489</ele>
        <time>2024-02-01T10:33:47Z</time>
      </trkpt>
      <trkpt lat="44.04189" lon="6.03286">
        <ele>490</ele>
        <time>2024-02-01T10:33:51Z</time>
      </trkpt>
      <trkpt lat="44.04197" lon="6.03313">
        <ele>490</ele>
        <time>2024-02-01T10:33:55Z</time>
      </trkpt>
      <trkpt lat="44.04198" lon="6.03323">
        <ele>493</ele>
        <time>2024-02-01T10:33:58Z</time>
      </trkpt>
      <trkpt lat="44.042" lon="6.03339">
        <ele>493</ele>
        <time>2024-02-01T10:34:02Z</time>
      </trkpt>
      <trkpt lat="44.04205" lon="6.03347">
        <ele>486</ele>
        <time>2024-02-01T10:34:07Z</time>
      </trkpt>
      <trkpt lat="44.04209" lon="6.0336">
        <ele>488</ele>
        <time>2024-02-01T10:34:13Z</time>
      </trkpt>
      <trkpt lat="44.04204" lon="6.03359">
        <ele>488</ele>
        <time>2024-02-01T10:34:18Z</time>
      </trkpt>
      <trkpt lat="44.04204" lon="6.03364">
        <ele>486</ele>
        <time>2024-02-01T10:34:21Z</time>
      </trkpt>
      <trkpt lat="44.04198" lon="6.03384">
        <ele>486</ele>
        <time>2024-02-01T10:34:25Z</time>
      </trkpt>
      <trkpt lat="44.04196" lon="6.03396">
        <ele>490</ele>
        <time>2024-02-01T10:34:28Z</time>
      </trkpt>
      <trkpt lat="44.04195" lon="6.03406">
        <ele>490</ele>
        <time>2024-02-01T10:34:32Z</time>
      </trkpt>
      <trkpt lat="44.04192" lon="6.03419">
        <ele>486</ele>
        <time>2024-02-01T10:34:37Z</time>
      </trkpt>
      <trkpt lat="44.0419" lon="6.03421">
        <ele>491</ele>
        <time>2024-02-01T10:34:43Z</time>
      </trkpt>
      <trkpt lat="44.04188" lon="6.03432">
        <ele>495</ele>
        <time>2024-02-01T10:34:46Z</time>
      </trkpt>
      <trkpt lat="44.04187" lon="6.0344">
        <ele>493</ele>
        <time>2024-02-01T10:34:49Z</time>
      </trkpt>
      <trkpt lat="44.04187" lon="6.03452">
        <ele>493</ele>
        <time>2024-02-01T10:34:55Z</time>
      </trkpt>
      <trkpt lat="44.04183" lon="6.03459">
        <ele>493</ele>
        <time>2024-02-01T10:35:01Z</time>
      </trkpt>
      <trkpt lat="44.04185" lon="6.03506">
        <ele>495</ele>
        <time>2024-02-01T10:35:07Z</time>
      </trkpt>
      <trkpt lat="44.04187" lon="6.03508">
        <ele>495</ele>
        <time>2024-02-01T10:35:13Z</time>
      </trkpt>
      <trkpt lat="44.04179" lon="6.03549">
        <ele>496</ele>
        <time>2024-02-01T10:35:20Z</time>
      </trkpt>
      <trkpt lat="44.04166" lon="6.03571">
        <ele>496</ele>
        <time>2024-02-01T10:35:25Z</time>
      </trkpt>
      <trkpt lat="44.0416" lon="6.0359">
        <ele>484</ele>
        <time>2024-02-01T10:35:31Z</time>
      </trkpt>
      <trkpt lat="44.04161" lon="6.03608">
        <ele>497</ele>
        <time>2024-02-01T10:35:37Z</time>
      </trkpt>
      <trkpt lat="44.04161" lon="6.03621">
        <ele>498</ele>
        <time>2024-02-01T10:35:40Z</time>
      </trkpt>
      <trkpt lat="44.0416" lon="6.03636">
        <ele>498</ele>
        <time>2024-02-01T10:35:43Z</time>
      </trkpt>
      <trkpt lat="44.04164" lon="6.03643">
        <ele>499</ele>
        <time>2024-02-01T10:35:46Z</time>
      </trkpt>
      <trkpt lat="44.04167" lon="6.03651">
        <ele>499</ele>
        <time>2024-02-01T10:35:50Z</time>
      </trkpt>
      <trkpt lat="44.04169" lon="6.03665">
        <ele>499</ele>
        <time>2024-02-01T10:35:55Z</time>
      </trkpt>
      <trkpt lat="44.04168" lon="6.03679">
        <ele>501</ele>
        <time>2024-02-01T10:36:01Z</time>
      </trkpt>
      <trkpt lat="44.04164" lon="6.03695">
        <ele>500</ele>
        <time>2024-02-01T10:36:04Z</time>
      </trkpt>
      <trkpt lat="44.04161" lon="6.03712">
        <ele>502</ele>
        <time>2024-02-01T10:36:07Z</time>
      </trkpt>
      <trkpt lat="44.0416" lon="6.03722">
        <ele>484</ele>
        <time>2024-02-01T10:36:10Z</time>
      </trkpt>
      <trkpt lat="44.04158" lon="6.03729">
        <ele>484</ele>
        <time>2024-02-01T10:36:13Z</time>
      </trkpt>
      <trkpt lat="44.04153" lon="6.03732">
        <ele>504</ele>
        <time>2024-02-01T10:36:19Z</time>
      </trkpt>
      <trkpt lat="44.04147" lon="6.03743">
        <ele>505</ele>
        <time>2024-02-01T10:36:23Z</time>
      </trkpt>
      <trkpt lat="44.04144" lon="6.03749">
        <ele>505</ele>
        <time>2024-02-01T10:36:26Z</time>
      </trkpt>
      <trkpt lat="44.04144" lon="6.03763">
        <ele>506</ele>
        <time>2024-02-01T10:36:29Z</time>
      </trkpt>
      <trkpt lat="44.04144" lon="6.0377">
        <ele>506</ele>
        <time>2024-02-01T10:36:32Z</time>
      </trkpt>
      <trkpt lat="44.04145" lon="6.03785">
        <ele>506</ele>
        <time>2024-02-01T10:36:34Z</time>
      </trkpt>
      <trkpt lat="44.04145" lon="6.0379">
        <ele>506</ele>
        <time>2024-02-01T10:36:37Z</time>
      </trkpt>
      <trkpt lat="44.04146" lon="6.03797">
        <ele>506</ele>
        <time>2024-02-01T10:36:40Z</time>
      </trkpt>
      <trkpt lat="44.04147" lon="6.03808">
        <ele>506</ele>
        <time>2024-02-01T10:36:43Z</time>
      </trkpt>
      <trkpt lat="44.04149" lon="6.03831">
        <ele>507</ele>
        <time>2024-02-01T10:36:46Z</time>
      </trkpt>
      <trkpt lat="44.04147" lon="6.03847">
        <ele>508</ele>
        <time>2024-02-01T10:36:49Z</time>
      </trkpt>
      <trkpt lat="44.04147" lon="6.03854">
        <ele>507</ele>
        <time>2024-02-01T10:36:52Z</time>
      </trkpt>
      <trkpt lat="44.04148" lon="6.0386">
        <ele>507</ele>
        <time>2024-02-01T10:36:55Z</time>
      </trkpt>
      <trkpt lat="44.04146" lon="6.03867">
        <ele>508</ele>
        <time>2024-02-01T10:36:58Z</time>
      </trkpt>
      <trkpt lat="44.04144" lon="6.03874">
        <ele>508</ele>
        <time>2024-02-01T10:37:01Z</time>
      </trkpt>
      <trkpt lat="44.04141" lon="6.03889">
        <ele>508</ele>
        <time>2024-02-01T10:37:07Z</time>
      </trkpt>
      <trkpt lat="44.04139" lon="6.03907">
        <ele>511</ele>
        <time>2024-02-01T10:37:13Z</time>
      </trkpt>
      <trkpt lat="44.04137" lon="6.03915">
        <ele>511</ele>
        <time>2024-02-01T10:37:16Z</time>
      </trkpt>
      <trkpt lat="44.04136" lon="6.03928">
        <ele>512</ele>
        <time>2024-02-01T10:37:19Z</time>
      </trkpt>
      <trkpt lat="44.0413" lon="6.03946">
        <ele>512</ele>
        <time>2024-02-01T10:37:25Z</time>
      </trkpt>
      <trkpt lat="44.04124" lon="6.03958">
        <ele>513</ele>
        <time>2024-02-01T10:37:31Z</time>
      </trkpt>
      <trkpt lat="44.04113" lon="6.04032">
        <ele>517</ele>
        <time>2024-02-01T10:37:39Z</time>
      </trkpt>
      <trkpt lat="44.04114" lon="6.04041">
        <ele>517</ele>
        <time>2024-02-01T10:37:43Z</time>
      </trkpt>
      <trkpt lat="44.04115" lon="6.04053">
        <ele>517</ele>
        <time>2024-02-01T10:37:49Z</time>
      </trkpt>
      <trkpt lat="44.04112" lon="6.04064">
        <ele>518</ele>
        <time>2024-02-01T10:37:55Z</time>
      </trkpt>
      <trkpt lat="44.04097" lon="6.0407">
        <ele>518</ele>
        <time>2024-02-01T10:37:58Z</time>
      </trkpt>
      <trkpt lat="44.04089" lon="6.04074">
        <ele>518</ele>
        <time>2024-02-01T10:38:01Z</time>
      </trkpt>
      <trkpt lat="44.04079" lon="6.0407">
        <ele>520</ele>
        <time>2024-02-01T10:38:07Z</time>
      </trkpt>
      <trkpt lat="44.04061" lon="6.04072">
        <ele>520</ele>
        <time>2024-02-01T10:38:13Z</time>
      </trkpt>
      <trkpt lat="44.04049" lon="6.04072">
        <ele>521</ele>
        <time>2024-02-01T10:38:16Z</time>
      </trkpt>
      <trkpt lat="44.04038" lon="6.04068">
        <ele>521</ele>
        <time>2024-02-01T10:38:19Z</time>
      </trkpt>
      <trkpt lat="44.04033" lon="6.04067">
        <ele>523</ele>
        <time>2024-02-01T10:38:21Z</time>
      </trkpt>
      <trkpt lat="44.04019" lon="6.04069">
        <ele>523</ele>
        <time>2024-02-01T10:38:25Z</time>
      </trkpt>
      <trkpt lat="44.04012" lon="6.04062">
        <ele>522</ele>
        <time>2024-02-01T10:38:31Z</time>
      </trkpt>
      <trkpt lat="44.03999" lon="6.0406">
        <ele>521</ele>
        <time>2024-02-01T10:38:34Z</time>
      </trkpt>
      <trkpt lat="44.0399" lon="6.04057">
        <ele>521</ele>
        <time>2024-02-01T10:38:37Z</time>
      </trkpt>
      <trkpt lat="44.0398" lon="6.04027">
        <ele>523</ele>
        <time>2024-02-01T10:38:43Z</time>
      </trkpt>
      <trkpt lat="44.03984" lon="6.04018">
        <ele>526</ele>
        <time>2024-02-01T10:38:46Z</time>
      </trkpt>
      <trkpt lat="44.03987" lon="6.04016">
        <ele>526</ele>
        <time>2024-02-01T10:38:49Z</time>
      </trkpt>
      <trkpt lat="44.03991" lon="6.04013">
        <ele>528</ele>
        <time>2024-02-01T10:38:51Z</time>
      </trkpt>
      <trkpt lat="44.03995" lon="6.04011">
        <ele>528</ele>
        <time>2024-02-01T10:38:55Z</time>
      </trkpt>
      <trkpt lat="44.04001" lon="6.04008">
        <ele>528</ele>
        <time>2024-02-01T10:39:01Z</time>
      </trkpt>
      <trkpt lat="44.04005" lon="6.04006">
        <ele>529</ele>
        <time>2024-02-01T10:39:04Z</time>
      </trkpt>
      <trkpt lat="44.04008" lon="6.04005">
        <ele>529</ele>
        <time>2024-02-01T10:39:07Z</time>
      </trkpt>
      <trkpt lat="44.04016" lon="6.04002">
        <ele>530</ele>
        <time>2024-02-01T10:39:13Z</time>
      </trkpt>
      <trkpt lat="44.04023" lon="6.04">
        <ele>532</ele>
        <time>2024-02-01T10:39:19Z</time>
      </trkpt>
      <trkpt lat="44.04035" lon="6.04035">
        <ele>533</ele>
        <time>2024-02-01T10:39:26Z</time>
      </trkpt>
      <trkpt lat="44.04059" lon="6.04033">
        <ele>530</ele>
        <time>2024-02-01T10:39:31Z</time>
      </trkpt>
      <trkpt lat="44.04061" lon="6.04033">
        <ele>536</ele>
        <time>2024-02-01T10:39:37Z</time>
      </trkpt>
      <trkpt lat="44.04062" lon="6.04028">
        <ele>535</ele>
        <time>2024-02-01T10:39:43Z</time>
      </trkpt>
      <trkpt lat="44.04068" lon="6.04024">
        <ele>535</ele>
        <time>2024-02-01T10:39:46Z</time>
      </trkpt>
      <trkpt lat="44.04072" lon="6.04014">
        <ele>537</ele>
        <time>2024-02-01T10:39:49Z</time>
      </trkpt>
      <trkpt lat="44.04081" lon="6.03998">
        <ele>538</ele>
        <time>2024-02-01T10:39:51Z</time>
      </trkpt>
      <trkpt lat="44.0409" lon="6.03976">
        <ele>538</ele>
        <time>2024-02-01T10:39:55Z</time>
      </trkpt>
      <trkpt lat="44.04088" lon="6.03967">
        <ele>539</ele>
        <time>2024-02-01T10:40:01Z</time>
      </trkpt>
      <trkpt lat="44.04084" lon="6.03963">
        <ele>539</ele>
        <time>2024-02-01T10:40:04Z</time>
      </trkpt>
      <trkpt lat="44.04079" lon="6.03956">
        <ele>539</ele>
        <time>2024-02-01T10:40:07Z</time>
      </trkpt>
      <trkpt lat="44.04075" lon="6.03948">
        <ele>539</ele>
        <time>2024-02-01T10:40:10Z</time>
      </trkpt>
      <trkpt lat="44.04072" lon="6.03943">
        <ele>539</ele>
        <time>2024-02-01T10:40:13Z</time>
      </trkpt>
      <trkpt lat="44.04071" lon="6.03938">
        <ele>542</ele>
        <time>2024-02-01T10:40:16Z</time>
      </trkpt>
      <trkpt lat="44.04065" lon="6.0393">
        <ele>542</ele>
        <time>2024-02-01T10:40:19Z</time>
      </trkpt>
      <trkpt lat="44.04066" lon="6.03925">
        <ele>545</ele>
        <time>2024-02-01T10:40:22Z</time>
      </trkpt>
      <trkpt lat="44.04062" lon="6.03922">
        <ele>545</ele>
        <time>2024-02-01T10:40:25Z</time>
      </trkpt>
      <trkpt lat="44.04063" lon="6.03919">
        <ele>542</ele>
        <time>2024-02-01T10:40:29Z</time>
      </trkpt>
      <trkpt lat="44.04059" lon="6.03922">
        <ele>542</ele>
        <time>2024-02-01T10:40:32Z</time>
      </trkpt>
      <trkpt lat="44.04056" lon="6.0391">
        <ele>547</ele>
        <time>2024-02-01T10:40:37Z</time>
      </trkpt>
      <trkpt lat="44.04053" lon="6.03898">
        <ele>548</ele>
        <time>2024-02-01T10:40:44Z</time>
      </trkpt>
      <trkpt lat="44.04043" lon="6.03882">
        <ele>550</ele>
        <time>2024-02-01T10:40:46Z</time>
      </trkpt>
      <trkpt lat="44.04039" lon="6.03882">
        <ele>550</ele>
        <time>2024-02-01T10:40:50Z</time>
      </trkpt>
      <trkpt lat="44.04021" lon="6.03868">
        <ele>552</ele>
        <time>2024-02-01T10:40:53Z</time>
      </trkpt>
      <trkpt lat="44.04011" lon="6.03861">
        <ele>552</ele>
        <time>2024-02-01T10:40:56Z</time>
      </trkpt>
      <trkpt lat="44.04009" lon="6.03866">
        <ele>551</ele>
        <time>2024-02-01T10:40:59Z</time>
      </trkpt>
      <trkpt lat="44.04005" lon="6.03868">
        <ele>551</ele>
        <time>2024-02-01T10:41:02Z</time>
      </trkpt>
      <trkpt lat="44.03999" lon="6.03876">
        <ele>556</ele>
        <time>2024-02-01T10:41:08Z</time>
      </trkpt>
      <trkpt lat="44.03996" lon="6.03879">
        <ele>559</ele>
        <time>2024-02-01T10:41:10Z</time>
      </trkpt>
      <trkpt lat="44.03992" lon="6.03881">
        <ele>559</ele>
        <time>2024-02-01T10:41:13Z</time>
      </trkpt>
      <trkpt lat="44.0399" lon="6.03891">
        <ele>560</ele>
        <time>2024-02-01T10:41:19Z</time>
      </trkpt>
      <trkpt lat="44.03988" lon="6.03909">
        <ele>561</ele>
        <time>2024-02-01T10:41:25Z</time>
      </trkpt>
      <trkpt lat="44.03991" lon="6.03932">
        <ele>558</ele>
        <time>2024-02-01T10:41:31Z</time>
      </trkpt>
      <trkpt lat="44.03992" lon="6.03948">
        <ele>562</ele>
        <time>2024-02-01T10:41:37Z</time>
      </trkpt>
      <trkpt lat="44.03983" lon="6.03968">
        <ele>479</ele>
        <time>2024-02-01T10:41:44Z</time>
      </trkpt>
      <trkpt lat="44.03985" lon="6.03968">
        <ele>580</ele>
        <time>2024-02-01T10:42:20Z</time>
      </trkpt>
      <trkpt lat="44.03982" lon="6.03964">
        <ele>577</ele>
        <time>2024-02-01T10:42:38Z</time>
      </trkpt>
      <trkpt lat="44.03983" lon="6.03962">
        <ele>565</ele>
        <time>2024-02-01T10:43:02Z</time>
      </trkpt>
      <trkpt lat="44.03983" lon="6.03965">
        <ele>564</ele>
        <time>2024-02-01T10:43:44Z</time>
      </trkpt>
      <trkpt lat="44.03982" lon="6.03968">
        <ele>565</ele>
        <time>2024-02-01T10:44:20Z</time>
      </trkpt>
      <trkpt lat="44.0398" lon="6.03968">
        <ele>570</ele>
        <time>2024-02-01T10:45:31Z</time>
      </trkpt>
      <trkpt lat="44.03967" lon="6.03968">
        <ele>567</ele>
        <time>2024-02-01T10:45:37Z</time>
      </trkpt>
      <trkpt lat="44.03955" lon="6.0397">
        <ele>573</ele>
        <time>2024-02-01T10:45:43Z</time>
      </trkpt>
      <trkpt lat="44.03945" lon="6.03974">
        <ele>573</ele>
        <time>2024-02-01T10:45:49Z</time>
      </trkpt>
      <trkpt lat="44.03928" lon="6.03982">
        <ele>575</ele>
        <time>2024-02-01T10:45:53Z</time>
      </trkpt>
      <trkpt lat="44.03921" lon="6.03984">
        <ele>575</ele>
        <time>2024-02-01T10:45:55Z</time>
      </trkpt>
      <trkpt lat="44.03912" lon="6.03989">
        <ele>573</ele>
        <time>2024-02-01T10:46:01Z</time>
      </trkpt>
      <trkpt lat="44.03905" lon="6.03984">
        <ele>570</ele>
        <time>2024-02-01T10:46:07Z</time>
      </trkpt>
      <trkpt lat="44.03891" lon="6.03981">
        <ele>578</ele>
        <time>2024-02-01T10:46:14Z</time>
      </trkpt>
      <trkpt lat="44.03869" lon="6.03976">
        <ele>576</ele>
        <time>2024-02-01T10:46:19Z</time>
      </trkpt>
      <trkpt lat="44.03857" lon="6.03973">
        <ele>579</ele>
        <time>2024-02-01T10:46:25Z</time>
      </trkpt>
      <trkpt lat="44.03847" lon="6.03971">
        <ele>579</ele>
        <time>2024-02-01T10:46:28Z</time>
      </trkpt>
      <trkpt lat="44.0384" lon="6.03971">
        <ele>579</ele>
        <time>2024-02-01T10:46:31Z</time>
      </trkpt>
      <trkpt lat="44.03826" lon="6.03969">
        <ele>582</ele>
        <time>2024-02-01T10:46:37Z</time>
      </trkpt>
      <trkpt lat="44.03807" lon="6.03961">
        <ele>579</ele>
        <time>2024-02-01T10:46:43Z</time>
      </trkpt>
      <trkpt lat="44.03792" lon="6.03958">
        <ele>580</ele>
        <time>2024-02-01T10:46:46Z</time>
      </trkpt>
      <trkpt lat="44.03783" lon="6.03956">
        <ele>580</ele>
        <time>2024-02-01T10:46:49Z</time>
      </trkpt>
      <trkpt lat="44.03766" lon="6.03953">
        <ele>586</ele>
        <time>2024-02-01T10:46:55Z</time>
      </trkpt>
      <trkpt lat="44.03752" lon="6.03953">
        <ele>582</ele>
        <time>2024-02-01T10:47:01Z</time>
      </trkpt>
      <trkpt lat="44.03745" lon="6.03953">
        <ele>586</ele>
        <time>2024-02-01T10:47:04Z</time>
      </trkpt>
      <trkpt lat="44.03739" lon="6.0395">
        <ele>586</ele>
        <time>2024-02-01T10:47:07Z</time>
      </trkpt>
      <trkpt lat="44.03732" lon="6.03942">
        <ele>585</ele>
        <time>2024-02-01T10:47:13Z</time>
      </trkpt>
      <trkpt lat="44.03728" lon="6.03936">
        <ele>586</ele>
        <time>2024-02-01T10:47:16Z</time>
      </trkpt>
      <trkpt lat="44.03724" lon="6.03932">
        <ele>586</ele>
        <time>2024-02-01T10:47:19Z</time>
      </trkpt>
      <trkpt lat="44.03715" lon="6.03926">
        <ele>586</ele>
        <time>2024-02-01T10:47:25Z</time>
      </trkpt>
      <trkpt lat="44.03714" lon="6.03921">
        <ele>587</ele>
        <time>2024-02-01T10:47:31Z</time>
      </trkpt>
      <trkpt lat="44.0371" lon="6.03907">
        <ele>591</ele>
        <time>2024-02-01T10:47:37Z</time>
      </trkpt>
      <trkpt lat="44.03706" lon="6.0389">
        <ele>590</ele>
        <time>2024-02-01T10:47:44Z</time>
      </trkpt>
      <trkpt lat="44.03705" lon="6.03871">
        <ele>591</ele>
        <time>2024-02-01T10:47:49Z</time>
      </trkpt>
      <trkpt lat="44.03714" lon="6.03827">
        <ele>590</ele>
        <time>2024-02-01T10:47:56Z</time>
      </trkpt>
      <trkpt lat="44.03715" lon="6.03821">
        <ele>591</ele>
        <time>2024-02-01T10:48:02Z</time>
      </trkpt>
      <trkpt lat="44.03716" lon="6.03811">
        <ele>585</ele>
        <time>2024-02-01T10:48:08Z</time>
      </trkpt>
      <trkpt lat="44.03715" lon="6.03803">
        <ele>586</ele>
        <time>2024-02-01T10:48:13Z</time>
      </trkpt>
      <trkpt lat="44.03708" lon="6.0377">
        <ele>587</ele>
        <time>2024-02-01T10:48:19Z</time>
      </trkpt>
      <trkpt lat="44.03713" lon="6.03755">
        <ele>587</ele>
        <time>2024-02-01T10:48:25Z</time>
      </trkpt>
      <trkpt lat="44.03714" lon="6.03749">
        <ele>580</ele>
        <time>2024-02-01T10:48:31Z</time>
      </trkpt>
      <trkpt lat="44.0371" lon="6.03743">
        <ele>586</ele>
        <time>2024-02-01T10:48:37Z</time>
      </trkpt>
      <trkpt lat="44.03699" lon="6.03748">
        <ele>584</ele>
        <time>2024-02-01T10:48:43Z</time>
      </trkpt>
      <trkpt lat="44.03692" lon="6.03753">
        <ele>588</ele>
        <time>2024-02-01T10:48:46Z</time>
      </trkpt>
      <trkpt lat="44.03687" lon="6.03756">
        <ele>588</ele>
        <time>2024-02-01T10:48:49Z</time>
      </trkpt>
      <trkpt lat="44.03688" lon="6.03751">
        <ele>589</ele>
        <time>2024-02-01T10:48:55Z</time>
      </trkpt>
      <trkpt lat="44.03684" lon="6.03749">
        <ele>591</ele>
        <time>2024-02-01T10:48:59Z</time>
      </trkpt>
      <trkpt lat="44.03679" lon="6.03747">
        <ele>589</ele>
        <time>2024-02-01T10:49:02Z</time>
      </trkpt>
      <trkpt lat="44.03674" lon="6.03743">
        <ele>593</ele>
        <time>2024-02-01T10:49:05Z</time>
      </trkpt>
      <trkpt lat="44.0367" lon="6.03746">
        <ele>594</ele>
        <time>2024-02-01T10:49:07Z</time>
      </trkpt>
      <trkpt lat="44.03663" lon="6.0374">
        <ele>592</ele>
        <time>2024-02-01T10:49:11Z</time>
      </trkpt>
      <trkpt lat="44.03655" lon="6.0373">
        <ele>592</ele>
        <time>2024-02-01T10:49:14Z</time>
      </trkpt>
      <trkpt lat="44.03646" lon="6.03712">
        <ele>597</ele>
        <time>2024-02-01T10:49:19Z</time>
      </trkpt>
      <trkpt lat="44.03634" lon="6.03695">
        <ele>581</ele>
        <time>2024-02-01T10:49:25Z</time>
      </trkpt>
      <trkpt lat="44.03622" lon="6.03693">
        <ele>600</ele>
        <time>2024-02-01T10:49:31Z</time>
      </trkpt>
      <trkpt lat="44.03621" lon="6.03686">
        <ele>602</ele>
        <time>2024-02-01T10:49:34Z</time>
      </trkpt>
      <trkpt lat="44.03606" lon="6.03685">
        <ele>602</ele>
        <time>2024-02-01T10:49:37Z</time>
      </trkpt>
      <trkpt lat="44.03592" lon="6.03676">
        <ele>601</ele>
        <time>2024-02-01T10:49:43Z</time>
      </trkpt>
      <trkpt lat="44.0359" lon="6.03657">
        <ele>606</ele>
        <time>2024-02-01T10:49:49Z</time>
      </trkpt>
      <trkpt lat="44.03586" lon="6.03655">
        <ele>609</ele>
        <time>2024-02-01T10:49:55Z</time>
      </trkpt>
      <trkpt lat="44.03583" lon="6.03655">
        <ele>609</ele>
        <time>2024-02-01T10:50:01Z</time>
      </trkpt>
      <trkpt lat="44.03576" lon="6.03654">
        <ele>614</ele>
        <time>2024-02-01T10:50:07Z</time>
      </trkpt>
      <trkpt lat="44.03555" lon="6.03632">
        <ele>608</ele>
        <time>2024-02-01T10:50:13Z</time>
      </trkpt>
      <trkpt lat="44.0355" lon="6.03605">
        <ele>610</ele>
        <time>2024-02-01T10:50:19Z</time>
      </trkpt>
      <trkpt lat="44.03533" lon="6.03581">
        <ele>614</ele>
        <time>2024-02-01T10:50:25Z</time>
      </trkpt>
      <trkpt lat="44.03521" lon="6.03574">
        <ele>609</ele>
        <time>2024-02-01T10:50:28Z</time>
      </trkpt>
      <trkpt lat="44.03517" lon="6.03575">
        <ele>609</ele>
        <time>2024-02-01T10:50:31Z</time>
      </trkpt>
      <trkpt lat="44.0351" lon="6.0358">
        <ele>615</ele>
        <time>2024-02-01T10:50:37Z</time>
      </trkpt>
      <trkpt lat="44.0351" lon="6.03584">
        <ele>609</ele>
        <time>2024-02-01T10:50:43Z</time>
      </trkpt>
      <trkpt lat="44.0351" lon="6.03586">
        <ele>616</ele>
        <time>2024-02-01T10:50:49Z</time>
      </trkpt>
      <trkpt lat="44.03484" lon="6.03588">
        <ele>614</ele>
        <time>2024-02-01T10:50:55Z</time>
      </trkpt>
      <trkpt lat="44.03458" lon="6.03598">
        <ele>613</ele>
        <time>2024-02-01T10:51:01Z</time>
      </trkpt>
      <trkpt lat="44.03441" lon="6.0361">
        <ele>608</ele>
        <time>2024-02-01T10:51:07Z</time>
      </trkpt>
      <trkpt lat="44.03438" lon="6.03612">
        <ele>608</ele>
        <time>2024-02-01T10:51:13Z</time>
      </trkpt>
      <trkpt lat="44.03433" lon="6.03618">
        <ele>609</ele>
        <time>2024-02-01T10:51:19Z</time>
      </trkpt>
      <trkpt lat="44.03427" lon="6.03625">
        <ele>617</ele>
        <time>2024-02-01T10:51:22Z</time>
      </trkpt>
      <trkpt lat="44.03424" lon="6.03629">
        <ele>617</ele>
        <time>2024-02-01T10:51:25Z</time>
      </trkpt>
      <trkpt lat="44.03421" lon="6.03631">
        <ele>614</ele>
        <time>2024-02-01T10:51:31Z</time>
      </trkpt>
      <trkpt lat="44.03416" lon="6.03632">
        <ele>623</ele>
        <time>2024-02-01T10:51:37Z</time>
      </trkpt>
      <trkpt lat="44.03387" lon="6.03646">
        <ele>613</ele>
        <time>2024-02-01T10:51:43Z</time>
      </trkpt>
      <trkpt lat="44.03374" lon="6.03641">
        <ele>614</ele>
        <time>2024-02-01T10:51:49Z</time>
      </trkpt>
      <trkpt lat="44.03365" lon="6.03638">
        <ele>617</ele>
        <time>2024-02-01T10:51:53Z</time>
      </trkpt>
      <trkpt lat="44.03362" lon="6.03638">
        <ele>617</ele>
        <time>2024-02-01T10:51:55Z</time>
      </trkpt>
      <trkpt lat="44.03352" lon="6.03633">
        <ele>616</ele>
        <time>2024-02-01T10:51:58Z</time>
      </trkpt>
      <trkpt lat="44.03348" lon="6.0363">
        <ele>616</ele>
        <time>2024-02-01T10:52:01Z</time>
      </trkpt>
      <trkpt lat="44.03341" lon="6.03628">
        <ele>616</ele>
        <time>2024-02-01T10:52:07Z</time>
      </trkpt>
      <trkpt lat="44.03333" lon="6.03626">
        <ele>615</ele>
        <time>2024-02-01T10:52:13Z</time>
      </trkpt>
      <trkpt lat="44.03328" lon="6.03625">
        <ele>616</ele>
        <time>2024-02-01T10:52:19Z</time>
      </trkpt>
      <trkpt lat="44.03321" lon="6.03623">
        <ele>618</ele>
        <time>2024-02-01T10:52:25Z</time>
      </trkpt>
      <trkpt lat="44.03312" lon="6.03623">
        <ele>620</ele>
        <time>2024-02-01T10:52:31Z</time>
      </trkpt>
      <trkpt lat="44.03237" lon="6.03643">
        <ele>621</ele>
        <time>2024-02-01T10:52:37Z</time>
      </trkpt>
      <trkpt lat="44.03217" lon="6.03658">
        <ele>620</ele>
        <time>2024-02-01T10:52:43Z</time>
      </trkpt>
      <trkpt lat="44.03207" lon="6.0367">
        <ele>617</ele>
        <time>2024-02-01T10:52:46Z</time>
      </trkpt>
      <trkpt lat="44.03202" lon="6.03674">
        <ele>617</ele>
        <time>2024-02-01T10:52:49Z</time>
      </trkpt>
      <trkpt lat="44.03196" lon="6.03686">
        <ele>613</ele>
        <time>2024-02-01T10:52:52Z</time>
      </trkpt>
      <trkpt lat="44.03183" lon="6.03702">
        <ele>611</ele>
        <time>2024-02-01T10:52:54Z</time>
      </trkpt>
      <trkpt lat="44.03169" lon="6.03713">
        <ele>611</ele>
        <time>2024-02-01T10:52:58Z</time>
      </trkpt>
      <trkpt lat="44.03131" lon="6.03723">
        <ele>601</ele>
        <time>2024-02-01T10:53:00Z</time>
      </trkpt>
      <trkpt lat="44.03075" lon="6.03734">
        <ele>595</ele>
        <time>2024-02-01T10:53:07Z</time>
      </trkpt>
      <trkpt lat="44.03045" lon="6.03748">
        <ele>598</ele>
        <time>2024-02-01T10:53:13Z</time>
      </trkpt>
      <trkpt lat="44.03015" lon="6.03751">
        <ele>593</ele>
        <time>2024-02-01T10:53:18Z</time>
      </trkpt>
      <trkpt lat="44.02984" lon="6.03746">
        <ele>592</ele>
        <time>2024-02-01T10:53:24Z</time>
      </trkpt>
      <trkpt lat="44.02962" lon="6.03748">
        <ele>602</ele>
        <time>2024-02-01T10:53:30Z</time>
      </trkpt>
      <trkpt lat="44.02956" lon="6.03743">
        <ele>594</ele>
        <time>2024-02-01T10:53:33Z</time>
      </trkpt>
      <trkpt lat="44.02955" lon="6.03733">
        <ele>603</ele>
        <time>2024-02-01T10:53:37Z</time>
      </trkpt>
      <trkpt lat="44.02954" lon="6.03725">
        <ele>603</ele>
        <time>2024-02-01T10:53:41Z</time>
      </trkpt>
      <trkpt lat="44.02953" lon="6.03712">
        <ele>596</ele>
        <time>2024-02-01T10:53:47Z</time>
      </trkpt>
      <trkpt lat="44.02952" lon="6.03703">
        <ele>597</ele>
        <time>2024-02-01T10:53:50Z</time>
      </trkpt>
      <trkpt lat="44.02953" lon="6.03694">
        <ele>597</ele>
        <time>2024-02-01T10:53:54Z</time>
      </trkpt>
      <trkpt lat="44.0295" lon="6.03683">
        <ele>603</ele>
        <time>2024-02-01T10:53:56Z</time>
      </trkpt>
      <trkpt lat="44.02948" lon="6.03675">
        <ele>603</ele>
        <time>2024-02-01T10:54:00Z</time>
      </trkpt>
      <trkpt lat="44.02949" lon="6.03664">
        <ele>598</ele>
        <time>2024-02-01T10:54:03Z</time>
      </trkpt>
      <trkpt lat="44.0295" lon="6.03654">
        <ele>598</ele>
        <time>2024-02-01T10:54:06Z</time>
      </trkpt>
      <trkpt lat="44.02951" lon="6.03646">
        <ele>600</ele>
        <time>2024-02-01T10:54:08Z</time>
      </trkpt>
      <trkpt lat="44.02952" lon="6.03634">
        <ele>600</ele>
        <time>2024-02-01T10:54:11Z</time>
      </trkpt>
      <trkpt lat="44.02944" lon="6.03637">
        <ele>601</ele>
        <time>2024-02-01T10:54:14Z</time>
      </trkpt>
      <trkpt lat="44.02935" lon="6.03635">
        <ele>601</ele>
        <time>2024-02-01T10:54:17Z</time>
      </trkpt>
      <trkpt lat="44.02931" lon="6.0363">
        <ele>601</ele>
        <time>2024-02-01T10:54:20Z</time>
      </trkpt>
      <trkpt lat="44.02926" lon="6.03627">
        <ele>601</ele>
        <time>2024-02-01T10:54:23Z</time>
      </trkpt>
      <trkpt lat="44.02924" lon="6.03627">
        <ele>607</ele>
        <time>2024-02-01T10:54:26Z</time>
      </trkpt>
      <trkpt lat="44.02917" lon="6.03631">
        <ele>607</ele>
        <time>2024-02-01T10:54:29Z</time>
      </trkpt>
      <trkpt lat="44.0292" lon="6.03633">
        <ele>601</ele>
        <time>2024-02-01T10:54:32Z</time>
      </trkpt>
      <trkpt lat="44.02914" lon="6.03639">
        <ele>601</ele>
        <time>2024-02-01T10:54:35Z</time>
      </trkpt>
      <trkpt lat="44.02912" lon="6.03643">
        <ele>602</ele>
        <time>2024-02-01T10:54:37Z</time>
      </trkpt>
      <trkpt lat="44.02909" lon="6.03649">
        <ele>602</ele>
        <time>2024-02-01T10:54:40Z</time>
      </trkpt>
      <trkpt lat="44.02905" lon="6.03655">
        <ele>603</ele>
        <time>2024-02-01T10:54:44Z</time>
      </trkpt>
      <trkpt lat="44.02898" lon="6.03661">
        <ele>603</ele>
        <time>2024-02-01T10:54:47Z</time>
      </trkpt>
      <trkpt lat="44.02896" lon="6.03661">
        <ele>609</ele>
        <time>2024-02-01T10:54:50Z</time>
      </trkpt>
      <trkpt lat="44.02886" lon="6.03664">
        <ele>609</ele>
        <time>2024-02-01T10:54:54Z</time>
      </trkpt>
      <trkpt lat="44.02868" lon="6.03667">
        <ele>604</ele>
        <time>2024-02-01T10:54:57Z</time>
      </trkpt>
      <trkpt lat="44.02862" lon="6.03662">
        <ele>604</ele>
        <time>2024-02-01T10:54:59Z</time>
      </trkpt>
      <trkpt lat="44.0286" lon="6.03665">
        <ele>613</ele>
        <time>2024-02-01T10:55:02Z</time>
      </trkpt>
      <trkpt lat="44.02855" lon="6.0366">
        <ele>613</ele>
        <time>2024-02-01T10:55:05Z</time>
      </trkpt>
      <trkpt lat="44.0285" lon="6.03656">
        <ele>614</ele>
        <time>2024-02-01T10:55:08Z</time>
      </trkpt>
      <trkpt lat="44.02844" lon="6.03648">
        <ele>607</ele>
        <time>2024-02-01T10:55:12Z</time>
      </trkpt>
      <trkpt lat="44.02841" lon="6.03642">
        <ele>608</ele>
        <time>2024-02-01T10:55:14Z</time>
      </trkpt>
      <trkpt lat="44.02835" lon="6.03633">
        <ele>608</ele>
        <time>2024-02-01T10:55:17Z</time>
      </trkpt>
      <trkpt lat="44.02829" lon="6.03628">
        <ele>609</ele>
        <time>2024-02-01T10:55:20Z</time>
      </trkpt>
      <trkpt lat="44.02823" lon="6.03623">
        <ele>615</ele>
        <time>2024-02-01T10:55:23Z</time>
      </trkpt>
      <trkpt lat="44.02816" lon="6.03616">
        <ele>616</ele>
        <time>2024-02-01T10:55:26Z</time>
      </trkpt>
      <trkpt lat="44.02808" lon="6.03611">
        <ele>616</ele>
        <time>2024-02-01T10:55:29Z</time>
      </trkpt>
      <trkpt lat="44.02805" lon="6.03608">
        <ele>617</ele>
        <time>2024-02-01T10:55:32Z</time>
      </trkpt>
      <trkpt lat="44.028" lon="6.03606">
        <ele>618</ele>
        <time>2024-02-01T10:55:35Z</time>
      </trkpt>
      <trkpt lat="44.02795" lon="6.03602">
        <ele>611</ele>
        <time>2024-02-01T10:55:38Z</time>
      </trkpt>
      <trkpt lat="44.02787" lon="6.03596">
        <ele>611</ele>
        <time>2024-02-01T10:55:41Z</time>
      </trkpt>
      <trkpt lat="44.02782" lon="6.03592">
        <ele>616</ele>
        <time>2024-02-01T10:55:44Z</time>
      </trkpt>
      <trkpt lat="44.02774" lon="6.0359">
        <ele>618</ele>
        <time>2024-02-01T10:55:47Z</time>
      </trkpt>
      <trkpt lat="44.02766" lon="6.03584">
        <ele>617</ele>
        <time>2024-02-01T10:55:50Z</time>
      </trkpt>
      <trkpt lat="44.0276" lon="6.03583">
        <ele>620</ele>
        <time>2024-02-01T10:55:53Z</time>
      </trkpt>
      <trkpt lat="44.02755" lon="6.03579">
        <ele>619</ele>
        <time>2024-02-01T10:55:56Z</time>
      </trkpt>
      <trkpt lat="44.02748" lon="6.03579">
        <ele>622</ele>
        <time>2024-02-01T10:55:59Z</time>
      </trkpt>
      <trkpt lat="44.02737" lon="6.03569">
        <ele>614</ele>
        <time>2024-02-01T10:56:02Z</time>
      </trkpt>
      <trkpt lat="44.02728" lon="6.03569">
        <ele>615</ele>
        <time>2024-02-01T10:56:05Z</time>
      </trkpt>
      <trkpt lat="44.02723" lon="6.03563">
        <ele>621</ele>
        <time>2024-02-01T10:56:08Z</time>
      </trkpt>
      <trkpt lat="44.02714" lon="6.0356">
        <ele>622</ele>
        <time>2024-02-01T10:56:11Z</time>
      </trkpt>
      <trkpt lat="44.02708" lon="6.03561">
        <ele>621</ele>
        <time>2024-02-01T10:56:14Z</time>
      </trkpt>
      <trkpt lat="44.02699" lon="6.03562">
        <ele>622</ele>
        <time>2024-02-01T10:56:18Z</time>
      </trkpt>
      <trkpt lat="44.02689" lon="6.03565">
        <ele>625</ele>
        <time>2024-02-01T10:56:23Z</time>
      </trkpt>
      <trkpt lat="44.02679" lon="6.03566">
        <ele>622</ele>
        <time>2024-02-01T10:56:26Z</time>
      </trkpt>
      <trkpt lat="44.02671" lon="6.03567">
        <ele>626</ele>
        <time>2024-02-01T10:56:29Z</time>
      </trkpt>
      <trkpt lat="44.02667" lon="6.03567">
        <ele>620</ele>
        <time>2024-02-01T10:56:32Z</time>
      </trkpt>
      <trkpt lat="44.0266" lon="6.03568">
        <ele>620</ele>
        <time>2024-02-01T10:56:35Z</time>
      </trkpt>
      <trkpt lat="44.0265" lon="6.03563">
        <ele>626</ele>
        <time>2024-02-01T10:56:38Z</time>
      </trkpt>
      <trkpt lat="44.02641" lon="6.03556">
        <ele>626</ele>
        <time>2024-02-01T10:56:41Z</time>
      </trkpt>
      <trkpt lat="44.02637" lon="6.03554">
        <ele>627</ele>
        <time>2024-02-01T10:56:44Z</time>
      </trkpt>
      <trkpt lat="44.0263" lon="6.03549">
        <ele>629</ele>
        <time>2024-02-01T10:56:47Z</time>
      </trkpt>
      <trkpt lat="44.02636" lon="6.03538">
        <ele>614</ele>
        <time>2024-02-01T10:56:53Z</time>
      </trkpt>
      <trkpt lat="44.02615" lon="6.03529">
        <ele>630</ele>
        <time>2024-02-01T10:56:59Z</time>
      </trkpt>
      <trkpt lat="44.02605" lon="6.03509">
        <ele>624</ele>
        <time>2024-02-01T10:57:02Z</time>
      </trkpt>
      <trkpt lat="44.02602" lon="6.03502">
        <ele>624</ele>
        <time>2024-02-01T10:57:05Z</time>
      </trkpt>
      <trkpt lat="44.02596" lon="6.03488">
        <ele>628</ele>
        <time>2024-02-01T10:57:08Z</time>
      </trkpt>
      <trkpt lat="44.0259" lon="6.0348">
        <ele>631</ele>
        <time>2024-02-01T10:57:11Z</time>
      </trkpt>
      <trkpt lat="44.02582" lon="6.03474">
        <ele>630</ele>
        <time>2024-02-01T10:57:14Z</time>
      </trkpt>
      <trkpt lat="44.02576" lon="6.03473">
        <ele>632</ele>
        <time>2024-02-01T10:57:16Z</time>
      </trkpt>
      <trkpt lat="44.02569" lon="6.03472">
        <ele>632</ele>
        <time>2024-02-01T10:57:19Z</time>
      </trkpt>
      <trkpt lat="44.02562" lon="6.03477">
        <ele>633</ele>
        <time>2024-02-01T10:57:23Z</time>
      </trkpt>
      <trkpt lat="44.02554" lon="6.03481">
        <ele>633</ele>
        <time>2024-02-01T10:57:26Z</time>
      </trkpt>
      <trkpt lat="44.0255" lon="6.03485">
        <ele>634</ele>
        <time>2024-02-01T10:57:29Z</time>
      </trkpt>
      <trkpt lat="44.02543" lon="6.03488">
        <ele>632</ele>
        <time>2024-02-01T10:57:31Z</time>
      </trkpt>
      <trkpt lat="44.02536" lon="6.0349">
        <ele>634</ele>
        <time>2024-02-01T10:57:35Z</time>
      </trkpt>
      <trkpt lat="44.02529" lon="6.03492">
        <ele>635</ele>
        <time>2024-02-01T10:57:38Z</time>
      </trkpt>
      <trkpt lat="44.02523" lon="6.03494">
        <ele>635</ele>
        <time>2024-02-01T10:57:41Z</time>
      </trkpt>
      <trkpt lat="44.02515" lon="6.03496">
        <ele>635</ele>
        <time>2024-02-01T10:57:44Z</time>
      </trkpt>
      <trkpt lat="44.0251" lon="6.03498">
        <ele>636</ele>
        <time>2024-02-01T10:57:47Z</time>
      </trkpt>
      <trkpt lat="44.02502" lon="6.03497">
        <ele>638</ele>
        <time>2024-02-01T10:57:50Z</time>
      </trkpt>
      <trkpt lat="44.02495" lon="6.03499">
        <ele>636</ele>
        <time>2024-02-01T10:57:53Z</time>
      </trkpt>
      <trkpt lat="44.02488" lon="6.03502">
        <ele>628</ele>
        <time>2024-02-01T10:57:55Z</time>
      </trkpt>
      <trkpt lat="44.02479" lon="6.03507">
        <ele>638</ele>
        <time>2024-02-01T10:57:59Z</time>
      </trkpt>
      <trkpt lat="44.02472" lon="6.0351">
        <ele>639</ele>
        <time>2024-02-01T10:58:02Z</time>
      </trkpt>
      <trkpt lat="44.02466" lon="6.03514">
        <ele>640</ele>
        <time>2024-02-01T10:58:05Z</time>
      </trkpt>
      <trkpt lat="44.02463" lon="6.0351">
        <ele>639</ele>
        <time>2024-02-01T10:58:09Z</time>
      </trkpt>
      <trkpt lat="44.02459" lon="6.03514">
        <ele>640</ele>
        <time>2024-02-01T10:58:12Z</time>
      </trkpt>
      <trkpt lat="44.02459" lon="6.03518">
        <ele>640</ele>
        <time>2024-02-01T10:58:17Z</time>
      </trkpt>
      <trkpt lat="44.0246" lon="6.03529">
        <ele>620</ele>
        <time>2024-02-01T10:58:20Z</time>
      </trkpt>
      <trkpt lat="44.02462" lon="6.03548">
        <ele>620</ele>
        <time>2024-02-01T10:58:23Z</time>
      </trkpt>
      <trkpt lat="44.02457" lon="6.03519">
        <ele>631</ele>
        <time>2024-02-01T10:58:29Z</time>
      </trkpt>
      <trkpt lat="44.02476" lon="6.03529">
        <ele>627</ele>
        <time>2024-02-01T10:58:32Z</time>
      </trkpt>
      <trkpt lat="44.02485" lon="6.03533">
        <ele>627</ele>
        <time>2024-02-01T10:58:35Z</time>
      </trkpt>
      <trkpt lat="44.02501" lon="6.03549">
        <ele>587</ele>
        <time>2024-02-01T10:58:41Z</time>
      </trkpt>
      <trkpt lat="44.02522" lon="6.03561">
        <ele>619</ele>
        <time>2024-02-01T10:58:47Z</time>
      </trkpt>
      <trkpt lat="44.02534" lon="6.03571">
        <ele>615</ele>
        <time>2024-02-01T10:58:50Z</time>
      </trkpt>
      <trkpt lat="44.0255" lon="6.03575">
        <ele>615</ele>
        <time>2024-02-01T10:58:52Z</time>
      </trkpt>
      <trkpt lat="44.02559" lon="6.03576">
        <ele>569</ele>
        <time>2024-02-01T10:58:56Z</time>
      </trkpt>
      <trkpt lat="44.02565" lon="6.03576">
        <ele>569</ele>
        <time>2024-02-01T10:58:59Z</time>
      </trkpt>
      <trkpt lat="44.0257" lon="6.03577">
        <ele>614</ele>
        <time>2024-02-01T10:59:03Z</time>
      </trkpt>
      <trkpt lat="44.02579" lon="6.03579">
        <ele>616</ele>
        <time>2024-02-01T10:59:07Z</time>
      </trkpt>
      <trkpt lat="44.0259" lon="6.03584">
        <ele>615</ele>
        <time>2024-02-01T10:59:10Z</time>
      </trkpt>
      <trkpt lat="44.026" lon="6.03585">
        <ele>613</ele>
        <time>2024-02-01T10:59:13Z</time>
      </trkpt>
      <trkpt lat="44.02607" lon="6.03585">
        <ele>613</ele>
        <time>2024-02-01T10:59:17Z</time>
      </trkpt>
      <trkpt lat="44.02619" lon="6.03572">
        <ele>614</ele>
        <time>2024-02-01T10:59:23Z</time>
      </trkpt>
      <trkpt lat="44.02656" lon="6.03575">
        <ele>614</ele>
        <time>2024-02-01T10:59:29Z</time>
      </trkpt>
      <trkpt lat="44.02671" lon="6.03577">
        <ele>612</ele>
        <time>2024-02-01T10:59:32Z</time>
      </trkpt>
      <trkpt lat="44.02678" lon="6.0358">
        <ele>612</ele>
        <time>2024-02-01T10:59:35Z</time>
      </trkpt>
      <trkpt lat="44.02719" lon="6.03595">
        <ele>589</ele>
        <time>2024-02-01T10:59:41Z</time>
      </trkpt>
      <trkpt lat="44.02807" lon="6.03653">
        <ele>583</ele>
        <time>2024-02-01T10:59:49Z</time>
      </trkpt>
      <trkpt lat="44.02823" lon="6.03671">
        <ele>594</ele>
        <time>2024-02-01T10:59:55Z</time>
      </trkpt>
      <trkpt lat="44.0283" lon="6.0368">
        <ele>590</ele>
        <time>2024-02-01T11:00:01Z</time>
      </trkpt>
      <trkpt lat="44.02888" lon="6.03811">
        <ele>584</ele>
        <time>2024-02-01T11:00:08Z</time>
      </trkpt>
      <trkpt lat="44.02927" lon="6.03833">
        <ele>581</ele>
        <time>2024-02-01T11:00:13Z</time>
      </trkpt>
      <trkpt lat="44.02945" lon="6.03813">
        <ele>581</ele>
        <time>2024-02-01T11:00:19Z</time>
      </trkpt>
      <trkpt lat="44.02944" lon="6.038">
        <ele>586</ele>
        <time>2024-02-01T11:00:25Z</time>
      </trkpt>
      <trkpt lat="44.02946" lon="6.03801">
        <ele>585</ele>
        <time>2024-02-01T11:00:30Z</time>
      </trkpt>
      <trkpt lat="44.02951" lon="6.038">
        <ele>582</ele>
        <time>2024-02-01T11:00:37Z</time>
      </trkpt>
      <trkpt lat="44.0296" lon="6.03803">
        <ele>582</ele>
        <time>2024-02-01T11:00:41Z</time>
      </trkpt>
      <trkpt lat="44.02978" lon="6.0381">
        <ele>577</ele>
        <time>2024-02-01T11:00:47Z</time>
      </trkpt>
      <trkpt lat="44.02988" lon="6.03824">
        <ele>574</ele>
        <time>2024-02-01T11:00:53Z</time>
      </trkpt>
      <trkpt lat="44.03" lon="6.03818">
        <ele>574</ele>
        <time>2024-02-01T11:00:59Z</time>
      </trkpt>
      <trkpt lat="44.03027" lon="6.03811">
        <ele>572</ele>
        <time>2024-02-01T11:01:05Z</time>
      </trkpt>
      <trkpt lat="44.03043" lon="6.0382">
        <ele>572</ele>
        <time>2024-02-01T11:01:08Z</time>
      </trkpt>
      <trkpt lat="44.03059" lon="6.03821">
        <ele>572</ele>
        <time>2024-02-01T11:01:11Z</time>
      </trkpt>
      <trkpt lat="44.03077" lon="6.03822">
        <ele>571</ele>
        <time>2024-02-01T11:01:14Z</time>
      </trkpt>
      <trkpt lat="44.03086" lon="6.03823">
        <ele>571</ele>
        <time>2024-02-01T11:01:17Z</time>
      </trkpt>
      <trkpt lat="44.031" lon="6.03834">
        <ele>569</ele>
        <time>2024-02-01T11:01:23Z</time>
      </trkpt>
      <trkpt lat="44.03102" lon="6.03838">
        <ele>567</ele>
        <time>2024-02-01T11:01:26Z</time>
      </trkpt>
      <trkpt lat="44.03097" lon="6.03844">
        <ele>567</ele>
        <time>2024-02-01T11:01:29Z</time>
      </trkpt>
      <trkpt lat="44.03096" lon="6.03855">
        <ele>565</ele>
        <time>2024-02-01T11:01:36Z</time>
      </trkpt>
      <trkpt lat="44.03093" lon="6.03869">
        <ele>565</ele>
        <time>2024-02-01T11:01:41Z</time>
      </trkpt>
      <trkpt lat="44.03093" lon="6.03877">
        <ele>567</ele>
        <time>2024-02-01T11:01:47Z</time>
      </trkpt>
      <trkpt lat="44.03105" lon="6.03884">
        <ele>568</ele>
        <time>2024-02-01T11:01:53Z</time>
      </trkpt>
      <trkpt lat="44.03115" lon="6.03897">
        <ele>568</ele>
        <time>2024-02-01T11:01:56Z</time>
      </trkpt>
      <trkpt lat="44.03118" lon="6.03908">
        <ele>568</ele>
        <time>2024-02-01T11:01:59Z</time>
      </trkpt>
      <trkpt lat="44.03118" lon="6.03914">
        <ele>569</ele>
        <time>2024-02-01T11:02:02Z</time>
      </trkpt>
      <trkpt lat="44.03114" lon="6.0392">
        <ele>569</ele>
        <time>2024-02-01T11:02:05Z</time>
      </trkpt>
      <trkpt lat="44.03114" lon="6.03927">
        <ele>571</ele>
        <time>2024-02-01T11:02:08Z</time>
      </trkpt>
      <trkpt lat="44.03113" lon="6.03935">
        <ele>571</ele>
        <time>2024-02-01T11:02:11Z</time>
      </trkpt>
      <trkpt lat="44.03127" lon="6.03952">
        <ele>573</ele>
        <time>2024-02-01T11:02:17Z</time>
      </trkpt>
      <trkpt lat="44.03141" lon="6.03956">
        <ele>576</ele>
        <time>2024-02-01T11:02:23Z</time>
      </trkpt>
      <trkpt lat="44.03148" lon="6.03953">
        <ele>577</ele>
        <time>2024-02-01T11:02:26Z</time>
      </trkpt>
      <trkpt lat="44.0316" lon="6.03952">
        <ele>577</ele>
        <time>2024-02-01T11:02:29Z</time>
      </trkpt>
      <trkpt lat="44.03167" lon="6.03953">
        <ele>578</ele>
        <time>2024-02-01T11:02:31Z</time>
      </trkpt>
      <trkpt lat="44.03173" lon="6.03957">
        <ele>578</ele>
        <time>2024-02-01T11:02:35Z</time>
      </trkpt>
      <trkpt lat="44.03173" lon="6.0396">
        <ele>581</ele>
        <time>2024-02-01T11:02:41Z</time>
      </trkpt>
      <trkpt lat="44.03183" lon="6.03967">
        <ele>584</ele>
        <time>2024-02-01T11:02:47Z</time>
      </trkpt>
      <trkpt lat="44.03203" lon="6.03996">
        <ele>585</ele>
        <time>2024-02-01T11:02:53Z</time>
      </trkpt>
      <trkpt lat="44.03283" lon="6.04026">
        <ele>585</ele>
        <time>2024-02-01T11:03:05Z</time>
      </trkpt>
      <trkpt lat="44.03299" lon="6.04045">
        <ele>585</ele>
        <time>2024-02-01T11:03:11Z</time>
      </trkpt>
      <trkpt lat="44.03302" lon="6.04056">
        <ele>590</ele>
        <time>2024-02-01T11:03:14Z</time>
      </trkpt>
      <trkpt lat="44.03307" lon="6.04065">
        <ele>590</ele>
        <time>2024-02-01T11:03:17Z</time>
      </trkpt>
      <trkpt lat="44.03309" lon="6.04073">
        <ele>591</ele>
        <time>2024-02-01T11:03:20Z</time>
      </trkpt>
      <trkpt lat="44.0331" lon="6.0408">
        <ele>591</ele>
        <time>2024-02-01T11:03:23Z</time>
      </trkpt>
      <trkpt lat="44.03314" lon="6.04085">
        <ele>591</ele>
        <time>2024-02-01T11:03:29Z</time>
      </trkpt>
      <trkpt lat="44.03319" lon="6.04094">
        <ele>592</ele>
        <time>2024-02-01T11:03:32Z</time>
      </trkpt>
      <trkpt lat="44.03323" lon="6.04102">
        <ele>592</ele>
        <time>2024-02-01T11:03:35Z</time>
      </trkpt>
      <trkpt lat="44.03318" lon="6.04108">
        <ele>593</ele>
        <time>2024-02-01T11:03:37Z</time>
      </trkpt>
      <trkpt lat="44.03311" lon="6.04116">
        <ele>592</ele>
        <time>2024-02-01T11:03:41Z</time>
      </trkpt>
      <trkpt lat="44.03354" lon="6.04129">
        <ele>596</ele>
        <time>2024-02-01T11:03:46Z</time>
      </trkpt>
      <trkpt lat="44.03365" lon="6.04135">
        <ele>586</ele>
        <time>2024-02-01T11:03:52Z</time>
      </trkpt>
      <trkpt lat="44.03358" lon="6.0414">
        <ele>599</ele>
        <time>2024-02-01T11:03:58Z</time>
      </trkpt>
      <trkpt lat="44.03348" lon="6.04148">
        <ele>601</ele>
        <time>2024-02-01T11:04:05Z</time>
      </trkpt>
      <trkpt lat="44.03344" lon="6.04155">
        <ele>604</ele>
        <time>2024-02-01T11:04:13Z</time>
      </trkpt>
      <trkpt lat="44.03339" lon="6.04168">
        <ele>604</ele>
        <time>2024-02-01T11:04:16Z</time>
      </trkpt>
      <trkpt lat="44.03324" lon="6.04182">
        <ele>589</ele>
        <time>2024-02-01T11:04:23Z</time>
      </trkpt>
      <trkpt lat="44.03321" lon="6.04182">
        <ele>606</ele>
        <time>2024-02-01T11:04:29Z</time>
      </trkpt>
      <trkpt lat="44.03313" lon="6.04191">
        <ele>607</ele>
        <time>2024-02-01T11:04:32Z</time>
      </trkpt>
      <trkpt lat="44.03308" lon="6.04201">
        <ele>607</ele>
        <time>2024-02-01T11:04:35Z</time>
      </trkpt>
      <trkpt lat="44.03301" lon="6.04204">
        <ele>603</ele>
        <time>2024-02-01T11:04:41Z</time>
      </trkpt>
      <trkpt lat="44.033" lon="6.04207">
        <ele>612</ele>
        <time>2024-02-01T11:04:44Z</time>
      </trkpt>
      <trkpt lat="44.03294" lon="6.04214">
        <ele>612</ele>
        <time>2024-02-01T11:04:47Z</time>
      </trkpt>
      <trkpt lat="44.03293" lon="6.04225">
        <ele>611</ele>
        <time>2024-02-01T11:04:53Z</time>
      </trkpt>
      <trkpt lat="44.03297" lon="6.04232">
        <ele>612</ele>
        <time>2024-02-01T11:04:59Z</time>
      </trkpt>
      <trkpt lat="44.03303" lon="6.04239">
        <ele>608</ele>
        <time>2024-02-01T11:05:05Z</time>
      </trkpt>
      <trkpt lat="44.03294" lon="6.04259">
        <ele>615</ele>
        <time>2024-02-01T11:05:08Z</time>
      </trkpt>
      <trkpt lat="44.03292" lon="6.04271">
        <ele>615</ele>
        <time>2024-02-01T11:05:11Z</time>
      </trkpt>
      <trkpt lat="44.03294" lon="6.04277">
        <ele>620</ele>
        <time>2024-02-01T11:05:18Z</time>
      </trkpt>
      <trkpt lat="44.03295" lon="6.04279">
        <ele>619</ele>
        <time>2024-02-01T11:05:23Z</time>
      </trkpt>
      <trkpt lat="44.03308" lon="6.04321">
        <ele>613</ele>
        <time>2024-02-01T11:05:35Z</time>
      </trkpt>
      <trkpt lat="44.03315" lon="6.04329">
        <ele>622</ele>
        <time>2024-02-01T11:05:38Z</time>
      </trkpt>
      <trkpt lat="44.03321" lon="6.04339">
        <ele>622</ele>
        <time>2024-02-01T11:05:41Z</time>
      </trkpt>
      <trkpt lat="44.03338" lon="6.0435">
        <ele>617</ele>
        <time>2024-02-01T11:05:47Z</time>
      </trkpt>
      <trkpt lat="44.0337" lon="6.0437">
        <ele>621</ele>
        <time>2024-02-01T11:05:53Z</time>
      </trkpt>
      <trkpt lat="44.03381" lon="6.04378">
        <ele>625</ele>
        <time>2024-02-01T11:05:56Z</time>
      </trkpt>
      <trkpt lat="44.03386" lon="6.04382">
        <ele>625</ele>
        <time>2024-02-01T11:05:59Z</time>
      </trkpt>
      <trkpt lat="44.03388" lon="6.04386">
        <ele>618</ele>
        <time>2024-02-01T11:06:02Z</time>
      </trkpt>
      <trkpt lat="44.0339" lon="6.04391">
        <ele>618</ele>
        <time>2024-02-01T11:06:05Z</time>
      </trkpt>
      <trkpt lat="44.03392" lon="6.04392">
        <ele>625</ele>
        <time>2024-02-01T11:06:08Z</time>
      </trkpt>
      <trkpt lat="44.03396" lon="6.04399">
        <ele>625</ele>
        <time>2024-02-01T11:06:11Z</time>
      </trkpt>
      <trkpt lat="44.03402" lon="6.044">
        <ele>626</ele>
        <time>2024-02-01T11:06:17Z</time>
      </trkpt>
      <trkpt lat="44.03412" lon="6.04414">
        <ele>634</ele>
        <time>2024-02-01T11:06:23Z</time>
      </trkpt>
      <trkpt lat="44.03421" lon="6.04422">
        <ele>628</ele>
        <time>2024-02-01T11:06:26Z</time>
      </trkpt>
      <trkpt lat="44.03427" lon="6.04427">
        <ele>628</ele>
        <time>2024-02-01T11:06:29Z</time>
      </trkpt>
      <trkpt lat="44.03438" lon="6.04444">
        <ele>631</ele>
        <time>2024-02-01T11:06:35Z</time>
      </trkpt>
      <trkpt lat="44.03448" lon="6.0446">
        <ele>633</ele>
        <time>2024-02-01T11:06:41Z</time>
      </trkpt>
      <trkpt lat="44.03456" lon="6.04474">
        <ele>635</ele>
        <time>2024-02-01T11:06:47Z</time>
      </trkpt>
      <trkpt lat="44.03453" lon="6.04496">
        <ele>631</ele>
        <time>2024-02-01T11:06:54Z</time>
      </trkpt>
      <trkpt lat="44.03449" lon="6.04495">
        <ele>635</ele>
        <time>2024-02-01T11:07:01Z</time>
      </trkpt>
      <trkpt lat="44.03447" lon="6.04498">
        <ele>635</ele>
        <time>2024-02-01T11:07:07Z</time>
      </trkpt>
      <trkpt lat="44.0346" lon="6.04483">
        <ele>635</ele>
        <time>2024-02-01T11:07:18Z</time>
      </trkpt>
      <trkpt lat="44.03457" lon="6.04484">
        <ele>634</ele>
        <time>2024-02-01T11:07:30Z</time>
      </trkpt>
      <trkpt lat="44.03451" lon="6.04491">
        <ele>634</ele>
        <time>2024-02-01T11:07:36Z</time>
      </trkpt>
      <trkpt lat="44.03448" lon="6.04496">
        <ele>635</ele>
        <time>2024-02-01T11:07:42Z</time>
      </trkpt>
      <trkpt lat="44.03446" lon="6.04495">
        <ele>631</ele>
        <time>2024-02-01T11:07:49Z</time>
      </trkpt>
      <trkpt lat="44.03444" lon="6.04493">
        <ele>631</ele>
        <time>2024-02-01T11:07:52Z</time>
      </trkpt>
      <trkpt lat="44.03438" lon="6.0449">
        <ele>635</ele>
        <time>2024-02-01T11:07:56Z</time>
      </trkpt>
      <trkpt lat="44.03431" lon="6.04489">
        <ele>635</ele>
        <time>2024-02-01T11:07:59Z</time>
      </trkpt>
      <trkpt lat="44.03424" lon="6.04487">
        <ele>639</ele>
        <time>2024-02-01T11:08:03Z</time>
      </trkpt>
      <trkpt lat="44.0342" lon="6.04488">
        <ele>639</ele>
        <time>2024-02-01T11:08:06Z</time>
      </trkpt>
      <trkpt lat="44.03413" lon="6.0449">
        <ele>644</ele>
        <time>2024-02-01T11:08:08Z</time>
      </trkpt>
      <trkpt lat="44.03409" lon="6.04494">
        <ele>644</ele>
        <time>2024-02-01T11:08:11Z</time>
      </trkpt>
      <trkpt lat="44.03405" lon="6.045">
        <ele>645</ele>
        <time>2024-02-01T11:08:14Z</time>
      </trkpt>
      <trkpt lat="44.03401" lon="6.0451">
        <ele>645</ele>
        <time>2024-02-01T11:08:17Z</time>
      </trkpt>
      <trkpt lat="44.03403" lon="6.04514">
        <ele>646</ele>
        <time>2024-02-01T11:08:20Z</time>
      </trkpt>
      <trkpt lat="44.03402" lon="6.04521">
        <ele>646</ele>
        <time>2024-02-01T11:08:23Z</time>
      </trkpt>
      <trkpt lat="44.03402" lon="6.04529">
        <ele>652</ele>
        <time>2024-02-01T11:08:30Z</time>
      </trkpt>
      <trkpt lat="44.03394" lon="6.04545">
        <ele>649</ele>
        <time>2024-02-01T11:08:35Z</time>
      </trkpt>
      <trkpt lat="44.03395" lon="6.04552">
        <ele>654</ele>
        <time>2024-02-01T11:08:41Z</time>
      </trkpt>
      <trkpt lat="44.03391" lon="6.04568">
        <ele>651</ele>
        <time>2024-02-01T11:08:47Z</time>
      </trkpt>
      <trkpt lat="44.03386" lon="6.04581">
        <ele>651</ele>
        <time>2024-02-01T11:08:53Z</time>
      </trkpt>
      <trkpt lat="44.03377" lon="6.04595">
        <ele>654</ele>
        <time>2024-02-01T11:08:56Z</time>
      </trkpt>
      <trkpt lat="44.03373" lon="6.046">
        <ele>654</ele>
        <time>2024-02-01T11:08:59Z</time>
      </trkpt>
      <trkpt lat="44.03368" lon="6.04607">
        <ele>657</ele>
        <time>2024-02-01T11:09:05Z</time>
      </trkpt>
      <trkpt lat="44.03356" lon="6.04614">
        <ele>660</ele>
        <time>2024-02-01T11:09:11Z</time>
      </trkpt>
      <trkpt lat="44.03342" lon="6.04614">
        <ele>655</ele>
        <time>2024-02-01T11:09:17Z</time>
      </trkpt>
      <trkpt lat="44.03327" lon="6.04613">
        <ele>658</ele>
        <time>2024-02-01T11:09:23Z</time>
      </trkpt>
      <trkpt lat="44.03309" lon="6.04609">
        <ele>657</ele>
        <time>2024-02-01T11:09:29Z</time>
      </trkpt>
      <trkpt lat="44.03291" lon="6.04606">
        <ele>661</ele>
        <time>2024-02-01T11:09:35Z</time>
      </trkpt>
      <trkpt lat="44.03276" lon="6.04602">
        <ele>664</ele>
        <time>2024-02-01T11:09:41Z</time>
      </trkpt>
      <trkpt lat="44.0327" lon="6.046">
        <ele>660</ele>
        <time>2024-02-01T11:09:44Z</time>
      </trkpt>
      <trkpt lat="44.03261" lon="6.04601">
        <ele>660</ele>
        <time>2024-02-01T11:09:47Z</time>
      </trkpt>
      <trkpt lat="44.03255" lon="6.04601">
        <ele>660</ele>
        <time>2024-02-01T11:09:50Z</time>
      </trkpt>
      <trkpt lat="44.03249" lon="6.04602">
        <ele>661</ele>
        <time>2024-02-01T11:09:53Z</time>
      </trkpt>
      <trkpt lat="44.03241" lon="6.046">
        <ele>668</ele>
        <time>2024-02-01T11:09:59Z</time>
      </trkpt>
      <trkpt lat="44.03229" lon="6.04601">
        <ele>669</ele>
        <time>2024-02-01T11:10:05Z</time>
      </trkpt>
      <trkpt lat="44.0322" lon="6.04605">
        <ele>667</ele>
        <time>2024-02-01T11:10:08Z</time>
      </trkpt>
      <trkpt lat="44.03213" lon="6.04613">
        <ele>667</ele>
        <time>2024-02-01T11:10:11Z</time>
      </trkpt>
      <trkpt lat="44.03205" lon="6.04612">
        <ele>668</ele>
        <time>2024-02-01T11:10:14Z</time>
      </trkpt>
      <trkpt lat="44.03198" lon="6.04615">
        <ele>668</ele>
        <time>2024-02-01T11:10:17Z</time>
      </trkpt>
      <trkpt lat="44.03192" lon="6.04612">
        <ele>669</ele>
        <time>2024-02-01T11:10:20Z</time>
      </trkpt>
      <trkpt lat="44.03179" lon="6.04608">
        <ele>670</ele>
        <time>2024-02-01T11:10:23Z</time>
      </trkpt>
      <trkpt lat="44.03173" lon="6.04604">
        <ele>674</ele>
        <time>2024-02-01T11:10:26Z</time>
      </trkpt>
      <trkpt lat="44.03167" lon="6.04608">
        <ele>674</ele>
        <time>2024-02-01T11:10:29Z</time>
      </trkpt>
      <trkpt lat="44.03161" lon="6.04613">
        <ele>677</ele>
        <time>2024-02-01T11:10:32Z</time>
      </trkpt>
      <trkpt lat="44.03156" lon="6.04619">
        <ele>677</ele>
        <time>2024-02-01T11:10:35Z</time>
      </trkpt>
      <trkpt lat="44.03136" lon="6.04617">
        <ele>676</ele>
        <time>2024-02-01T11:10:38Z</time>
      </trkpt>
      <trkpt lat="44.03128" lon="6.04623">
        <ele>676</ele>
        <time>2024-02-01T11:10:41Z</time>
      </trkpt>
      <trkpt lat="44.03128" lon="6.04626">
        <ele>677</ele>
        <time>2024-02-01T11:10:44Z</time>
      </trkpt>
      <trkpt lat="44.03129" lon="6.04636">
        <ele>677</ele>
        <time>2024-02-01T11:10:47Z</time>
      </trkpt>
      <trkpt lat="44.03121" lon="6.04632">
        <ele>677</ele>
        <time>2024-02-01T11:10:50Z</time>
      </trkpt>
      <trkpt lat="44.03114" lon="6.04635">
        <ele>677</ele>
        <time>2024-02-01T11:10:53Z</time>
      </trkpt>
      <trkpt lat="44.03116" lon="6.04638">
        <ele>680</ele>
        <time>2024-02-01T11:10:56Z</time>
      </trkpt>
      <trkpt lat="44.03112" lon="6.04648">
        <ele>680</ele>
        <time>2024-02-01T11:10:59Z</time>
      </trkpt>
      <trkpt lat="44.03117" lon="6.0465">
        <ele>682</ele>
        <time>2024-02-01T11:11:02Z</time>
      </trkpt>
      <trkpt lat="44.03136" lon="6.04653">
        <ele>682</ele>
        <time>2024-02-01T11:11:05Z</time>
      </trkpt>
      <trkpt lat="44.03164" lon="6.04649">
        <ele>679</ele>
        <time>2024-02-01T11:11:08Z</time>
      </trkpt>
      <trkpt lat="44.03183" lon="6.04643">
        <ele>680</ele>
        <time>2024-02-01T11:11:11Z</time>
      </trkpt>
      <trkpt lat="44.03187" lon="6.04638">
        <ele>665</ele>
        <time>2024-02-01T11:11:14Z</time>
      </trkpt>
      <trkpt lat="44.03192" lon="6.04631">
        <ele>665</ele>
        <time>2024-02-01T11:11:17Z</time>
      </trkpt>
      <trkpt lat="44.03171" lon="6.0464">
        <ele>682</ele>
        <time>2024-02-01T11:11:20Z</time>
      </trkpt>
      <trkpt lat="44.03156" lon="6.0464">
        <ele>683</ele>
        <time>2024-02-01T11:11:23Z</time>
      </trkpt>
      <trkpt lat="44.03138" lon="6.04658">
        <ele>674</ele>
        <time>2024-02-01T11:11:29Z</time>
      </trkpt>
      <trkpt lat="44.0312" lon="6.04658">
        <ele>684</ele>
        <time>2024-02-01T11:11:35Z</time>
      </trkpt>
      <trkpt lat="44.03107" lon="6.04651">
        <ele>683</ele>
        <time>2024-02-01T11:11:41Z</time>
      </trkpt>
      <trkpt lat="44.03097" lon="6.04652">
        <ele>684</ele>
        <time>2024-02-01T11:11:44Z</time>
      </trkpt>
      <trkpt lat="44.03093" lon="6.04653">
        <ele>684</ele>
        <time>2024-02-01T11:11:47Z</time>
      </trkpt>
      <trkpt lat="44.0308" lon="6.04658">
        <ele>690</ele>
        <time>2024-02-01T11:11:51Z</time>
      </trkpt>
      <trkpt lat="44.03074" lon="6.04658">
        <ele>690</ele>
        <time>2024-02-01T11:11:54Z</time>
      </trkpt>
      <trkpt lat="44.0306" lon="6.04668">
        <ele>689</ele>
        <time>2024-02-01T11:11:59Z</time>
      </trkpt>
      <trkpt lat="44.0305" lon="6.04668">
        <ele>687</ele>
        <time>2024-02-01T11:12:02Z</time>
      </trkpt>
      <trkpt lat="44.03043" lon="6.04668">
        <ele>687</ele>
        <time>2024-02-01T11:12:05Z</time>
      </trkpt>
      <trkpt lat="44.0303" lon="6.04666">
        <ele>687</ele>
        <time>2024-02-01T11:12:08Z</time>
      </trkpt>
      <trkpt lat="44.03022" lon="6.04666">
        <ele>687</ele>
        <time>2024-02-01T11:12:11Z</time>
      </trkpt>
      <trkpt lat="44.03013" lon="6.04665">
        <ele>690</ele>
        <time>2024-02-01T11:12:14Z</time>
      </trkpt>
      <trkpt lat="44.03006" lon="6.04667">
        <ele>690</ele>
        <time>2024-02-01T11:12:17Z</time>
      </trkpt>
      <trkpt lat="44.02998" lon="6.04667">
        <ele>689</ele>
        <time>2024-02-01T11:12:20Z</time>
      </trkpt>
      <trkpt lat="44.02985" lon="6.04665">
        <ele>691</ele>
        <time>2024-02-01T11:12:23Z</time>
      </trkpt>
      <trkpt lat="44.02977" lon="6.04663">
        <ele>695</ele>
        <time>2024-02-01T11:12:26Z</time>
      </trkpt>
      <trkpt lat="44.02967" lon="6.04664">
        <ele>695</ele>
        <time>2024-02-01T11:12:29Z</time>
      </trkpt>
      <trkpt lat="44.02959" lon="6.04664">
        <ele>693</ele>
        <time>2024-02-01T11:12:32Z</time>
      </trkpt>
      <trkpt lat="44.0295" lon="6.04665">
        <ele>693</ele>
        <time>2024-02-01T11:12:35Z</time>
      </trkpt>
      <trkpt lat="44.02932" lon="6.04676">
        <ele>701</ele>
        <time>2024-02-01T11:12:41Z</time>
      </trkpt>
      <trkpt lat="44.02931" lon="6.04672">
        <ele>693</ele>
        <time>2024-02-01T11:12:47Z</time>
      </trkpt>
      <trkpt lat="44.02912" lon="6.04651">
        <ele>699</ele>
        <time>2024-02-01T11:12:50Z</time>
      </trkpt>
      <trkpt lat="44.02903" lon="6.04644">
        <ele>697</ele>
        <time>2024-02-01T11:12:53Z</time>
      </trkpt>
      <trkpt lat="44.02896" lon="6.04637">
        <ele>700</ele>
        <time>2024-02-01T11:12:56Z</time>
      </trkpt>
      <trkpt lat="44.02889" lon="6.04632">
        <ele>700</ele>
        <time>2024-02-01T11:12:59Z</time>
      </trkpt>
      <trkpt lat="44.0287" lon="6.04617">
        <ele>702</ele>
        <time>2024-02-01T11:13:05Z</time>
      </trkpt>
      <trkpt lat="44.02835" lon="6.04598">
        <ele>695</ele>
        <time>2024-02-01T11:13:12Z</time>
      </trkpt>
      <trkpt lat="44.02831" lon="6.04595">
        <ele>695</ele>
        <time>2024-02-01T11:13:17Z</time>
      </trkpt>
      <trkpt lat="44.02816" lon="6.04583">
        <ele>701</ele>
        <time>2024-02-01T11:13:23Z</time>
      </trkpt>
      <trkpt lat="44.02771" lon="6.04545">
        <ele>700</ele>
        <time>2024-02-01T11:13:30Z</time>
      </trkpt>
      <trkpt lat="44.02766" lon="6.04543">
        <ele>700</ele>
        <time>2024-02-01T11:13:35Z</time>
      </trkpt>
      <trkpt lat="44.02749" lon="6.04537">
        <ele>699</ele>
        <time>2024-02-01T11:13:41Z</time>
      </trkpt>
      <trkpt lat="44.02703" lon="6.04517">
        <ele>713</ele>
        <time>2024-02-01T11:13:48Z</time>
      </trkpt>
      <trkpt lat="44.027" lon="6.0452">
        <ele>713</ele>
        <time>2024-02-01T11:13:53Z</time>
      </trkpt>
      <trkpt lat="44.02694" lon="6.04537">
        <ele>709</ele>
        <time>2024-02-01T11:13:59Z</time>
      </trkpt>
      <trkpt lat="44.02686" lon="6.04549">
        <ele>705</ele>
        <time>2024-02-01T11:14:05Z</time>
      </trkpt>
      <trkpt lat="44.02676" lon="6.04556">
        <ele>702</ele>
        <time>2024-02-01T11:14:12Z</time>
      </trkpt>
      <trkpt lat="44.02652" lon="6.04551">
        <ele>707</ele>
        <time>2024-02-01T11:14:17Z</time>
      </trkpt>
      <trkpt lat="44.02635" lon="6.04538">
        <ele>715</ele>
        <time>2024-02-01T11:14:24Z</time>
      </trkpt>
      <trkpt lat="44.0263" lon="6.04538">
        <ele>716</ele>
        <time>2024-02-01T11:14:29Z</time>
      </trkpt>
      <trkpt lat="44.02619" lon="6.04536">
        <ele>712</ele>
        <time>2024-02-01T11:14:32Z</time>
      </trkpt>
      <trkpt lat="44.02611" lon="6.04536">
        <ele>712</ele>
        <time>2024-02-01T11:14:35Z</time>
      </trkpt>
      <trkpt lat="44.02605" lon="6.04536">
        <ele>715</ele>
        <time>2024-02-01T11:14:38Z</time>
      </trkpt>
      <trkpt lat="44.02601" lon="6.04536">
        <ele>715</ele>
        <time>2024-02-01T11:14:41Z</time>
      </trkpt>
      <trkpt lat="44.02599" lon="6.04533">
        <ele>715</ele>
        <time>2024-02-01T11:14:44Z</time>
      </trkpt>
      <trkpt lat="44.02596" lon="6.04528">
        <ele>715</ele>
        <time>2024-02-01T11:14:47Z</time>
      </trkpt>
      <trkpt lat="44.02581" lon="6.04532">
        <ele>726</ele>
        <time>2024-02-01T11:14:53Z</time>
      </trkpt>
      <trkpt lat="44.02576" lon="6.04532">
        <ele>721</ele>
        <time>2024-02-01T11:14:59Z</time>
      </trkpt>
      <trkpt lat="44.02569" lon="6.04539">
        <ele>728</ele>
        <time>2024-02-01T11:15:02Z</time>
      </trkpt>
      <trkpt lat="44.02562" lon="6.04541">
        <ele>720</ele>
        <time>2024-02-01T11:15:05Z</time>
      </trkpt>
      <trkpt lat="44.02559" lon="6.04544">
        <ele>724</ele>
        <time>2024-02-01T11:15:08Z</time>
      </trkpt>
      <trkpt lat="44.02556" lon="6.04547">
        <ele>724</ele>
        <time>2024-02-01T11:15:11Z</time>
      </trkpt>
      <trkpt lat="44.02553" lon="6.04548">
        <ele>732</ele>
        <time>2024-02-01T11:15:14Z</time>
      </trkpt>
      <trkpt lat="44.02548" lon="6.04548">
        <ele>731</ele>
        <time>2024-02-01T11:15:17Z</time>
      </trkpt>
      <trkpt lat="44.02545" lon="6.04548">
        <ele>729</ele>
        <time>2024-02-01T11:15:20Z</time>
      </trkpt>
      <trkpt lat="44.02538" lon="6.04549">
        <ele>730</ele>
        <time>2024-02-01T11:15:23Z</time>
      </trkpt>
      <trkpt lat="44.02524" lon="6.0457">
        <ele>730</ele>
        <time>2024-02-01T11:15:26Z</time>
      </trkpt>
      <trkpt lat="44.02519" lon="6.04576">
        <ele>730</ele>
        <time>2024-02-01T11:15:29Z</time>
      </trkpt>
      <trkpt lat="44.02516" lon="6.04579">
        <ele>729</ele>
        <time>2024-02-01T11:15:32Z</time>
      </trkpt>
      <trkpt lat="44.02513" lon="6.04587">
        <ele>730</ele>
        <time>2024-02-01T11:15:35Z</time>
      </trkpt>
      <trkpt lat="44.02511" lon="6.04589">
        <ele>732</ele>
        <time>2024-02-01T11:15:39Z</time>
      </trkpt>
      <trkpt lat="44.02508" lon="6.04596">
        <ele>733</ele>
        <time>2024-02-01T11:15:42Z</time>
      </trkpt>
      <trkpt lat="44.02505" lon="6.04595">
        <ele>737</ele>
        <time>2024-02-01T11:15:46Z</time>
      </trkpt>
      <trkpt lat="44.025" lon="6.04599">
        <ele>736</ele>
        <time>2024-02-01T11:15:50Z</time>
      </trkpt>
      <trkpt lat="44.02494" lon="6.04606">
        <ele>737</ele>
        <time>2024-02-01T11:15:52Z</time>
      </trkpt>
      <trkpt lat="44.02493" lon="6.04609">
        <ele>735</ele>
        <time>2024-02-01T11:15:57Z</time>
      </trkpt>
      <trkpt lat="44.0249" lon="6.04614">
        <ele>736</ele>
        <time>2024-02-01T11:15:59Z</time>
      </trkpt>
      <trkpt lat="44.02488" lon="6.04618">
        <ele>737</ele>
        <time>2024-02-01T11:16:03Z</time>
      </trkpt>
      <trkpt lat="44.02484" lon="6.04623">
        <ele>737</ele>
        <time>2024-02-01T11:16:05Z</time>
      </trkpt>
      <trkpt lat="44.02463" lon="6.04631">
        <ele>737</ele>
        <time>2024-02-01T11:16:09Z</time>
      </trkpt>
      <trkpt lat="44.02454" lon="6.0463">
        <ele>738</ele>
        <time>2024-02-01T11:16:12Z</time>
      </trkpt>
      <trkpt lat="44.02449" lon="6.04628">
        <ele>739</ele>
        <time>2024-02-01T11:16:15Z</time>
      </trkpt>
      <trkpt lat="44.02443" lon="6.04625">
        <ele>741</ele>
        <time>2024-02-01T11:16:18Z</time>
      </trkpt>
      <trkpt lat="44.02438" lon="6.04621">
        <ele>741</ele>
        <time>2024-02-01T11:16:22Z</time>
      </trkpt>
      <trkpt lat="44.02434" lon="6.04618">
        <ele>739</ele>
        <time>2024-02-01T11:16:25Z</time>
      </trkpt>
      <trkpt lat="44.0243" lon="6.04614">
        <ele>739</ele>
        <time>2024-02-01T11:16:27Z</time>
      </trkpt>
      <trkpt lat="44.02425" lon="6.04609">
        <ele>739</ele>
        <time>2024-02-01T11:16:30Z</time>
      </trkpt>
      <trkpt lat="44.0242" lon="6.04607">
        <ele>739</ele>
        <time>2024-02-01T11:16:34Z</time>
      </trkpt>
      <trkpt lat="44.0241" lon="6.04601">
        <ele>740</ele>
        <time>2024-02-01T11:16:38Z</time>
      </trkpt>
      <trkpt lat="44.02401" lon="6.04595">
        <ele>739</ele>
        <time>2024-02-01T11:16:41Z</time>
      </trkpt>
      <trkpt lat="44.02396" lon="6.04588">
        <ele>741</ele>
        <time>2024-02-01T11:16:44Z</time>
      </trkpt>
      <trkpt lat="44.02388" lon="6.04583">
        <ele>742</ele>
        <time>2024-02-01T11:16:46Z</time>
      </trkpt>
      <trkpt lat="44.02385" lon="6.04579">
        <ele>739</ele>
        <time>2024-02-01T11:16:50Z</time>
      </trkpt>
      <trkpt lat="44.02378" lon="6.04574">
        <ele>739</ele>
        <time>2024-02-01T11:16:52Z</time>
      </trkpt>
      <trkpt lat="44.02374" lon="6.04572">
        <ele>739</ele>
        <time>2024-02-01T11:16:56Z</time>
      </trkpt>
      <trkpt lat="44.02365" lon="6.04571">
        <ele>739</ele>
        <time>2024-02-01T11:17:00Z</time>
      </trkpt>
      <trkpt lat="44.02359" lon="6.04571">
        <ele>738</ele>
        <time>2024-02-01T11:17:03Z</time>
      </trkpt>
      <trkpt lat="44.02352" lon="6.04571">
        <ele>739</ele>
        <time>2024-02-01T11:17:06Z</time>
      </trkpt>
      <trkpt lat="44.02349" lon="6.04574">
        <ele>741</ele>
        <time>2024-02-01T11:17:09Z</time>
      </trkpt>
      <trkpt lat="44.02343" lon="6.04575">
        <ele>741</ele>
        <time>2024-02-01T11:17:11Z</time>
      </trkpt>
      <trkpt lat="44.0234" lon="6.04575">
        <ele>747</ele>
        <time>2024-02-01T11:17:15Z</time>
      </trkpt>
      <trkpt lat="44.02335" lon="6.04574">
        <ele>747</ele>
        <time>2024-02-01T11:17:17Z</time>
      </trkpt>
      <trkpt lat="44.02334" lon="6.04577">
        <ele>749</ele>
        <time>2024-02-01T11:17:21Z</time>
      </trkpt>
      <trkpt lat="44.02329" lon="6.0458">
        <ele>749</ele>
        <time>2024-02-01T11:17:24Z</time>
      </trkpt>
      <trkpt lat="44.02324" lon="6.0458">
        <ele>749</ele>
        <time>2024-02-01T11:17:28Z</time>
      </trkpt>
      <trkpt lat="44.02318" lon="6.0458">
        <ele>750</ele>
        <time>2024-02-01T11:17:31Z</time>
      </trkpt>
      <trkpt lat="44.02311" lon="6.04579">
        <ele>751</ele>
        <time>2024-02-01T11:17:33Z</time>
      </trkpt>
      <trkpt lat="44.02305" lon="6.04578">
        <ele>757</ele>
        <time>2024-02-01T11:17:36Z</time>
      </trkpt>
      <trkpt lat="44.02302" lon="6.04581">
        <ele>763</ele>
        <time>2024-02-01T11:17:39Z</time>
      </trkpt>
      <trkpt lat="44.02297" lon="6.04583">
        <ele>758</ele>
        <time>2024-02-01T11:17:42Z</time>
      </trkpt>
      <trkpt lat="44.02293" lon="6.04581">
        <ele>760</ele>
        <time>2024-02-01T11:17:45Z</time>
      </trkpt>
      <trkpt lat="44.02289" lon="6.04577">
        <ele>757</ele>
        <time>2024-02-01T11:17:48Z</time>
      </trkpt>
      <trkpt lat="44.02289" lon="6.0458">
        <ele>757</ele>
        <time>2024-02-01T11:17:51Z</time>
      </trkpt>
      <trkpt lat="44.02279" lon="6.04571">
        <ele>757</ele>
        <time>2024-02-01T11:17:55Z</time>
      </trkpt>
      <trkpt lat="44.02262" lon="6.04558">
        <ele>757</ele>
        <time>2024-02-01T11:17:58Z</time>
      </trkpt>
      <trkpt lat="44.0225" lon="6.0455">
        <ele>756</ele>
        <time>2024-02-01T11:18:02Z</time>
      </trkpt>
      <trkpt lat="44.02239" lon="6.04545">
        <ele>756</ele>
        <time>2024-02-01T11:18:05Z</time>
      </trkpt>
      <trkpt lat="44.02229" lon="6.04541">
        <ele>757</ele>
        <time>2024-02-01T11:18:11Z</time>
      </trkpt>
      <trkpt lat="44.02225" lon="6.04535">
        <ele>754</ele>
        <time>2024-02-01T11:18:14Z</time>
      </trkpt>
      <trkpt lat="44.02221" lon="6.04533">
        <ele>754</ele>
        <time>2024-02-01T11:18:17Z</time>
      </trkpt>
      <trkpt lat="44.02209" lon="6.04517">
        <ele>753</ele>
        <time>2024-02-01T11:18:20Z</time>
      </trkpt>
      <trkpt lat="44.02201" lon="6.04509">
        <ele>754</ele>
        <time>2024-02-01T11:18:23Z</time>
      </trkpt>
      <trkpt lat="44.02172" lon="6.04487">
        <ele>778</ele>
        <time>2024-02-01T11:18:30Z</time>
      </trkpt>
      <trkpt lat="44.02152" lon="6.0447">
        <ele>775</ele>
        <time>2024-02-01T11:18:36Z</time>
      </trkpt>
      <trkpt lat="44.02146" lon="6.04465">
        <ele>758</ele>
        <time>2024-02-01T11:18:42Z</time>
      </trkpt>
      <trkpt lat="44.02128" lon="6.04444">
        <ele>779</ele>
        <time>2024-02-01T11:18:46Z</time>
      </trkpt>
      <trkpt lat="44.0212" lon="6.04436">
        <ele>756</ele>
        <time>2024-02-01T11:18:53Z</time>
      </trkpt>
      <trkpt lat="44.02114" lon="6.04431">
        <ele>756</ele>
        <time>2024-02-01T11:18:56Z</time>
      </trkpt>
      <trkpt lat="44.02107" lon="6.04428">
        <ele>756</ele>
        <time>2024-02-01T11:18:59Z</time>
      </trkpt>
      <trkpt lat="44.02104" lon="6.04429">
        <ele>761</ele>
        <time>2024-02-01T11:19:02Z</time>
      </trkpt>
      <trkpt lat="44.02097" lon="6.04429">
        <ele>761</ele>
        <time>2024-02-01T11:19:05Z</time>
      </trkpt>
      <trkpt lat="44.02095" lon="6.04431">
        <ele>764</ele>
        <time>2024-02-01T11:19:08Z</time>
      </trkpt>
      <trkpt lat="44.02092" lon="6.04434">
        <ele>764</ele>
        <time>2024-02-01T11:19:11Z</time>
      </trkpt>
      <trkpt lat="44.02089" lon="6.04432">
        <ele>765</ele>
        <time>2024-02-01T11:19:14Z</time>
      </trkpt>
      <trkpt lat="44.02082" lon="6.04433">
        <ele>765</ele>
        <time>2024-02-01T11:19:17Z</time>
      </trkpt>
      <trkpt lat="44.02079" lon="6.04433">
        <ele>764</ele>
        <time>2024-02-01T11:19:21Z</time>
      </trkpt>
      <trkpt lat="44.02074" lon="6.04437">
        <ele>764</ele>
        <time>2024-02-01T11:19:24Z</time>
      </trkpt>
      <trkpt lat="44.0207" lon="6.0443">
        <ele>765</ele>
        <time>2024-02-01T11:19:27Z</time>
      </trkpt>
      <trkpt lat="44.02062" lon="6.0443">
        <ele>765</ele>
        <time>2024-02-01T11:19:30Z</time>
      </trkpt>
      <trkpt lat="44.02063" lon="6.04403">
        <ele>769</ele>
        <time>2024-02-01T11:19:33Z</time>
      </trkpt>
      <trkpt lat="44.02059" lon="6.04384">
        <ele>769</ele>
        <time>2024-02-01T11:19:38Z</time>
      </trkpt>
      <trkpt lat="44.02053" lon="6.04372">
        <ele>759</ele>
        <time>2024-02-01T11:19:41Z</time>
      </trkpt>
      <trkpt lat="44.02052" lon="6.04365">
        <ele>768</ele>
        <time>2024-02-01T11:19:47Z</time>
      </trkpt>
      <trkpt lat="44.02046" lon="6.0435">
        <ele>770</ele>
        <time>2024-02-01T11:19:50Z</time>
      </trkpt>
      <trkpt lat="44.02045" lon="6.04348">
        <ele>770</ele>
        <time>2024-02-01T11:19:53Z</time>
      </trkpt>
      <trkpt lat="44.02034" lon="6.04304">
        <ele>778</ele>
        <time>2024-02-01T11:19:59Z</time>
      </trkpt>
      <trkpt lat="44.0203" lon="6.04284">
        <ele>773</ele>
        <time>2024-02-01T11:20:06Z</time>
      </trkpt>
      <trkpt lat="44.0203" lon="6.04266">
        <ele>774</ele>
        <time>2024-02-01T11:20:09Z</time>
      </trkpt>
      <trkpt lat="44.02032" lon="6.04254">
        <ele>769</ele>
        <time>2024-02-01T11:20:12Z</time>
      </trkpt>
      <trkpt lat="44.02035" lon="6.04239">
        <ele>769</ele>
        <time>2024-02-01T11:20:17Z</time>
      </trkpt>
      <trkpt lat="44.02036" lon="6.04235">
        <ele>775</ele>
        <time>2024-02-01T11:20:23Z</time>
      </trkpt>
      <trkpt lat="44.02044" lon="6.04215">
        <ele>769</ele>
        <time>2024-02-01T11:20:29Z</time>
      </trkpt>
      <trkpt lat="44.02053" lon="6.04204">
        <ele>780</ele>
        <time>2024-02-01T11:20:35Z</time>
      </trkpt>
      <trkpt lat="44.02062" lon="6.04194">
        <ele>781</ele>
        <time>2024-02-01T11:20:38Z</time>
      </trkpt>
      <trkpt lat="44.02069" lon="6.04188">
        <ele>781</ele>
        <time>2024-02-01T11:20:41Z</time>
      </trkpt>
      <trkpt lat="44.02074" lon="6.04188">
        <ele>780</ele>
        <time>2024-02-01T11:20:44Z</time>
      </trkpt>
      <trkpt lat="44.02079" lon="6.04183">
        <ele>780</ele>
        <time>2024-02-01T11:20:47Z</time>
      </trkpt>
      <trkpt lat="44.02082" lon="6.04184">
        <ele>781</ele>
        <time>2024-02-01T11:20:50Z</time>
      </trkpt>
      <trkpt lat="44.02087" lon="6.04177">
        <ele>781</ele>
        <time>2024-02-01T11:20:53Z</time>
      </trkpt>
      <trkpt lat="44.02089" lon="6.04172">
        <ele>784</ele>
        <time>2024-02-01T11:20:56Z</time>
      </trkpt>
      <trkpt lat="44.02089" lon="6.04163">
        <ele>784</ele>
        <time>2024-02-01T11:20:59Z</time>
      </trkpt>
      <trkpt lat="44.0209" lon="6.0415">
        <ele>763</ele>
        <time>2024-02-01T11:21:02Z</time>
      </trkpt>
      <trkpt lat="44.0209" lon="6.04136">
        <ele>763</ele>
        <time>2024-02-01T11:21:05Z</time>
      </trkpt>
      <trkpt lat="44.02086" lon="6.0413">
        <ele>790</ele>
        <time>2024-02-01T11:21:11Z</time>
      </trkpt>
      <trkpt lat="44.02077" lon="6.04122">
        <ele>788</ele>
        <time>2024-02-01T11:21:14Z</time>
      </trkpt>
      <trkpt lat="44.02073" lon="6.04112">
        <ele>790</ele>
        <time>2024-02-01T11:21:17Z</time>
      </trkpt>
      <trkpt lat="44.02059" lon="6.04104">
        <ele>787</ele>
        <time>2024-02-01T11:21:23Z</time>
      </trkpt>
      <trkpt lat="44.02046" lon="6.04108">
        <ele>797</ele>
        <time>2024-02-01T11:21:30Z</time>
      </trkpt>
      <trkpt lat="44.02044" lon="6.04107">
        <ele>797</ele>
        <time>2024-02-01T11:21:35Z</time>
      </trkpt>
      <trkpt lat="44.02034" lon="6.04104">
        <ele>796</ele>
        <time>2024-02-01T11:21:41Z</time>
      </trkpt>
      <trkpt lat="44.02025" lon="6.04104">
        <ele>796</ele>
        <time>2024-02-01T11:21:48Z</time>
      </trkpt>
      <trkpt lat="44.02001" lon="6.04092">
        <ele>800</ele>
        <time>2024-02-01T11:21:53Z</time>
      </trkpt>
      <trkpt lat="44.01994" lon="6.04081">
        <ele>806</ele>
        <time>2024-02-01T11:22:00Z</time>
      </trkpt>
      <trkpt lat="44.01981" lon="6.04072">
        <ele>806</ele>
        <time>2024-02-01T11:22:05Z</time>
      </trkpt>
      <trkpt lat="44.01974" lon="6.04068">
        <ele>805</ele>
        <time>2024-02-01T11:22:11Z</time>
      </trkpt>
      <trkpt lat="44.01966" lon="6.04067">
        <ele>806</ele>
        <time>2024-02-01T11:22:17Z</time>
      </trkpt>
      <trkpt lat="44.01961" lon="6.04074">
        <ele>808</ele>
        <time>2024-02-01T11:22:21Z</time>
      </trkpt>
      <trkpt lat="44.01959" lon="6.04093">
        <ele>812</ele>
        <time>2024-02-01T11:22:24Z</time>
      </trkpt>
      <trkpt lat="44.01953" lon="6.04098">
        <ele>812</ele>
        <time>2024-02-01T11:22:29Z</time>
      </trkpt>
      <trkpt lat="44.01953" lon="6.04104">
        <ele>813</ele>
        <time>2024-02-01T11:22:36Z</time>
      </trkpt>
      <trkpt lat="44.01946" lon="6.04112">
        <ele>812</ele>
        <time>2024-02-01T11:22:38Z</time>
      </trkpt>
      <trkpt lat="44.0194" lon="6.04118">
        <ele>812</ele>
        <time>2024-02-01T11:22:41Z</time>
      </trkpt>
      <trkpt lat="44.01938" lon="6.04111">
        <ele>814</ele>
        <time>2024-02-01T11:22:44Z</time>
      </trkpt>
      <trkpt lat="44.0193" lon="6.04111">
        <ele>814</ele>
        <time>2024-02-01T11:22:47Z</time>
      </trkpt>
      <trkpt lat="44.01927" lon="6.04104">
        <ele>812</ele>
        <time>2024-02-01T11:22:50Z</time>
      </trkpt>
      <trkpt lat="44.01921" lon="6.04101">
        <ele>812</ele>
        <time>2024-02-01T11:22:53Z</time>
      </trkpt>
      <trkpt lat="44.01916" lon="6.04093">
        <ele>819</ele>
        <time>2024-02-01T11:22:56Z</time>
      </trkpt>
      <trkpt lat="44.0191" lon="6.04084">
        <ele>819</ele>
        <time>2024-02-01T11:22:59Z</time>
      </trkpt>
      <trkpt lat="44.01907" lon="6.04081">
        <ele>819</ele>
        <time>2024-02-01T11:23:02Z</time>
      </trkpt>
      <trkpt lat="44.01902" lon="6.04076">
        <ele>819</ele>
        <time>2024-02-01T11:23:05Z</time>
      </trkpt>
      <trkpt lat="44.0189" lon="6.04068">
        <ele>819</ele>
        <time>2024-02-01T11:23:08Z</time>
      </trkpt>
      <trkpt lat="44.01879" lon="6.04065">
        <ele>819</ele>
        <time>2024-02-01T11:23:11Z</time>
      </trkpt>
      <trkpt lat="44.01877" lon="6.04067">
        <ele>820</ele>
        <time>2024-02-01T11:23:15Z</time>
      </trkpt>
      <trkpt lat="44.01872" lon="6.04067">
        <ele>813</ele>
        <time>2024-02-01T11:23:18Z</time>
      </trkpt>
      <trkpt lat="44.01866" lon="6.04068">
        <ele>821</ele>
        <time>2024-02-01T11:23:23Z</time>
      </trkpt>
      <trkpt lat="44.01864" lon="6.04066">
        <ele>826</ele>
        <time>2024-02-01T11:23:27Z</time>
      </trkpt>
      <trkpt lat="44.01859" lon="6.04064">
        <ele>826</ele>
        <time>2024-02-01T11:23:30Z</time>
      </trkpt>
      <trkpt lat="44.01857" lon="6.04065">
        <ele>828</ele>
        <time>2024-02-01T11:23:33Z</time>
      </trkpt>
      <trkpt lat="44.01851" lon="6.04068">
        <ele>828</ele>
        <time>2024-02-01T11:23:36Z</time>
      </trkpt>
      <trkpt lat="44.01846" lon="6.04069">
        <ele>826</ele>
        <time>2024-02-01T11:23:41Z</time>
      </trkpt>
      <trkpt lat="44.01844" lon="6.04067">
        <ele>828</ele>
        <time>2024-02-01T11:23:44Z</time>
      </trkpt>
      <trkpt lat="44.01838" lon="6.04069">
        <ele>828</ele>
        <time>2024-02-01T11:23:47Z</time>
      </trkpt>
      <trkpt lat="44.01834" lon="6.04073">
        <ele>829</ele>
        <time>2024-02-01T11:23:50Z</time>
      </trkpt>
      <trkpt lat="44.01825" lon="6.04081">
        <ele>831</ele>
        <time>2024-02-01T11:23:53Z</time>
      </trkpt>
      <trkpt lat="44.01822" lon="6.0408">
        <ele>833</ele>
        <time>2024-02-01T11:23:56Z</time>
      </trkpt>
      <trkpt lat="44.01817" lon="6.04076">
        <ele>833</ele>
        <time>2024-02-01T11:23:59Z</time>
      </trkpt>
      <trkpt lat="44.01813" lon="6.04072">
        <ele>834</ele>
        <time>2024-02-01T11:24:02Z</time>
      </trkpt>
      <trkpt lat="44.01805" lon="6.04073">
        <ele>834</ele>
        <time>2024-02-01T11:24:05Z</time>
      </trkpt>
      <trkpt lat="44.01801" lon="6.04069">
        <ele>835</ele>
        <time>2024-02-01T11:24:08Z</time>
      </trkpt>
      <trkpt lat="44.01795" lon="6.04068">
        <ele>835</ele>
        <time>2024-02-01T11:24:11Z</time>
      </trkpt>
      <trkpt lat="44.018" lon="6.04034">
        <ele>836</ele>
        <time>2024-02-01T11:24:14Z</time>
      </trkpt>
      <trkpt lat="44.01796" lon="6.04022">
        <ele>836</ele>
        <time>2024-02-01T11:24:17Z</time>
      </trkpt>
      <trkpt lat="44.01791" lon="6.0402">
        <ele>839</ele>
        <time>2024-02-01T11:24:21Z</time>
      </trkpt>
      <trkpt lat="44.01784" lon="6.0402">
        <ele>839</ele>
        <time>2024-02-01T11:24:24Z</time>
      </trkpt>
      <trkpt lat="44.01781" lon="6.04016">
        <ele>845</ele>
        <time>2024-02-01T11:24:26Z</time>
      </trkpt>
      <trkpt lat="44.01773" lon="6.04015">
        <ele>845</ele>
        <time>2024-02-01T11:24:29Z</time>
      </trkpt>
      <trkpt lat="44.01771" lon="6.04012">
        <ele>845</ele>
        <time>2024-02-01T11:24:32Z</time>
      </trkpt>
      <trkpt lat="44.01766" lon="6.04009">
        <ele>845</ele>
        <time>2024-02-01T11:24:35Z</time>
      </trkpt>
      <trkpt lat="44.01763" lon="6.04004">
        <ele>847</ele>
        <time>2024-02-01T11:24:38Z</time>
      </trkpt>
      <trkpt lat="44.01758" lon="6.03999">
        <ele>847</ele>
        <time>2024-02-01T11:24:41Z</time>
      </trkpt>
      <trkpt lat="44.01752" lon="6.03997">
        <ele>847</ele>
        <time>2024-02-01T11:24:44Z</time>
      </trkpt>
      <trkpt lat="44.01745" lon="6.03996">
        <ele>847</ele>
        <time>2024-02-01T11:24:47Z</time>
      </trkpt>
      <trkpt lat="44.0174" lon="6.03993">
        <ele>848</ele>
        <time>2024-02-01T11:24:50Z</time>
      </trkpt>
      <trkpt lat="44.01732" lon="6.03991">
        <ele>848</ele>
        <time>2024-02-01T11:24:54Z</time>
      </trkpt>
      <trkpt lat="44.01729" lon="6.03986">
        <ele>854</ele>
        <time>2024-02-01T11:24:56Z</time>
      </trkpt>
      <trkpt lat="44.01723" lon="6.03982">
        <ele>854</ele>
        <time>2024-02-01T11:24:59Z</time>
      </trkpt>
      <trkpt lat="44.01718" lon="6.03981">
        <ele>851</ele>
        <time>2024-02-01T11:25:03Z</time>
      </trkpt>
      <trkpt lat="44.01712" lon="6.03981">
        <ele>851</ele>
        <time>2024-02-01T11:25:05Z</time>
      </trkpt>
      <trkpt lat="44.01709" lon="6.03982">
        <ele>853</ele>
        <time>2024-02-01T11:25:08Z</time>
      </trkpt>
      <trkpt lat="44.01701" lon="6.03981">
        <ele>853</ele>
        <time>2024-02-01T11:25:11Z</time>
      </trkpt>
      <trkpt lat="44.01698" lon="6.03979">
        <ele>853</ele>
        <time>2024-02-01T11:25:14Z</time>
      </trkpt>
      <trkpt lat="44.01692" lon="6.03977">
        <ele>853</ele>
        <time>2024-02-01T11:25:17Z</time>
      </trkpt>
      <trkpt lat="44.01687" lon="6.03974">
        <ele>852</ele>
        <time>2024-02-01T11:25:20Z</time>
      </trkpt>
      <trkpt lat="44.0168" lon="6.03972">
        <ele>854</ele>
        <time>2024-02-01T11:25:23Z</time>
      </trkpt>
      <trkpt lat="44.01676" lon="6.03969">
        <ele>857</ele>
        <time>2024-02-01T11:25:26Z</time>
      </trkpt>
      <trkpt lat="44.01666" lon="6.03968">
        <ele>859</ele>
        <time>2024-02-01T11:25:29Z</time>
      </trkpt>
      <trkpt lat="44.01666" lon="6.03962">
        <ele>858</ele>
        <time>2024-02-01T11:25:33Z</time>
      </trkpt>
      <trkpt lat="44.01661" lon="6.03958">
        <ele>857</ele>
        <time>2024-02-01T11:25:36Z</time>
      </trkpt>
      <trkpt lat="44.01657" lon="6.03956">
        <ele>858</ele>
        <time>2024-02-01T11:25:39Z</time>
      </trkpt>
      <trkpt lat="44.01652" lon="6.03954">
        <ele>858</ele>
        <time>2024-02-01T11:25:42Z</time>
      </trkpt>
      <trkpt lat="44.01649" lon="6.03951">
        <ele>859</ele>
        <time>2024-02-01T11:25:45Z</time>
      </trkpt>
      <trkpt lat="44.01641" lon="6.0395">
        <ele>859</ele>
        <time>2024-02-01T11:25:48Z</time>
      </trkpt>
      <trkpt lat="44.01642" lon="6.03928">
        <ele>861</ele>
        <time>2024-02-01T11:25:51Z</time>
      </trkpt>
      <trkpt lat="44.01643" lon="6.03904">
        <ele>861</ele>
        <time>2024-02-01T11:25:54Z</time>
      </trkpt>
      <trkpt lat="44.01638" lon="6.03893">
        <ele>864</ele>
        <time>2024-02-01T11:25:57Z</time>
      </trkpt>
      <trkpt lat="44.01631" lon="6.03885">
        <ele>856</ele>
        <time>2024-02-01T11:26:00Z</time>
      </trkpt>
      <trkpt lat="44.01631" lon="6.0388">
        <ele>861</ele>
        <time>2024-02-01T11:26:03Z</time>
      </trkpt>
      <trkpt lat="44.01628" lon="6.03872">
        <ele>861</ele>
        <time>2024-02-01T11:26:05Z</time>
      </trkpt>
      <trkpt lat="44.01629" lon="6.03867">
        <ele>863</ele>
        <time>2024-02-01T11:26:09Z</time>
      </trkpt>
      <trkpt lat="44.01629" lon="6.0386">
        <ele>863</ele>
        <time>2024-02-01T11:26:13Z</time>
      </trkpt>
      <trkpt lat="44.01631" lon="6.03847">
        <ele>865</ele>
        <time>2024-02-01T11:26:15Z</time>
      </trkpt>
      <trkpt lat="44.01633" lon="6.03839">
        <ele>867</ele>
        <time>2024-02-01T11:26:19Z</time>
      </trkpt>
      <trkpt lat="44.01636" lon="6.03829">
        <ele>867</ele>
        <time>2024-02-01T11:26:22Z</time>
      </trkpt>
      <trkpt lat="44.01638" lon="6.03825">
        <ele>867</ele>
        <time>2024-02-01T11:26:25Z</time>
      </trkpt>
      <trkpt lat="44.01641" lon="6.03813">
        <ele>869</ele>
        <time>2024-02-01T11:26:27Z</time>
      </trkpt>
      <trkpt lat="44.01644" lon="6.03805">
        <ele>869</ele>
        <time>2024-02-01T11:26:31Z</time>
      </trkpt>
      <trkpt lat="44.01643" lon="6.03793">
        <ele>870</ele>
        <time>2024-02-01T11:26:33Z</time>
      </trkpt>
      <trkpt lat="44.01644" lon="6.03785">
        <ele>870</ele>
        <time>2024-02-01T11:26:36Z</time>
      </trkpt>
      <trkpt lat="44.01645" lon="6.03769">
        <ele>872</ele>
        <time>2024-02-01T11:26:40Z</time>
      </trkpt>
      <trkpt lat="44.01645" lon="6.03748">
        <ele>873</ele>
        <time>2024-02-01T11:26:43Z</time>
      </trkpt>
      <trkpt lat="44.01645" lon="6.03729">
        <ele>873</ele>
        <time>2024-02-01T11:26:47Z</time>
      </trkpt>
      <trkpt lat="44.01646" lon="6.03704">
        <ele>879</ele>
        <time>2024-02-01T11:26:54Z</time>
      </trkpt>
      <trkpt lat="44.01646" lon="6.03684">
        <ele>881</ele>
        <time>2024-02-01T11:27:00Z</time>
      </trkpt>
      <trkpt lat="44.01646" lon="6.03676">
        <ele>874</ele>
        <time>2024-02-01T11:27:06Z</time>
      </trkpt>
      <trkpt lat="44.01649" lon="6.03681">
        <ele>871</ele>
        <time>2024-02-01T11:27:12Z</time>
      </trkpt>
      <trkpt lat="44.01651" lon="6.03685">
        <ele>873</ele>
        <time>2024-02-01T11:27:18Z</time>
      </trkpt>
      <trkpt lat="44.01653" lon="6.03687">
        <ele>874</ele>
        <time>2024-02-01T11:27:30Z</time>
      </trkpt>
      <trkpt lat="44.01649" lon="6.03689">
        <ele>877</ele>
        <time>2024-02-01T11:27:48Z</time>
      </trkpt>
      <trkpt lat="44.01648" lon="6.03685">
        <ele>878</ele>
        <time>2024-02-01T11:28:00Z</time>
      </trkpt>
      <trkpt lat="44.0165" lon="6.03687">
        <ele>881</ele>
        <time>2024-02-01T11:28:12Z</time>
      </trkpt>
      <trkpt lat="44.01654" lon="6.03689">
        <ele>875</ele>
        <time>2024-02-01T11:28:18Z</time>
      </trkpt>
      <trkpt lat="44.01657" lon="6.03686">
        <ele>874</ele>
        <time>2024-02-01T11:28:30Z</time>
      </trkpt>
      <trkpt lat="44.01654" lon="6.03688">
        <ele>875</ele>
        <time>2024-02-01T11:28:42Z</time>
      </trkpt>
      <trkpt lat="44.01653" lon="6.03693">
        <ele>875</ele>
        <time>2024-02-01T11:28:54Z</time>
      </trkpt>
      <trkpt lat="44.01654" lon="6.03697">
        <ele>875</ele>
        <time>2024-02-01T11:29:06Z</time>
      </trkpt>
      <trkpt lat="44.01655" lon="6.03695">
        <ele>875</ele>
        <time>2024-02-01T11:29:42Z</time>
      </trkpt>
      <trkpt lat="44.01654" lon="6.03687">
        <ele>874</ele>
        <time>2024-02-01T11:30:36Z</time>
      </trkpt>
      <trkpt lat="44.01653" lon="6.03684">
        <ele>874</ele>
        <time>2024-02-01T11:30:42Z</time>
      </trkpt>
      <trkpt lat="44.01651" lon="6.03684">
        <ele>874</ele>
        <time>2024-02-01T11:30:49Z</time>
      </trkpt>
      <trkpt lat="44.01651" lon="6.03687">
        <ele>874</ele>
        <time>2024-02-01T11:31:18Z</time>
      </trkpt>
      <trkpt lat="44.01649" lon="6.03686">
        <ele>874</ele>
        <time>2024-02-01T11:31:36Z</time>
      </trkpt>
      <trkpt lat="44.01646" lon="6.03677">
        <ele>874</ele>
        <time>2024-02-01T11:31:42Z</time>
      </trkpt>
      <trkpt lat="44.01648" lon="6.03679">
        <ele>874</ele>
        <time>2024-02-01T11:31:45Z</time>
      </trkpt>
      <trkpt lat="44.01649" lon="6.03676">
        <ele>873</ele>
        <time>2024-02-01T11:31:49Z</time>
      </trkpt>
      <trkpt lat="44.0164" lon="6.03647">
        <ele>870</ele>
        <time>2024-02-01T11:31:51Z</time>
      </trkpt>
      <trkpt lat="44.01626" lon="6.03628">
        <ele>870</ele>
        <time>2024-02-01T11:31:55Z</time>
      </trkpt>
      <trkpt lat="44.01614" lon="6.03614">
        <ele>870</ele>
        <time>2024-02-01T11:31:59Z</time>
      </trkpt>
      <trkpt lat="44.01606" lon="6.03606">
        <ele>864</ele>
        <time>2024-02-01T11:32:02Z</time>
      </trkpt>
      <trkpt lat="44.01596" lon="6.03605">
        <ele>864</ele>
        <time>2024-02-01T11:32:05Z</time>
      </trkpt>
      <trkpt lat="44.01591" lon="6.03601">
        <ele>867</ele>
        <time>2024-02-01T11:32:09Z</time>
      </trkpt>
      <trkpt lat="44.01594" lon="6.0359">
        <ele>871</ele>
        <time>2024-02-01T11:32:12Z</time>
      </trkpt>
      <trkpt lat="44.01595" lon="6.03584">
        <ele>868</ele>
        <time>2024-02-01T11:32:15Z</time>
      </trkpt>
      <trkpt lat="44.01592" lon="6.03586">
        <ele>868</ele>
        <time>2024-02-01T11:32:18Z</time>
      </trkpt>
      <trkpt lat="44.01597" lon="6.03574">
        <ele>865</ele>
        <time>2024-02-01T11:32:21Z</time>
      </trkpt>
      <trkpt lat="44.01602" lon="6.03565">
        <ele>865</ele>
        <time>2024-02-01T11:32:24Z</time>
      </trkpt>
      <trkpt lat="44.01606" lon="6.03559">
        <ele>865</ele>
        <time>2024-02-01T11:32:27Z</time>
      </trkpt>
      <trkpt lat="44.01608" lon="6.03555">
        <ele>865</ele>
        <time>2024-02-01T11:32:30Z</time>
      </trkpt>
      <trkpt lat="44.0161" lon="6.03545">
        <ele>864</ele>
        <time>2024-02-01T11:32:33Z</time>
      </trkpt>
      <trkpt lat="44.01614" lon="6.03538">
        <ele>864</ele>
        <time>2024-02-01T11:32:35Z</time>
      </trkpt>
      <trkpt lat="44.01623" lon="6.03478">
        <ele>862</ele>
        <time>2024-02-01T11:32:38Z</time>
      </trkpt>
      <trkpt lat="44.01625" lon="6.03448">
        <ele>862</ele>
        <time>2024-02-01T11:32:41Z</time>
      </trkpt>
      <trkpt lat="44.0163" lon="6.03434">
        <ele>859</ele>
        <time>2024-02-01T11:32:44Z</time>
      </trkpt>
      <trkpt lat="44.01633" lon="6.03428">
        <ele>860</ele>
        <time>2024-02-01T11:32:47Z</time>
      </trkpt>
      <trkpt lat="44.01637" lon="6.03418">
        <ele>859</ele>
        <time>2024-02-01T11:32:50Z</time>
      </trkpt>
      <trkpt lat="44.01646" lon="6.03398">
        <ele>860</ele>
        <time>2024-02-01T11:32:52Z</time>
      </trkpt>
      <trkpt lat="44.01646" lon="6.0338">
        <ele>858</ele>
        <time>2024-02-01T11:32:57Z</time>
      </trkpt>
      <trkpt lat="44.01643" lon="6.03364">
        <ele>860</ele>
        <time>2024-02-01T11:33:00Z</time>
      </trkpt>
      <trkpt lat="44.01639" lon="6.0336">
        <ele>860</ele>
        <time>2024-02-01T11:33:04Z</time>
      </trkpt>
      <trkpt lat="44.01635" lon="6.03364">
        <ele>857</ele>
        <time>2024-02-01T11:33:06Z</time>
      </trkpt>
      <trkpt lat="44.01621" lon="6.03352">
        <ele>857</ele>
        <time>2024-02-01T11:33:11Z</time>
      </trkpt>
      <trkpt lat="44.01603" lon="6.0335">
        <ele>849</ele>
        <time>2024-02-01T11:33:17Z</time>
      </trkpt>
      <trkpt lat="44.01586" lon="6.03352">
        <ele>854</ele>
        <time>2024-02-01T11:33:23Z</time>
      </trkpt>
      <trkpt lat="44.01569" lon="6.03317">
        <ele>856</ele>
        <time>2024-02-01T11:33:29Z</time>
      </trkpt>
      <trkpt lat="44.01557" lon="6.0327">
        <ele>857</ele>
        <time>2024-02-01T11:33:35Z</time>
      </trkpt>
      <trkpt lat="44.01544" lon="6.03262">
        <ele>858</ele>
        <time>2024-02-01T11:33:41Z</time>
      </trkpt>
      <trkpt lat="44.01522" lon="6.03234">
        <ele>861</ele>
        <time>2024-02-01T11:33:47Z</time>
      </trkpt>
      <trkpt lat="44.01512" lon="6.03229">
        <ele>859</ele>
        <time>2024-02-01T11:33:50Z</time>
      </trkpt>
      <trkpt lat="44.01508" lon="6.03224">
        <ele>859</ele>
        <time>2024-02-01T11:33:53Z</time>
      </trkpt>
      <trkpt lat="44.01504" lon="6.03202">
        <ele>856</ele>
        <time>2024-02-01T11:33:59Z</time>
      </trkpt>
      <trkpt lat="44.015" lon="6.03179">
        <ele>852</ele>
        <time>2024-02-01T11:34:05Z</time>
      </trkpt>
      <trkpt lat="44.01502" lon="6.03161">
        <ele>852</ele>
        <time>2024-02-01T11:34:11Z</time>
      </trkpt>
      <trkpt lat="44.01507" lon="6.0314">
        <ele>854</ele>
        <time>2024-02-01T11:34:14Z</time>
      </trkpt>
      <trkpt lat="44.01509" lon="6.03127">
        <ele>854</ele>
        <time>2024-02-01T11:34:17Z</time>
      </trkpt>
      <trkpt lat="44.01514" lon="6.03117">
        <ele>854</ele>
        <time>2024-02-01T11:34:20Z</time>
      </trkpt>
      <trkpt lat="44.01518" lon="6.0311">
        <ele>855</ele>
        <time>2024-02-01T11:34:23Z</time>
      </trkpt>
      <trkpt lat="44.01524" lon="6.03087">
        <ele>855</ele>
        <time>2024-02-01T11:34:29Z</time>
      </trkpt>
      <trkpt lat="44.01537" lon="6.03071">
        <ele>857</ele>
        <time>2024-02-01T11:34:35Z</time>
      </trkpt>
      <trkpt lat="44.0156" lon="6.0305">
        <ele>859</ele>
        <time>2024-02-01T11:34:41Z</time>
      </trkpt>
      <trkpt lat="44.01573" lon="6.0303">
        <ele>859</ele>
        <time>2024-02-01T11:34:47Z</time>
      </trkpt>
      <trkpt lat="44.01591" lon="6.02995">
        <ele>860</ele>
        <time>2024-02-01T11:34:53Z</time>
      </trkpt>
      <trkpt lat="44.01613" lon="6.02962">
        <ele>859</ele>
        <time>2024-02-01T11:35:00Z</time>
      </trkpt>
      <trkpt lat="44.01615" lon="6.02959">
        <ele>859</ele>
        <time>2024-02-01T11:35:07Z</time>
      </trkpt>
      <trkpt lat="44.01629" lon="6.02939">
        <ele>865</ele>
        <time>2024-02-01T11:35:11Z</time>
      </trkpt>
      <trkpt lat="44.01665" lon="6.02896">
        <ele>859</ele>
        <time>2024-02-01T11:35:17Z</time>
      </trkpt>
      <trkpt lat="44.01683" lon="6.02876">
        <ele>859</ele>
        <time>2024-02-01T11:35:20Z</time>
      </trkpt>
      <trkpt lat="44.01692" lon="6.02863">
        <ele>859</ele>
        <time>2024-02-01T11:35:23Z</time>
      </trkpt>
      <trkpt lat="44.01703" lon="6.02854">
        <ele>854</ele>
        <time>2024-02-01T11:35:29Z</time>
      </trkpt>
      <trkpt lat="44.0172" lon="6.02843">
        <ele>862</ele>
        <time>2024-02-01T11:35:35Z</time>
      </trkpt>
      <trkpt lat="44.01736" lon="6.02826">
        <ele>864</ele>
        <time>2024-02-01T11:35:41Z</time>
      </trkpt>
      <trkpt lat="44.01759" lon="6.02805">
        <ele>864</ele>
        <time>2024-02-01T11:35:47Z</time>
      </trkpt>
      <trkpt lat="44.01777" lon="6.02794">
        <ele>863</ele>
        <time>2024-02-01T11:35:54Z</time>
      </trkpt>
      <trkpt lat="44.01793" lon="6.02782">
        <ele>863</ele>
        <time>2024-02-01T11:35:59Z</time>
      </trkpt>
      <trkpt lat="44.01832" lon="6.02771">
        <ele>863</ele>
        <time>2024-02-01T11:36:05Z</time>
      </trkpt>
      <trkpt lat="44.01857" lon="6.02763">
        <ele>864</ele>
        <time>2024-02-01T11:36:08Z</time>
      </trkpt>
      <trkpt lat="44.01864" lon="6.02756">
        <ele>864</ele>
        <time>2024-02-01T11:36:11Z</time>
      </trkpt>
      <trkpt lat="44.0188" lon="6.02747">
        <ele>862</ele>
        <time>2024-02-01T11:36:17Z</time>
      </trkpt>
      <trkpt lat="44.01889" lon="6.0274">
        <ele>865</ele>
        <time>2024-02-01T11:36:24Z</time>
      </trkpt>
      <trkpt lat="44.01911" lon="6.02719">
        <ele>865</ele>
        <time>2024-02-01T11:36:27Z</time>
      </trkpt>
      <trkpt lat="44.01939" lon="6.02724">
        <ele>863</ele>
        <time>2024-02-01T11:36:30Z</time>
      </trkpt>
      <trkpt lat="44.01943" lon="6.02725">
        <ele>863</ele>
        <time>2024-02-01T11:36:36Z</time>
      </trkpt>
      <trkpt lat="44.0196" lon="6.02724">
        <ele>865</ele>
        <time>2024-02-01T11:36:41Z</time>
      </trkpt>
      <trkpt lat="44.01979" lon="6.02723">
        <ele>867</ele>
        <time>2024-02-01T11:36:47Z</time>
      </trkpt>
      <trkpt lat="44.01994" lon="6.02721">
        <ele>867</ele>
        <time>2024-02-01T11:36:53Z</time>
      </trkpt>
      <trkpt lat="44.02024" lon="6.02717">
        <ele>868</ele>
        <time>2024-02-01T11:36:59Z</time>
      </trkpt>
      <trkpt lat="44.02038" lon="6.02713">
        <ele>870</ele>
        <time>2024-02-01T11:37:05Z</time>
      </trkpt>
      <trkpt lat="44.02058" lon="6.02696">
        <ele>867</ele>
        <time>2024-02-01T11:37:11Z</time>
      </trkpt>
      <trkpt lat="44.02114" lon="6.02662">
        <ele>877</ele>
        <time>2024-02-01T11:37:18Z</time>
      </trkpt>
      <trkpt lat="44.02151" lon="6.02653">
        <ele>866</ele>
        <time>2024-02-01T11:37:24Z</time>
      </trkpt>
      <trkpt lat="44.02176" lon="6.02659">
        <ele>865</ele>
        <time>2024-02-01T11:37:30Z</time>
      </trkpt>
      <trkpt lat="44.02198" lon="6.02653">
        <ele>852</ele>
        <time>2024-02-01T11:37:36Z</time>
      </trkpt>
      <trkpt lat="44.02265" lon="6.02666">
        <ele>837</ele>
        <time>2024-02-01T11:37:43Z</time>
      </trkpt>
      <trkpt lat="44.02289" lon="6.02683">
        <ele>837</ele>
        <time>2024-02-01T11:37:48Z</time>
      </trkpt>
      <trkpt lat="44.02325" lon="6.02729">
        <ele>833</ele>
        <time>2024-02-01T11:37:55Z</time>
      </trkpt>
      <trkpt lat="44.02346" lon="6.02768">
        <ele>840</ele>
        <time>2024-02-01T11:38:01Z</time>
      </trkpt>
      <trkpt lat="44.02357" lon="6.028">
        <ele>831</ele>
        <time>2024-02-01T11:38:06Z</time>
      </trkpt>
      <trkpt lat="44.02363" lon="6.0283">
        <ele>838</ele>
        <time>2024-02-01T11:38:12Z</time>
      </trkpt>
      <trkpt lat="44.02382" lon="6.02863">
        <ele>831</ele>
        <time>2024-02-01T11:38:18Z</time>
      </trkpt>
      <trkpt lat="44.02411" lon="6.0289">
        <ele>824</ele>
        <time>2024-02-01T11:38:24Z</time>
      </trkpt>
      <trkpt lat="44.02427" lon="6.02894">
        <ele>828</ele>
        <time>2024-02-01T11:38:30Z</time>
      </trkpt>
      <trkpt lat="44.02462" lon="6.02907">
        <ele>835</ele>
        <time>2024-02-01T11:38:35Z</time>
      </trkpt>
      <trkpt lat="44.02499" lon="6.02864">
        <ele>818</ele>
        <time>2024-02-01T11:38:43Z</time>
      </trkpt>
      <trkpt lat="44.0252" lon="6.02854">
        <ele>838</ele>
        <time>2024-02-01T11:38:48Z</time>
      </trkpt>
      <trkpt lat="44.02568" lon="6.02837">
        <ele>819</ele>
        <time>2024-02-01T11:38:55Z</time>
      </trkpt>
      <trkpt lat="44.02599" lon="6.02835">
        <ele>838</ele>
        <time>2024-02-01T11:39:01Z</time>
      </trkpt>
      <trkpt lat="44.02619" lon="6.02843">
        <ele>816</ele>
        <time>2024-02-01T11:39:06Z</time>
      </trkpt>
      <trkpt lat="44.02625" lon="6.02855">
        <ele>812</ele>
        <time>2024-02-01T11:39:12Z</time>
      </trkpt>
      <trkpt lat="44.02625" lon="6.02872">
        <ele>815</ele>
        <time>2024-02-01T11:39:18Z</time>
      </trkpt>
      <trkpt lat="44.02642" lon="6.02892">
        <ele>804</ele>
        <time>2024-02-01T11:39:23Z</time>
      </trkpt>
      <trkpt lat="44.02679" lon="6.02901">
        <ele>795</ele>
        <time>2024-02-01T11:39:31Z</time>
      </trkpt>
      <trkpt lat="44.02711" lon="6.02871">
        <ele>787</ele>
        <time>2024-02-01T11:39:37Z</time>
      </trkpt>
      <trkpt lat="44.02731" lon="6.02852">
        <ele>779</ele>
        <time>2024-02-01T11:39:42Z</time>
      </trkpt>
      <trkpt lat="44.0276" lon="6.02837">
        <ele>782</ele>
        <time>2024-02-01T11:39:48Z</time>
      </trkpt>
      <trkpt lat="44.02803" lon="6.02815">
        <ele>782</ele>
        <time>2024-02-01T11:39:55Z</time>
      </trkpt>
      <trkpt lat="44.0283" lon="6.028">
        <ele>759</ele>
        <time>2024-02-01T11:40:00Z</time>
      </trkpt>
      <trkpt lat="44.02887" lon="6.02767">
        <ele>494</ele>
        <time>2024-02-01T11:40:07Z</time>
      </trkpt>
      <trkpt lat="44.02936" lon="6.02744">
        <ele>494</ele>
        <time>2024-02-01T11:40:13Z</time>
      </trkpt>
      <trkpt lat="44.02975" lon="6.02729">
        <ele>494</ele>
        <time>2024-02-01T11:40:18Z</time>
      </trkpt>
      <trkpt lat="44.02994" lon="6.02722">
        <ele>494</ele>
        <time>2024-02-01T11:40:24Z</time>
      </trkpt>
      <trkpt lat="44.02998" lon="6.02726">
        <ele>737</ele>
        <time>2024-02-01T11:40:31Z</time>
      </trkpt>
      <trkpt lat="44.02996" lon="6.02726">
        <ele>494</ele>
        <time>2024-02-01T11:40:54Z</time>
      </trkpt>
      <trkpt lat="44.02995" lon="6.02729">
        <ele>737</ele>
        <time>2024-02-01T11:41:05Z</time>
      </trkpt>
      <trkpt lat="44.03004" lon="6.02725">
        <ele>748</ele>
        <time>2024-02-01T11:42:12Z</time>
      </trkpt>
      <trkpt lat="44.03022" lon="6.0272">
        <ele>494</ele>
        <time>2024-02-01T11:42:18Z</time>
      </trkpt>
      <trkpt lat="44.03063" lon="6.02695">
        <ele>494</ele>
        <time>2024-02-01T11:42:24Z</time>
      </trkpt>
      <trkpt lat="44.03092" lon="6.02673">
        <ele>494</ele>
        <time>2024-02-01T11:42:30Z</time>
      </trkpt>
      <trkpt lat="44.03108" lon="6.02659">
        <ele>730</ele>
        <time>2024-02-01T11:42:36Z</time>
      </trkpt>
      <trkpt lat="44.03149" lon="6.02662">
        <ele>733</ele>
        <time>2024-02-01T11:42:41Z</time>
      </trkpt>
      <trkpt lat="44.03158" lon="6.02663">
        <ele>733</ele>
        <time>2024-02-01T11:42:44Z</time>
      </trkpt>
      <trkpt lat="44.03168" lon="6.02663">
        <ele>733</ele>
        <time>2024-02-01T11:42:47Z</time>
      </trkpt>
      <trkpt lat="44.03179" lon="6.02656">
        <ele>725</ele>
        <time>2024-02-01T11:42:50Z</time>
      </trkpt>
      <trkpt lat="44.03186" lon="6.0265">
        <ele>725</ele>
        <time>2024-02-01T11:42:53Z</time>
      </trkpt>
      <trkpt lat="44.03201" lon="6.02642">
        <ele>738</ele>
        <time>2024-02-01T11:42:59Z</time>
      </trkpt>
      <trkpt lat="44.0323" lon="6.02631">
        <ele>717</ele>
        <time>2024-02-01T11:43:05Z</time>
      </trkpt>
      <trkpt lat="44.03287" lon="6.02624">
        <ele>737</ele>
        <time>2024-02-01T11:43:12Z</time>
      </trkpt>
      <trkpt lat="44.03289" lon="6.02621">
        <ele>705</ele>
        <time>2024-02-01T11:43:18Z</time>
      </trkpt>
      <trkpt lat="44.03307" lon="6.02619">
        <ele>704</ele>
        <time>2024-02-01T11:43:21Z</time>
      </trkpt>
      <trkpt lat="44.03315" lon="6.02612">
        <ele>704</ele>
        <time>2024-02-01T11:43:23Z</time>
      </trkpt>
      <trkpt lat="44.03327" lon="6.02614">
        <ele>494</ele>
        <time>2024-02-01T11:43:29Z</time>
      </trkpt>
      <trkpt lat="44.03347" lon="6.02628">
        <ele>680</ele>
        <time>2024-02-01T11:43:35Z</time>
      </trkpt>
      <trkpt lat="44.03372" lon="6.02628">
        <ele>680</ele>
        <time>2024-02-01T11:43:40Z</time>
      </trkpt>
      <trkpt lat="44.034" lon="6.02632">
        <ele>690</ele>
        <time>2024-02-01T11:43:47Z</time>
      </trkpt>
      <trkpt lat="44.03401" lon="6.02638">
        <ele>674</ele>
        <time>2024-02-01T11:44:06Z</time>
      </trkpt>
      <trkpt lat="44.03398" lon="6.0265">
        <ele>677</ele>
        <time>2024-02-01T11:44:12Z</time>
      </trkpt>
      <trkpt lat="44.03397" lon="6.02658">
        <ele>675</ele>
        <time>2024-02-01T11:44:18Z</time>
      </trkpt>
      <trkpt lat="44.03396" lon="6.02675">
        <ele>686</ele>
        <time>2024-02-01T11:44:29Z</time>
      </trkpt>
      <trkpt lat="44.03396" lon="6.02678">
        <ele>674</ele>
        <time>2024-02-01T11:44:36Z</time>
      </trkpt>
      <trkpt lat="44.03404" lon="6.02686">
        <ele>670</ele>
        <time>2024-02-01T11:44:42Z</time>
      </trkpt>
      <trkpt lat="44.0341" lon="6.02688">
        <ele>667</ele>
        <time>2024-02-01T11:44:47Z</time>
      </trkpt>
      <trkpt lat="44.03439" lon="6.02693">
        <ele>656</ele>
        <time>2024-02-01T11:44:53Z</time>
      </trkpt>
      <trkpt lat="44.0345" lon="6.02698">
        <ele>646</ele>
        <time>2024-02-01T11:44:58Z</time>
      </trkpt>
      <trkpt lat="44.03457" lon="6.02703">
        <ele>639</ele>
        <time>2024-02-01T11:45:01Z</time>
      </trkpt>
      <trkpt lat="44.03481" lon="6.02707">
        <ele>639</ele>
        <time>2024-02-01T11:45:05Z</time>
      </trkpt>
      <trkpt lat="44.03519" lon="6.02742">
        <ele>621</ele>
        <time>2024-02-01T11:45:11Z</time>
      </trkpt>
      <trkpt lat="44.03554" lon="6.02756">
        <ele>619</ele>
        <time>2024-02-01T11:45:17Z</time>
      </trkpt>
      <trkpt lat="44.03613" lon="6.02746">
        <ele>670</ele>
        <time>2024-02-01T11:45:24Z</time>
      </trkpt>
      <trkpt lat="44.03649" lon="6.02724">
        <ele>669</ele>
        <time>2024-02-01T11:45:31Z</time>
      </trkpt>
      <trkpt lat="44.03671" lon="6.02711">
        <ele>668</ele>
        <time>2024-02-01T11:45:37Z</time>
      </trkpt>
      <trkpt lat="44.03716" lon="6.02701">
        <ele>494</ele>
        <time>2024-02-01T11:45:43Z</time>
      </trkpt>
      <trkpt lat="44.03744" lon="6.02701">
        <ele>494</ele>
        <time>2024-02-01T11:45:49Z</time>
      </trkpt>
      <trkpt lat="44.03757" lon="6.02703">
        <ele>585</ele>
        <time>2024-02-01T11:45:53Z</time>
      </trkpt>
      <trkpt lat="44.03784" lon="6.02717">
        <ele>494</ele>
        <time>2024-02-01T11:45:59Z</time>
      </trkpt>
      <trkpt lat="44.03844" lon="6.02734">
        <ele>576</ele>
        <time>2024-02-01T11:46:05Z</time>
      </trkpt>
      <trkpt lat="44.03916" lon="6.028">
        <ele>494</ele>
        <time>2024-02-01T11:46:13Z</time>
      </trkpt>
      <trkpt lat="44.03936" lon="6.0284">
        <ele>494</ele>
        <time>2024-02-01T11:46:18Z</time>
      </trkpt>
      <trkpt lat="44.03924" lon="6.02859">
        <ele>594</ele>
        <time>2024-02-01T11:46:24Z</time>
      </trkpt>
      <trkpt lat="44.03917" lon="6.02856">
        <ele>587</ele>
        <time>2024-02-01T11:46:30Z</time>
      </trkpt>
      <trkpt lat="44.03909" lon="6.0285">
        <ele>577</ele>
        <time>2024-02-01T11:46:36Z</time>
      </trkpt>
      <trkpt lat="44.03911" lon="6.02856">
        <ele>568</ele>
        <time>2024-02-01T11:46:42Z</time>
      </trkpt>
      <trkpt lat="44.03908" lon="6.02855">
        <ele>566</ele>
        <time>2024-02-01T11:46:48Z</time>
      </trkpt>
      <trkpt lat="44.0391" lon="6.02857">
        <ele>567</ele>
        <time>2024-02-01T11:46:54Z</time>
      </trkpt>
      <trkpt lat="44.03911" lon="6.02861">
        <ele>569</ele>
        <time>2024-02-01T11:47:00Z</time>
      </trkpt>
      <trkpt lat="44.03909" lon="6.02863">
        <ele>569</ele>
        <time>2024-02-01T11:47:06Z</time>
      </trkpt>
      <trkpt lat="44.03917" lon="6.0286">
        <ele>567</ele>
        <time>2024-02-01T11:47:42Z</time>
      </trkpt>
      <trkpt lat="44.03922" lon="6.02858">
        <ele>567</ele>
        <time>2024-02-01T11:47:47Z</time>
      </trkpt>
      <trkpt lat="44.03937" lon="6.0287">
        <ele>563</ele>
        <time>2024-02-01T11:47:51Z</time>
      </trkpt>
      <trkpt lat="44.03944" lon="6.02873">
        <ele>559</ele>
        <time>2024-02-01T11:47:54Z</time>
      </trkpt>
      <trkpt lat="44.03981" lon="6.02867">
        <ele>560</ele>
        <time>2024-02-01T11:47:59Z</time>
      </trkpt>
      <trkpt lat="44.0403" lon="6.02861">
        <ele>551</ele>
        <time>2024-02-01T11:48:07Z</time>
      </trkpt>
      <trkpt lat="44.04043" lon="6.02856">
        <ele>554</ele>
        <time>2024-02-01T11:48:11Z</time>
      </trkpt>
      <trkpt lat="44.04059" lon="6.02859">
        <ele>547</ele>
        <time>2024-02-01T11:48:17Z</time>
      </trkpt>
      <trkpt lat="44.04081" lon="6.02875">
        <ele>545</ele>
        <time>2024-02-01T11:48:23Z</time>
      </trkpt>
      <trkpt lat="44.04093" lon="6.0288">
        <ele>540</ele>
        <time>2024-02-01T11:48:26Z</time>
      </trkpt>
      <trkpt lat="44.04098" lon="6.02882">
        <ele>540</ele>
        <time>2024-02-01T11:48:29Z</time>
      </trkpt>
      <trkpt lat="44.04109" lon="6.02878">
        <ele>479</ele>
        <time>2024-02-01T11:48:35Z</time>
      </trkpt>
      <trkpt lat="44.0412" lon="6.02875">
        <ele>538</ele>
        <time>2024-02-01T11:48:41Z</time>
      </trkpt>
      <trkpt lat="44.04126" lon="6.02871">
        <ele>536</ele>
        <time>2024-02-01T11:48:47Z</time>
      </trkpt>
      <trkpt lat="44.04135" lon="6.02864">
        <ele>542</ele>
        <time>2024-02-01T11:48:53Z</time>
      </trkpt>
      <trkpt lat="44.04144" lon="6.02854">
        <ele>539</ele>
        <time>2024-02-01T11:48:59Z</time>
      </trkpt>
      <trkpt lat="44.04161" lon="6.0284">
        <ele>538</ele>
        <time>2024-02-01T11:49:05Z</time>
      </trkpt>
      <trkpt lat="44.04172" lon="6.02832">
        <ele>536</ele>
        <time>2024-02-01T11:49:11Z</time>
      </trkpt>
      <trkpt lat="44.04178" lon="6.02826">
        <ele>535</ele>
        <time>2024-02-01T11:49:17Z</time>
      </trkpt>
      <trkpt lat="44.04189" lon="6.02817">
        <ele>528</ele>
        <time>2024-02-01T11:49:20Z</time>
      </trkpt>
      <trkpt lat="44.04203" lon="6.02806">
        <ele>528</ele>
        <time>2024-02-01T11:49:23Z</time>
      </trkpt>
      <trkpt lat="44.04218" lon="6.02791">
        <ele>490</ele>
        <time>2024-02-01T11:49:28Z</time>
      </trkpt>
      <trkpt lat="44.0424" lon="6.0277">
        <ele>516</ele>
        <time>2024-02-01T11:49:35Z</time>
      </trkpt>
      <trkpt lat="44.0426" lon="6.02745">
        <ele>509</ele>
        <time>2024-02-01T11:49:41Z</time>
      </trkpt>
      <trkpt lat="44.04277" lon="6.02718">
        <ele>503</ele>
        <time>2024-02-01T11:49:48Z</time>
      </trkpt>
      <trkpt lat="44.04284" lon="6.02712">
        <ele>501</ele>
        <time>2024-02-01T11:49:53Z</time>
      </trkpt>
      <trkpt lat="44.04297" lon="6.0269">
        <ele>493</ele>
        <time>2024-02-01T11:50:00Z</time>
      </trkpt>
      <trkpt lat="44.04303" lon="6.02689">
        <ele>490</ele>
        <time>2024-02-01T11:50:04Z</time>
      </trkpt>
      <trkpt lat="44.04305" lon="6.02686">
        <ele>488</ele>
        <time>2024-02-01T11:50:07Z</time>
      </trkpt>
      <trkpt lat="44.04313" lon="6.02691">
        <ele>488</ele>
        <time>2024-02-01T11:50:11Z</time>
      </trkpt>
      <trkpt lat="44.04302" lon="6.02757">
        <ele>487</ele>
        <time>2024-02-01T11:50:18Z</time>
      </trkpt>
      <trkpt lat="44.04307" lon="6.02758">
        <ele>486</ele>
        <time>2024-02-01T11:50:23Z</time>
      </trkpt>
      <trkpt lat="44.04297" lon="6.02786">
        <ele>486</ele>
        <time>2024-02-01T11:50:29Z</time>
      </trkpt>
      <trkpt lat="44.04298" lon="6.02802">
        <ele>484</ele>
        <time>2024-02-01T11:50:35Z</time>
      </trkpt>
      <trkpt lat="44.04302" lon="6.02871">
        <ele>479</ele>
        <time>2024-02-01T11:50:42Z</time>
      </trkpt>
      <trkpt lat="44.04304" lon="6.02883">
        <ele>479</ele>
        <time>2024-02-01T11:50:47Z</time>
      </trkpt>
      <trkpt lat="44.04324" lon="6.02925">
        <ele>479</ele>
        <time>2024-02-01T11:50:54Z</time>
      </trkpt>
      <trkpt lat="44.04319" lon="6.02937">
        <ele>476</ele>
        <time>2024-02-01T11:51:00Z</time>
      </trkpt>
      <trkpt lat="44.04307" lon="6.02951">
        <ele>476</ele>
        <time>2024-02-01T11:51:03Z</time>
      </trkpt>
      <trkpt lat="44.04302" lon="6.0297">
        <ele>485</ele>
        <time>2024-02-01T11:51:06Z</time>
      </trkpt>
      <trkpt lat="44.043" lon="6.02991">
        <ele>485</ele>
        <time>2024-02-01T11:51:11Z</time>
      </trkpt>
      <trkpt lat="44.04342" lon="6.02971">
        <ele>476</ele>
        <time>2024-02-01T11:51:18Z</time>
      </trkpt>
      <trkpt lat="44.04369" lon="6.02928">
        <ele>479</ele>
        <time>2024-02-01T11:51:24Z</time>
      </trkpt>
      <trkpt lat="44.04388" lon="6.02911">
        <ele>479</ele>
        <time>2024-02-01T11:51:36Z</time>
      </trkpt>
      <trkpt lat="44.04392" lon="6.02911">
        <ele>479</ele>
        <time>2024-02-01T11:51:42Z</time>
      </trkpt>
      <trkpt lat="44.0439" lon="6.02906">
        <ele>479</ele>
        <time>2024-02-01T11:51:48Z</time>
      </trkpt>
      <trkpt lat="44.04396" lon="6.02907">
        <ele>476</ele>
        <time>2024-02-01T11:51:54Z</time>
      </trkpt>
      <trkpt lat="44.04397" lon="6.02906">
        <ele>479</ele>
        <time>2024-02-01T11:52:18Z</time>
      </trkpt>
      <trkpt lat="44.04394" lon="6.02909">
        <ele>479</ele>
        <time>2024-02-01T11:54:26Z</time>
      </trkpt>
      <trkpt lat="44.04387" lon="6.02921">
        <ele>479</ele>
        <time>2024-02-01T11:54:30Z</time>
      </trkpt>
      <trkpt lat="44.04369" lon="6.02945">
        <ele>479</ele>
        <time>2024-02-01T11:54:37Z</time>
      </trkpt>
      <trkpt lat="44.04364" lon="6.02951">
        <ele>479</ele>
        <time>2024-02-01T11:54:40Z</time>
      </trkpt>
      <trkpt lat="44.04364" lon="6.02956">
        <ele>479</ele>
        <time>2024-02-01T11:54:44Z</time>
      </trkpt>
      <trkpt lat="44.0436" lon="6.02977">
        <ele>479</ele>
        <time>2024-02-01T11:54:49Z</time>
      </trkpt>
      <trkpt lat="44.04352" lon="6.03004">
        <ele>479</ele>
        <time>2024-02-01T11:54:55Z</time>
      </trkpt>
      <trkpt lat="44.04352" lon="6.03007">
        <ele>479</ele>
        <time>2024-02-01T11:55:01Z</time>
      </trkpt>
      <trkpt lat="44.04349" lon="6.03022">
        <ele>479</ele>
        <time>2024-02-01T11:55:06Z</time>
      </trkpt>
      <trkpt lat="44.0435" lon="6.03029">
        <ele>479</ele>
        <time>2024-02-01T11:55:12Z</time>
      </trkpt>
      <trkpt lat="44.04351" lon="6.03032">
        <ele>479</ele>
        <time>2024-02-01T11:55:18Z</time>
      </trkpt>
      <trkpt lat="44.0435" lon="6.03035">
        <ele>479</ele>
        <time>2024-02-01T11:55:25Z</time>
      </trkpt>
      <trkpt lat="44.04355" lon="6.03043">
        <ele>479</ele>
        <time>2024-02-01T11:55:31Z</time>
      </trkpt>
      <trkpt lat="44.04358" lon="6.03043">
        <ele>479</ele>
        <time>2024-02-01T11:55:37Z</time>
      </trkpt>
      <trkpt lat="44.04357" lon="6.03038">
        <ele>479</ele>
        <time>2024-02-01T11:56:01Z</time>
      </trkpt>
      <trkpt lat="44.04357" lon="6.03035">
        <ele>479</ele>
        <time>2024-02-01T11:56:13Z</time>
      </trkpt>
      <trkpt lat="44.04356" lon="6.03033">
        <ele>479</ele>
        <time>2024-02-01T11:59:28Z</time>
      </trkpt>
      <trkpt lat="44.04359" lon="6.03029">
        <ele>479</ele>
        <time>2024-02-01T12:02:41Z</time>
      </trkpt>
      <trkpt lat="44.0436" lon="6.03027">
        <ele>479</ele>
        <time>2024-02-01T12:02:46Z</time>
      </trkpt>
      <trkpt lat="44.04361" lon="6.03025">
        <ele>479</ele>
        <time>2024-02-01T12:02:49Z</time>
      </trkpt>
      <trkpt lat="44.04363" lon="6.03023">
        <ele>479</ele>
        <time>2024-02-01T12:02:52Z</time>
      </trkpt>
      <trkpt lat="44.04364" lon="6.0302">
        <ele>479</ele>
        <time>2024-02-01T12:02:56Z</time>
      </trkpt>
      <trkpt lat="44.04361" lon="6.03027">
        <ele>479</ele>
        <time>2024-02-01T12:03:43Z</time>
      </trkpt>
      <trkpt lat="44.04359" lon="6.03029">
        <ele>479</ele>
        <time>2024-02-01T12:03:49Z</time>
      </trkpt>
      <trkpt lat="44.04357" lon="6.03032">
        <ele>479</ele>
        <time>2024-02-01T12:04:01Z</time>
      </trkpt>
      <trkpt lat="44.04355" lon="6.03034">
        <ele>479</ele>
        <time>2024-02-01T12:04:13Z</time>
      </trkpt>
      <trkpt lat="44.04356" lon="6.03037">
        <ele>479</ele>
        <time>2024-02-01T12:04:55Z</time>
      </trkpt>
      <trkpt lat="44.04359" lon="6.0304">
        <ele>479</ele>
        <time>2024-02-01T12:05:12Z</time>
      </trkpt>
      <trkpt lat="44.04361" lon="6.03041">
        <ele>479</ele>
        <time>2024-02-01T12:05:18Z</time>
      </trkpt>
      <trkpt lat="44.04348" lon="6.03037">
        <ele>479</ele>
        <time>2024-02-01T12:05:24Z</time>
      </trkpt>
      <trkpt lat="44.04347" lon="6.03032">
        <ele>479</ele>
        <time>2024-02-01T12:05:31Z</time>
      </trkpt>
      <trkpt lat="44.04353" lon="6.03033">
        <ele>479</ele>
        <time>2024-02-01T12:05:37Z</time>
      </trkpt>
      <trkpt lat="44.04354" lon="6.03033">
        <ele>479</ele>
        <time>2024-02-01T12:05:43Z</time>
      </trkpt>
      <trkpt lat="44.04356" lon="6.03033">
        <ele>479</ele>
        <time>2024-02-01T12:06:08Z</time>
      </trkpt>
      <trkpt lat="44.04359" lon="6.03034">
        <ele>479</ele>
        <time>2024-02-01T12:06:18Z</time>
      </trkpt>
      <trkpt lat="44.04357" lon="6.03036">
        <ele>479</ele>
        <time>2024-02-01T12:06:25Z</time>
      </trkpt>
      <trkpt lat="44.04356" lon="6.03032">
        <ele>479</ele>
        <time>2024-02-01T12:06:31Z</time>
      </trkpt>
      <trkpt lat="44.04353" lon="6.03033">
        <ele>479</ele>
        <time>2024-02-01T12:06:37Z</time>
      </trkpt>
      <trkpt lat="44.04355" lon="6.03034">
        <ele>479</ele>
        <time>2024-02-01T12:07:01Z</time>
      </trkpt>
      <trkpt lat="44.04352" lon="6.03033">
        <ele>479</ele>
        <time>2024-02-01T12:08:19Z</time>
      </trkpt>
      <trkpt lat="44.04356" lon="6.03035">
        <ele>479</ele>
        <time>2024-02-01T12:08:30Z</time>
      </trkpt>
      <trkpt lat="44.0436" lon="6.03036">
        <ele>479</ele>
        <time>2024-02-01T12:08:36Z</time>
      </trkpt>
      <trkpt lat="44.04362" lon="6.03037">
        <ele>479</ele>
        <time>2024-02-01T12:08:44Z</time>
      </trkpt>
      <trkpt lat="44.0436" lon="6.03037">
        <ele>479</ele>
        <time>2024-02-01T12:08:49Z</time>
      </trkpt>
      <trkpt lat="44.04357" lon="6.03036">
        <ele>479</ele>
        <time>2024-02-01T12:08:55Z</time>
      </trkpt>
      <trkpt lat="44.04355" lon="6.03036">
        <ele>479</ele>
        <time>2024-02-01T12:10:30Z</time>
      </trkpt>
      <trkpt lat="44.04349" lon="6.03032">
        <ele>479</ele>
        <time>2024-02-01T12:10:36Z</time>
      </trkpt>
      <trkpt lat="44.04346" lon="6.03027">
        <ele>479</ele>
        <time>2024-02-01T12:10:43Z</time>
      </trkpt>
      <trkpt lat="44.04349" lon="6.03028">
        <ele>479</ele>
        <time>2024-02-01T12:10:49Z</time>
      </trkpt>
      <trkpt lat="44.04351" lon="6.03032">
        <ele>479</ele>
        <time>2024-02-01T12:10:55Z</time>
      </trkpt>
      <trkpt lat="44.04354" lon="6.03033">
        <ele>479</ele>
        <time>2024-02-01T12:11:01Z</time>
      </trkpt>
      <trkpt lat="44.04357" lon="6.03034">
        <ele>479</ele>
        <time>2024-02-01T12:11:13Z</time>
      </trkpt>
      <trkpt lat="44.04355" lon="6.03033">
        <ele>479</ele>
        <time>2024-02-01T12:11:55Z</time>
      </trkpt>
      <trkpt lat="44.04357" lon="6.03034">
        <ele>479</ele>
        <time>2024-02-01T12:12:00Z</time>
      </trkpt>
      <trkpt lat="44.04355" lon="6.03037">
        <ele>479</ele>
        <time>2024-02-01T12:12:13Z</time>
      </trkpt>
      <trkpt lat="44.04355" lon="6.0304">
        <ele>479</ele>
        <time>2024-02-01T12:12:19Z</time>
      </trkpt>
      <trkpt lat="44.04357" lon="6.03042">
        <ele>479</ele>
        <time>2024-02-01T12:12:49Z</time>
      </trkpt>
      <trkpt lat="44.04356" lon="6.03038">
        <ele>479</ele>
        <time>2024-02-01T12:15:13Z</time>
      </trkpt>
      <trkpt lat="44.04354" lon="6.03037">
        <ele>479</ele>
        <time>2024-02-01T12:16:00Z</time>
      </trkpt>
      <trkpt lat="44.04354" lon="6.03034">
        <ele>479</ele>
        <time>2024-02-01T12:16:07Z</time>
      </trkpt>
      <trkpt lat="44.04352" lon="6.0303">
        <ele>479</ele>
        <time>2024-02-01T12:16:13Z</time>
      </trkpt>
      <trkpt lat="44.04353" lon="6.03033">
        <ele>479</ele>
        <time>2024-02-01T12:16:49Z</time>
      </trkpt>
      <trkpt lat="44.04355" lon="6.03034">
        <ele>479</ele>
        <time>2024-02-01T12:17:25Z</time>
      </trkpt>
      <trkpt lat="44.04356" lon="6.03035">
        <ele>479</ele>
        <time>2024-02-01T12:21:48Z</time>
      </trkpt>
      <trkpt lat="44.04357" lon="6.0303">
        <ele>479</ele>
        <time>2024-02-01T12:31:25Z</time>
      </trkpt>
      <trkpt lat="44.04358" lon="6.03008">
        <ele>479</ele>
        <time>2024-02-01T12:31:31Z</time>
      </trkpt>
      <trkpt lat="44.0436" lon="6.02985">
        <ele>484</ele>
        <time>2024-02-01T12:31:36Z</time>
      </trkpt>
      <trkpt lat="44.04363" lon="6.0296">
        <ele>479</ele>
        <time>2024-02-01T12:31:42Z</time>
      </trkpt>
      <trkpt lat="44.04369" lon="6.02937">
        <ele>487</ele>
        <time>2024-02-01T12:31:49Z</time>
      </trkpt>
      <trkpt lat="44.0439" lon="6.02909">
        <ele>479</ele>
        <time>2024-02-01T12:31:55Z</time>
      </trkpt>
      <trkpt lat="44.04392" lon="6.02904">
        <ele>479</ele>
        <time>2024-02-01T12:32:00Z</time>
      </trkpt>
      <trkpt lat="44.04396" lon="6.02898">
        <ele>479</ele>
        <time>2024-02-01T12:32:06Z</time>
      </trkpt>
      <trkpt lat="44.044" lon="6.0289">
        <ele>479</ele>
        <time>2024-02-01T12:32:14Z</time>
      </trkpt>
      <trkpt lat="44.04401" lon="6.02888">
        <ele>479</ele>
        <time>2024-02-01T12:32:18Z</time>
      </trkpt>
      <trkpt lat="44.04399" lon="6.02893">
        <ele>479</ele>
        <time>2024-02-01T12:32:25Z</time>
      </trkpt>
      <trkpt lat="44.04398" lon="6.02896">
        <ele>479</ele>
        <time>2024-02-01T12:32:37Z</time>
      </trkpt>
      <trkpt lat="44.04396" lon="6.02895">
        <ele>479</ele>
        <time>2024-02-01T12:32:54Z</time>
      </trkpt>
      <trkpt lat="44.04396" lon="6.02898">
        <ele>479</ele>
        <time>2024-02-01T12:33:01Z</time>
      </trkpt>
      <trkpt lat="44.04394" lon="6.02902">
        <ele>479</ele>
        <time>2024-02-01T12:33:07Z</time>
      </trkpt>
      <trkpt lat="44.04396" lon="6.02904">
        <ele>479</ele>
        <time>2024-02-01T12:33:25Z</time>
      </trkpt>
      <trkpt lat="44.04398" lon="6.02902">
        <ele>479</ele>
        <time>2024-02-01T12:35:25Z</time>
      </trkpt>
      <trkpt lat="44.04397" lon="6.02899">
        <ele>479</ele>
        <time>2024-02-01T12:36:00Z</time>
      </trkpt>
      <trkpt lat="44.04397" lon="6.02901">
        <ele>479</ele>
        <time>2024-02-01T12:36:07Z</time>
      </trkpt>
      <trkpt lat="44.04394" lon="6.02899">
        <ele>479</ele>
        <time>2024-02-01T12:36:31Z</time>
      </trkpt>
      <trkpt lat="44.04392" lon="6.029">
        <ele>479</ele>
        <time>2024-02-01T12:36:37Z</time>
      </trkpt>
      <trkpt lat="44.04391" lon="6.02898">
        <ele>479</ele>
        <time>2024-02-01T12:36:55Z</time>
      </trkpt>
      <trkpt lat="44.04393" lon="6.02897">
        <ele>479</ele>
        <time>2024-02-01T12:37:13Z</time>
      </trkpt>
      <trkpt lat="44.04392" lon="6.02901">
        <ele>484</ele>
        <time>2024-02-01T12:37:31Z</time>
      </trkpt>
      <trkpt lat="44.04387" lon="6.02911">
        <ele>479</ele>
        <time>2024-02-01T12:37:39Z</time>
      </trkpt>
      <trkpt lat="44.04382" lon="6.02919">
        <ele>479</ele>
        <time>2024-02-01T12:37:42Z</time>
      </trkpt>
      <trkpt lat="44.04379" lon="6.02924">
        <ele>480</ele>
        <time>2024-02-01T12:37:45Z</time>
      </trkpt>
      <trkpt lat="44.04376" lon="6.02926">
        <ele>480</ele>
        <time>2024-02-01T12:37:48Z</time>
      </trkpt>
      <trkpt lat="44.04366" lon="6.02939">
        <ele>480</ele>
        <time>2024-02-01T12:37:51Z</time>
      </trkpt>
      <trkpt lat="44.04361" lon="6.02951">
        <ele>480</ele>
        <time>2024-02-01T12:37:54Z</time>
      </trkpt>
      <trkpt lat="44.04354" lon="6.02964">
        <ele>479</ele>
        <time>2024-02-01T12:37:57Z</time>
      </trkpt>
      <trkpt lat="44.04346" lon="6.02979">
        <ele>479</ele>
        <time>2024-02-01T12:38:01Z</time>
      </trkpt>
      <trkpt lat="44.0434" lon="6.02993">
        <ele>479</ele>
        <time>2024-02-01T12:38:06Z</time>
      </trkpt>
      <trkpt lat="44.04346" lon="6.03017">
        <ele>481</ele>
        <time>2024-02-01T12:38:18Z</time>
      </trkpt>
      <trkpt lat="44.04353" lon="6.03026">
        <ele>481</ele>
        <time>2024-02-01T12:38:25Z</time>
      </trkpt>
      <trkpt lat="44.04368" lon="6.03035">
        <ele>482</ele>
        <time>2024-02-01T12:38:30Z</time>
      </trkpt>
      <trkpt lat="44.04398" lon="6.0305">
        <ele>483</ele>
        <time>2024-02-01T12:38:42Z</time>
      </trkpt>
      <trkpt lat="44.04401" lon="6.03043">
        <ele>487</ele>
        <time>2024-02-01T12:38:48Z</time>
      </trkpt>
      <trkpt lat="44.04426" lon="6.03063">
        <ele>479</ele>
        <time>2024-02-01T12:38:57Z</time>
      </trkpt>
      <trkpt lat="44.04427" lon="6.03066">
        <ele>479</ele>
        <time>2024-02-01T12:39:01Z</time>
      </trkpt>
      <trkpt lat="44.04449" lon="6.03106">
        <ele>479</ele>
        <time>2024-02-01T12:39:06Z</time>
      </trkpt>
      <trkpt lat="44.04467" lon="6.03123">
        <ele>479</ele>
        <time>2024-02-01T12:39:10Z</time>
      </trkpt>
      <trkpt lat="44.04476" lon="6.03123">
        <ele>479</ele>
        <time>2024-02-01T12:39:13Z</time>
      </trkpt>
      <trkpt lat="44.04476" lon="6.03137">
        <ele>479</ele>
        <time>2024-02-01T12:39:18Z</time>
      </trkpt>
      <trkpt lat="44.04506" lon="6.03149">
        <ele>479</ele>
        <time>2024-02-01T12:39:21Z</time>
      </trkpt>
      <trkpt lat="44.04518" lon="6.03158">
        <ele>479</ele>
        <time>2024-02-01T12:39:24Z</time>
      </trkpt>
      <trkpt lat="44.04534" lon="6.03165">
        <ele>480</ele>
        <time>2024-02-01T12:39:30Z</time>
      </trkpt>
      <trkpt lat="44.04549" lon="6.03181">
        <ele>480</ele>
        <time>2024-02-01T12:39:42Z</time>
      </trkpt>
      <trkpt lat="44.04571" lon="6.032">
        <ele>479</ele>
        <time>2024-02-01T12:39:45Z</time>
      </trkpt>
      <trkpt lat="44.04581" lon="6.03209">
        <ele>479</ele>
        <time>2024-02-01T12:39:49Z</time>
      </trkpt>
      <trkpt lat="44.0459" lon="6.0323">
        <ele>479</ele>
        <time>2024-02-01T12:39:57Z</time>
      </trkpt>
      <trkpt lat="44.04618" lon="6.03266">
        <ele>482</ele>
        <time>2024-02-01T12:40:13Z</time>
      </trkpt>
      <trkpt lat="44.04629" lon="6.03279">
        <ele>482</ele>
        <time>2024-02-01T12:40:18Z</time>
      </trkpt>
      <trkpt lat="44.04636" lon="6.03289">
        <ele>480</ele>
        <time>2024-02-01T12:40:21Z</time>
      </trkpt>
      <trkpt lat="44.04638" lon="6.03301">
        <ele>481</ele>
        <time>2024-02-01T12:40:24Z</time>
      </trkpt>
      <trkpt lat="44.04646" lon="6.03308">
        <ele>480</ele>
        <time>2024-02-01T12:40:28Z</time>
      </trkpt>
      <trkpt lat="44.04644" lon="6.03338">
        <ele>481</ele>
        <time>2024-02-01T12:40:33Z</time>
      </trkpt>
      <trkpt lat="44.04631" lon="6.03353">
        <ele>481</ele>
        <time>2024-02-01T12:40:36Z</time>
      </trkpt>
      <trkpt lat="44.04648" lon="6.03386">
        <ele>481</ele>
        <time>2024-02-01T12:40:42Z</time>
      </trkpt>
      <trkpt lat="44.04652" lon="6.0339">
        <ele>482</ele>
        <time>2024-02-01T12:40:47Z</time>
      </trkpt>
      <trkpt lat="44.0466" lon="6.03418">
        <ele>482</ele>
        <time>2024-02-01T12:40:54Z</time>
      </trkpt>
      <trkpt lat="44.04658" lon="6.03459">
        <ele>482</ele>
        <time>2024-02-01T12:41:02Z</time>
      </trkpt>
      <trkpt lat="44.04657" lon="6.03486">
        <ele>482</ele>
        <time>2024-02-01T12:41:06Z</time>
      </trkpt>
      <trkpt lat="44.04661" lon="6.03512">
        <ele>482</ele>
        <time>2024-02-01T12:41:11Z</time>
      </trkpt>
      <trkpt lat="44.04661" lon="6.03507">
        <ele>487</ele>
        <time>2024-02-01T12:41:13Z</time>
      </trkpt>
      <trkpt lat="44.04658" lon="6.03557">
        <ele>485</ele>
        <time>2024-02-01T12:41:19Z</time>
      </trkpt>
      <trkpt lat="44.04652" lon="6.03561">
        <ele>485</ele>
        <time>2024-02-01T12:41:23Z</time>
      </trkpt>
      <trkpt lat="44.04664" lon="6.03585">
        <ele>488</ele>
        <time>2024-02-01T12:41:29Z</time>
      </trkpt>
      <trkpt lat="44.04677" lon="6.03587">
        <ele>488</ele>
        <time>2024-02-01T12:41:32Z</time>
      </trkpt>
      <trkpt lat="44.04689" lon="6.03596">
        <ele>488</ele>
        <time>2024-02-01T12:41:36Z</time>
      </trkpt>
      <trkpt lat="44.047" lon="6.036">
        <ele>488</ele>
        <time>2024-02-01T12:41:38Z</time>
      </trkpt>
      <trkpt lat="44.04709" lon="6.03603">
        <ele>488</ele>
        <time>2024-02-01T12:41:42Z</time>
      </trkpt>
      <trkpt lat="44.04717" lon="6.03607">
        <ele>489</ele>
        <time>2024-02-01T12:41:44Z</time>
      </trkpt>
      <trkpt lat="44.04725" lon="6.0362">
        <ele>489</ele>
        <time>2024-02-01T12:41:48Z</time>
      </trkpt>
      <trkpt lat="44.04735" lon="6.03618">
        <ele>490</ele>
        <time>2024-02-01T12:41:54Z</time>
      </trkpt>
      <trkpt lat="44.04748" lon="6.03628">
        <ele>494</ele>
        <time>2024-02-01T12:41:58Z</time>
      </trkpt>
      <trkpt lat="44.04766" lon="6.03633">
        <ele>494</ele>
        <time>2024-02-01T12:42:04Z</time>
      </trkpt>
      <trkpt lat="44.04775" lon="6.03637">
        <ele>494</ele>
        <time>2024-02-01T12:42:07Z</time>
      </trkpt>
      <trkpt lat="44.04784" lon="6.03644">
        <ele>495</ele>
        <time>2024-02-01T12:42:10Z</time>
      </trkpt>
      <trkpt lat="44.0479" lon="6.03649">
        <ele>495</ele>
        <time>2024-02-01T12:42:13Z</time>
      </trkpt>
      <trkpt lat="44.048" lon="6.03655">
        <ele>504</ele>
        <time>2024-02-01T12:42:18Z</time>
      </trkpt>
      <trkpt lat="44.04808" lon="6.03662">
        <ele>492</ele>
        <time>2024-02-01T12:42:24Z</time>
      </trkpt>
      <trkpt lat="44.04817" lon="6.03673">
        <ele>498</ele>
        <time>2024-02-01T12:42:27Z</time>
      </trkpt>
      <trkpt lat="44.04825" lon="6.03682">
        <ele>498</ele>
        <time>2024-02-01T12:42:30Z</time>
      </trkpt>
      <trkpt lat="44.04832" lon="6.03693">
        <ele>502</ele>
        <time>2024-02-01T12:42:33Z</time>
      </trkpt>
      <trkpt lat="44.0484" lon="6.037">
        <ele>502</ele>
        <time>2024-02-01T12:42:37Z</time>
      </trkpt>
      <trkpt lat="44.04846" lon="6.0371">
        <ele>501</ele>
        <time>2024-02-01T12:42:40Z</time>
      </trkpt>
      <trkpt lat="44.04853" lon="6.03717">
        <ele>501</ele>
        <time>2024-02-01T12:42:44Z</time>
      </trkpt>
      <trkpt lat="44.04861" lon="6.03728">
        <ele>501</ele>
        <time>2024-02-01T12:42:48Z</time>
      </trkpt>
      <trkpt lat="44.04863" lon="6.03732">
        <ele>503</ele>
        <time>2024-02-01T12:42:54Z</time>
      </trkpt>
      <trkpt lat="44.04874" lon="6.03742">
        <ele>505</ele>
        <time>2024-02-01T12:43:00Z</time>
      </trkpt>
      <trkpt lat="44.04884" lon="6.03754">
        <ele>506</ele>
        <time>2024-02-01T12:43:06Z</time>
      </trkpt>
      <trkpt lat="44.049" lon="6.03784">
        <ele>508</ele>
        <time>2024-02-01T12:43:18Z</time>
      </trkpt>
      <trkpt lat="44.04907" lon="6.03794">
        <ele>511</ele>
        <time>2024-02-01T12:43:24Z</time>
      </trkpt>
      <trkpt lat="44.04916" lon="6.03814">
        <ele>512</ele>
        <time>2024-02-01T12:43:30Z</time>
      </trkpt>
      <trkpt lat="44.04924" lon="6.03833">
        <ele>515</ele>
        <time>2024-02-01T12:43:36Z</time>
      </trkpt>
      <trkpt lat="44.04931" lon="6.03854">
        <ele>515</ele>
        <time>2024-02-01T12:43:42Z</time>
      </trkpt>
      <trkpt lat="44.04936" lon="6.03876">
        <ele>517</ele>
        <time>2024-02-01T12:43:44Z</time>
      </trkpt>
      <trkpt lat="44.04937" lon="6.03885">
        <ele>517</ele>
        <time>2024-02-01T12:43:47Z</time>
      </trkpt>
      <trkpt lat="44.04939" lon="6.03899">
        <ele>515</ele>
        <time>2024-02-01T12:43:50Z</time>
      </trkpt>
      <trkpt lat="44.04941" lon="6.0391">
        <ele>515</ele>
        <time>2024-02-01T12:43:53Z</time>
      </trkpt>
      <trkpt lat="44.04944" lon="6.03918">
        <ele>520</ele>
        <time>2024-02-01T12:43:56Z</time>
      </trkpt>
      <trkpt lat="44.04949" lon="6.03927">
        <ele>520</ele>
        <time>2024-02-01T12:43:59Z</time>
      </trkpt>
      <trkpt lat="44.04954" lon="6.03932">
        <ele>520</ele>
        <time>2024-02-01T12:44:02Z</time>
      </trkpt>
      <trkpt lat="44.04959" lon="6.03936">
        <ele>520</ele>
        <time>2024-02-01T12:44:06Z</time>
      </trkpt>
      <trkpt lat="44.04963" lon="6.03937">
        <ele>521</ele>
        <time>2024-02-01T12:44:08Z</time>
      </trkpt>
      <trkpt lat="44.0497" lon="6.0394">
        <ele>520</ele>
        <time>2024-02-01T12:44:12Z</time>
      </trkpt>
      <trkpt lat="44.04979" lon="6.03942">
        <ele>522</ele>
        <time>2024-02-01T12:44:18Z</time>
      </trkpt>
      <trkpt lat="44.0499" lon="6.0395">
        <ele>524</ele>
        <time>2024-02-01T12:44:24Z</time>
      </trkpt>
      <trkpt lat="44.05002" lon="6.03957">
        <ele>525</ele>
        <time>2024-02-01T12:44:26Z</time>
      </trkpt>
      <trkpt lat="44.0501" lon="6.03961">
        <ele>525</ele>
        <time>2024-02-01T12:44:30Z</time>
      </trkpt>
      <trkpt lat="44.05018" lon="6.03964">
        <ele>527</ele>
        <time>2024-02-01T12:44:32Z</time>
      </trkpt>
      <trkpt lat="44.05025" lon="6.03967">
        <ele>527</ele>
        <time>2024-02-01T12:44:36Z</time>
      </trkpt>
      <trkpt lat="44.0503" lon="6.0397">
        <ele>528</ele>
        <time>2024-02-01T12:44:38Z</time>
      </trkpt>
      <trkpt lat="44.05036" lon="6.03975">
        <ele>528</ele>
        <time>2024-02-01T12:44:42Z</time>
      </trkpt>
      <trkpt lat="44.05044" lon="6.03979">
        <ele>529</ele>
        <time>2024-02-01T12:44:44Z</time>
      </trkpt>
      <trkpt lat="44.05053" lon="6.0398">
        <ele>529</ele>
        <time>2024-02-01T12:44:47Z</time>
      </trkpt>
      <trkpt lat="44.05059" lon="6.03981">
        <ele>531</ele>
        <time>2024-02-01T12:44:50Z</time>
      </trkpt>
      <trkpt lat="44.05066" lon="6.0398">
        <ele>531</ele>
        <time>2024-02-01T12:44:54Z</time>
      </trkpt>
      <trkpt lat="44.05072" lon="6.03981">
        <ele>532</ele>
        <time>2024-02-01T12:44:56Z</time>
      </trkpt>
      <trkpt lat="44.05086" lon="6.03981">
        <ele>534</ele>
        <time>2024-02-01T12:45:02Z</time>
      </trkpt>
      <trkpt lat="44.05096" lon="6.03979">
        <ele>534</ele>
        <time>2024-02-01T12:45:06Z</time>
      </trkpt>
      <trkpt lat="44.05107" lon="6.03977">
        <ele>534</ele>
        <time>2024-02-01T12:45:08Z</time>
      </trkpt>
      <trkpt lat="44.05118" lon="6.03976">
        <ele>536</ele>
        <time>2024-02-01T12:45:11Z</time>
      </trkpt>
      <trkpt lat="44.0513" lon="6.0397">
        <ele>515</ele>
        <time>2024-02-01T12:45:17Z</time>
      </trkpt>
      <trkpt lat="44.05137" lon="6.03972">
        <ele>538</ele>
        <time>2024-02-01T12:45:23Z</time>
      </trkpt>
      <trkpt lat="44.05153" lon="6.0397">
        <ele>539</ele>
        <time>2024-02-01T12:45:27Z</time>
      </trkpt>
      <trkpt lat="44.05162" lon="6.03967">
        <ele>539</ele>
        <time>2024-02-01T12:45:30Z</time>
      </trkpt>
      <trkpt lat="44.05171" lon="6.03966">
        <ele>515</ele>
        <time>2024-02-01T12:45:33Z</time>
      </trkpt>
      <trkpt lat="44.05176" lon="6.03967">
        <ele>515</ele>
        <time>2024-02-01T12:45:36Z</time>
      </trkpt>
      <trkpt lat="44.05185" lon="6.03972">
        <ele>542</ele>
        <time>2024-02-01T12:45:39Z</time>
      </trkpt>
      <trkpt lat="44.0519" lon="6.03974">
        <ele>542</ele>
        <time>2024-02-01T12:45:43Z</time>
      </trkpt>
      <trkpt lat="44.05197" lon="6.03983">
        <ele>543</ele>
        <time>2024-02-01T12:45:48Z</time>
      </trkpt>
      <trkpt lat="44.05203" lon="6.03988">
        <ele>545</ele>
        <time>2024-02-01T12:45:50Z</time>
      </trkpt>
      <trkpt lat="44.05209" lon="6.03993">
        <ele>545</ele>
        <time>2024-02-01T12:45:54Z</time>
      </trkpt>
      <trkpt lat="44.05217" lon="6.03996">
        <ele>546</ele>
        <time>2024-02-01T12:45:56Z</time>
      </trkpt>
      <trkpt lat="44.05224" lon="6.03999">
        <ele>546</ele>
        <time>2024-02-01T12:46:00Z</time>
      </trkpt>
      <trkpt lat="44.05232" lon="6.04005">
        <ele>551</ele>
        <time>2024-02-01T12:46:02Z</time>
      </trkpt>
      <trkpt lat="44.05241" lon="6.04009">
        <ele>551</ele>
        <time>2024-02-01T12:46:06Z</time>
      </trkpt>
      <trkpt lat="44.05246" lon="6.04014">
        <ele>549</ele>
        <time>2024-02-01T12:46:08Z</time>
      </trkpt>
      <trkpt lat="44.05252" lon="6.04019">
        <ele>549</ele>
        <time>2024-02-01T12:46:12Z</time>
      </trkpt>
      <trkpt lat="44.05258" lon="6.04023">
        <ele>550</ele>
        <time>2024-02-01T12:46:14Z</time>
      </trkpt>
      <trkpt lat="44.05265" lon="6.04029">
        <ele>550</ele>
        <time>2024-02-01T12:46:17Z</time>
      </trkpt>
      <trkpt lat="44.05272" lon="6.04034">
        <ele>550</ele>
        <time>2024-02-01T12:46:20Z</time>
      </trkpt>
      <trkpt lat="44.05279" lon="6.04038">
        <ele>553</ele>
        <time>2024-02-01T12:46:24Z</time>
      </trkpt>
      <trkpt lat="44.05287" lon="6.04039">
        <ele>556</ele>
        <time>2024-02-01T12:46:26Z</time>
      </trkpt>
      <trkpt lat="44.05295" lon="6.04042">
        <ele>554</ele>
        <time>2024-02-01T12:46:30Z</time>
      </trkpt>
      <trkpt lat="44.05303" lon="6.04045">
        <ele>560</ele>
        <time>2024-02-01T12:46:32Z</time>
      </trkpt>
      <trkpt lat="44.05311" lon="6.04048">
        <ele>560</ele>
        <time>2024-02-01T12:46:36Z</time>
      </trkpt>
      <trkpt lat="44.05317" lon="6.0405">
        <ele>558</ele>
        <time>2024-02-01T12:46:38Z</time>
      </trkpt>
      <trkpt lat="44.05324" lon="6.04052">
        <ele>558</ele>
        <time>2024-02-01T12:46:41Z</time>
      </trkpt>
      <trkpt lat="44.05331" lon="6.04045">
        <ele>562</ele>
        <time>2024-02-01T12:46:45Z</time>
      </trkpt>
      <trkpt lat="44.05337" lon="6.04041">
        <ele>562</ele>
        <time>2024-02-01T12:46:47Z</time>
      </trkpt>
      <trkpt lat="44.05344" lon="6.04039">
        <ele>560</ele>
        <time>2024-02-01T12:46:50Z</time>
      </trkpt>
      <trkpt lat="44.05353" lon="6.04037">
        <ele>560</ele>
        <time>2024-02-01T12:46:54Z</time>
      </trkpt>
      <trkpt lat="44.05359" lon="6.04037">
        <ele>561</ele>
        <time>2024-02-01T12:46:56Z</time>
      </trkpt>
      <trkpt lat="44.05368" lon="6.04034">
        <ele>561</ele>
        <time>2024-02-01T12:47:00Z</time>
      </trkpt>
      <trkpt lat="44.05375" lon="6.04032">
        <ele>564</ele>
        <time>2024-02-01T12:47:03Z</time>
      </trkpt>
      <trkpt lat="44.05385" lon="6.04028">
        <ele>564</ele>
        <time>2024-02-01T12:47:06Z</time>
      </trkpt>
      <trkpt lat="44.05389" lon="6.04031">
        <ele>565</ele>
        <time>2024-02-01T12:47:08Z</time>
      </trkpt>
      <trkpt lat="44.05397" lon="6.0403">
        <ele>565</ele>
        <time>2024-02-01T12:47:12Z</time>
      </trkpt>
      <trkpt lat="44.05402" lon="6.04031">
        <ele>570</ele>
        <time>2024-02-01T12:47:14Z</time>
      </trkpt>
      <trkpt lat="44.0541" lon="6.04033">
        <ele>570</ele>
        <time>2024-02-01T12:47:17Z</time>
      </trkpt>
      <trkpt lat="44.05416" lon="6.04032">
        <ele>572</ele>
        <time>2024-02-01T12:47:20Z</time>
      </trkpt>
      <trkpt lat="44.05424" lon="6.04037">
        <ele>572</ele>
        <time>2024-02-01T12:47:23Z</time>
      </trkpt>
      <trkpt lat="44.0543" lon="6.04039">
        <ele>570</ele>
        <time>2024-02-01T12:47:26Z</time>
      </trkpt>
      <trkpt lat="44.05438" lon="6.04042">
        <ele>570</ele>
        <time>2024-02-01T12:47:30Z</time>
      </trkpt>
      <trkpt lat="44.05444" lon="6.04043">
        <ele>572</ele>
        <time>2024-02-01T12:47:33Z</time>
      </trkpt>
      <trkpt lat="44.05453" lon="6.04044">
        <ele>572</ele>
        <time>2024-02-01T12:47:36Z</time>
      </trkpt>
      <trkpt lat="44.0546" lon="6.04044">
        <ele>574</ele>
        <time>2024-02-01T12:47:39Z</time>
      </trkpt>
      <trkpt lat="44.05467" lon="6.04043">
        <ele>574</ele>
        <time>2024-02-01T12:47:42Z</time>
      </trkpt>
      <trkpt lat="44.05473" lon="6.04044">
        <ele>578</ele>
        <time>2024-02-01T12:47:45Z</time>
      </trkpt>
      <trkpt lat="44.05482" lon="6.04044">
        <ele>579</ele>
        <time>2024-02-01T12:47:48Z</time>
      </trkpt>
      <trkpt lat="44.05486" lon="6.04045">
        <ele>577</ele>
        <time>2024-02-01T12:47:51Z</time>
      </trkpt>
      <trkpt lat="44.05494" lon="6.04045">
        <ele>577</ele>
        <time>2024-02-01T12:47:53Z</time>
      </trkpt>
      <trkpt lat="44.05502" lon="6.04045">
        <ele>577</ele>
        <time>2024-02-01T12:47:56Z</time>
      </trkpt>
      <trkpt lat="44.05509" lon="6.04047">
        <ele>577</ele>
        <time>2024-02-01T12:48:00Z</time>
      </trkpt>
      <trkpt lat="44.05516" lon="6.04046">
        <ele>578</ele>
        <time>2024-02-01T12:48:03Z</time>
      </trkpt>
      <trkpt lat="44.05521" lon="6.04045">
        <ele>578</ele>
        <time>2024-02-01T12:48:06Z</time>
      </trkpt>
      <trkpt lat="44.05528" lon="6.04043">
        <ele>584</ele>
        <time>2024-02-01T12:48:08Z</time>
      </trkpt>
      <trkpt lat="44.05534" lon="6.04038">
        <ele>584</ele>
        <time>2024-02-01T12:48:11Z</time>
      </trkpt>
      <trkpt lat="44.05542" lon="6.04038">
        <ele>584</ele>
        <time>2024-02-01T12:48:14Z</time>
      </trkpt>
      <trkpt lat="44.05551" lon="6.04037">
        <ele>584</ele>
        <time>2024-02-01T12:48:18Z</time>
      </trkpt>
      <trkpt lat="44.0556" lon="6.04031">
        <ele>585</ele>
        <time>2024-02-01T12:48:20Z</time>
      </trkpt>
      <trkpt lat="44.05567" lon="6.04028">
        <ele>585</ele>
        <time>2024-02-01T12:48:23Z</time>
      </trkpt>
      <trkpt lat="44.05575" lon="6.04028">
        <ele>583</ele>
        <time>2024-02-01T12:48:26Z</time>
      </trkpt>
      <trkpt lat="44.05584" lon="6.04028">
        <ele>586</ele>
        <time>2024-02-01T12:48:30Z</time>
      </trkpt>
      <trkpt lat="44.0559" lon="6.04022">
        <ele>590</ele>
        <time>2024-02-01T12:48:32Z</time>
      </trkpt>
      <trkpt lat="44.05596" lon="6.04014">
        <ele>590</ele>
        <time>2024-02-01T12:48:36Z</time>
      </trkpt>
      <trkpt lat="44.056" lon="6.0401">
        <ele>592</ele>
        <time>2024-02-01T12:48:38Z</time>
      </trkpt>
      <trkpt lat="44.05606" lon="6.04002">
        <ele>592</ele>
        <time>2024-02-01T12:48:42Z</time>
      </trkpt>
      <trkpt lat="44.05611" lon="6.03994">
        <ele>594</ele>
        <time>2024-02-01T12:48:45Z</time>
      </trkpt>
      <trkpt lat="44.05616" lon="6.03984">
        <ele>591</ele>
        <time>2024-02-01T12:48:48Z</time>
      </trkpt>
      <trkpt lat="44.05619" lon="6.03979">
        <ele>593</ele>
        <time>2024-02-01T12:48:50Z</time>
      </trkpt>
      <trkpt lat="44.05623" lon="6.03971">
        <ele>593</ele>
        <time>2024-02-01T12:48:54Z</time>
      </trkpt>
      <trkpt lat="44.05627" lon="6.03964">
        <ele>590</ele>
        <time>2024-02-01T12:48:56Z</time>
      </trkpt>
      <trkpt lat="44.05632" lon="6.03956">
        <ele>597</ele>
        <time>2024-02-01T12:49:00Z</time>
      </trkpt>
      <trkpt lat="44.05636" lon="6.03951">
        <ele>596</ele>
        <time>2024-02-01T12:49:02Z</time>
      </trkpt>
      <trkpt lat="44.0564" lon="6.03945">
        <ele>596</ele>
        <time>2024-02-01T12:49:05Z</time>
      </trkpt>
      <trkpt lat="44.05642" lon="6.03939">
        <ele>605</ele>
        <time>2024-02-01T12:49:08Z</time>
      </trkpt>
      <trkpt lat="44.05646" lon="6.0393">
        <ele>602</ele>
        <time>2024-02-01T12:49:12Z</time>
      </trkpt>
      <trkpt lat="44.05653" lon="6.03922">
        <ele>604</ele>
        <time>2024-02-01T12:49:15Z</time>
      </trkpt>
      <trkpt lat="44.05661" lon="6.03914">
        <ele>605</ele>
        <time>2024-02-01T12:49:19Z</time>
      </trkpt>
      <trkpt lat="44.05672" lon="6.03902">
        <ele>605</ele>
        <time>2024-02-01T12:49:24Z</time>
      </trkpt>
      <trkpt lat="44.05676" lon="6.03898">
        <ele>602</ele>
        <time>2024-02-01T12:49:26Z</time>
      </trkpt>
      <trkpt lat="44.05683" lon="6.03893">
        <ele>602</ele>
        <time>2024-02-01T12:49:30Z</time>
      </trkpt>
      <trkpt lat="44.05689" lon="6.0389">
        <ele>608</ele>
        <time>2024-02-01T12:49:33Z</time>
      </trkpt>
      <trkpt lat="44.05697" lon="6.03888">
        <ele>608</ele>
        <time>2024-02-01T12:49:36Z</time>
      </trkpt>
      <trkpt lat="44.05701" lon="6.03887">
        <ele>610</ele>
        <time>2024-02-01T12:49:39Z</time>
      </trkpt>
      <trkpt lat="44.05711" lon="6.03884">
        <ele>610</ele>
        <time>2024-02-01T12:49:42Z</time>
      </trkpt>
      <trkpt lat="44.05716" lon="6.03878">
        <ele>612</ele>
        <time>2024-02-01T12:49:45Z</time>
      </trkpt>
      <trkpt lat="44.05724" lon="6.03872">
        <ele>612</ele>
        <time>2024-02-01T12:49:48Z</time>
      </trkpt>
      <trkpt lat="44.05728" lon="6.03862">
        <ele>614</ele>
        <time>2024-02-01T12:49:51Z</time>
      </trkpt>
      <trkpt lat="44.05733" lon="6.03856">
        <ele>614</ele>
        <time>2024-02-01T12:49:54Z</time>
      </trkpt>
      <trkpt lat="44.0574" lon="6.03852">
        <ele>616</ele>
        <time>2024-02-01T12:49:57Z</time>
      </trkpt>
      <trkpt lat="44.05749" lon="6.03846">
        <ele>616</ele>
        <time>2024-02-01T12:50:01Z</time>
      </trkpt>
      <trkpt lat="44.05763" lon="6.0384">
        <ele>614</ele>
        <time>2024-02-01T12:50:06Z</time>
      </trkpt>
      <trkpt lat="44.05768" lon="6.03839">
        <ele>618</ele>
        <time>2024-02-01T12:50:08Z</time>
      </trkpt>
      <trkpt lat="44.05775" lon="6.03835">
        <ele>618</ele>
        <time>2024-02-01T12:50:12Z</time>
      </trkpt>
      <trkpt lat="44.05778" lon="6.03835">
        <ele>620</ele>
        <time>2024-02-01T12:50:15Z</time>
      </trkpt>
      <trkpt lat="44.05786" lon="6.0383">
        <ele>622</ele>
        <time>2024-02-01T12:50:19Z</time>
      </trkpt>
      <trkpt lat="44.05791" lon="6.03828">
        <ele>623</ele>
        <time>2024-02-01T12:50:22Z</time>
      </trkpt>
      <trkpt lat="44.058" lon="6.03822">
        <ele>515</ele>
        <time>2024-02-01T12:50:25Z</time>
      </trkpt>
      <trkpt lat="44.05807" lon="6.03821">
        <ele>625</ele>
        <time>2024-02-01T12:50:28Z</time>
      </trkpt>
      <trkpt lat="44.05813" lon="6.03819">
        <ele>625</ele>
        <time>2024-02-01T12:50:31Z</time>
      </trkpt>
      <trkpt lat="44.0582" lon="6.03816">
        <ele>625</ele>
        <time>2024-02-01T12:50:34Z</time>
      </trkpt>
      <trkpt lat="44.05827" lon="6.03812">
        <ele>625</ele>
        <time>2024-02-01T12:50:37Z</time>
      </trkpt>
      <trkpt lat="44.05838" lon="6.03807">
        <ele>629</ele>
        <time>2024-02-01T12:50:42Z</time>
      </trkpt>
      <trkpt lat="44.05841" lon="6.03802">
        <ele>630</ele>
        <time>2024-02-01T12:50:44Z</time>
      </trkpt>
      <trkpt lat="44.05847" lon="6.03798">
        <ele>630</ele>
        <time>2024-02-01T12:50:48Z</time>
      </trkpt>
      <trkpt lat="44.05849" lon="6.03794">
        <ele>632</ele>
        <time>2024-02-01T12:50:50Z</time>
      </trkpt>
      <trkpt lat="44.05855" lon="6.03786">
        <ele>632</ele>
        <time>2024-02-01T12:50:54Z</time>
      </trkpt>
      <trkpt lat="44.05862" lon="6.03788">
        <ele>637</ele>
        <time>2024-02-01T12:50:56Z</time>
      </trkpt>
      <trkpt lat="44.05871" lon="6.03785">
        <ele>634</ele>
        <time>2024-02-01T12:51:00Z</time>
      </trkpt>
      <trkpt lat="44.05875" lon="6.03786">
        <ele>636</ele>
        <time>2024-02-01T12:51:03Z</time>
      </trkpt>
      <trkpt lat="44.05882" lon="6.03785">
        <ele>636</ele>
        <time>2024-02-01T12:51:06Z</time>
      </trkpt>
      <trkpt lat="44.05888" lon="6.03786">
        <ele>637</ele>
        <time>2024-02-01T12:51:08Z</time>
      </trkpt>
      <trkpt lat="44.05894" lon="6.03781">
        <ele>637</ele>
        <time>2024-02-01T12:51:11Z</time>
      </trkpt>
      <trkpt lat="44.05896" lon="6.03771">
        <ele>639</ele>
        <time>2024-02-01T12:51:15Z</time>
      </trkpt>
      <trkpt lat="44.0589" lon="6.03761">
        <ele>639</ele>
        <time>2024-02-01T12:51:18Z</time>
      </trkpt>
      <trkpt lat="44.05883" lon="6.03755">
        <ele>639</ele>
        <time>2024-02-01T12:51:21Z</time>
      </trkpt>
      <trkpt lat="44.05875" lon="6.03746">
        <ele>640</ele>
        <time>2024-02-01T12:51:25Z</time>
      </trkpt>
      <trkpt lat="44.05863" lon="6.03738">
        <ele>640</ele>
        <time>2024-02-01T12:51:30Z</time>
      </trkpt>
      <trkpt lat="44.05856" lon="6.03748">
        <ele>642</ele>
        <time>2024-02-01T12:51:32Z</time>
      </trkpt>
      <trkpt lat="44.05848" lon="6.03756">
        <ele>642</ele>
        <time>2024-02-01T12:51:36Z</time>
      </trkpt>
      <trkpt lat="44.05843" lon="6.0376">
        <ele>639</ele>
        <time>2024-02-01T12:51:39Z</time>
      </trkpt>
      <trkpt lat="44.05837" lon="6.03765">
        <ele>643</ele>
        <time>2024-02-01T12:51:42Z</time>
      </trkpt>
      <trkpt lat="44.05835" lon="6.03765">
        <ele>644</ele>
        <time>2024-02-01T12:51:46Z</time>
      </trkpt>
      <trkpt lat="44.05829" lon="6.03767">
        <ele>644</ele>
        <time>2024-02-01T12:51:49Z</time>
      </trkpt>
      <trkpt lat="44.05818" lon="6.03765">
        <ele>646</ele>
        <time>2024-02-01T12:51:52Z</time>
      </trkpt>
      <trkpt lat="44.05809" lon="6.03766">
        <ele>646</ele>
        <time>2024-02-01T12:51:55Z</time>
      </trkpt>
      <trkpt lat="44.05796" lon="6.03765">
        <ele>647</ele>
        <time>2024-02-01T12:52:00Z</time>
      </trkpt>
      <trkpt lat="44.0579" lon="6.03766">
        <ele>649</ele>
        <time>2024-02-01T12:52:03Z</time>
      </trkpt>
      <trkpt lat="44.05783" lon="6.03768">
        <ele>649</ele>
        <time>2024-02-01T12:52:06Z</time>
      </trkpt>
      <trkpt lat="44.05774" lon="6.03764">
        <ele>650</ele>
        <time>2024-02-01T12:52:09Z</time>
      </trkpt>
      <trkpt lat="44.05764" lon="6.03762">
        <ele>650</ele>
        <time>2024-02-01T12:52:12Z</time>
      </trkpt>
      <trkpt lat="44.05762" lon="6.03762">
        <ele>650</ele>
        <time>2024-02-01T12:52:15Z</time>
      </trkpt>
      <trkpt lat="44.05753" lon="6.03762">
        <ele>650</ele>
        <time>2024-02-01T12:52:18Z</time>
      </trkpt>
      <trkpt lat="44.0575" lon="6.03763">
        <ele>649</ele>
        <time>2024-02-01T12:52:21Z</time>
      </trkpt>
      <trkpt lat="44.05746" lon="6.03765">
        <ele>652</ele>
        <time>2024-02-01T12:52:24Z</time>
      </trkpt>
      <trkpt lat="44.05737" lon="6.03769">
        <ele>655</ele>
        <time>2024-02-01T12:52:26Z</time>
      </trkpt>
      <trkpt lat="44.05729" lon="6.03773">
        <ele>655</ele>
        <time>2024-02-01T12:52:30Z</time>
      </trkpt>
      <trkpt lat="44.05722" lon="6.03775">
        <ele>654</ele>
        <time>2024-02-01T12:52:32Z</time>
      </trkpt>
      <trkpt lat="44.05716" lon="6.03776">
        <ele>654</ele>
        <time>2024-02-01T12:52:36Z</time>
      </trkpt>
      <trkpt lat="44.05709" lon="6.03773">
        <ele>659</ele>
        <time>2024-02-01T12:52:39Z</time>
      </trkpt>
      <trkpt lat="44.05703" lon="6.03771">
        <ele>660</ele>
        <time>2024-02-01T12:52:42Z</time>
      </trkpt>
      <trkpt lat="44.05696" lon="6.03771">
        <ele>662</ele>
        <time>2024-02-01T12:52:45Z</time>
      </trkpt>
      <trkpt lat="44.05689" lon="6.03774">
        <ele>662</ele>
        <time>2024-02-01T12:52:48Z</time>
      </trkpt>
      <trkpt lat="44.05683" lon="6.03774">
        <ele>659</ele>
        <time>2024-02-01T12:52:51Z</time>
      </trkpt>
      <trkpt lat="44.05674" lon="6.03776">
        <ele>663</ele>
        <time>2024-02-01T12:52:55Z</time>
      </trkpt>
      <trkpt lat="44.05669" lon="6.03779">
        <ele>663</ele>
        <time>2024-02-01T12:52:58Z</time>
      </trkpt>
      <trkpt lat="44.05662" lon="6.03783">
        <ele>664</ele>
        <time>2024-02-01T12:53:01Z</time>
      </trkpt>
      <trkpt lat="44.05653" lon="6.03781">
        <ele>663</ele>
        <time>2024-02-01T12:53:04Z</time>
      </trkpt>
      <trkpt lat="44.05645" lon="6.03782">
        <ele>663</ele>
        <time>2024-02-01T12:53:07Z</time>
      </trkpt>
      <trkpt lat="44.05637" lon="6.03786">
        <ele>666</ele>
        <time>2024-02-01T12:53:09Z</time>
      </trkpt>
      <trkpt lat="44.05627" lon="6.0379">
        <ele>666</ele>
        <time>2024-02-01T12:53:13Z</time>
      </trkpt>
      <trkpt lat="44.05622" lon="6.03791">
        <ele>666</ele>
        <time>2024-02-01T12:53:16Z</time>
      </trkpt>
      <trkpt lat="44.05615" lon="6.03796">
        <ele>667</ele>
        <time>2024-02-01T12:53:19Z</time>
      </trkpt>
      <trkpt lat="44.05609" lon="6.03798">
        <ele>667</ele>
        <time>2024-02-01T12:53:22Z</time>
      </trkpt>
      <trkpt lat="44.05601" lon="6.03803">
        <ele>669</ele>
        <time>2024-02-01T12:53:25Z</time>
      </trkpt>
      <trkpt lat="44.05588" lon="6.03804">
        <ele>671</ele>
        <time>2024-02-01T12:53:30Z</time>
      </trkpt>
      <trkpt lat="44.0558" lon="6.03803">
        <ele>667</ele>
        <time>2024-02-01T12:53:33Z</time>
      </trkpt>
      <trkpt lat="44.05569" lon="6.03801">
        <ele>672</ele>
        <time>2024-02-01T12:53:36Z</time>
      </trkpt>
      <trkpt lat="44.05567" lon="6.03802">
        <ele>673</ele>
        <time>2024-02-01T12:53:40Z</time>
      </trkpt>
      <trkpt lat="44.05557" lon="6.038">
        <ele>673</ele>
        <time>2024-02-01T12:53:42Z</time>
      </trkpt>
      <trkpt lat="44.05553" lon="6.03799">
        <ele>674</ele>
        <time>2024-02-01T12:53:46Z</time>
      </trkpt>
      <trkpt lat="44.05547" lon="6.03799">
        <ele>674</ele>
        <time>2024-02-01T12:53:49Z</time>
      </trkpt>
      <trkpt lat="44.05541" lon="6.03794">
        <ele>673</ele>
        <time>2024-02-01T12:53:51Z</time>
      </trkpt>
      <trkpt lat="44.05533" lon="6.03786">
        <ele>675</ele>
        <time>2024-02-01T12:53:54Z</time>
      </trkpt>
      <trkpt lat="44.05531" lon="6.03783">
        <ele>676</ele>
        <time>2024-02-01T12:54:00Z</time>
      </trkpt>
      <trkpt lat="44.05532" lon="6.03765">
        <ele>680</ele>
        <time>2024-02-01T12:54:03Z</time>
      </trkpt>
      <trkpt lat="44.05538" lon="6.03754">
        <ele>680</ele>
        <time>2024-02-01T12:54:06Z</time>
      </trkpt>
      <trkpt lat="44.05542" lon="6.03749">
        <ele>675</ele>
        <time>2024-02-01T12:54:09Z</time>
      </trkpt>
      <trkpt lat="44.05548" lon="6.03744">
        <ele>678</ele>
        <time>2024-02-01T12:54:12Z</time>
      </trkpt>
      <trkpt lat="44.05556" lon="6.03749">
        <ele>674</ele>
        <time>2024-02-01T12:54:15Z</time>
      </trkpt>
      <trkpt lat="44.05569" lon="6.03743">
        <ele>676</ele>
        <time>2024-02-01T12:54:20Z</time>
      </trkpt>
      <trkpt lat="44.05583" lon="6.03734">
        <ele>676</ele>
        <time>2024-02-01T12:54:23Z</time>
      </trkpt>
      <trkpt lat="44.05593" lon="6.03731">
        <ele>673</ele>
        <time>2024-02-01T12:54:26Z</time>
      </trkpt>
      <trkpt lat="44.05603" lon="6.03726">
        <ele>676</ele>
        <time>2024-02-01T12:54:29Z</time>
      </trkpt>
      <trkpt lat="44.05611" lon="6.03726">
        <ele>677</ele>
        <time>2024-02-01T12:54:32Z</time>
      </trkpt>
      <trkpt lat="44.05619" lon="6.03724">
        <ele>678</ele>
        <time>2024-02-01T12:54:36Z</time>
      </trkpt>
      <trkpt lat="44.05629" lon="6.03718">
        <ele>674</ele>
        <time>2024-02-01T12:54:39Z</time>
      </trkpt>
      <trkpt lat="44.05638" lon="6.03715">
        <ele>678</ele>
        <time>2024-02-01T12:54:42Z</time>
      </trkpt>
      <trkpt lat="44.05644" lon="6.03712">
        <ele>678</ele>
        <time>2024-02-01T12:54:45Z</time>
      </trkpt>
      <trkpt lat="44.05651" lon="6.0371">
        <ele>678</ele>
        <time>2024-02-01T12:54:48Z</time>
      </trkpt>
      <trkpt lat="44.05655" lon="6.03711">
        <ele>681</ele>
        <time>2024-02-01T12:54:51Z</time>
      </trkpt>
      <trkpt lat="44.05661" lon="6.03712">
        <ele>681</ele>
        <time>2024-02-01T12:54:54Z</time>
      </trkpt>
      <trkpt lat="44.0567" lon="6.03711">
        <ele>683</ele>
        <time>2024-02-01T12:54:57Z</time>
      </trkpt>
      <trkpt lat="44.05678" lon="6.03709">
        <ele>682</ele>
        <time>2024-02-01T12:55:00Z</time>
      </trkpt>
      <trkpt lat="44.05686" lon="6.03702">
        <ele>688</ele>
        <time>2024-02-01T12:55:02Z</time>
      </trkpt>
      <trkpt lat="44.05691" lon="6.03694">
        <ele>684</ele>
        <time>2024-02-01T12:55:06Z</time>
      </trkpt>
      <trkpt lat="44.05698" lon="6.03688">
        <ele>686</ele>
        <time>2024-02-01T12:55:09Z</time>
      </trkpt>
      <trkpt lat="44.05701" lon="6.0368">
        <ele>686</ele>
        <time>2024-02-01T12:55:12Z</time>
      </trkpt>
      <trkpt lat="44.05704" lon="6.03675">
        <ele>689</ele>
        <time>2024-02-01T12:55:14Z</time>
      </trkpt>
      <trkpt lat="44.05705" lon="6.03667">
        <ele>690</ele>
        <time>2024-02-01T12:55:18Z</time>
      </trkpt>
      <trkpt lat="44.05705" lon="6.03662">
        <ele>693</ele>
        <time>2024-02-01T12:55:20Z</time>
      </trkpt>
      <trkpt lat="44.05706" lon="6.03654">
        <ele>693</ele>
        <time>2024-02-01T12:55:24Z</time>
      </trkpt>
      <trkpt lat="44.05705" lon="6.03649">
        <ele>676</ele>
        <time>2024-02-01T12:55:26Z</time>
      </trkpt>
      <trkpt lat="44.05702" lon="6.03647">
        <ele>694</ele>
        <time>2024-02-01T12:55:30Z</time>
      </trkpt>
      <trkpt lat="44.05699" lon="6.03648">
        <ele>675</ele>
        <time>2024-02-01T12:55:32Z</time>
      </trkpt>
      <trkpt lat="44.05695" lon="6.03645">
        <ele>694</ele>
        <time>2024-02-01T12:55:36Z</time>
      </trkpt>
      <trkpt lat="44.0569" lon="6.0364">
        <ele>698</ele>
        <time>2024-02-01T12:55:38Z</time>
      </trkpt>
      <trkpt lat="44.05686" lon="6.03637">
        <ele>696</ele>
        <time>2024-02-01T12:55:42Z</time>
      </trkpt>
      <trkpt lat="44.05681" lon="6.0363">
        <ele>696</ele>
        <time>2024-02-01T12:55:44Z</time>
      </trkpt>
      <trkpt lat="44.05678" lon="6.03623">
        <ele>696</ele>
        <time>2024-02-01T12:55:48Z</time>
      </trkpt>
      <trkpt lat="44.05672" lon="6.03616">
        <ele>695</ele>
        <time>2024-02-01T12:55:51Z</time>
      </trkpt>
      <trkpt lat="44.05666" lon="6.0361">
        <ele>695</ele>
        <time>2024-02-01T12:55:54Z</time>
      </trkpt>
      <trkpt lat="44.05662" lon="6.036">
        <ele>698</ele>
        <time>2024-02-01T12:55:57Z</time>
      </trkpt>
      <trkpt lat="44.05654" lon="6.03597">
        <ele>698</ele>
        <time>2024-02-01T12:56:00Z</time>
      </trkpt>
      <trkpt lat="44.05651" lon="6.03581">
        <ele>673</ele>
        <time>2024-02-01T12:56:04Z</time>
      </trkpt>
      <trkpt lat="44.05649" lon="6.03575">
        <ele>673</ele>
        <time>2024-02-01T12:56:07Z</time>
      </trkpt>
      <trkpt lat="44.05644" lon="6.03565">
        <ele>701</ele>
        <time>2024-02-01T12:56:10Z</time>
      </trkpt>
      <trkpt lat="44.05641" lon="6.03559">
        <ele>701</ele>
        <time>2024-02-01T12:56:13Z</time>
      </trkpt>
      <trkpt lat="44.05634" lon="6.03537">
        <ele>702</ele>
        <time>2024-02-01T12:56:18Z</time>
      </trkpt>
      <trkpt lat="44.0563" lon="6.0353">
        <ele>705</ele>
        <time>2024-02-01T12:56:21Z</time>
      </trkpt>
      <trkpt lat="44.05626" lon="6.03523">
        <ele>705</ele>
        <time>2024-02-01T12:56:24Z</time>
      </trkpt>
      <trkpt lat="44.0563" lon="6.03515">
        <ele>707</ele>
        <time>2024-02-01T12:56:26Z</time>
      </trkpt>
      <trkpt lat="44.05637" lon="6.0351">
        <ele>707</ele>
        <time>2024-02-01T12:56:30Z</time>
      </trkpt>
      <trkpt lat="44.05646" lon="6.03509">
        <ele>710</ele>
        <time>2024-02-01T12:56:33Z</time>
      </trkpt>
      <trkpt lat="44.05655" lon="6.03502">
        <ele>710</ele>
        <time>2024-02-01T12:56:37Z</time>
      </trkpt>
      <trkpt lat="44.05662" lon="6.03503">
        <ele>696</ele>
        <time>2024-02-01T12:56:42Z</time>
      </trkpt>
      <trkpt lat="44.05661" lon="6.03514">
        <ele>712</ele>
        <time>2024-02-01T12:56:48Z</time>
      </trkpt>
      <trkpt lat="44.05668" lon="6.03519">
        <ele>714</ele>
        <time>2024-02-01T12:56:50Z</time>
      </trkpt>
      <trkpt lat="44.05676" lon="6.03525">
        <ele>714</ele>
        <time>2024-02-01T12:56:54Z</time>
      </trkpt>
      <trkpt lat="44.05678" lon="6.03522">
        <ele>716</ele>
        <time>2024-02-01T12:56:57Z</time>
      </trkpt>
      <trkpt lat="44.05681" lon="6.03519">
        <ele>717</ele>
        <time>2024-02-01T12:57:01Z</time>
      </trkpt>
      <trkpt lat="44.05687" lon="6.03519">
        <ele>719</ele>
        <time>2024-02-01T12:57:06Z</time>
      </trkpt>
      <trkpt lat="44.0569" lon="6.03524">
        <ele>721</ele>
        <time>2024-02-01T12:57:12Z</time>
      </trkpt>
      <trkpt lat="44.05699" lon="6.03526">
        <ele>724</ele>
        <time>2024-02-01T12:57:18Z</time>
      </trkpt>
      <trkpt lat="44.05706" lon="6.03521">
        <ele>726</ele>
        <time>2024-02-01T12:57:21Z</time>
      </trkpt>
      <trkpt lat="44.05708" lon="6.03518">
        <ele>726</ele>
        <time>2024-02-01T12:57:24Z</time>
      </trkpt>
      <trkpt lat="44.05713" lon="6.03515">
        <ele>727</ele>
        <time>2024-02-01T12:57:26Z</time>
      </trkpt>
      <trkpt lat="44.0572" lon="6.03513">
        <ele>727</ele>
        <time>2024-02-01T12:57:30Z</time>
      </trkpt>
      <trkpt lat="44.05724" lon="6.03517">
        <ele>727</ele>
        <time>2024-02-01T12:57:32Z</time>
      </trkpt>
      <trkpt lat="44.05728" lon="6.03519">
        <ele>727</ele>
        <time>2024-02-01T12:57:36Z</time>
      </trkpt>
      <trkpt lat="44.0573" lon="6.03516">
        <ele>727</ele>
        <time>2024-02-01T12:57:38Z</time>
      </trkpt>
      <trkpt lat="44.05735" lon="6.03513">
        <ele>731</ele>
        <time>2024-02-01T12:57:42Z</time>
      </trkpt>
      <trkpt lat="44.05737" lon="6.03513">
        <ele>733</ele>
        <time>2024-02-01T12:57:45Z</time>
      </trkpt>
      <trkpt lat="44.05741" lon="6.03513">
        <ele>733</ele>
        <time>2024-02-01T12:57:48Z</time>
      </trkpt>
      <trkpt lat="44.05742" lon="6.03508">
        <ele>733</ele>
        <time>2024-02-01T12:57:52Z</time>
      </trkpt>
      <trkpt lat="44.05744" lon="6.03504">
        <ele>743</ele>
        <time>2024-02-01T12:57:55Z</time>
      </trkpt>
      <trkpt lat="44.05748" lon="6.03505">
        <ele>738</ele>
        <time>2024-02-01T12:58:00Z</time>
      </trkpt>
      <trkpt lat="44.0575" lon="6.03503">
        <ele>739</ele>
        <time>2024-02-01T12:58:03Z</time>
      </trkpt>
      <trkpt lat="44.05752" lon="6.03501">
        <ele>739</ele>
        <time>2024-02-01T12:58:06Z</time>
      </trkpt>
      <trkpt lat="44.05753" lon="6.03498">
        <ele>741</ele>
        <time>2024-02-01T12:58:13Z</time>
      </trkpt>
      <trkpt lat="44.05761" lon="6.03488">
        <ele>743</ele>
        <time>2024-02-01T12:58:18Z</time>
      </trkpt>
      <trkpt lat="44.05771" lon="6.03482">
        <ele>747</ele>
        <time>2024-02-01T12:58:21Z</time>
      </trkpt>
      <trkpt lat="44.05775" lon="6.03477">
        <ele>747</ele>
        <time>2024-02-01T12:58:24Z</time>
      </trkpt>
      <trkpt lat="44.05779" lon="6.0348">
        <ele>748</ele>
        <time>2024-02-01T12:58:27Z</time>
      </trkpt>
      <trkpt lat="44.05781" lon="6.03479">
        <ele>748</ele>
        <time>2024-02-01T12:58:31Z</time>
      </trkpt>
      <trkpt lat="44.05783" lon="6.03481">
        <ele>750</ele>
        <time>2024-02-01T12:58:34Z</time>
      </trkpt>
      <trkpt lat="44.05784" lon="6.03477">
        <ele>751</ele>
        <time>2024-02-01T12:58:37Z</time>
      </trkpt>
      <trkpt lat="44.0579" lon="6.03478">
        <ele>751</ele>
        <time>2024-02-01T12:58:42Z</time>
      </trkpt>
      <trkpt lat="44.05792" lon="6.03476">
        <ele>755</ele>
        <time>2024-02-01T12:58:45Z</time>
      </trkpt>
      <trkpt lat="44.05792" lon="6.03473">
        <ele>755</ele>
        <time>2024-02-01T12:58:48Z</time>
      </trkpt>
      <trkpt lat="44.05794" lon="6.0347">
        <ele>757</ele>
        <time>2024-02-01T12:58:50Z</time>
      </trkpt>
      <trkpt lat="44.05796" lon="6.03467">
        <ele>757</ele>
        <time>2024-02-01T12:58:54Z</time>
      </trkpt>
      <trkpt lat="44.05796" lon="6.03462">
        <ele>758</ele>
        <time>2024-02-01T12:58:56Z</time>
      </trkpt>
      <trkpt lat="44.05797" lon="6.03458">
        <ele>758</ele>
        <time>2024-02-01T12:59:00Z</time>
      </trkpt>
      <trkpt lat="44.05799" lon="6.03459">
        <ele>758</ele>
        <time>2024-02-01T12:59:02Z</time>
      </trkpt>
      <trkpt lat="44.05801" lon="6.0346">
        <ele>759</ele>
        <time>2024-02-01T12:59:08Z</time>
      </trkpt>
      <trkpt lat="44.05802" lon="6.03458">
        <ele>759</ele>
        <time>2024-02-01T12:59:13Z</time>
      </trkpt>
      <trkpt lat="44.05806" lon="6.03461">
        <ele>760</ele>
        <time>2024-02-01T12:59:18Z</time>
      </trkpt>
      <trkpt lat="44.05807" lon="6.03458">
        <ele>761</ele>
        <time>2024-02-01T12:59:24Z</time>
      </trkpt>
      <trkpt lat="44.05808" lon="6.03455">
        <ele>760</ele>
        <time>2024-02-01T12:59:30Z</time>
      </trkpt>
      <trkpt lat="44.0581" lon="6.0345">
        <ele>761</ele>
        <time>2024-02-01T12:59:32Z</time>
      </trkpt>
      <trkpt lat="44.05813" lon="6.03446">
        <ele>761</ele>
        <time>2024-02-01T12:59:36Z</time>
      </trkpt>
      <trkpt lat="44.05813" lon="6.03437">
        <ele>765</ele>
        <time>2024-02-01T12:59:39Z</time>
      </trkpt>
      <trkpt lat="44.05816" lon="6.03435">
        <ele>765</ele>
        <time>2024-02-01T12:59:42Z</time>
      </trkpt>
      <trkpt lat="44.05818" lon="6.03435">
        <ele>768</ele>
        <time>2024-02-01T12:59:45Z</time>
      </trkpt>
      <trkpt lat="44.05821" lon="6.03437">
        <ele>768</ele>
        <time>2024-02-01T12:59:48Z</time>
      </trkpt>
      <trkpt lat="44.05821" lon="6.03431">
        <ele>769</ele>
        <time>2024-02-01T12:59:51Z</time>
      </trkpt>
      <trkpt lat="44.05824" lon="6.03427">
        <ele>769</ele>
        <time>2024-02-01T12:59:54Z</time>
      </trkpt>
      <trkpt lat="44.05823" lon="6.03429">
        <ele>771</ele>
        <time>2024-02-01T12:59:56Z</time>
      </trkpt>
      <trkpt lat="44.0582" lon="6.03432">
        <ele>771</ele>
        <time>2024-02-01T12:59:59Z</time>
      </trkpt>
      <trkpt lat="44.05825" lon="6.03433">
        <ele>772</ele>
        <time>2024-02-01T13:00:02Z</time>
      </trkpt>
      <trkpt lat="44.05832" lon="6.03433">
        <ele>772</ele>
        <time>2024-02-01T13:00:06Z</time>
      </trkpt>
      <trkpt lat="44.05841" lon="6.03433">
        <ele>773</ele>
        <time>2024-02-01T13:00:08Z</time>
      </trkpt>
      <trkpt lat="44.05849" lon="6.03429">
        <ele>773</ele>
        <time>2024-02-01T13:00:12Z</time>
      </trkpt>
      <trkpt lat="44.05855" lon="6.03431">
        <ele>775</ele>
        <time>2024-02-01T13:00:14Z</time>
      </trkpt>
      <trkpt lat="44.0586" lon="6.03431">
        <ele>775</ele>
        <time>2024-02-01T13:00:18Z</time>
      </trkpt>
      <trkpt lat="44.05863" lon="6.03432">
        <ele>777</ele>
        <time>2024-02-01T13:00:20Z</time>
      </trkpt>
      <trkpt lat="44.05866" lon="6.03429">
        <ele>777</ele>
        <time>2024-02-01T13:00:24Z</time>
      </trkpt>
      <trkpt lat="44.05862" lon="6.03431">
        <ele>777</ele>
        <time>2024-02-01T13:00:26Z</time>
      </trkpt>
      <trkpt lat="44.05861" lon="6.03433">
        <ele>776</ele>
        <time>2024-02-01T13:00:31Z</time>
      </trkpt>
      <trkpt lat="44.05862" lon="6.03435">
        <ele>776</ele>
        <time>2024-02-01T13:00:43Z</time>
      </trkpt>
      <trkpt lat="44.0586" lon="6.03433">
        <ele>778</ele>
        <time>2024-02-01T13:00:49Z</time>
      </trkpt>
      <trkpt lat="44.05858" lon="6.03429">
        <ele>778</ele>
        <time>2024-02-01T13:00:55Z</time>
      </trkpt>
      <trkpt lat="44.05856" lon="6.03427">
        <ele>774</ele>
        <time>2024-02-01T13:01:07Z</time>
      </trkpt>
      <trkpt lat="44.05859" lon="6.03427">
        <ele>777</ele>
        <time>2024-02-01T13:01:12Z</time>
      </trkpt>
      <trkpt lat="44.05862" lon="6.0343">
        <ele>778</ele>
        <time>2024-02-01T13:01:18Z</time>
      </trkpt>
      <trkpt lat="44.05864" lon="6.0343">
        <ele>778</ele>
        <time>2024-02-01T13:01:20Z</time>
      </trkpt>
      <trkpt lat="44.05867" lon="6.03431">
        <ele>778</ele>
        <time>2024-02-01T13:01:23Z</time>
      </trkpt>
      <trkpt lat="44.05869" lon="6.03432">
        <ele>778</ele>
        <time>2024-02-01T13:01:27Z</time>
      </trkpt>
      <trkpt lat="44.05871" lon="6.03432">
        <ele>752</ele>
        <time>2024-02-01T13:01:31Z</time>
      </trkpt>
      <trkpt lat="44.05872" lon="6.0343">
        <ele>779</ele>
        <time>2024-02-01T13:01:37Z</time>
      </trkpt>
      <trkpt lat="44.05874" lon="6.03433">
        <ele>756</ele>
        <time>2024-02-01T13:01:43Z</time>
      </trkpt>
      <trkpt lat="44.05876" lon="6.0344">
        <ele>756</ele>
        <time>2024-02-01T13:01:49Z</time>
      </trkpt>
      <trkpt lat="44.05878" lon="6.03438">
        <ele>757</ele>
        <time>2024-02-01T13:01:55Z</time>
      </trkpt>
      <trkpt lat="44.05875" lon="6.0344">
        <ele>748</ele>
        <time>2024-02-01T13:02:13Z</time>
      </trkpt>
      <trkpt lat="44.05875" lon="6.03445">
        <ele>746</ele>
        <time>2024-02-01T13:02:19Z</time>
      </trkpt>
      <trkpt lat="44.05872" lon="6.0345">
        <ele>747</ele>
        <time>2024-02-01T13:02:25Z</time>
      </trkpt>
      <trkpt lat="44.0587" lon="6.03452">
        <ele>746</ele>
        <time>2024-02-01T13:02:31Z</time>
      </trkpt>
      <trkpt lat="44.0587" lon="6.03449">
        <ele>744</ele>
        <time>2024-02-01T13:02:37Z</time>
      </trkpt>
      <trkpt lat="44.05871" lon="6.03445">
        <ele>745</ele>
        <time>2024-02-01T13:02:43Z</time>
      </trkpt>
      <trkpt lat="44.05873" lon="6.03445">
        <ele>747</ele>
        <time>2024-02-01T13:02:55Z</time>
      </trkpt>
      <trkpt lat="44.05869" lon="6.03444">
        <ele>748</ele>
        <time>2024-02-01T13:03:19Z</time>
      </trkpt>
      <trkpt lat="44.05873" lon="6.03444">
        <ele>744</ele>
        <time>2024-02-01T13:03:31Z</time>
      </trkpt>
      <trkpt lat="44.05876" lon="6.03442">
        <ele>748</ele>
        <time>2024-02-01T13:03:37Z</time>
      </trkpt>
      <trkpt lat="44.05877" lon="6.03444">
        <ele>750</ele>
        <time>2024-02-01T13:03:43Z</time>
      </trkpt>
      <trkpt lat="44.05888" lon="6.0344">
        <ele>779</ele>
        <time>2024-02-01T13:03:46Z</time>
      </trkpt>
      <trkpt lat="44.05892" lon="6.03441">
        <ele>779</ele>
        <time>2024-02-01T13:03:49Z</time>
      </trkpt>
      <trkpt lat="44.05902" lon="6.03439">
        <ele>784</ele>
        <time>2024-02-01T13:03:52Z</time>
      </trkpt>
      <trkpt lat="44.05905" lon="6.03439">
        <ele>784</ele>
        <time>2024-02-01T13:03:55Z</time>
      </trkpt>
      <trkpt lat="44.0591" lon="6.03439">
        <ele>782</ele>
        <time>2024-02-01T13:03:58Z</time>
      </trkpt>
      <trkpt lat="44.05915" lon="6.03438">
        <ele>782</ele>
        <time>2024-02-01T13:04:01Z</time>
      </trkpt>
      <trkpt lat="44.05923" lon="6.03441">
        <ele>785</ele>
        <time>2024-02-01T13:04:04Z</time>
      </trkpt>
      <trkpt lat="44.05929" lon="6.03443">
        <ele>763</ele>
        <time>2024-02-01T13:04:07Z</time>
      </trkpt>
      <trkpt lat="44.05935" lon="6.03432">
        <ele>783</ele>
        <time>2024-02-01T13:04:10Z</time>
      </trkpt>
      <trkpt lat="44.05939" lon="6.03431">
        <ele>783</ele>
        <time>2024-02-01T13:04:13Z</time>
      </trkpt>
      <trkpt lat="44.05949" lon="6.03426">
        <ele>784</ele>
        <time>2024-02-01T13:04:16Z</time>
      </trkpt>
      <trkpt lat="44.05955" lon="6.03422">
        <ele>765</ele>
        <time>2024-02-01T13:04:19Z</time>
      </trkpt>
      <trkpt lat="44.05959" lon="6.03416">
        <ele>790</ele>
        <time>2024-02-01T13:04:22Z</time>
      </trkpt>
      <trkpt lat="44.05962" lon="6.03409">
        <ele>766</ele>
        <time>2024-02-01T13:04:25Z</time>
      </trkpt>
      <trkpt lat="44.0597" lon="6.03413">
        <ele>788</ele>
        <time>2024-02-01T13:04:28Z</time>
      </trkpt>
      <trkpt lat="44.05975" lon="6.03413">
        <ele>751</ele>
        <time>2024-02-01T13:04:31Z</time>
      </trkpt>
      <trkpt lat="44.05981" lon="6.03423">
        <ele>789</ele>
        <time>2024-02-01T13:04:34Z</time>
      </trkpt>
      <trkpt lat="44.05987" lon="6.03427">
        <ele>789</ele>
        <time>2024-02-01T13:04:37Z</time>
      </trkpt>
      <trkpt lat="44.05997" lon="6.03415">
        <ele>792</ele>
        <time>2024-02-01T13:04:42Z</time>
      </trkpt>
      <trkpt lat="44.05999" lon="6.0341">
        <ele>790</ele>
        <time>2024-02-01T13:04:44Z</time>
      </trkpt>
      <trkpt lat="44.06005" lon="6.03406">
        <ele>790</ele>
        <time>2024-02-01T13:04:48Z</time>
      </trkpt>
      <trkpt lat="44.06014" lon="6.03401">
        <ele>754</ele>
        <time>2024-02-01T13:04:54Z</time>
      </trkpt>
      <trkpt lat="44.06014" lon="6.03404">
        <ele>798</ele>
        <time>2024-02-01T13:05:00Z</time>
      </trkpt>
      <trkpt lat="44.06018" lon="6.03404">
        <ele>800</ele>
        <time>2024-02-01T13:05:02Z</time>
      </trkpt>
      <trkpt lat="44.06022" lon="6.03402">
        <ele>800</ele>
        <time>2024-02-01T13:05:06Z</time>
      </trkpt>
      <trkpt lat="44.06028" lon="6.034">
        <ele>800</ele>
        <time>2024-02-01T13:05:09Z</time>
      </trkpt>
      <trkpt lat="44.06033" lon="6.034">
        <ele>801</ele>
        <time>2024-02-01T13:05:12Z</time>
      </trkpt>
      <trkpt lat="44.06037" lon="6.03397">
        <ele>807</ele>
        <time>2024-02-01T13:05:15Z</time>
      </trkpt>
      <trkpt lat="44.06041" lon="6.03393">
        <ele>807</ele>
        <time>2024-02-01T13:05:19Z</time>
      </trkpt>
      <trkpt lat="44.06049" lon="6.03395">
        <ele>808</ele>
        <time>2024-02-01T13:05:22Z</time>
      </trkpt>
      <trkpt lat="44.06054" lon="6.03393">
        <ele>808</ele>
        <time>2024-02-01T13:05:25Z</time>
      </trkpt>
      <trkpt lat="44.06056" lon="6.03389">
        <ele>810</ele>
        <time>2024-02-01T13:05:30Z</time>
      </trkpt>
      <trkpt lat="44.0606" lon="6.03385">
        <ele>814</ele>
        <time>2024-02-01T13:05:32Z</time>
      </trkpt>
      <trkpt lat="44.06066" lon="6.03381">
        <ele>815</ele>
        <time>2024-02-01T13:05:36Z</time>
      </trkpt>
      <trkpt lat="44.06072" lon="6.03378">
        <ele>815</ele>
        <time>2024-02-01T13:05:38Z</time>
      </trkpt>
      <trkpt lat="44.06078" lon="6.03378">
        <ele>815</ele>
        <time>2024-02-01T13:05:42Z</time>
      </trkpt>
      <trkpt lat="44.06088" lon="6.03384">
        <ele>816</ele>
        <time>2024-02-01T13:05:44Z</time>
      </trkpt>
      <trkpt lat="44.06096" lon="6.0339">
        <ele>816</ele>
        <time>2024-02-01T13:05:48Z</time>
      </trkpt>
      <trkpt lat="44.06103" lon="6.03389">
        <ele>816</ele>
        <time>2024-02-01T13:05:51Z</time>
      </trkpt>
      <trkpt lat="44.06108" lon="6.03392">
        <ele>820</ele>
        <time>2024-02-01T13:05:54Z</time>
      </trkpt>
      <trkpt lat="44.06112" lon="6.03392">
        <ele>813</ele>
        <time>2024-02-01T13:05:57Z</time>
      </trkpt>
      <trkpt lat="44.06117" lon="6.03391">
        <ele>815</ele>
        <time>2024-02-01T13:06:00Z</time>
      </trkpt>
      <trkpt lat="44.06117" lon="6.03394">
        <ele>821</ele>
        <time>2024-02-01T13:06:02Z</time>
      </trkpt>
      <trkpt lat="44.06118" lon="6.03399">
        <ele>821</ele>
        <time>2024-02-01T13:06:06Z</time>
      </trkpt>
      <trkpt lat="44.06117" lon="6.03408">
        <ele>824</ele>
        <time>2024-02-01T13:06:08Z</time>
      </trkpt>
      <trkpt lat="44.06121" lon="6.03413">
        <ele>824</ele>
        <time>2024-02-01T13:06:12Z</time>
      </trkpt>
      <trkpt lat="44.06126" lon="6.03421">
        <ele>826</ele>
        <time>2024-02-01T13:06:15Z</time>
      </trkpt>
      <trkpt lat="44.06131" lon="6.03426">
        <ele>826</ele>
        <time>2024-02-01T13:06:18Z</time>
      </trkpt>
      <trkpt lat="44.06141" lon="6.03436">
        <ele>788</ele>
        <time>2024-02-01T13:06:24Z</time>
      </trkpt>
      <trkpt lat="44.06149" lon="6.03449">
        <ele>822</ele>
        <time>2024-02-01T13:06:30Z</time>
      </trkpt>
      <trkpt lat="44.0616" lon="6.03453">
        <ele>823</ele>
        <time>2024-02-01T13:06:32Z</time>
      </trkpt>
      <trkpt lat="44.06171" lon="6.03461">
        <ele>823</ele>
        <time>2024-02-01T13:06:36Z</time>
      </trkpt>
      <trkpt lat="44.06187" lon="6.03476">
        <ele>808</ele>
        <time>2024-02-01T13:06:42Z</time>
      </trkpt>
      <trkpt lat="44.06197" lon="6.03488">
        <ele>818</ele>
        <time>2024-02-01T13:06:48Z</time>
      </trkpt>
      <trkpt lat="44.06213" lon="6.03499">
        <ele>804</ele>
        <time>2024-02-01T13:06:54Z</time>
      </trkpt>
      <trkpt lat="44.0623" lon="6.0354">
        <ele>810</ele>
        <time>2024-02-01T13:07:00Z</time>
      </trkpt>
      <trkpt lat="44.06244" lon="6.03553">
        <ele>811</ele>
        <time>2024-02-01T13:07:02Z</time>
      </trkpt>
      <trkpt lat="44.06283" lon="6.03591">
        <ele>756</ele>
        <time>2024-02-01T13:07:08Z</time>
      </trkpt>
      <trkpt lat="44.06306" lon="6.03604">
        <ele>811</ele>
        <time>2024-02-01T13:07:14Z</time>
      </trkpt>
      <trkpt lat="44.06321" lon="6.03612">
        <ele>810</ele>
        <time>2024-02-01T13:07:20Z</time>
      </trkpt>
      <trkpt lat="44.06334" lon="6.0361">
        <ele>811</ele>
        <time>2024-02-01T13:07:26Z</time>
      </trkpt>
      <trkpt lat="44.06342" lon="6.03611">
        <ele>758</ele>
        <time>2024-02-01T13:07:31Z</time>
      </trkpt>
      <trkpt lat="44.06352" lon="6.03609">
        <ele>752</ele>
        <time>2024-02-01T13:07:37Z</time>
      </trkpt>
      <trkpt lat="44.0637" lon="6.03604">
        <ele>822</ele>
        <time>2024-02-01T13:07:44Z</time>
      </trkpt>
      <trkpt lat="44.06383" lon="6.03604">
        <ele>820</ele>
        <time>2024-02-01T13:07:50Z</time>
      </trkpt>
      <trkpt lat="44.06391" lon="6.03606">
        <ele>825</ele>
        <time>2024-02-01T13:07:56Z</time>
      </trkpt>
      <trkpt lat="44.06396" lon="6.03604">
        <ele>768</ele>
        <time>2024-02-01T13:08:01Z</time>
      </trkpt>
      <trkpt lat="44.0641" lon="6.03608">
        <ele>829</ele>
        <time>2024-02-01T13:08:04Z</time>
      </trkpt>
      <trkpt lat="44.06418" lon="6.0361">
        <ele>784</ele>
        <time>2024-02-01T13:08:07Z</time>
      </trkpt>
      <trkpt lat="44.06424" lon="6.03606">
        <ele>830</ele>
        <time>2024-02-01T13:08:10Z</time>
      </trkpt>
      <trkpt lat="44.0643" lon="6.0361">
        <ele>829</ele>
        <time>2024-02-01T13:08:13Z</time>
      </trkpt>
      <trkpt lat="44.06426" lon="6.03615">
        <ele>833</ele>
        <time>2024-02-01T13:08:16Z</time>
      </trkpt>
      <trkpt lat="44.06428" lon="6.03618">
        <ele>833</ele>
        <time>2024-02-01T13:08:19Z</time>
      </trkpt>
      <trkpt lat="44.06423" lon="6.03628">
        <ele>830</ele>
        <time>2024-02-01T13:08:22Z</time>
      </trkpt>
      <trkpt lat="44.06421" lon="6.03637">
        <ele>830</ele>
        <time>2024-02-01T13:08:25Z</time>
      </trkpt>
      <trkpt lat="44.06429" lon="6.03654">
        <ele>774</ele>
        <time>2024-02-01T13:08:30Z</time>
      </trkpt>
      <trkpt lat="44.06449" lon="6.0367">
        <ele>817</ele>
        <time>2024-02-01T13:08:32Z</time>
      </trkpt>
      <trkpt lat="44.06453" lon="6.03682">
        <ele>774</ele>
        <time>2024-02-01T13:08:37Z</time>
      </trkpt>
      <trkpt lat="44.06456" lon="6.03673">
        <ele>774</ele>
        <time>2024-02-01T13:08:42Z</time>
      </trkpt>
      <trkpt lat="44.06468" lon="6.03664">
        <ele>815</ele>
        <time>2024-02-01T13:08:48Z</time>
      </trkpt>
      <trkpt lat="44.06472" lon="6.03657">
        <ele>815</ele>
        <time>2024-02-01T13:08:51Z</time>
      </trkpt>
      <trkpt lat="44.06475" lon="6.03655">
        <ele>815</ele>
        <time>2024-02-01T13:08:55Z</time>
      </trkpt>
      <trkpt lat="44.06483" lon="6.03648">
        <ele>817</ele>
        <time>2024-02-01T13:08:58Z</time>
      </trkpt>
      <trkpt lat="44.0649" lon="6.03649">
        <ele>817</ele>
        <time>2024-02-01T13:09:01Z</time>
      </trkpt>
      <trkpt lat="44.06502" lon="6.0365">
        <ele>820</ele>
        <time>2024-02-01T13:09:04Z</time>
      </trkpt>
      <trkpt lat="44.06509" lon="6.03652">
        <ele>820</ele>
        <time>2024-02-01T13:09:08Z</time>
      </trkpt>
      <trkpt lat="44.06517" lon="6.03652">
        <ele>802</ele>
        <time>2024-02-01T13:09:12Z</time>
      </trkpt>
      <trkpt lat="44.06523" lon="6.03657">
        <ele>824</ele>
        <time>2024-02-01T13:09:18Z</time>
      </trkpt>
      <trkpt lat="44.06531" lon="6.03661">
        <ele>822</ele>
        <time>2024-02-01T13:09:20Z</time>
      </trkpt>
      <trkpt lat="44.06537" lon="6.03666">
        <ele>822</ele>
        <time>2024-02-01T13:09:24Z</time>
      </trkpt>
      <trkpt lat="44.06544" lon="6.03673">
        <ele>812</ele>
        <time>2024-02-01T13:09:27Z</time>
      </trkpt>
      <trkpt lat="44.06547" lon="6.03677">
        <ele>812</ele>
        <time>2024-02-01T13:09:30Z</time>
      </trkpt>
      <trkpt lat="44.06551" lon="6.03684">
        <ele>814</ele>
        <time>2024-02-01T13:09:32Z</time>
      </trkpt>
      <trkpt lat="44.06556" lon="6.0369">
        <ele>827</ele>
        <time>2024-02-01T13:09:36Z</time>
      </trkpt>
      <trkpt lat="44.06563" lon="6.03696">
        <ele>831</ele>
        <time>2024-02-01T13:09:38Z</time>
      </trkpt>
      <trkpt lat="44.06571" lon="6.03699">
        <ele>831</ele>
        <time>2024-02-01T13:09:41Z</time>
      </trkpt>
      <trkpt lat="44.06579" lon="6.03703">
        <ele>843</ele>
        <time>2024-02-01T13:09:44Z</time>
      </trkpt>
      <trkpt lat="44.06586" lon="6.0371">
        <ele>836</ele>
        <time>2024-02-01T13:09:49Z</time>
      </trkpt>
      <trkpt lat="44.06591" lon="6.03708">
        <ele>831</ele>
        <time>2024-02-01T13:09:51Z</time>
      </trkpt>
      <trkpt lat="44.06599" lon="6.03712">
        <ele>831</ele>
        <time>2024-02-01T13:09:55Z</time>
      </trkpt>
      <trkpt lat="44.06601" lon="6.03722">
        <ele>835</ele>
        <time>2024-02-01T13:09:58Z</time>
      </trkpt>
      <trkpt lat="44.06607" lon="6.03727">
        <ele>835</ele>
        <time>2024-02-01T13:10:01Z</time>
      </trkpt>
      <trkpt lat="44.0661" lon="6.0373">
        <ele>814</ele>
        <time>2024-02-01T13:10:06Z</time>
      </trkpt>
      <trkpt lat="44.06611" lon="6.03735">
        <ele>840</ele>
        <time>2024-02-01T13:10:12Z</time>
      </trkpt>
      <trkpt lat="44.06612" lon="6.0374">
        <ele>846</ele>
        <time>2024-02-01T13:10:14Z</time>
      </trkpt>
      <trkpt lat="44.06622" lon="6.03746">
        <ele>846</ele>
        <time>2024-02-01T13:10:18Z</time>
      </trkpt>
      <trkpt lat="44.06628" lon="6.03748">
        <ele>843</ele>
        <time>2024-02-01T13:10:20Z</time>
      </trkpt>
      <trkpt lat="44.06637" lon="6.03748">
        <ele>845</ele>
        <time>2024-02-01T13:10:24Z</time>
      </trkpt>
      <trkpt lat="44.06642" lon="6.03749">
        <ele>843</ele>
        <time>2024-02-01T13:10:26Z</time>
      </trkpt>
      <trkpt lat="44.0664" lon="6.03746">
        <ele>848</ele>
        <time>2024-02-01T13:10:32Z</time>
      </trkpt>
      <trkpt lat="44.06637" lon="6.03746">
        <ele>846</ele>
        <time>2024-02-01T13:10:38Z</time>
      </trkpt>
      <trkpt lat="44.06634" lon="6.03749">
        <ele>844</ele>
        <time>2024-02-01T13:10:44Z</time>
      </trkpt>
      <trkpt lat="44.06632" lon="6.03752">
        <ele>842</ele>
        <time>2024-02-01T13:11:14Z</time>
      </trkpt>
      <trkpt lat="44.0663" lon="6.03751">
        <ele>843</ele>
        <time>2024-02-01T13:11:32Z</time>
      </trkpt>
      <trkpt lat="44.06628" lon="6.03748">
        <ele>843</ele>
        <time>2024-02-01T13:12:08Z</time>
      </trkpt>
      <trkpt lat="44.06624" lon="6.03743">
        <ele>841</ele>
        <time>2024-02-01T13:12:14Z</time>
      </trkpt>
      <trkpt lat="44.06622" lon="6.03743">
        <ele>843</ele>
        <time>2024-02-01T13:12:20Z</time>
      </trkpt>
      <trkpt lat="44.06622" lon="6.03738">
        <ele>842</ele>
        <time>2024-02-01T13:12:26Z</time>
      </trkpt>
      <trkpt lat="44.0662" lon="6.03721">
        <ele>844</ele>
        <time>2024-02-01T13:12:32Z</time>
      </trkpt>
      <trkpt lat="44.06618" lon="6.03717">
        <ele>838</ele>
        <time>2024-02-01T13:12:38Z</time>
      </trkpt>
      <trkpt lat="44.06616" lon="6.03717">
        <ele>840</ele>
        <time>2024-02-01T13:12:45Z</time>
      </trkpt>
      <trkpt lat="44.06613" lon="6.03724">
        <ele>839</ele>
        <time>2024-02-01T13:12:48Z</time>
      </trkpt>
      <trkpt lat="44.06593" lon="6.0373">
        <ele>488</ele>
        <time>2024-02-01T13:12:54Z</time>
      </trkpt>
      <trkpt lat="44.06573" lon="6.03717">
        <ele>826</ele>
        <time>2024-02-01T13:12:56Z</time>
      </trkpt>
      <trkpt lat="44.06564" lon="6.03712">
        <ele>824</ele>
        <time>2024-02-01T13:12:59Z</time>
      </trkpt>
      <trkpt lat="44.06513" lon="6.0365">
        <ele>488</ele>
        <time>2024-02-01T13:13:08Z</time>
      </trkpt>
      <trkpt lat="44.0648" lon="6.03626">
        <ele>811</ele>
        <time>2024-02-01T13:13:13Z</time>
      </trkpt>
      <trkpt lat="44.0646" lon="6.03624">
        <ele>807</ele>
        <time>2024-02-01T13:13:19Z</time>
      </trkpt>
      <trkpt lat="44.06453" lon="6.03625">
        <ele>821</ele>
        <time>2024-02-01T13:13:25Z</time>
      </trkpt>
      <trkpt lat="44.06452" lon="6.03623">
        <ele>820</ele>
        <time>2024-02-01T13:13:30Z</time>
      </trkpt>
      <trkpt lat="44.06446" lon="6.03617">
        <ele>818</ele>
        <time>2024-02-01T13:13:32Z</time>
      </trkpt>
      <trkpt lat="44.06438" lon="6.03613">
        <ele>818</ele>
        <time>2024-02-01T13:13:36Z</time>
      </trkpt>
      <trkpt lat="44.06428" lon="6.03604">
        <ele>821</ele>
        <time>2024-02-01T13:13:43Z</time>
      </trkpt>
      <trkpt lat="44.06422" lon="6.03599">
        <ele>827</ele>
        <time>2024-02-01T13:13:46Z</time>
      </trkpt>
      <trkpt lat="44.06424" lon="6.03599">
        <ele>827</ele>
        <time>2024-02-01T13:13:49Z</time>
      </trkpt>
      <trkpt lat="44.06401" lon="6.03595">
        <ele>488</ele>
        <time>2024-02-01T13:13:54Z</time>
      </trkpt>
      <trkpt lat="44.06305" lon="6.03608">
        <ele>488</ele>
        <time>2024-02-01T13:14:02Z</time>
      </trkpt>
      <trkpt lat="44.06257" lon="6.0359">
        <ele>488</ele>
        <time>2024-02-01T13:14:08Z</time>
      </trkpt>
      <trkpt lat="44.06249" lon="6.03575">
        <ele>804</ele>
        <time>2024-02-01T13:14:13Z</time>
      </trkpt>
      <trkpt lat="44.06242" lon="6.03562">
        <ele>801</ele>
        <time>2024-02-01T13:14:19Z</time>
      </trkpt>
      <trkpt lat="44.06239" lon="6.03552">
        <ele>803</ele>
        <time>2024-02-01T13:14:26Z</time>
      </trkpt>
      <trkpt lat="44.06232" lon="6.03531">
        <ele>805</ele>
        <time>2024-02-01T13:14:30Z</time>
      </trkpt>
      <trkpt lat="44.06229" lon="6.03525">
        <ele>805</ele>
        <time>2024-02-01T13:14:32Z</time>
      </trkpt>
      <trkpt lat="44.06224" lon="6.03516">
        <ele>805</ele>
        <time>2024-02-01T13:14:36Z</time>
      </trkpt>
      <trkpt lat="44.0622" lon="6.03512">
        <ele>809</ele>
        <time>2024-02-01T13:14:39Z</time>
      </trkpt>
      <trkpt lat="44.06216" lon="6.03508">
        <ele>809</ele>
        <time>2024-02-01T13:14:42Z</time>
      </trkpt>
      <trkpt lat="44.06213" lon="6.03494">
        <ele>805</ele>
        <time>2024-02-01T13:14:45Z</time>
      </trkpt>
      <trkpt lat="44.0621" lon="6.03488">
        <ele>805</ele>
        <time>2024-02-01T13:14:48Z</time>
      </trkpt>
      <trkpt lat="44.06204" lon="6.03481">
        <ele>810</ele>
        <time>2024-02-01T13:14:51Z</time>
      </trkpt>
      <trkpt lat="44.062" lon="6.0348">
        <ele>810</ele>
        <time>2024-02-01T13:14:54Z</time>
      </trkpt>
      <trkpt lat="44.06191" lon="6.035">
        <ele>812</ele>
        <time>2024-02-01T13:15:01Z</time>
      </trkpt>
      <trkpt lat="44.06196" lon="6.0349">
        <ele>807</ele>
        <time>2024-02-01T13:15:07Z</time>
      </trkpt>
      <trkpt lat="44.06197" lon="6.03486">
        <ele>811</ele>
        <time>2024-02-01T13:15:13Z</time>
      </trkpt>
      <trkpt lat="44.06199" lon="6.03484">
        <ele>813</ele>
        <time>2024-02-01T13:15:25Z</time>
      </trkpt>
      <trkpt lat="44.06199" lon="6.0348">
        <ele>812</ele>
        <time>2024-02-01T13:15:37Z</time>
      </trkpt>
      <trkpt lat="44.06198" lon="6.03478">
        <ele>813</ele>
        <time>2024-02-01T13:15:55Z</time>
      </trkpt>
      <trkpt lat="44.06198" lon="6.03475">
        <ele>812</ele>
        <time>2024-02-01T13:16:07Z</time>
      </trkpt>
      <trkpt lat="44.06197" lon="6.03473">
        <ele>814</ele>
        <time>2024-02-01T13:16:13Z</time>
      </trkpt>
      <trkpt lat="44.06195" lon="6.03472">
        <ele>809</ele>
        <time>2024-02-01T13:17:09Z</time>
      </trkpt>
      <trkpt lat="44.06198" lon="6.03474">
        <ele>809</ele>
        <time>2024-02-01T13:17:12Z</time>
      </trkpt>
      <trkpt lat="44.06187" lon="6.03467">
        <ele>813</ele>
        <time>2024-02-01T13:17:15Z</time>
      </trkpt>
      <trkpt lat="44.06178" lon="6.03461">
        <ele>814</ele>
        <time>2024-02-01T13:17:18Z</time>
      </trkpt>
      <trkpt lat="44.06169" lon="6.03455">
        <ele>814</ele>
        <time>2024-02-01T13:17:21Z</time>
      </trkpt>
      <trkpt lat="44.06162" lon="6.0345">
        <ele>814</ele>
        <time>2024-02-01T13:17:24Z</time>
      </trkpt>
      <trkpt lat="44.06152" lon="6.03441">
        <ele>530</ele>
        <time>2024-02-01T13:17:30Z</time>
      </trkpt>
      <trkpt lat="44.06138" lon="6.03425">
        <ele>812</ele>
        <time>2024-02-01T13:17:35Z</time>
      </trkpt>
      <trkpt lat="44.06132" lon="6.03423">
        <ele>808</ele>
        <time>2024-02-01T13:17:38Z</time>
      </trkpt>
      <trkpt lat="44.06121" lon="6.03409">
        <ele>808</ele>
        <time>2024-02-01T13:17:42Z</time>
      </trkpt>
      <trkpt lat="44.06102" lon="6.03392">
        <ele>530</ele>
        <time>2024-02-01T13:17:48Z</time>
      </trkpt>
      <trkpt lat="44.06079" lon="6.03385">
        <ele>802</ele>
        <time>2024-02-01T13:17:54Z</time>
      </trkpt>
      <trkpt lat="44.06051" lon="6.03393">
        <ele>796</ele>
        <time>2024-02-01T13:17:57Z</time>
      </trkpt>
      <trkpt lat="44.06041" lon="6.03398">
        <ele>796</ele>
        <time>2024-02-01T13:18:00Z</time>
      </trkpt>
      <trkpt lat="44.06018" lon="6.03404">
        <ele>812</ele>
        <time>2024-02-01T13:18:06Z</time>
      </trkpt>
      <trkpt lat="44.06004" lon="6.03416">
        <ele>780</ele>
        <time>2024-02-01T13:18:12Z</time>
      </trkpt>
      <trkpt lat="44.05945" lon="6.0344">
        <ele>792</ele>
        <time>2024-02-01T13:18:19Z</time>
      </trkpt>
      <trkpt lat="44.05894" lon="6.03442">
        <ele>794</ele>
        <time>2024-02-01T13:18:25Z</time>
      </trkpt>
      <trkpt lat="44.05852" lon="6.03448">
        <ele>752</ele>
        <time>2024-02-01T13:18:31Z</time>
      </trkpt>
      <trkpt lat="44.05832" lon="6.03447">
        <ele>772</ele>
        <time>2024-02-01T13:18:37Z</time>
      </trkpt>
      <trkpt lat="44.05814" lon="6.0344">
        <ele>746</ele>
        <time>2024-02-01T13:18:43Z</time>
      </trkpt>
      <trkpt lat="44.05804" lon="6.0344">
        <ele>742</ele>
        <time>2024-02-01T13:18:49Z</time>
      </trkpt>
      <trkpt lat="44.058" lon="6.03454">
        <ele>733</ele>
        <time>2024-02-01T13:18:55Z</time>
      </trkpt>
      <trkpt lat="44.05796" lon="6.03461">
        <ele>733</ele>
        <time>2024-02-01T13:19:00Z</time>
      </trkpt>
      <trkpt lat="44.05783" lon="6.03474">
        <ele>726</ele>
        <time>2024-02-01T13:19:02Z</time>
      </trkpt>
      <trkpt lat="44.05775" lon="6.03482">
        <ele>726</ele>
        <time>2024-02-01T13:19:06Z</time>
      </trkpt>
      <trkpt lat="44.05767" lon="6.03484">
        <ele>714</ele>
        <time>2024-02-01T13:19:08Z</time>
      </trkpt>
      <trkpt lat="44.05756" lon="6.03486">
        <ele>714</ele>
        <time>2024-02-01T13:19:12Z</time>
      </trkpt>
      <trkpt lat="44.05752" lon="6.03489">
        <ele>715</ele>
        <time>2024-02-01T13:19:14Z</time>
      </trkpt>
      <trkpt lat="44.05747" lon="6.03488">
        <ele>715</ele>
        <time>2024-02-01T13:19:18Z</time>
      </trkpt>
      <trkpt lat="44.05737" lon="6.03491">
        <ele>712</ele>
        <time>2024-02-01T13:19:21Z</time>
      </trkpt>
      <trkpt lat="44.0574" lon="6.03493">
        <ele>712</ele>
        <time>2024-02-01T13:19:24Z</time>
      </trkpt>
      <trkpt lat="44.0572" lon="6.03507">
        <ele>731</ele>
        <time>2024-02-01T13:19:30Z</time>
      </trkpt>
      <trkpt lat="44.05693" lon="6.03524">
        <ele>702</ele>
        <time>2024-02-01T13:19:36Z</time>
      </trkpt>
      <trkpt lat="44.05679" lon="6.0353">
        <ele>719</ele>
        <time>2024-02-01T13:19:42Z</time>
      </trkpt>
      <trkpt lat="44.05655" lon="6.03522">
        <ele>688</ele>
        <time>2024-02-01T13:19:48Z</time>
      </trkpt>
      <trkpt lat="44.05645" lon="6.03529">
        <ele>682</ele>
        <time>2024-02-01T13:19:51Z</time>
      </trkpt>
      <trkpt lat="44.05643" lon="6.03535">
        <ele>682</ele>
        <time>2024-02-01T13:19:54Z</time>
      </trkpt>
      <trkpt lat="44.05634" lon="6.03537">
        <ele>705</ele>
        <time>2024-02-01T13:20:01Z</time>
      </trkpt>
      <trkpt lat="44.05633" lon="6.03533">
        <ele>700</ele>
        <time>2024-02-01T13:20:25Z</time>
      </trkpt>
      <trkpt lat="44.0563" lon="6.0353">
        <ele>685</ele>
        <time>2024-02-01T13:20:44Z</time>
      </trkpt>
      <trkpt lat="44.05627" lon="6.03531">
        <ele>701</ele>
        <time>2024-02-01T13:21:01Z</time>
      </trkpt>
      <trkpt lat="44.05628" lon="6.03529">
        <ele>699</ele>
        <time>2024-02-01T13:21:07Z</time>
      </trkpt>
      <trkpt lat="44.05632" lon="6.03532">
        <ele>698</ele>
        <time>2024-02-01T13:21:13Z</time>
      </trkpt>
      <trkpt lat="44.05641" lon="6.03549">
        <ele>692</ele>
        <time>2024-02-01T13:21:19Z</time>
      </trkpt>
      <trkpt lat="44.05655" lon="6.03581">
        <ele>695</ele>
        <time>2024-02-01T13:21:25Z</time>
      </trkpt>
      <trkpt lat="44.05661" lon="6.03587">
        <ele>678</ele>
        <time>2024-02-01T13:21:28Z</time>
      </trkpt>
      <trkpt lat="44.05665" lon="6.03593">
        <ele>678</ele>
        <time>2024-02-01T13:21:31Z</time>
      </trkpt>
      <trkpt lat="44.05683" lon="6.03617">
        <ele>691</ele>
        <time>2024-02-01T13:21:36Z</time>
      </trkpt>
      <trkpt lat="44.05696" lon="6.03629">
        <ele>669</ele>
        <time>2024-02-01T13:21:42Z</time>
      </trkpt>
      <trkpt lat="44.05702" lon="6.03641">
        <ele>673</ele>
        <time>2024-02-01T13:21:44Z</time>
      </trkpt>
      <trkpt lat="44.05709" lon="6.03655">
        <ele>673</ele>
        <time>2024-02-01T13:21:48Z</time>
      </trkpt>
      <trkpt lat="44.05694" lon="6.03684">
        <ele>685</ele>
        <time>2024-02-01T13:21:54Z</time>
      </trkpt>
      <trkpt lat="44.05623" lon="6.03719">
        <ele>680</ele>
        <time>2024-02-01T13:22:01Z</time>
      </trkpt>
      <trkpt lat="44.05581" lon="6.03739">
        <ele>680</ele>
        <time>2024-02-01T13:22:07Z</time>
      </trkpt>
      <trkpt lat="44.05547" lon="6.03752">
        <ele>676</ele>
        <time>2024-02-01T13:22:13Z</time>
      </trkpt>
      <trkpt lat="44.05523" lon="6.03759">
        <ele>651</ele>
        <time>2024-02-01T13:22:19Z</time>
      </trkpt>
      <trkpt lat="44.05504" lon="6.03769">
        <ele>657</ele>
        <time>2024-02-01T13:22:25Z</time>
      </trkpt>
      <trkpt lat="44.05489" lon="6.03754">
        <ele>677</ele>
        <time>2024-02-01T13:22:31Z</time>
      </trkpt>
      <trkpt lat="44.05484" lon="6.03731">
        <ele>681</ele>
        <time>2024-02-01T13:22:37Z</time>
      </trkpt>
      <trkpt lat="44.05476" lon="6.03716">
        <ele>692</ele>
        <time>2024-02-01T13:22:43Z</time>
      </trkpt>
      <trkpt lat="44.05474" lon="6.03735">
        <ele>668</ele>
        <time>2024-02-01T13:22:49Z</time>
      </trkpt>
      <trkpt lat="44.05483" lon="6.03751">
        <ele>668</ele>
        <time>2024-02-01T13:22:55Z</time>
      </trkpt>
      <trkpt lat="44.05476" lon="6.03757">
        <ele>644</ele>
        <time>2024-02-01T13:23:02Z</time>
      </trkpt>
      <trkpt lat="44.05465" lon="6.03766">
        <ele>644</ele>
        <time>2024-02-01T13:23:06Z</time>
      </trkpt>
      <trkpt lat="44.05449" lon="6.03763">
        <ele>640</ele>
        <time>2024-02-01T13:23:08Z</time>
      </trkpt>
      <trkpt lat="44.05438" lon="6.03758">
        <ele>640</ele>
        <time>2024-02-01T13:23:11Z</time>
      </trkpt>
      <trkpt lat="44.05432" lon="6.03758">
        <ele>646</ele>
        <time>2024-02-01T13:23:14Z</time>
      </trkpt>
      <trkpt lat="44.05426" lon="6.03759">
        <ele>646</ele>
        <time>2024-02-01T13:23:18Z</time>
      </trkpt>
      <trkpt lat="44.05416" lon="6.03762">
        <ele>626</ele>
        <time>2024-02-01T13:23:24Z</time>
      </trkpt>
      <trkpt lat="44.05406" lon="6.03759">
        <ele>638</ele>
        <time>2024-02-01T13:23:31Z</time>
      </trkpt>
      <trkpt lat="44.05404" lon="6.03759">
        <ele>635</ele>
        <time>2024-02-01T13:23:37Z</time>
      </trkpt>
      <trkpt lat="44.05403" lon="6.03756">
        <ele>629</ele>
        <time>2024-02-01T13:23:42Z</time>
      </trkpt>
      <trkpt lat="44.05398" lon="6.03753">
        <ele>623</ele>
        <time>2024-02-01T13:23:45Z</time>
      </trkpt>
      <trkpt lat="44.05394" lon="6.03754">
        <ele>623</ele>
        <time>2024-02-01T13:23:48Z</time>
      </trkpt>
      <trkpt lat="44.05383" lon="6.03743">
        <ele>619</ele>
        <time>2024-02-01T13:23:51Z</time>
      </trkpt>
      <trkpt lat="44.05373" lon="6.03741">
        <ele>619</ele>
        <time>2024-02-01T13:23:54Z</time>
      </trkpt>
      <trkpt lat="44.05365" lon="6.03741">
        <ele>619</ele>
        <time>2024-02-01T13:23:57Z</time>
      </trkpt>
      <trkpt lat="44.05357" lon="6.03745">
        <ele>619</ele>
        <time>2024-02-01T13:24:00Z</time>
      </trkpt>
      <trkpt lat="44.05343" lon="6.03754">
        <ele>629</ele>
        <time>2024-02-01T13:24:06Z</time>
      </trkpt>
      <trkpt lat="44.05326" lon="6.03772">
        <ele>616</ele>
        <time>2024-02-01T13:24:12Z</time>
      </trkpt>
      <trkpt lat="44.05315" lon="6.03782">
        <ele>609</ele>
        <time>2024-02-01T13:24:15Z</time>
      </trkpt>
      <trkpt lat="44.05308" lon="6.03792">
        <ele>609</ele>
        <time>2024-02-01T13:24:18Z</time>
      </trkpt>
      <trkpt lat="44.05296" lon="6.0379">
        <ele>604</ele>
        <time>2024-02-01T13:24:21Z</time>
      </trkpt>
      <trkpt lat="44.05289" lon="6.03793">
        <ele>603</ele>
        <time>2024-02-01T13:24:24Z</time>
      </trkpt>
      <trkpt lat="44.05275" lon="6.03784">
        <ele>603</ele>
        <time>2024-02-01T13:24:30Z</time>
      </trkpt>
      <trkpt lat="44.05256" lon="6.0378">
        <ele>594</ele>
        <time>2024-02-01T13:24:36Z</time>
      </trkpt>
      <trkpt lat="44.0524" lon="6.0378">
        <ele>589</ele>
        <time>2024-02-01T13:24:39Z</time>
      </trkpt>
      <trkpt lat="44.05233" lon="6.03779">
        <ele>589</ele>
        <time>2024-02-01T13:24:42Z</time>
      </trkpt>
      <trkpt lat="44.05217" lon="6.0378">
        <ele>485</ele>
        <time>2024-02-01T13:24:48Z</time>
      </trkpt>
      <trkpt lat="44.05208" lon="6.03775">
        <ele>580</ele>
        <time>2024-02-01T13:24:54Z</time>
      </trkpt>
      <trkpt lat="44.05203" lon="6.03763">
        <ele>583</ele>
        <time>2024-02-01T13:24:56Z</time>
      </trkpt>
      <trkpt lat="44.05196" lon="6.03756">
        <ele>583</ele>
        <time>2024-02-01T13:25:00Z</time>
      </trkpt>
      <trkpt lat="44.05186" lon="6.03756">
        <ele>578</ele>
        <time>2024-02-01T13:25:03Z</time>
      </trkpt>
      <trkpt lat="44.0518" lon="6.03755">
        <ele>576</ele>
        <time>2024-02-01T13:25:05Z</time>
      </trkpt>
      <trkpt lat="44.0518" lon="6.03745">
        <ele>605</ele>
        <time>2024-02-01T13:25:12Z</time>
      </trkpt>
      <trkpt lat="44.05185" lon="6.03733">
        <ele>569</ele>
        <time>2024-02-01T13:25:18Z</time>
      </trkpt>
      <trkpt lat="44.05185" lon="6.03722">
        <ele>567</ele>
        <time>2024-02-01T13:25:24Z</time>
      </trkpt>
      <trkpt lat="44.05173" lon="6.03712">
        <ele>556</ele>
        <time>2024-02-01T13:25:30Z</time>
      </trkpt>
      <trkpt lat="44.05148" lon="6.03699">
        <ele>485</ele>
        <time>2024-02-01T13:25:36Z</time>
      </trkpt>
      <trkpt lat="44.05141" lon="6.03691">
        <ele>558</ele>
        <time>2024-02-01T13:25:43Z</time>
      </trkpt>
      <trkpt lat="44.05145" lon="6.03694">
        <ele>479</ele>
        <time>2024-02-01T13:25:55Z</time>
      </trkpt>
      <trkpt lat="44.05146" lon="6.03696">
        <ele>524</ele>
        <time>2024-02-01T13:26:07Z</time>
      </trkpt>
      <trkpt lat="44.05144" lon="6.03695">
        <ele>542</ele>
        <time>2024-02-01T13:26:37Z</time>
      </trkpt>
      <trkpt lat="44.05136" lon="6.03689">
        <ele>477</ele>
        <time>2024-02-01T13:26:43Z</time>
      </trkpt>
      <trkpt lat="44.05135" lon="6.03687">
        <ele>555</ele>
        <time>2024-02-01T13:26:50Z</time>
      </trkpt>
      <trkpt lat="44.0513" lon="6.0368">
        <ele>554</ele>
        <time>2024-02-01T13:26:52Z</time>
      </trkpt>
      <trkpt lat="44.05126" lon="6.03682">
        <ele>554</ele>
        <time>2024-02-01T13:26:56Z</time>
      </trkpt>
      <trkpt lat="44.05124" lon="6.03674">
        <ele>477</ele>
        <time>2024-02-01T13:27:00Z</time>
      </trkpt>
      <trkpt lat="44.05118" lon="6.03674">
        <ele>496</ele>
        <time>2024-02-01T13:27:08Z</time>
      </trkpt>
      <trkpt lat="44.05112" lon="6.03672">
        <ele>533</ele>
        <time>2024-02-01T13:27:12Z</time>
      </trkpt>
      <trkpt lat="44.05107" lon="6.03673">
        <ele>520</ele>
        <time>2024-02-01T13:27:17Z</time>
      </trkpt>
      <trkpt lat="44.05103" lon="6.0368">
        <ele>464</ele>
        <time>2024-02-01T13:27:23Z</time>
      </trkpt>
      <trkpt lat="44.05101" lon="6.03664">
        <ele>520</ele>
        <time>2024-02-01T13:27:30Z</time>
      </trkpt>
      <trkpt lat="44.05101" lon="6.03648">
        <ele>508</ele>
        <time>2024-02-01T13:27:36Z</time>
      </trkpt>
      <trkpt lat="44.05094" lon="6.03639">
        <ele>475</ele>
        <time>2024-02-01T13:27:39Z</time>
      </trkpt>
      <trkpt lat="44.05093" lon="6.03631">
        <ele>475</ele>
        <time>2024-02-01T13:27:43Z</time>
      </trkpt>
      <trkpt lat="44.05086" lon="6.03624">
        <ele>479</ele>
        <time>2024-02-01T13:27:46Z</time>
      </trkpt>
      <trkpt lat="44.05084" lon="6.03624">
        <ele>479</ele>
        <time>2024-02-01T13:27:49Z</time>
      </trkpt>
      <trkpt lat="44.05078" lon="6.03622">
        <ele>479</ele>
        <time>2024-02-01T13:27:54Z</time>
      </trkpt>
      <trkpt lat="44.05073" lon="6.03614">
        <ele>474</ele>
        <time>2024-02-01T13:27:58Z</time>
      </trkpt>
      <trkpt lat="44.05073" lon="6.03617">
        <ele>474</ele>
        <time>2024-02-01T13:28:01Z</time>
      </trkpt>
      <trkpt lat="44.05069" lon="6.03612">
        <ele>455</ele>
        <time>2024-02-01T13:28:04Z</time>
      </trkpt>
      <trkpt lat="44.05068" lon="6.03612">
        <ele>467</ele>
        <time>2024-02-01T13:28:07Z</time>
      </trkpt>
      <trkpt lat="44.05058" lon="6.03602">
        <ele>465</ele>
        <time>2024-02-01T13:28:12Z</time>
      </trkpt>
      <trkpt lat="44.05051" lon="6.03601">
        <ele>470</ele>
        <time>2024-02-01T13:28:14Z</time>
      </trkpt>
      <trkpt lat="44.05045" lon="6.03602">
        <ele>469</ele>
        <time>2024-02-01T13:28:18Z</time>
      </trkpt>
      <trkpt lat="44.05043" lon="6.03596">
        <ele>451</ele>
        <time>2024-02-01T13:28:24Z</time>
      </trkpt>
      <trkpt lat="44.05047" lon="6.03583">
        <ele>453</ele>
        <time>2024-02-01T13:28:30Z</time>
      </trkpt>
      <trkpt lat="44.05055" lon="6.03567">
        <ele>483</ele>
        <time>2024-02-01T13:28:36Z</time>
      </trkpt>
      <trkpt lat="44.0505" lon="6.03551">
        <ele>450</ele>
        <time>2024-02-01T13:28:42Z</time>
      </trkpt>
      <trkpt lat="44.05032" lon="6.03553">
        <ele>467</ele>
        <time>2024-02-01T13:28:48Z</time>
      </trkpt>
      <trkpt lat="44.05013" lon="6.03553">
        <ele>441</ele>
        <time>2024-02-01T13:28:54Z</time>
      </trkpt>
      <trkpt lat="44.05004" lon="6.03551">
        <ele>431</ele>
        <time>2024-02-01T13:28:57Z</time>
      </trkpt>
      <trkpt lat="44.05002" lon="6.03551">
        <ele>431</ele>
        <time>2024-02-01T13:29:00Z</time>
      </trkpt>
      <trkpt lat="44.04995" lon="6.03558">
        <ele>440</ele>
        <time>2024-02-01T13:29:06Z</time>
      </trkpt>
      <trkpt lat="44.04986" lon="6.03559">
        <ele>439</ele>
        <time>2024-02-01T13:29:08Z</time>
      </trkpt>
      <trkpt lat="44.04978" lon="6.03558">
        <ele>439</ele>
        <time>2024-02-01T13:29:12Z</time>
      </trkpt>
      <trkpt lat="44.04976" lon="6.03554">
        <ele>446</ele>
        <time>2024-02-01T13:29:15Z</time>
      </trkpt>
      <trkpt lat="44.04975" lon="6.03551">
        <ele>439</ele>
        <time>2024-02-01T13:29:19Z</time>
      </trkpt>
      <trkpt lat="44.04974" lon="6.03543">
        <ele>439</ele>
        <time>2024-02-01T13:29:25Z</time>
      </trkpt>
      <trkpt lat="44.04972" lon="6.0354">
        <ele>444</ele>
        <time>2024-02-01T13:29:37Z</time>
      </trkpt>
      <trkpt lat="44.0497" lon="6.0354">
        <ele>444</ele>
        <time>2024-02-01T13:29:42Z</time>
      </trkpt>
      <trkpt lat="44.04958" lon="6.03536">
        <ele>435</ele>
        <time>2024-02-01T13:29:48Z</time>
      </trkpt>
      <trkpt lat="44.04949" lon="6.03513">
        <ele>448</ele>
        <time>2024-02-01T13:29:54Z</time>
      </trkpt>
      <trkpt lat="44.04926" lon="6.03495">
        <ele>443</ele>
        <time>2024-02-01T13:29:57Z</time>
      </trkpt>
      <trkpt lat="44.04927" lon="6.03483">
        <ele>443</ele>
        <time>2024-02-01T13:30:00Z</time>
      </trkpt>
      <trkpt lat="44.04893" lon="6.03472">
        <ele>439</ele>
        <time>2024-02-01T13:30:06Z</time>
      </trkpt>
      <trkpt lat="44.04885" lon="6.03452">
        <ele>426</ele>
        <time>2024-02-01T13:30:12Z</time>
      </trkpt>
      <trkpt lat="44.04873" lon="6.03432">
        <ele>291</ele>
        <time>2024-02-01T13:30:18Z</time>
      </trkpt>
      <trkpt lat="44.04867" lon="6.03413">
        <ele>438</ele>
        <time>2024-02-01T13:30:24Z</time>
      </trkpt>
      <trkpt lat="44.04857" lon="6.03399">
        <ele>468</ele>
        <time>2024-02-01T13:30:30Z</time>
      </trkpt>
      <trkpt lat="44.04843" lon="6.0337">
        <ele>487</ele>
        <time>2024-02-01T13:30:36Z</time>
      </trkpt>
      <trkpt lat="44.04863" lon="6.0334">
        <ele>473</ele>
        <time>2024-02-01T13:30:42Z</time>
      </trkpt>
      <trkpt lat="44.0485" lon="6.03301">
        <ele>478</ele>
        <time>2024-02-01T13:30:49Z</time>
      </trkpt>
      <trkpt lat="44.04828" lon="6.03239">
        <ele>484</ele>
        <time>2024-02-01T13:30:55Z</time>
      </trkpt>
      <trkpt lat="44.04827" lon="6.03231">
        <ele>482</ele>
        <time>2024-02-01T13:30:58Z</time>
      </trkpt>
      <trkpt lat="44.0482" lon="6.0322">
        <ele>464</ele>
        <time>2024-02-01T13:31:02Z</time>
      </trkpt>
      <trkpt lat="44.04816" lon="6.03219">
        <ele>484</ele>
        <time>2024-02-01T13:31:06Z</time>
      </trkpt>
      <trkpt lat="44.04792" lon="6.03205">
        <ele>484</ele>
        <time>2024-02-01T13:31:09Z</time>
      </trkpt>
      <trkpt lat="44.0478" lon="6.03197">
        <ele>484</ele>
        <time>2024-02-01T13:31:12Z</time>
      </trkpt>
      <trkpt lat="44.0475" lon="6.03168">
        <ele>480</ele>
        <time>2024-02-01T13:31:15Z</time>
      </trkpt>
      <trkpt lat="44.0473" lon="6.03149">
        <ele>480</ele>
        <time>2024-02-01T13:31:19Z</time>
      </trkpt>
      <trkpt lat="44.04732" lon="6.03155">
        <ele>482</ele>
        <time>2024-02-01T13:31:24Z</time>
      </trkpt>
      <trkpt lat="44.0469" lon="6.03146">
        <ele>483</ele>
        <time>2024-02-01T13:31:34Z</time>
      </trkpt>
      <trkpt lat="44.04683" lon="6.03147">
        <ele>483</ele>
        <time>2024-02-01T13:31:36Z</time>
      </trkpt>
      <trkpt lat="44.04681" lon="6.03154">
        <ele>483</ele>
        <time>2024-02-01T13:31:42Z</time>
      </trkpt>
      <trkpt lat="44.04674" lon="6.03173">
        <ele>483</ele>
        <time>2024-02-01T13:31:48Z</time>
      </trkpt>
      <trkpt lat="44.04668" lon="6.03197">
        <ele>483</ele>
        <time>2024-02-01T13:31:54Z</time>
      </trkpt>
      <trkpt lat="44.04662" lon="6.03212">
        <ele>483</ele>
        <time>2024-02-01T13:32:00Z</time>
      </trkpt>
      <trkpt lat="44.0466" lon="6.03236">
        <ele>485</ele>
        <time>2024-02-01T13:32:06Z</time>
      </trkpt>
      <trkpt lat="44.04656" lon="6.03271">
        <ele>485</ele>
        <time>2024-02-01T13:32:08Z</time>
      </trkpt>
      <trkpt lat="44.04655" lon="6.03282">
        <ele>485</ele>
        <time>2024-02-01T13:32:12Z</time>
      </trkpt>
      <trkpt lat="44.04658" lon="6.033">
        <ele>485</ele>
        <time>2024-02-01T13:32:18Z</time>
      </trkpt>
      <trkpt lat="44.04645" lon="6.03325">
        <ele>485</ele>
        <time>2024-02-01T13:32:30Z</time>
      </trkpt>
      <trkpt lat="44.0464" lon="6.03244">
        <ele>485</ele>
        <time>2024-02-01T13:32:43Z</time>
      </trkpt>
      <trkpt lat="44.04623" lon="6.03235">
        <ele>485</ele>
        <time>2024-02-01T13:32:49Z</time>
      </trkpt>
      <trkpt lat="44.04615" lon="6.03236">
        <ele>485</ele>
        <time>2024-02-01T13:32:55Z</time>
      </trkpt>
      <trkpt lat="44.04611" lon="6.03235">
        <ele>485</ele>
        <time>2024-02-01T13:33:01Z</time>
      </trkpt>
      <trkpt lat="44.04607" lon="6.03234">
        <ele>484</ele>
        <time>2024-02-01T13:33:06Z</time>
      </trkpt>
      <trkpt lat="44.04591" lon="6.03226">
        <ele>486</ele>
        <time>2024-02-01T13:33:12Z</time>
      </trkpt>
      <trkpt lat="44.04579" lon="6.0322">
        <ele>485</ele>
        <time>2024-02-01T13:33:19Z</time>
      </trkpt>
      <trkpt lat="44.04577" lon="6.03212">
        <ele>484</ele>
        <time>2024-02-01T13:33:24Z</time>
      </trkpt>
      <trkpt lat="44.0456" lon="6.03203">
        <ele>484</ele>
        <time>2024-02-01T13:33:26Z</time>
      </trkpt>
      <trkpt lat="44.04551" lon="6.03198">
        <ele>484</ele>
        <time>2024-02-01T13:33:29Z</time>
      </trkpt>
      <trkpt lat="44.04532" lon="6.03177">
        <ele>484</ele>
        <time>2024-02-01T13:33:32Z</time>
      </trkpt>
      <trkpt lat="44.04518" lon="6.03159">
        <ele>484</ele>
        <time>2024-02-01T13:33:36Z</time>
      </trkpt>
      <trkpt lat="44.04498" lon="6.0314">
        <ele>484</ele>
        <time>2024-02-01T13:33:42Z</time>
      </trkpt>
      <trkpt lat="44.04499" lon="6.03133">
        <ele>484</ele>
        <time>2024-02-01T13:33:46Z</time>
      </trkpt>
      <trkpt lat="44.04486" lon="6.03119">
        <ele>480</ele>
        <time>2024-02-01T13:33:57Z</time>
      </trkpt>
      <trkpt lat="44.04478" lon="6.03111">
        <ele>481</ele>
        <time>2024-02-01T13:34:00Z</time>
      </trkpt>
      <trkpt lat="44.04452" lon="6.03115">
        <ele>482</ele>
        <time>2024-02-01T13:34:06Z</time>
      </trkpt>
      <trkpt lat="44.04432" lon="6.03086">
        <ele>484</ele>
        <time>2024-02-01T13:34:09Z</time>
      </trkpt>
      <trkpt lat="44.04427" lon="6.03081">
        <ele>484</ele>
        <time>2024-02-01T13:34:13Z</time>
      </trkpt>
      <trkpt lat="44.04392" lon="6.03085">
        <ele>489</ele>
        <time>2024-02-01T13:34:19Z</time>
      </trkpt>
      <trkpt lat="44.04382" lon="6.03086">
        <ele>484</ele>
        <time>2024-02-01T13:34:24Z</time>
      </trkpt>
      <trkpt lat="44.04369" lon="6.0305">
        <ele>484</ele>
        <time>2024-02-01T13:34:30Z</time>
      </trkpt>
      <trkpt lat="44.04363" lon="6.03032">
        <ele>484</ele>
        <time>2024-02-01T13:34:36Z</time>
      </trkpt>
      <trkpt lat="44.04362" lon="6.0302">
        <ele>481</ele>
        <time>2024-02-01T13:34:39Z</time>
      </trkpt>
      <trkpt lat="44.04362" lon="6.03006">
        <ele>481</ele>
        <time>2024-02-01T13:34:42Z</time>
      </trkpt>
      <trkpt lat="44.04365" lon="6.02948">
        <ele>484</ele>
        <time>2024-02-01T13:34:45Z</time>
      </trkpt>
      <trkpt lat="44.04369" lon="6.02934">
        <ele>484</ele>
        <time>2024-02-01T13:34:48Z</time>
      </trkpt>
      <trkpt lat="44.0437" lon="6.02926">
        <ele>484</ele>
        <time>2024-02-01T13:34:54Z</time>
      </trkpt>
      <trkpt lat="44.04375" lon="6.02914">
        <ele>482</ele>
        <time>2024-02-01T13:35:00Z</time>
      </trkpt>
      <trkpt lat="44.04381" lon="6.02909">
        <ele>482</ele>
        <time>2024-02-01T13:35:06Z</time>
      </trkpt>
      <trkpt lat="44.04383" lon="6.02907">
        <ele>482</ele>
        <time>2024-02-01T13:35:12Z</time>
      </trkpt>
      <trkpt lat="44.04385" lon="6.02906">
        <ele>484</ele>
        <time>2024-02-01T13:35:19Z</time>
      </trkpt>
      <trkpt lat="44.04387" lon="6.02907">
        <ele>482</ele>
        <time>2024-02-01T13:35:25Z</time>
      </trkpt>
      <trkpt lat="44.04389" lon="6.02907">
        <ele>482</ele>
        <time>2024-02-01T13:35:31Z</time>
      </trkpt>
      <trkpt lat="44.04394" lon="6.02904">
        <ele>481</ele>
        <time>2024-02-01T13:35:44Z</time>
      </trkpt>
      <trkpt lat="44.04399" lon="6.02904">
        <ele>482</ele>
        <time>2024-02-01T13:35:55Z</time>
      </trkpt>
      <trkpt lat="44.044" lon="6.02907">
        <ele>482</ele>
        <time>2024-02-01T13:36:13Z</time>
      </trkpt>
      <trkpt lat="44.04397" lon="6.02907">
        <ele>481</ele>
        <time>2024-02-01T13:36:25Z</time>
      </trkpt>
      <trkpt lat="44.044" lon="6.02915">
        <ele>479</ele>
        <time>2024-02-01T13:36:43Z</time>
      </trkpt>
      <trkpt lat="44.04398" lon="6.0291">
        <ele>482</ele>
        <time>2024-02-01T13:37:01Z</time>
      </trkpt>
      <trkpt lat="44.04397" lon="6.02905">
        <ele>482</ele>
        <time>2024-02-01T13:37:13Z</time>
      </trkpt>
      <trkpt lat="44.044" lon="6.02903">
        <ele>482</ele>
        <time>2024-02-01T13:37:31Z</time>
      </trkpt>
      <trkpt lat="44.04402" lon="6.02902">
        <ele>482</ele>
        <time>2024-02-01T13:37:37Z</time>
      </trkpt>
      <trkpt lat="44.04398" lon="6.02904">
        <ele>483</ele>
        <time>2024-02-01T13:37:55Z</time>
      </trkpt>
      <trkpt lat="44.04394" lon="6.02904">
        <ele>482</ele>
        <time>2024-02-01T13:38:01Z</time>
      </trkpt>
      <trkpt lat="44.04397" lon="6.02907">
        <ele>482</ele>
        <time>2024-02-01T13:38:13Z</time>
      </trkpt>
      <trkpt lat="44.04396" lon="6.02903">
        <ele>483</ele>
        <time>2024-02-01T13:38:16Z</time>
      </trkpt>
      <trkpt lat="44.04399" lon="6.02904">
        <ele>482</ele>
        <time>2024-02-01T13:38:25Z</time>
      </trkpt>
      <trkpt lat="44.04399" lon="6.02909">
        <ele>482</ele>
        <time>2024-02-01T13:38:31Z</time>
      </trkpt>
      <trkpt lat="44.044" lon="6.02911">
        <ele>486</ele>
        <time>2024-02-01T13:38:36Z</time>
      </trkpt>
      <trkpt lat="44.044" lon="6.02908">
        <ele>484</ele>
        <time>2024-02-01T13:38:43Z</time>
      </trkpt>
      <trkpt lat="44.04405" lon="6.02904">
        <ele>482</ele>
        <time>2024-02-01T13:38:49Z</time>
      </trkpt>
      <trkpt lat="44.044" lon="6.02901">
        <ele>481</ele>
        <time>2024-02-01T13:39:01Z</time>
      </trkpt>
      <trkpt lat="44.04407" lon="6.02902">
        <ele>482</ele>
        <time>2024-02-01T13:39:13Z</time>
      </trkpt>
      <trkpt lat="44.04406" lon="6.029">
        <ele>481</ele>
        <time>2024-02-01T13:39:25Z</time>
      </trkpt>
      <trkpt lat="44.04404" lon="6.02901">
        <ele>482</ele>
        <time>2024-02-01T13:39:37Z</time>
      </trkpt>
      <trkpt lat="44.04397" lon="6.02902">
        <ele>482</ele>
        <time>2024-02-01T13:39:43Z</time>
      </trkpt>
      <trkpt lat="44.04396" lon="6.02903">
        <ele>482</ele>
        <time>2024-02-01T13:39:50Z</time>
      </trkpt>
      <trkpt lat="44.04394" lon="6.02906">
        <ele>482</ele>
        <time>2024-02-01T13:39:59Z</time>
      </trkpt>
      <trkpt lat="44.04393" lon="6.02908">
        <ele>482</ele>
        <time>2024-02-01T13:40:07Z</time>
      </trkpt>
      <trkpt lat="44.04395" lon="6.02911">
        <ele>482</ele>
        <time>2024-02-01T13:40:20Z</time>
      </trkpt>
      <trkpt lat="44.04398" lon="6.02901">
        <ele>482</ele>
        <time>2024-02-01T13:40:27Z</time>
      </trkpt>
      <trkpt lat="44.04405" lon="6.02899">
        <ele>482</ele>
        <time>2024-02-01T13:40:51Z</time>
      </trkpt>
      <trkpt lat="44.04402" lon="6.02904">
        <ele>483</ele>
        <time>2024-02-01T13:41:03Z</time>
      </trkpt>
      <trkpt lat="44.04395" lon="6.02905">
        <ele>482</ele>
        <time>2024-02-01T13:41:09Z</time>
      </trkpt>
      <trkpt lat="44.04391" lon="6.02907">
        <ele>481</ele>
        <time>2024-02-01T13:41:15Z</time>
      </trkpt>
      <trkpt lat="44.0439" lon="6.0291">
        <ele>482</ele>
        <time>2024-02-01T13:41:20Z</time>
      </trkpt>
      <trkpt lat="44.04389" lon="6.02915">
        <ele>482</ele>
        <time>2024-02-01T13:41:28Z</time>
      </trkpt>
      <trkpt lat="44.0439" lon="6.02913">
        <ele>482</ele>
        <time>2024-02-01T13:41:33Z</time>
      </trkpt>
      <trkpt lat="44.04407" lon="6.029">
        <ele>482</ele>
        <time>2024-02-01T13:41:39Z</time>
      </trkpt>
      <trkpt lat="44.04403" lon="6.02898">
        <ele>482</ele>
        <time>2024-02-01T13:41:45Z</time>
      </trkpt>
      <trkpt lat="44.044" lon="6.02901">
        <ele>482</ele>
        <time>2024-02-01T13:41:51Z</time>
      </trkpt>
      <trkpt lat="44.04399" lon="6.02905">
        <ele>482</ele>
        <time>2024-02-01T13:41:57Z</time>
      </trkpt>
      <trkpt lat="44.04399" lon="6.02908">
        <ele>482</ele>
        <time>2024-02-01T13:42:01Z</time>
      </trkpt>
      <trkpt lat="44.044" lon="6.02902">
        <ele>482</ele>
        <time>2024-02-01T13:42:09Z</time>
      </trkpt>
      <trkpt lat="44.04402" lon="6.02901">
        <ele>482</ele>
        <time>2024-02-01T13:42:20Z</time>
      </trkpt>
      <trkpt lat="44.04402" lon="6.02906">
        <ele>482</ele>
        <time>2024-02-01T13:42:27Z</time>
      </trkpt>
      <trkpt lat="44.04404" lon="6.02905">
        <ele>482</ele>
        <time>2024-02-01T13:42:39Z</time>
      </trkpt>
      <trkpt lat="44.04402" lon="6.02906">
        <ele>479</ele>
        <time>2024-02-01T13:43:11Z</time>
      </trkpt>
      <trkpt lat="44.04404" lon="6.02909">
        <ele>481</ele>
        <time>2024-02-01T13:43:23Z</time>
      </trkpt>
      <trkpt lat="44.04408" lon="6.02907">
        <ele>481</ele>
        <time>2024-02-01T13:43:48Z</time>
      </trkpt>
      <trkpt lat="44.04409" lon="6.02904">
        <ele>482</ele>
        <time>2024-02-01T13:43:52Z</time>
      </trkpt>
      <trkpt lat="44.0441" lon="6.02899">
        <ele>482</ele>
        <time>2024-02-01T13:43:58Z</time>
      </trkpt>
      <trkpt lat="44.04326" lon="6.03003">
        <ele>484</ele>
        <time>2024-02-01T13:44:11Z</time>
      </trkpt>
      <trkpt lat="44.04307" lon="6.03029">
        <ele>484</ele>
        <time>2024-02-01T13:44:18Z</time>
      </trkpt>
      <trkpt lat="44.04346" lon="6.03056">
        <ele>484</ele>
        <time>2024-02-01T13:44:23Z</time>
      </trkpt>
      <trkpt lat="44.04396" lon="6.03076">
        <ele>484</ele>
        <time>2024-02-01T13:44:29Z</time>
      </trkpt>
      <trkpt lat="44.04438" lon="6.03066">
        <ele>484</ele>
        <time>2024-02-01T13:44:36Z</time>
      </trkpt>
      <trkpt lat="44.04457" lon="6.03069">
        <ele>479</ele>
        <time>2024-02-01T13:44:41Z</time>
      </trkpt>
      <trkpt lat="44.04486" lon="6.03081">
        <ele>479</ele>
        <time>2024-02-01T13:44:47Z</time>
      </trkpt>
      <trkpt lat="44.04508" lon="6.03115">
        <ele>482</ele>
        <time>2024-02-01T13:44:53Z</time>
      </trkpt>
      <trkpt lat="44.04528" lon="6.03135">
        <ele>479</ele>
        <time>2024-02-01T13:44:59Z</time>
      </trkpt>
      <trkpt lat="44.04555" lon="6.03178">
        <ele>482</ele>
        <time>2024-02-01T13:45:06Z</time>
      </trkpt>
      <trkpt lat="44.0459" lon="6.03224">
        <ele>483</ele>
        <time>2024-02-01T13:45:11Z</time>
      </trkpt>
      <trkpt lat="44.04621" lon="6.03243">
        <ele>480</ele>
        <time>2024-02-01T13:45:18Z</time>
      </trkpt>
      <trkpt lat="44.04636" lon="6.03238">
        <ele>480</ele>
        <time>2024-02-01T13:45:23Z</time>
      </trkpt>
    </trkseg>
  </trk>
</gpx>